<?xml version="1.0" encoding="UTF-8" standalone="no" ?>
<gpx xmlns="http://www.topografix.com/GPX/1/1" xmlns:xsi="http://www.w3.org/2001/XMLSchema-instance" xsi:schemaLocation="http://www.topografix.com/GPX/1/1 http://www.topografix.com/GPX/1/1/gpx.xsd" version="1.1" creator="VisuGPX - https://www.visugpx.com">
  <metadata>
    <name>Boucle Sarlat 2016</name>
  </metadata>
  <trk>
    <name><![CDATA[Jour 1 (3 juin 2016)]]></name>
    <trkseg>
      <trkpt lat="44.85732" lon="1.23705">
        <ele>144</ele>
        <time>2019-02-01T19:24:28.000Z</time>
      </trkpt>
      <trkpt lat="44.85732" lon="1.23705">
        <ele>144</ele>
        <time>2019-02-01T19:24:28.000Z</time>
      </trkpt>
      <trkpt lat="44.85732" lon="1.23705">
        <ele>144</ele>
        <time>2019-02-01T19:24:28.000Z</time>
      </trkpt>
      <trkpt lat="44.85774" lon="1.2374">
        <ele>141</ele>
        <time>2019-02-01T19:25:28.000Z</time>
      </trkpt>
      <trkpt lat="44.85811" lon="1.23835">
        <ele>136</ele>
        <time>2019-02-01T19:26:28.000Z</time>
      </trkpt>
      <trkpt lat="44.85896" lon="1.23818">
        <ele>136</ele>
        <time>2019-02-01T19:27:28.000Z</time>
      </trkpt>
      <trkpt lat="44.85986" lon="1.23793">
        <ele>135</ele>
        <time>2019-02-01T19:28:28.000Z</time>
      </trkpt>
      <trkpt lat="44.86074" lon="1.23808">
        <ele>135</ele>
        <time>2019-02-01T19:29:28.000Z</time>
      </trkpt>
      <trkpt lat="44.86122" lon="1.2383">
        <ele>133</ele>
        <time>2019-02-01T19:30:28.000Z</time>
      </trkpt>
      <trkpt lat="44.86119" lon="1.23809">
        <ele>134</ele>
        <time>2019-02-01T19:31:28.000Z</time>
      </trkpt>
      <trkpt lat="44.8605" lon="1.23793">
        <ele>135</ele>
        <time>2019-02-01T19:32:28.000Z</time>
      </trkpt>
      <trkpt lat="44.85943" lon="1.23807">
        <ele>135</ele>
        <time>2019-02-01T19:33:28.000Z</time>
      </trkpt>
      <trkpt lat="44.85869" lon="1.23828">
        <ele>136</ele>
        <time>2019-02-01T19:34:28.000Z</time>
      </trkpt>
      <trkpt lat="44.85809" lon="1.23819">
        <ele>137</ele>
        <time>2019-02-01T19:35:28.000Z</time>
      </trkpt>
      <trkpt lat="44.85853" lon="1.23847">
        <ele>136</ele>
        <time>2019-02-01T19:36:28.000Z</time>
      </trkpt>
      <trkpt lat="44.85922" lon="1.23816">
        <ele>135</ele>
        <time>2019-02-01T19:37:28.000Z</time>
      </trkpt>
      <trkpt lat="44.85991" lon="1.23785">
        <ele>135</ele>
        <time>2019-02-01T19:38:28.000Z</time>
      </trkpt>
      <trkpt lat="44.86068" lon="1.23807">
        <ele>135</ele>
        <time>2019-02-01T19:39:28.000Z</time>
      </trkpt>
      <trkpt lat="44.86127" lon="1.23844">
        <ele>133</ele>
        <time>2019-02-01T19:40:28.000Z</time>
      </trkpt>
      <trkpt lat="44.86192" lon="1.23976">
        <ele>129</ele>
        <time>2019-02-01T19:41:28.000Z</time>
      </trkpt>
      <trkpt lat="44.86232" lon="1.24058">
        <ele>129</ele>
        <time>2019-02-01T19:42:28.000Z</time>
      </trkpt>
      <trkpt lat="44.86271" lon="1.2416">
        <ele>130</ele>
        <time>2019-02-01T19:43:28.000Z</time>
      </trkpt>
      <trkpt lat="44.8631" lon="1.2424">
        <ele>135</ele>
        <time>2019-02-01T19:44:28.000Z</time>
      </trkpt>
      <trkpt lat="44.86341" lon="1.24285">
        <ele>138</ele>
        <time>2019-02-01T19:45:28.000Z</time>
      </trkpt>
      <trkpt lat="44.86367" lon="1.24333">
        <ele>142</ele>
        <time>2019-02-01T19:46:28.000Z</time>
      </trkpt>
      <trkpt lat="44.86385" lon="1.24397">
        <ele>147</ele>
        <time>2019-02-01T19:47:28.000Z</time>
      </trkpt>
      <trkpt lat="44.86399" lon="1.24448">
        <ele>148</ele>
        <time>2019-02-01T19:48:28.000Z</time>
      </trkpt>
      <trkpt lat="44.86429" lon="1.2456">
        <ele>144</ele>
        <time>2019-02-01T19:49:28.000Z</time>
      </trkpt>
      <trkpt lat="44.8648" lon="1.24782">
        <ele>136</ele>
        <time>2019-02-01T19:50:28.000Z</time>
      </trkpt>
      <trkpt lat="44.86451" lon="1.24875">
        <ele>133</ele>
        <time>2019-02-01T19:51:28.000Z</time>
      </trkpt>
      <trkpt lat="44.86437" lon="1.24932">
        <ele>130</ele>
        <time>2019-02-01T19:52:28.000Z</time>
      </trkpt>
      <trkpt lat="44.8642" lon="1.24939">
        <ele>129</ele>
        <time>2019-02-01T19:53:28.000Z</time>
      </trkpt>
      <trkpt lat="44.86325" lon="1.24987">
        <ele>128</ele>
        <time>2019-02-01T19:54:28.000Z</time>
      </trkpt>
      <trkpt lat="44.86234" lon="1.25035">
        <ele>134</ele>
        <time>2019-02-01T19:55:28.000Z</time>
      </trkpt>
      <trkpt lat="44.86114" lon="1.25085">
        <ele>129</ele>
        <time>2019-02-01T19:56:28.000Z</time>
      </trkpt>
      <trkpt lat="44.85997" lon="1.25154">
        <ele>121</ele>
        <time>2019-02-01T19:57:28.000Z</time>
      </trkpt>
      <trkpt lat="44.85884" lon="1.25249">
        <ele>125</ele>
        <time>2019-02-01T19:58:28.000Z</time>
      </trkpt>
      <trkpt lat="44.85788" lon="1.25399">
        <ele>125</ele>
        <time>2019-02-01T19:59:28.000Z</time>
      </trkpt>
      <trkpt lat="44.85707" lon="1.2553">
        <ele>124</ele>
        <time>2019-02-01T20:00:28.000Z</time>
      </trkpt>
      <trkpt lat="44.85612" lon="1.25651">
        <ele>120</ele>
        <time>2019-02-01T20:01:28.000Z</time>
      </trkpt>
      <trkpt lat="44.85511" lon="1.25783">
        <ele>110</ele>
        <time>2019-02-01T20:02:28.000Z</time>
      </trkpt>
      <trkpt lat="44.8544" lon="1.2591">
        <ele>116</ele>
        <time>2019-02-01T20:03:28.000Z</time>
      </trkpt>
      <trkpt lat="44.85355" lon="1.26038">
        <ele>119</ele>
        <time>2019-02-01T20:04:28.000Z</time>
      </trkpt>
      <trkpt lat="44.8529" lon="1.26242">
        <ele>123</ele>
        <time>2019-02-01T20:05:28.000Z</time>
      </trkpt>
      <trkpt lat="44.85293" lon="1.26445">
        <ele>113</ele>
        <time>2019-02-01T20:06:28.000Z</time>
      </trkpt>
      <trkpt lat="44.85296" lon="1.26605">
        <ele>111</ele>
        <time>2019-02-01T20:07:28.000Z</time>
      </trkpt>
      <trkpt lat="44.85318" lon="1.26799">
        <ele>107</ele>
        <time>2019-02-01T20:08:28.000Z</time>
      </trkpt>
      <trkpt lat="44.85295" lon="1.2696">
        <ele>109</ele>
        <time>2019-02-01T20:09:28.000Z</time>
      </trkpt>
      <trkpt lat="44.85199" lon="1.27131">
        <ele>103</ele>
        <time>2019-02-01T20:10:28.000Z</time>
      </trkpt>
      <trkpt lat="44.85088" lon="1.27218">
        <ele>101</ele>
        <time>2019-02-01T20:11:28.000Z</time>
      </trkpt>
      <trkpt lat="44.84954" lon="1.27276">
        <ele>90</ele>
        <time>2019-02-01T20:12:28.000Z</time>
      </trkpt>
      <trkpt lat="44.84864" lon="1.27333">
        <ele>86</ele>
        <time>2019-02-01T20:13:28.000Z</time>
      </trkpt>
      <trkpt lat="44.84765" lon="1.27375">
        <ele>94</ele>
        <time>2019-02-01T20:14:28.000Z</time>
      </trkpt>
      <trkpt lat="44.84674" lon="1.27456">
        <ele>102</ele>
        <time>2019-02-01T20:15:28.000Z</time>
      </trkpt>
      <trkpt lat="44.8459" lon="1.27501">
        <ele>98</ele>
        <time>2019-02-01T20:16:28.000Z</time>
      </trkpt>
      <trkpt lat="44.84494" lon="1.27535">
        <ele>100</ele>
        <time>2019-02-01T20:17:28.000Z</time>
      </trkpt>
      <trkpt lat="44.84395" lon="1.27532">
        <ele>99</ele>
        <time>2019-02-01T20:18:28.000Z</time>
      </trkpt>
      <trkpt lat="44.84306" lon="1.27542">
        <ele>100</ele>
        <time>2019-02-01T20:19:28.000Z</time>
      </trkpt>
      <trkpt lat="44.842" lon="1.2758">
        <ele>104</ele>
        <time>2019-02-01T20:20:28.000Z</time>
      </trkpt>
      <trkpt lat="44.84119" lon="1.27582">
        <ele>97</ele>
        <time>2019-02-01T20:21:28.000Z</time>
      </trkpt>
      <trkpt lat="44.84036" lon="1.27611">
        <ele>97</ele>
        <time>2019-02-01T20:22:28.000Z</time>
      </trkpt>
      <trkpt lat="44.83942" lon="1.27588">
        <ele>91</ele>
        <time>2019-02-01T20:23:28.000Z</time>
      </trkpt>
      <trkpt lat="44.8386" lon="1.27565">
        <ele>92</ele>
        <time>2019-02-01T20:24:28.000Z</time>
      </trkpt>
      <trkpt lat="44.83782" lon="1.27523">
        <ele>95</ele>
        <time>2019-02-01T20:25:28.000Z</time>
      </trkpt>
      <trkpt lat="44.83723" lon="1.27502">
        <ele>100</ele>
        <time>2019-02-01T20:26:28.000Z</time>
      </trkpt>
      <trkpt lat="44.83633" lon="1.27463">
        <ele>106</ele>
        <time>2019-02-01T20:27:28.000Z</time>
      </trkpt>
      <trkpt lat="44.83544" lon="1.27427">
        <ele>103</ele>
        <time>2019-02-01T20:28:28.000Z</time>
      </trkpt>
      <trkpt lat="44.83467" lon="1.27388">
        <ele>98</ele>
        <time>2019-02-01T20:29:28.000Z</time>
      </trkpt>
      <trkpt lat="44.83377" lon="1.2735">
        <ele>99</ele>
        <time>2019-02-01T20:30:28.000Z</time>
      </trkpt>
      <trkpt lat="44.83286" lon="1.27327">
        <ele>99</ele>
        <time>2019-02-01T20:31:28.000Z</time>
      </trkpt>
      <trkpt lat="44.83221" lon="1.27324">
        <ele>98</ele>
        <time>2019-02-01T20:32:28.000Z</time>
      </trkpt>
      <trkpt lat="44.83135" lon="1.27364">
        <ele>98</ele>
        <time>2019-02-01T20:33:28.000Z</time>
      </trkpt>
      <trkpt lat="44.83041" lon="1.27452">
        <ele>99</ele>
        <time>2019-02-01T20:34:28.000Z</time>
      </trkpt>
      <trkpt lat="44.82977" lon="1.27574">
        <ele>102</ele>
        <time>2019-02-01T20:35:28.000Z</time>
      </trkpt>
      <trkpt lat="44.8292" lon="1.27706">
        <ele>104</ele>
        <time>2019-02-01T20:36:28.000Z</time>
      </trkpt>
      <trkpt lat="44.82855" lon="1.27828">
        <ele>102</ele>
        <time>2019-02-01T20:37:28.000Z</time>
      </trkpt>
      <trkpt lat="44.82813" lon="1.27972">
        <ele>101</ele>
        <time>2019-02-01T20:38:28.000Z</time>
      </trkpt>
      <trkpt lat="44.82741" lon="1.28087">
        <ele>89</ele>
        <time>2019-02-01T20:39:28.000Z</time>
      </trkpt>
      <trkpt lat="44.8269" lon="1.28167">
        <ele>83</ele>
        <time>2019-02-01T20:40:28.000Z</time>
      </trkpt>
      <trkpt lat="44.82667" lon="1.28192">
        <ele>81</ele>
        <time>2019-02-01T20:41:28.000Z</time>
      </trkpt>
      <trkpt lat="44.82676" lon="1.2818">
        <ele>81</ele>
        <time>2019-02-01T20:42:28.000Z</time>
      </trkpt>
      <trkpt lat="44.82685" lon="1.28178">
        <ele>82</ele>
        <time>2019-02-01T20:43:28.000Z</time>
      </trkpt>
      <trkpt lat="44.82708" lon="1.28147">
        <ele>84</ele>
        <time>2019-02-01T20:44:28.000Z</time>
      </trkpt>
      <trkpt lat="44.82724" lon="1.28124">
        <ele>86</ele>
        <time>2019-02-01T20:45:28.000Z</time>
      </trkpt>
      <trkpt lat="44.8274" lon="1.28097">
        <ele>89</ele>
        <time>2019-02-01T20:46:28.000Z</time>
      </trkpt>
      <trkpt lat="44.82756" lon="1.28078">
        <ele>92</ele>
        <time>2019-02-01T20:47:28.000Z</time>
      </trkpt>
      <trkpt lat="44.82763" lon="1.28063">
        <ele>93</ele>
        <time>2019-02-01T20:48:28.000Z</time>
      </trkpt>
      <trkpt lat="44.82774" lon="1.28066">
        <ele>95</ele>
        <time>2019-02-01T20:49:28.000Z</time>
      </trkpt>
      <trkpt lat="44.82785" lon="1.28075">
        <ele>98</ele>
        <time>2019-02-01T20:50:28.000Z</time>
      </trkpt>
      <trkpt lat="44.82797" lon="1.28089">
        <ele>100</ele>
        <time>2019-02-01T20:51:28.000Z</time>
      </trkpt>
      <trkpt lat="44.82809" lon="1.28109">
        <ele>103</ele>
        <time>2019-02-01T20:52:28.000Z</time>
      </trkpt>
      <trkpt lat="44.82804" lon="1.28141">
        <ele>103</ele>
        <time>2019-02-01T20:53:28.000Z</time>
      </trkpt>
      <trkpt lat="44.828" lon="1.28175">
        <ele>102</ele>
        <time>2019-02-01T20:54:28.000Z</time>
      </trkpt>
      <trkpt lat="44.82801" lon="1.28206">
        <ele>101</ele>
        <time>2019-02-01T20:55:28.000Z</time>
      </trkpt>
      <trkpt lat="44.82805" lon="1.28247">
        <ele>101</ele>
        <time>2019-02-01T20:56:28.000Z</time>
      </trkpt>
      <trkpt lat="44.82807" lon="1.28281">
        <ele>99</ele>
        <time>2019-02-01T20:57:28.000Z</time>
      </trkpt>
      <trkpt lat="44.82814" lon="1.28315">
        <ele>99</ele>
        <time>2019-02-01T20:58:28.000Z</time>
      </trkpt>
      <trkpt lat="44.82818" lon="1.28339">
        <ele>98</ele>
        <time>2019-02-01T20:59:28.000Z</time>
      </trkpt>
      <trkpt lat="44.8282" lon="1.28352">
        <ele>97</ele>
        <time>2019-02-01T21:00:28.000Z</time>
      </trkpt>
      <trkpt lat="44.82832" lon="1.28406">
        <ele>93</ele>
        <time>2019-02-01T21:01:28.000Z</time>
      </trkpt>
      <trkpt lat="44.82844" lon="1.28447">
        <ele>91</ele>
        <time>2019-02-01T21:02:28.000Z</time>
      </trkpt>
      <trkpt lat="44.82858" lon="1.28485">
        <ele>89</ele>
        <time>2019-02-01T21:03:28.000Z</time>
      </trkpt>
      <trkpt lat="44.82869" lon="1.28521">
        <ele>88</ele>
        <time>2019-02-01T21:04:28.000Z</time>
      </trkpt>
      <trkpt lat="44.8288" lon="1.28549">
        <ele>88</ele>
        <time>2019-02-01T21:05:28.000Z</time>
      </trkpt>
      <trkpt lat="44.82897" lon="1.28579">
        <ele>88</ele>
        <time>2019-02-01T21:06:28.000Z</time>
      </trkpt>
      <trkpt lat="44.82916" lon="1.28619">
        <ele>89</ele>
        <time>2019-02-01T21:07:28.000Z</time>
      </trkpt>
      <trkpt lat="44.82938" lon="1.28652">
        <ele>90</ele>
        <time>2019-02-01T21:08:28.000Z</time>
      </trkpt>
      <trkpt lat="44.82964" lon="1.28685">
        <ele>90</ele>
        <time>2019-02-01T21:09:28.000Z</time>
      </trkpt>
      <trkpt lat="44.82977" lon="1.28711">
        <ele>91</ele>
        <time>2019-02-01T21:10:28.000Z</time>
      </trkpt>
      <trkpt lat="44.83014" lon="1.28775">
        <ele>93</ele>
        <time>2019-02-01T21:11:28.000Z</time>
      </trkpt>
      <trkpt lat="44.83036" lon="1.2881">
        <ele>94</ele>
        <time>2019-02-01T21:12:28.000Z</time>
      </trkpt>
      <trkpt lat="44.83062" lon="1.28844">
        <ele>95</ele>
        <time>2019-02-01T21:13:28.000Z</time>
      </trkpt>
      <trkpt lat="44.83076" lon="1.2887">
        <ele>95</ele>
        <time>2019-02-01T21:14:28.000Z</time>
      </trkpt>
      <trkpt lat="44.831" lon="1.28903">
        <ele>96</ele>
        <time>2019-02-01T21:15:28.000Z</time>
      </trkpt>
      <trkpt lat="44.83122" lon="1.28938">
        <ele>96</ele>
        <time>2019-02-01T21:16:28.000Z</time>
      </trkpt>
      <trkpt lat="44.83139" lon="1.28962">
        <ele>96</ele>
        <time>2019-02-01T21:17:28.000Z</time>
      </trkpt>
      <trkpt lat="44.83155" lon="1.28991">
        <ele>97</ele>
        <time>2019-02-01T21:18:28.000Z</time>
      </trkpt>
      <trkpt lat="44.83171" lon="1.29015">
        <ele>98</ele>
        <time>2019-02-01T21:19:28.000Z</time>
      </trkpt>
      <trkpt lat="44.83183" lon="1.29033">
        <ele>98</ele>
        <time>2019-02-01T21:20:28.000Z</time>
      </trkpt>
      <trkpt lat="44.83198" lon="1.29059">
        <ele>97</ele>
        <time>2019-02-01T21:21:28.000Z</time>
      </trkpt>
      <trkpt lat="44.83215" lon="1.29085">
        <ele>97</ele>
        <time>2019-02-01T21:22:28.000Z</time>
      </trkpt>
      <trkpt lat="44.83231" lon="1.29107">
        <ele>97</ele>
        <time>2019-02-01T21:23:28.000Z</time>
      </trkpt>
      <trkpt lat="44.8325" lon="1.29137">
        <ele>98</ele>
        <time>2019-02-01T21:24:28.000Z</time>
      </trkpt>
      <trkpt lat="44.8327" lon="1.29172">
        <ele>98</ele>
        <time>2019-02-01T21:25:28.000Z</time>
      </trkpt>
      <trkpt lat="44.83312" lon="1.29238">
        <ele>99</ele>
        <time>2019-02-01T21:26:28.000Z</time>
      </trkpt>
      <trkpt lat="44.8333" lon="1.29263">
        <ele>100</ele>
        <time>2019-02-01T21:27:28.000Z</time>
      </trkpt>
      <trkpt lat="44.83348" lon="1.29288">
        <ele>100</ele>
        <time>2019-02-01T21:28:28.000Z</time>
      </trkpt>
      <trkpt lat="44.83363" lon="1.29309">
        <ele>100</ele>
        <time>2019-02-01T21:29:28.000Z</time>
      </trkpt>
      <trkpt lat="44.83376" lon="1.29329">
        <ele>100</ele>
        <time>2019-02-01T21:30:28.000Z</time>
      </trkpt>
      <trkpt lat="44.83393" lon="1.29358">
        <ele>100</ele>
        <time>2019-02-01T21:31:28.000Z</time>
      </trkpt>
      <trkpt lat="44.83408" lon="1.2938">
        <ele>100</ele>
        <time>2019-02-01T21:32:28.000Z</time>
      </trkpt>
      <trkpt lat="44.83445" lon="1.29442">
        <ele>99</ele>
        <time>2019-02-01T21:33:28.000Z</time>
      </trkpt>
      <trkpt lat="44.83481" lon="1.295">
        <ele>97</ele>
        <time>2019-02-01T21:34:28.000Z</time>
      </trkpt>
      <trkpt lat="44.8352" lon="1.29551">
        <ele>98</ele>
        <time>2019-02-01T21:35:28.000Z</time>
      </trkpt>
      <trkpt lat="44.83535" lon="1.29581">
        <ele>100</ele>
        <time>2019-02-01T21:36:28.000Z</time>
      </trkpt>
      <trkpt lat="44.83557" lon="1.29618">
        <ele>101</ele>
        <time>2019-02-01T21:37:28.000Z</time>
      </trkpt>
      <trkpt lat="44.83576" lon="1.29648">
        <ele>103</ele>
        <time>2019-02-01T21:38:28.000Z</time>
      </trkpt>
      <trkpt lat="44.83592" lon="1.29674">
        <ele>105</ele>
        <time>2019-02-01T21:39:28.000Z</time>
      </trkpt>
      <trkpt lat="44.8361" lon="1.29698">
        <ele>106</ele>
        <time>2019-02-01T21:40:28.000Z</time>
      </trkpt>
      <trkpt lat="44.83628" lon="1.29731">
        <ele>106</ele>
        <time>2019-02-01T21:41:28.000Z</time>
      </trkpt>
      <trkpt lat="44.83656" lon="1.29757">
        <ele>107</ele>
        <time>2019-02-01T21:42:28.000Z</time>
      </trkpt>
      <trkpt lat="44.83678" lon="1.29791">
        <ele>106</ele>
        <time>2019-02-01T21:43:28.000Z</time>
      </trkpt>
      <trkpt lat="44.83697" lon="1.29812">
        <ele>106</ele>
        <time>2019-02-01T21:44:28.000Z</time>
      </trkpt>
      <trkpt lat="44.83714" lon="1.2983">
        <ele>105</ele>
        <time>2019-02-01T21:45:28.000Z</time>
      </trkpt>
      <trkpt lat="44.83744" lon="1.2986">
        <ele>102</ele>
        <time>2019-02-01T21:46:28.000Z</time>
      </trkpt>
      <trkpt lat="44.83763" lon="1.29881">
        <ele>102</ele>
        <time>2019-02-01T21:47:28.000Z</time>
      </trkpt>
      <trkpt lat="44.83793" lon="1.29908">
        <ele>101</ele>
        <time>2019-02-01T21:48:28.000Z</time>
      </trkpt>
      <trkpt lat="44.83827" lon="1.29944">
        <ele>97</ele>
        <time>2019-02-01T21:49:28.000Z</time>
      </trkpt>
      <trkpt lat="44.83855" lon="1.29972">
        <ele>96</ele>
        <time>2019-02-01T21:50:28.000Z</time>
      </trkpt>
      <trkpt lat="44.83884" lon="1.30004">
        <ele>97</ele>
        <time>2019-02-01T21:51:28.000Z</time>
      </trkpt>
      <trkpt lat="44.83914" lon="1.30026">
        <ele>98</ele>
        <time>2019-02-01T21:52:28.000Z</time>
      </trkpt>
      <trkpt lat="44.8394" lon="1.3005">
        <ele>98</ele>
        <time>2019-02-01T21:53:28.000Z</time>
      </trkpt>
      <trkpt lat="44.83977" lon="1.30085">
        <ele>98</ele>
        <time>2019-02-01T21:54:28.000Z</time>
      </trkpt>
      <trkpt lat="44.84004" lon="1.30115">
        <ele>96</ele>
        <time>2019-02-01T21:55:28.000Z</time>
      </trkpt>
      <trkpt lat="44.84062" lon="1.30175">
        <ele>92</ele>
        <time>2019-02-01T21:56:28.000Z</time>
      </trkpt>
      <trkpt lat="44.8409" lon="1.30208">
        <ele>89</ele>
        <time>2019-02-01T21:57:28.000Z</time>
      </trkpt>
      <trkpt lat="44.84114" lon="1.30237">
        <ele>87</ele>
        <time>2019-02-01T21:58:28.000Z</time>
      </trkpt>
      <trkpt lat="44.84144" lon="1.30272">
        <ele>87</ele>
        <time>2019-02-01T21:59:28.000Z</time>
      </trkpt>
      <trkpt lat="44.84166" lon="1.303">
        <ele>88</ele>
        <time>2019-02-01T22:00:28.000Z</time>
      </trkpt>
      <trkpt lat="44.84193" lon="1.30327">
        <ele>90</ele>
        <time>2019-02-01T22:01:28.000Z</time>
      </trkpt>
      <trkpt lat="44.84219" lon="1.30365">
        <ele>91</ele>
        <time>2019-02-01T22:02:28.000Z</time>
      </trkpt>
      <trkpt lat="44.84241" lon="1.30408">
        <ele>90</ele>
        <time>2019-02-01T22:03:28.000Z</time>
      </trkpt>
      <trkpt lat="44.84262" lon="1.30436">
        <ele>92</ele>
        <time>2019-02-01T22:04:28.000Z</time>
      </trkpt>
      <trkpt lat="44.84272" lon="1.30462">
        <ele>94</ele>
        <time>2019-02-01T22:05:28.000Z</time>
      </trkpt>
      <trkpt lat="44.84279" lon="1.30476">
        <ele>96</ele>
        <time>2019-02-01T22:06:28.000Z</time>
      </trkpt>
      <trkpt lat="44.84291" lon="1.30507">
        <ele>98</ele>
        <time>2019-02-01T22:07:28.000Z</time>
      </trkpt>
      <trkpt lat="44.84296" lon="1.30519">
        <ele>98</ele>
        <time>2019-02-01T22:08:28.000Z</time>
      </trkpt>
      <trkpt lat="44.84305" lon="1.30549">
        <ele>97</ele>
        <time>2019-02-01T22:09:28.000Z</time>
      </trkpt>
      <trkpt lat="44.84323" lon="1.30595">
        <ele>95</ele>
        <time>2019-02-01T22:10:28.000Z</time>
      </trkpt>
      <trkpt lat="44.84338" lon="1.3064">
        <ele>92</ele>
        <time>2019-02-01T22:11:28.000Z</time>
      </trkpt>
      <trkpt lat="44.8435" lon="1.30682">
        <ele>91</ele>
        <time>2019-02-01T22:12:28.000Z</time>
      </trkpt>
      <trkpt lat="44.84366" lon="1.30713">
        <ele>93</ele>
        <time>2019-02-01T22:13:28.000Z</time>
      </trkpt>
      <trkpt lat="44.84369" lon="1.3073">
        <ele>91</ele>
        <time>2019-02-01T22:14:28.000Z</time>
      </trkpt>
      <trkpt lat="44.84369" lon="1.30743">
        <ele>89</ele>
        <time>2019-02-01T22:15:28.000Z</time>
      </trkpt>
      <trkpt lat="44.84373" lon="1.30769">
        <ele>88</ele>
        <time>2019-02-01T22:16:28.000Z</time>
      </trkpt>
      <trkpt lat="44.84384" lon="1.30794">
        <ele>87</ele>
        <time>2019-02-01T22:17:28.000Z</time>
      </trkpt>
      <trkpt lat="44.84403" lon="1.30839">
        <ele>85</ele>
        <time>2019-02-01T22:18:28.000Z</time>
      </trkpt>
      <trkpt lat="44.84418" lon="1.30866">
        <ele>86</ele>
        <time>2019-02-01T22:19:28.000Z</time>
      </trkpt>
      <trkpt lat="44.84432" lon="1.30891">
        <ele>88</ele>
        <time>2019-02-01T22:20:28.000Z</time>
      </trkpt>
      <trkpt lat="44.84454" lon="1.30915">
        <ele>88</ele>
        <time>2019-02-01T22:21:28.000Z</time>
      </trkpt>
      <trkpt lat="44.84476" lon="1.30936">
        <ele>87</ele>
        <time>2019-02-01T22:22:28.000Z</time>
      </trkpt>
      <trkpt lat="44.84497" lon="1.30954">
        <ele>86</ele>
        <time>2019-02-01T22:23:28.000Z</time>
      </trkpt>
      <trkpt lat="44.84521" lon="1.30976">
        <ele>83</ele>
        <time>2019-02-01T22:24:28.000Z</time>
      </trkpt>
      <trkpt lat="44.84542" lon="1.30993">
        <ele>80</ele>
        <time>2019-02-01T22:25:28.000Z</time>
      </trkpt>
      <trkpt lat="44.84571" lon="1.31011">
        <ele>79</ele>
        <time>2019-02-01T22:26:28.000Z</time>
      </trkpt>
      <trkpt lat="44.84593" lon="1.31026">
        <ele>78</ele>
        <time>2019-02-01T22:27:28.000Z</time>
      </trkpt>
      <trkpt lat="44.8462" lon="1.31045">
        <ele>78</ele>
        <time>2019-02-01T22:28:28.000Z</time>
      </trkpt>
      <trkpt lat="44.84642" lon="1.31064">
        <ele>79</ele>
        <time>2019-02-01T22:29:28.000Z</time>
      </trkpt>
      <trkpt lat="44.84652" lon="1.31093">
        <ele>78</ele>
        <time>2019-02-01T22:30:28.000Z</time>
      </trkpt>
      <trkpt lat="44.8466" lon="1.31131">
        <ele>78</ele>
        <time>2019-02-01T22:31:28.000Z</time>
      </trkpt>
      <trkpt lat="44.84668" lon="1.3117">
        <ele>78</ele>
        <time>2019-02-01T22:32:28.000Z</time>
      </trkpt>
      <trkpt lat="44.84677" lon="1.312">
        <ele>78</ele>
        <time>2019-02-01T22:33:28.000Z</time>
      </trkpt>
      <trkpt lat="44.8469" lon="1.31229">
        <ele>79</ele>
        <time>2019-02-01T22:34:28.000Z</time>
      </trkpt>
      <trkpt lat="44.84704" lon="1.31252">
        <ele>79</ele>
        <time>2019-02-01T22:35:28.000Z</time>
      </trkpt>
      <trkpt lat="44.84723" lon="1.31279">
        <ele>79</ele>
        <time>2019-02-01T22:36:28.000Z</time>
      </trkpt>
      <trkpt lat="44.84744" lon="1.31306">
        <ele>80</ele>
        <time>2019-02-01T22:37:28.000Z</time>
      </trkpt>
      <trkpt lat="44.84758" lon="1.31328">
        <ele>80</ele>
        <time>2019-02-01T22:38:28.000Z</time>
      </trkpt>
      <trkpt lat="44.84778" lon="1.31323">
        <ele>81</ele>
        <time>2019-02-01T22:39:28.000Z</time>
      </trkpt>
      <trkpt lat="44.84795" lon="1.31305">
        <ele>82</ele>
        <time>2019-02-01T22:40:28.000Z</time>
      </trkpt>
      <trkpt lat="44.84812" lon="1.31267">
        <ele>83</ele>
        <time>2019-02-01T22:41:28.000Z</time>
      </trkpt>
      <trkpt lat="44.84809" lon="1.31236">
        <ele>84</ele>
        <time>2019-02-01T22:42:28.000Z</time>
      </trkpt>
      <trkpt lat="44.84798" lon="1.31203">
        <ele>85</ele>
        <time>2019-02-01T22:43:28.000Z</time>
      </trkpt>
      <trkpt lat="44.84786" lon="1.31177">
        <ele>84</ele>
        <time>2019-02-01T22:44:28.000Z</time>
      </trkpt>
      <trkpt lat="44.84779" lon="1.31152">
        <ele>83</ele>
        <time>2019-02-01T22:45:28.000Z</time>
      </trkpt>
      <trkpt lat="44.84788" lon="1.31145">
        <ele>84</ele>
        <time>2019-02-01T22:46:28.000Z</time>
      </trkpt>
      <trkpt lat="44.84805" lon="1.31155">
        <ele>86</ele>
        <time>2019-02-01T22:47:28.000Z</time>
      </trkpt>
      <trkpt lat="44.84816" lon="1.31163">
        <ele>88</ele>
        <time>2019-02-01T22:48:28.000Z</time>
      </trkpt>
      <trkpt lat="44.84827" lon="1.31163">
        <ele>89</ele>
        <time>2019-02-01T22:49:28.000Z</time>
      </trkpt>
      <trkpt lat="44.84845" lon="1.31181">
        <ele>94</ele>
        <time>2019-02-01T22:50:28.000Z</time>
      </trkpt>
      <trkpt lat="44.84852" lon="1.31207">
        <ele>95</ele>
        <time>2019-02-01T22:51:28.000Z</time>
      </trkpt>
      <trkpt lat="44.84868" lon="1.31241">
        <ele>99</ele>
        <time>2019-02-01T22:52:28.000Z</time>
      </trkpt>
      <trkpt lat="44.84882" lon="1.31269">
        <ele>101</ele>
        <time>2019-02-01T22:53:28.000Z</time>
      </trkpt>
      <trkpt lat="44.84914" lon="1.31341">
        <ele>99</ele>
        <time>2019-02-01T22:54:28.000Z</time>
      </trkpt>
      <trkpt lat="44.84924" lon="1.31384">
        <ele>97</ele>
        <time>2019-02-01T22:55:28.000Z</time>
      </trkpt>
      <trkpt lat="44.84932" lon="1.31421">
        <ele>96</ele>
        <time>2019-02-01T22:56:28.000Z</time>
      </trkpt>
      <trkpt lat="44.84943" lon="1.31465">
        <ele>96</ele>
        <time>2019-02-01T22:57:28.000Z</time>
      </trkpt>
      <trkpt lat="44.84958" lon="1.31491">
        <ele>101</ele>
        <time>2019-02-01T22:58:28.000Z</time>
      </trkpt>
      <trkpt lat="44.84968" lon="1.31534">
        <ele>98</ele>
        <time>2019-02-01T22:59:28.000Z</time>
      </trkpt>
      <trkpt lat="44.84987" lon="1.31567">
        <ele>98</ele>
        <time>2019-02-01T23:00:28.000Z</time>
      </trkpt>
      <trkpt lat="44.85028" lon="1.31632">
        <ele>97</ele>
        <time>2019-02-01T23:01:28.000Z</time>
      </trkpt>
      <trkpt lat="44.85049" lon="1.31663">
        <ele>95</ele>
        <time>2019-02-01T23:02:28.000Z</time>
      </trkpt>
      <trkpt lat="44.85061" lon="1.31693">
        <ele>93</ele>
        <time>2019-02-01T23:03:28.000Z</time>
      </trkpt>
      <trkpt lat="44.8507" lon="1.31728">
        <ele>90</ele>
        <time>2019-02-01T23:04:28.000Z</time>
      </trkpt>
      <trkpt lat="44.85082" lon="1.31767">
        <ele>87</ele>
        <time>2019-02-01T23:05:28.000Z</time>
      </trkpt>
      <trkpt lat="44.85093" lon="1.31802">
        <ele>88</ele>
        <time>2019-02-01T23:06:28.000Z</time>
      </trkpt>
      <trkpt lat="44.8511" lon="1.31834">
        <ele>89</ele>
        <time>2019-02-01T23:07:28.000Z</time>
      </trkpt>
      <trkpt lat="44.85136" lon="1.31872">
        <ele>91</ele>
        <time>2019-02-01T23:08:28.000Z</time>
      </trkpt>
      <trkpt lat="44.85158" lon="1.31905">
        <ele>90</ele>
        <time>2019-02-01T23:09:28.000Z</time>
      </trkpt>
      <trkpt lat="44.85177" lon="1.31938">
        <ele>90</ele>
        <time>2019-02-01T23:10:28.000Z</time>
      </trkpt>
      <trkpt lat="44.85195" lon="1.31977">
        <ele>89</ele>
        <time>2019-02-01T23:11:28.000Z</time>
      </trkpt>
      <trkpt lat="44.85209" lon="1.32009">
        <ele>87</ele>
        <time>2019-02-01T23:12:28.000Z</time>
      </trkpt>
      <trkpt lat="44.85221" lon="1.32046">
        <ele>88</ele>
        <time>2019-02-01T23:13:28.000Z</time>
      </trkpt>
      <trkpt lat="44.85227" lon="1.32076">
        <ele>88</ele>
        <time>2019-02-01T23:14:28.000Z</time>
      </trkpt>
      <trkpt lat="44.85237" lon="1.3211">
        <ele>89</ele>
        <time>2019-02-01T23:15:28.000Z</time>
      </trkpt>
      <trkpt lat="44.85244" lon="1.32152">
        <ele>89</ele>
        <time>2019-02-01T23:16:28.000Z</time>
      </trkpt>
      <trkpt lat="44.85249" lon="1.32191">
        <ele>89</ele>
        <time>2019-02-01T23:17:28.000Z</time>
      </trkpt>
      <trkpt lat="44.8525" lon="1.32232">
        <ele>88</ele>
        <time>2019-02-01T23:18:28.000Z</time>
      </trkpt>
      <trkpt lat="44.85249" lon="1.32262">
        <ele>88</ele>
        <time>2019-02-01T23:19:28.000Z</time>
      </trkpt>
      <trkpt lat="44.85254" lon="1.32306">
        <ele>88</ele>
        <time>2019-02-01T23:20:28.000Z</time>
      </trkpt>
      <trkpt lat="44.85261" lon="1.32348">
        <ele>89</ele>
        <time>2019-02-01T23:21:28.000Z</time>
      </trkpt>
      <trkpt lat="44.85264" lon="1.32386">
        <ele>89</ele>
        <time>2019-02-01T23:22:28.000Z</time>
      </trkpt>
      <trkpt lat="44.85253" lon="1.3242">
        <ele>87</ele>
        <time>2019-02-01T23:23:28.000Z</time>
      </trkpt>
      <trkpt lat="44.85237" lon="1.32453">
        <ele>87</ele>
        <time>2019-02-01T23:24:28.000Z</time>
      </trkpt>
      <trkpt lat="44.8522" lon="1.32489">
        <ele>87</ele>
        <time>2019-02-01T23:25:28.000Z</time>
      </trkpt>
      <trkpt lat="44.85213" lon="1.32521">
        <ele>87</ele>
        <time>2019-02-01T23:26:28.000Z</time>
      </trkpt>
      <trkpt lat="44.8522" lon="1.32511">
        <ele>88</ele>
        <time>2019-02-01T23:27:28.000Z</time>
      </trkpt>
      <trkpt lat="44.85226" lon="1.32489">
        <ele>88</ele>
        <time>2019-02-01T23:28:28.000Z</time>
      </trkpt>
      <trkpt lat="44.85239" lon="1.32462">
        <ele>88</ele>
        <time>2019-02-01T23:29:28.000Z</time>
      </trkpt>
      <trkpt lat="44.85256" lon="1.32432">
        <ele>88</ele>
        <time>2019-02-01T23:30:28.000Z</time>
      </trkpt>
      <trkpt lat="44.85266" lon="1.32427">
        <ele>89</ele>
        <time>2019-02-01T23:31:28.000Z</time>
      </trkpt>
      <trkpt lat="44.85276" lon="1.32426">
        <ele>89</ele>
        <time>2019-02-01T23:32:28.000Z</time>
      </trkpt>
      <trkpt lat="44.85266" lon="1.32426">
        <ele>89</ele>
        <time>2019-02-01T23:33:28.000Z</time>
      </trkpt>
      <trkpt lat="44.85257" lon="1.32433">
        <ele>88</ele>
        <time>2019-02-01T23:34:28.000Z</time>
      </trkpt>
      <trkpt lat="44.8525" lon="1.32445">
        <ele>88</ele>
        <time>2019-02-01T23:35:28.000Z</time>
      </trkpt>
      <trkpt lat="44.8525" lon="1.32477">
        <ele>89</ele>
        <time>2019-02-01T23:36:28.000Z</time>
      </trkpt>
      <trkpt lat="44.85251" lon="1.32511">
        <ele>90</ele>
        <time>2019-02-01T23:37:28.000Z</time>
      </trkpt>
      <trkpt lat="44.85252" lon="1.32548">
        <ele>91</ele>
        <time>2019-02-01T23:38:28.000Z</time>
      </trkpt>
      <trkpt lat="44.85251" lon="1.32577">
        <ele>91</ele>
        <time>2019-02-01T23:39:28.000Z</time>
      </trkpt>
      <trkpt lat="44.85251" lon="1.32604">
        <ele>91</ele>
        <time>2019-02-01T23:40:28.000Z</time>
      </trkpt>
      <trkpt lat="44.85258" lon="1.32713">
        <ele>92</ele>
        <time>2019-02-01T23:41:28.000Z</time>
      </trkpt>
      <trkpt lat="44.8526" lon="1.32751">
        <ele>92</ele>
        <time>2019-02-01T23:42:28.000Z</time>
      </trkpt>
      <trkpt lat="44.8526" lon="1.32784">
        <ele>93</ele>
        <time>2019-02-01T23:43:28.000Z</time>
      </trkpt>
      <trkpt lat="44.85262" lon="1.3282">
        <ele>94</ele>
        <time>2019-02-01T23:44:28.000Z</time>
      </trkpt>
      <trkpt lat="44.8526" lon="1.32851">
        <ele>93</ele>
        <time>2019-02-01T23:45:28.000Z</time>
      </trkpt>
      <trkpt lat="44.85263" lon="1.32885">
        <ele>93</ele>
        <time>2019-02-01T23:46:28.000Z</time>
      </trkpt>
      <trkpt lat="44.85266" lon="1.32927">
        <ele>92</ele>
        <time>2019-02-01T23:47:28.000Z</time>
      </trkpt>
      <trkpt lat="44.8527" lon="1.32964">
        <ele>93</ele>
        <time>2019-02-01T23:48:28.000Z</time>
      </trkpt>
      <trkpt lat="44.85269" lon="1.33003">
        <ele>94</ele>
        <time>2019-02-01T23:49:28.000Z</time>
      </trkpt>
      <trkpt lat="44.85273" lon="1.33047">
        <ele>94</ele>
        <time>2019-02-01T23:50:28.000Z</time>
      </trkpt>
      <trkpt lat="44.85273" lon="1.33084">
        <ele>94</ele>
        <time>2019-02-01T23:51:28.000Z</time>
      </trkpt>
      <trkpt lat="44.85274" lon="1.33119">
        <ele>94</ele>
        <time>2019-02-01T23:52:28.000Z</time>
      </trkpt>
      <trkpt lat="44.85277" lon="1.33158">
        <ele>94</ele>
        <time>2019-02-01T23:53:28.000Z</time>
      </trkpt>
      <trkpt lat="44.85281" lon="1.33189">
        <ele>94</ele>
        <time>2019-02-01T23:54:28.000Z</time>
      </trkpt>
      <trkpt lat="44.85281" lon="1.33236">
        <ele>93</ele>
        <time>2019-02-01T23:55:28.000Z</time>
      </trkpt>
      <trkpt lat="44.85283" lon="1.33268">
        <ele>93</ele>
        <time>2019-02-01T23:56:28.000Z</time>
      </trkpt>
      <trkpt lat="44.85282" lon="1.33292">
        <ele>92</ele>
        <time>2019-02-01T23:57:28.000Z</time>
      </trkpt>
      <trkpt lat="44.85278" lon="1.33277">
        <ele>92</ele>
        <time>2019-02-01T23:58:28.000Z</time>
      </trkpt>
      <trkpt lat="44.85278" lon="1.33258">
        <ele>93</ele>
        <time>2019-02-01T23:59:28.000Z</time>
      </trkpt>
      <trkpt lat="44.85277" lon="1.33222">
        <ele>93</ele>
        <time>2019-02-02T00:00:28.000Z</time>
      </trkpt>
      <trkpt lat="44.85277" lon="1.33184">
        <ele>93</ele>
        <time>2019-02-02T00:01:28.000Z</time>
      </trkpt>
      <trkpt lat="44.85277" lon="1.33155">
        <ele>94</ele>
        <time>2019-02-02T00:02:28.000Z</time>
      </trkpt>
      <trkpt lat="44.85274" lon="1.33123">
        <ele>94</ele>
        <time>2019-02-02T00:03:28.000Z</time>
      </trkpt>
      <trkpt lat="44.8527" lon="1.33094">
        <ele>94</ele>
        <time>2019-02-02T00:04:28.000Z</time>
      </trkpt>
      <trkpt lat="44.85273" lon="1.33038">
        <ele>94</ele>
        <time>2019-02-02T00:05:28.000Z</time>
      </trkpt>
      <trkpt lat="44.85271" lon="1.32995">
        <ele>94</ele>
        <time>2019-02-02T00:06:28.000Z</time>
      </trkpt>
      <trkpt lat="44.85269" lon="1.32952">
        <ele>93</ele>
        <time>2019-02-02T00:07:28.000Z</time>
      </trkpt>
      <trkpt lat="44.85271" lon="1.32908">
        <ele>92</ele>
        <time>2019-02-02T00:08:28.000Z</time>
      </trkpt>
      <trkpt lat="44.85269" lon="1.3287">
        <ele>93</ele>
        <time>2019-02-02T00:09:28.000Z</time>
      </trkpt>
      <trkpt lat="44.85267" lon="1.32839">
        <ele>94</ele>
        <time>2019-02-02T00:10:28.000Z</time>
      </trkpt>
      <trkpt lat="44.85262" lon="1.32768">
        <ele>93</ele>
        <time>2019-02-02T00:11:28.000Z</time>
      </trkpt>
      <trkpt lat="44.85261" lon="1.32719">
        <ele>92</ele>
        <time>2019-02-02T00:12:28.000Z</time>
      </trkpt>
      <trkpt lat="44.85259" lon="1.32679">
        <ele>92</ele>
        <time>2019-02-02T00:13:28.000Z</time>
      </trkpt>
      <trkpt lat="44.85259" lon="1.32637">
        <ele>92</ele>
        <time>2019-02-02T00:14:28.000Z</time>
      </trkpt>
      <trkpt lat="44.85257" lon="1.32605">
        <ele>92</ele>
        <time>2019-02-02T00:15:28.000Z</time>
      </trkpt>
      <trkpt lat="44.85253" lon="1.32563">
        <ele>91</ele>
        <time>2019-02-02T00:16:28.000Z</time>
      </trkpt>
      <trkpt lat="44.85248" lon="1.32529">
        <ele>90</ele>
        <time>2019-02-02T00:17:28.000Z</time>
      </trkpt>
      <trkpt lat="44.85245" lon="1.32496">
        <ele>89</ele>
        <time>2019-02-02T00:18:28.000Z</time>
      </trkpt>
      <trkpt lat="44.85245" lon="1.32461">
        <ele>88</ele>
        <time>2019-02-02T00:19:28.000Z</time>
      </trkpt>
      <trkpt lat="44.85247" lon="1.32444">
        <ele>88</ele>
        <time>2019-02-02T00:20:28.000Z</time>
      </trkpt>
      <trkpt lat="44.85254" lon="1.32435">
        <ele>88</ele>
        <time>2019-02-02T00:21:28.000Z</time>
      </trkpt>
      <trkpt lat="44.85245" lon="1.32441">
        <ele>88</ele>
        <time>2019-02-02T00:22:28.000Z</time>
      </trkpt>
      <trkpt lat="44.85229" lon="1.32466">
        <ele>87</ele>
        <time>2019-02-02T00:23:28.000Z</time>
      </trkpt>
      <trkpt lat="44.85218" lon="1.32489">
        <ele>87</ele>
        <time>2019-02-02T00:24:28.000Z</time>
      </trkpt>
      <trkpt lat="44.85211" lon="1.32523">
        <ele>87</ele>
        <time>2019-02-02T00:25:28.000Z</time>
      </trkpt>
      <trkpt lat="44.85208" lon="1.32557">
        <ele>87</ele>
        <time>2019-02-02T00:26:28.000Z</time>
      </trkpt>
      <trkpt lat="44.85204" lon="1.32587">
        <ele>87</ele>
        <time>2019-02-02T00:27:28.000Z</time>
      </trkpt>
      <trkpt lat="44.85191" lon="1.32601">
        <ele>85</ele>
        <time>2019-02-02T00:28:28.000Z</time>
      </trkpt>
      <trkpt lat="44.85187" lon="1.32633">
        <ele>85</ele>
        <time>2019-02-02T00:29:28.000Z</time>
      </trkpt>
      <trkpt lat="44.85192" lon="1.32678">
        <ele>86</ele>
        <time>2019-02-02T00:30:28.000Z</time>
      </trkpt>
      <trkpt lat="44.8519" lon="1.32716">
        <ele>86</ele>
        <time>2019-02-02T00:31:28.000Z</time>
      </trkpt>
      <trkpt lat="44.85184" lon="1.32759">
        <ele>85</ele>
        <time>2019-02-02T00:32:28.000Z</time>
      </trkpt>
      <trkpt lat="44.85177" lon="1.32799">
        <ele>84</ele>
        <time>2019-02-02T00:33:28.000Z</time>
      </trkpt>
      <trkpt lat="44.8517" lon="1.32835">
        <ele>83</ele>
        <time>2019-02-02T00:34:28.000Z</time>
      </trkpt>
      <trkpt lat="44.85162" lon="1.32888">
        <ele>83</ele>
        <time>2019-02-02T00:35:28.000Z</time>
      </trkpt>
      <trkpt lat="44.85154" lon="1.32936">
        <ele>84</ele>
        <time>2019-02-02T00:36:28.000Z</time>
      </trkpt>
      <trkpt lat="44.85144" lon="1.32987">
        <ele>84</ele>
        <time>2019-02-02T00:37:28.000Z</time>
      </trkpt>
      <trkpt lat="44.85141" lon="1.3305">
        <ele>84</ele>
        <time>2019-02-02T00:38:28.000Z</time>
      </trkpt>
      <trkpt lat="44.85146" lon="1.3311">
        <ele>85</ele>
        <time>2019-02-02T00:39:28.000Z</time>
      </trkpt>
      <trkpt lat="44.85157" lon="1.33163">
        <ele>85</ele>
        <time>2019-02-02T00:40:28.000Z</time>
      </trkpt>
      <trkpt lat="44.8519" lon="1.33279">
        <ele>86</ele>
        <time>2019-02-02T00:41:28.000Z</time>
      </trkpt>
      <trkpt lat="44.85209" lon="1.33337">
        <ele>87</ele>
        <time>2019-02-02T00:42:28.000Z</time>
      </trkpt>
      <trkpt lat="44.85232" lon="1.33392">
        <ele>86</ele>
        <time>2019-02-02T00:43:28.000Z</time>
      </trkpt>
      <trkpt lat="44.8526" lon="1.33442">
        <ele>87</ele>
        <time>2019-02-02T00:44:28.000Z</time>
      </trkpt>
      <trkpt lat="44.85282" lon="1.33477">
        <ele>87</ele>
        <time>2019-02-02T00:45:28.000Z</time>
      </trkpt>
      <trkpt lat="44.85298" lon="1.33507">
        <ele>88</ele>
        <time>2019-02-02T00:46:28.000Z</time>
      </trkpt>
      <trkpt lat="44.85311" lon="1.33525">
        <ele>88</ele>
        <time>2019-02-02T00:47:28.000Z</time>
      </trkpt>
      <trkpt lat="44.8532" lon="1.33545">
        <ele>87</ele>
        <time>2019-02-02T00:48:28.000Z</time>
      </trkpt>
      <trkpt lat="44.85329" lon="1.3358">
        <ele>86</ele>
        <time>2019-02-02T00:49:28.000Z</time>
      </trkpt>
      <trkpt lat="44.85344" lon="1.33609">
        <ele>86</ele>
        <time>2019-02-02T00:50:28.000Z</time>
      </trkpt>
      <trkpt lat="44.8536" lon="1.33643">
        <ele>87</ele>
        <time>2019-02-02T00:51:28.000Z</time>
      </trkpt>
      <trkpt lat="44.85374" lon="1.33676">
        <ele>88</ele>
        <time>2019-02-02T00:52:28.000Z</time>
      </trkpt>
      <trkpt lat="44.85392" lon="1.33709">
        <ele>89</ele>
        <time>2019-02-02T00:53:28.000Z</time>
      </trkpt>
      <trkpt lat="44.85412" lon="1.33742">
        <ele>91</ele>
        <time>2019-02-02T00:54:28.000Z</time>
      </trkpt>
      <trkpt lat="44.85427" lon="1.33774">
        <ele>90</ele>
        <time>2019-02-02T00:55:28.000Z</time>
      </trkpt>
      <trkpt lat="44.85446" lon="1.33806">
        <ele>90</ele>
        <time>2019-02-02T00:56:28.000Z</time>
      </trkpt>
      <trkpt lat="44.85463" lon="1.33836">
        <ele>89</ele>
        <time>2019-02-02T00:57:28.000Z</time>
      </trkpt>
      <trkpt lat="44.8548" lon="1.33865">
        <ele>88</ele>
        <time>2019-02-02T00:58:28.000Z</time>
      </trkpt>
      <trkpt lat="44.85495" lon="1.33902">
        <ele>86</ele>
        <time>2019-02-02T00:59:28.000Z</time>
      </trkpt>
      <trkpt lat="44.85516" lon="1.33943">
        <ele>86</ele>
        <time>2019-02-02T01:00:28.000Z</time>
      </trkpt>
      <trkpt lat="44.85534" lon="1.33975">
        <ele>87</ele>
        <time>2019-02-02T01:01:28.000Z</time>
      </trkpt>
      <trkpt lat="44.85551" lon="1.34008">
        <ele>88</ele>
        <time>2019-02-02T01:02:28.000Z</time>
      </trkpt>
      <trkpt lat="44.85571" lon="1.34043">
        <ele>89</ele>
        <time>2019-02-02T01:03:28.000Z</time>
      </trkpt>
      <trkpt lat="44.85603" lon="1.34102">
        <ele>89</ele>
        <time>2019-02-02T01:04:28.000Z</time>
      </trkpt>
      <trkpt lat="44.8562" lon="1.34134">
        <ele>89</ele>
        <time>2019-02-02T01:05:28.000Z</time>
      </trkpt>
      <trkpt lat="44.85634" lon="1.34165">
        <ele>90</ele>
        <time>2019-02-02T01:06:28.000Z</time>
      </trkpt>
      <trkpt lat="44.85649" lon="1.34196">
        <ele>90</ele>
        <time>2019-02-02T01:07:28.000Z</time>
      </trkpt>
      <trkpt lat="44.85662" lon="1.34223">
        <ele>90</ele>
        <time>2019-02-02T01:08:28.000Z</time>
      </trkpt>
      <trkpt lat="44.85676" lon="1.34258">
        <ele>90</ele>
        <time>2019-02-02T01:09:28.000Z</time>
      </trkpt>
      <trkpt lat="44.85685" lon="1.34292">
        <ele>90</ele>
        <time>2019-02-02T01:10:28.000Z</time>
      </trkpt>
      <trkpt lat="44.85696" lon="1.34326">
        <ele>91</ele>
        <time>2019-02-02T01:11:28.000Z</time>
      </trkpt>
      <trkpt lat="44.85703" lon="1.34355">
        <ele>90</ele>
        <time>2019-02-02T01:12:28.000Z</time>
      </trkpt>
      <trkpt lat="44.85718" lon="1.34396">
        <ele>89</ele>
        <time>2019-02-02T01:13:28.000Z</time>
      </trkpt>
      <trkpt lat="44.85732" lon="1.34447">
        <ele>88</ele>
        <time>2019-02-02T01:14:28.000Z</time>
      </trkpt>
      <trkpt lat="44.85744" lon="1.34478">
        <ele>88</ele>
        <time>2019-02-02T01:15:28.000Z</time>
      </trkpt>
      <trkpt lat="44.85759" lon="1.34521">
        <ele>87</ele>
        <time>2019-02-02T01:16:28.000Z</time>
      </trkpt>
      <trkpt lat="44.85779" lon="1.34557">
        <ele>87</ele>
        <time>2019-02-02T01:17:28.000Z</time>
      </trkpt>
      <trkpt lat="44.85796" lon="1.34585">
        <ele>87</ele>
        <time>2019-02-02T01:18:28.000Z</time>
      </trkpt>
      <trkpt lat="44.85817" lon="1.34618">
        <ele>90</ele>
        <time>2019-02-02T01:19:28.000Z</time>
      </trkpt>
      <trkpt lat="44.85839" lon="1.34643">
        <ele>93</ele>
        <time>2019-02-02T01:20:28.000Z</time>
      </trkpt>
      <trkpt lat="44.85858" lon="1.34655">
        <ele>97</ele>
        <time>2019-02-02T01:21:28.000Z</time>
      </trkpt>
      <trkpt lat="44.86221" lon="1.3503">
        <ele>105</ele>
        <time>2019-02-02T01:22:28.000Z</time>
      </trkpt>
      <trkpt lat="44.86238" lon="1.3506">
        <ele>100</ele>
        <time>2019-02-02T01:23:28.000Z</time>
      </trkpt>
      <trkpt lat="44.86263" lon="1.35087">
        <ele>99</ele>
        <time>2019-02-02T01:24:28.000Z</time>
      </trkpt>
      <trkpt lat="44.86283" lon="1.35122">
        <ele>103</ele>
        <time>2019-02-02T01:25:28.000Z</time>
      </trkpt>
      <trkpt lat="44.863" lon="1.35156">
        <ele>103</ele>
        <time>2019-02-02T01:26:28.000Z</time>
      </trkpt>
      <trkpt lat="44.86317" lon="1.35187">
        <ele>103</ele>
        <time>2019-02-02T01:27:28.000Z</time>
      </trkpt>
      <trkpt lat="44.86351" lon="1.35258">
        <ele>102</ele>
        <time>2019-02-02T01:28:28.000Z</time>
      </trkpt>
      <trkpt lat="44.86368" lon="1.35291">
        <ele>103</ele>
        <time>2019-02-02T01:29:28.000Z</time>
      </trkpt>
      <trkpt lat="44.8638" lon="1.35316">
        <ele>102</ele>
        <time>2019-02-02T01:30:28.000Z</time>
      </trkpt>
      <trkpt lat="44.86415" lon="1.35386">
        <ele>98</ele>
        <time>2019-02-02T01:31:28.000Z</time>
      </trkpt>
      <trkpt lat="44.86437" lon="1.35419">
        <ele>99</ele>
        <time>2019-02-02T01:32:28.000Z</time>
      </trkpt>
      <trkpt lat="44.86451" lon="1.35447">
        <ele>99</ele>
        <time>2019-02-02T01:33:28.000Z</time>
      </trkpt>
      <trkpt lat="44.86476" lon="1.35475">
        <ele>99</ele>
        <time>2019-02-02T01:34:28.000Z</time>
      </trkpt>
      <trkpt lat="44.86499" lon="1.35498">
        <ele>96</ele>
        <time>2019-02-02T01:35:28.000Z</time>
      </trkpt>
      <trkpt lat="44.86524" lon="1.35521">
        <ele>98</ele>
        <time>2019-02-02T01:36:28.000Z</time>
      </trkpt>
      <trkpt lat="44.86541" lon="1.35536">
        <ele>99</ele>
        <time>2019-02-02T01:37:28.000Z</time>
      </trkpt>
      <trkpt lat="44.86558" lon="1.35556">
        <ele>97</ele>
        <time>2019-02-02T01:38:28.000Z</time>
      </trkpt>
      <trkpt lat="44.86578" lon="1.35573">
        <ele>95</ele>
        <time>2019-02-02T01:39:28.000Z</time>
      </trkpt>
      <trkpt lat="44.86603" lon="1.35595">
        <ele>94</ele>
        <time>2019-02-02T01:40:28.000Z</time>
      </trkpt>
      <trkpt lat="44.86631" lon="1.35619">
        <ele>94</ele>
        <time>2019-02-02T01:41:28.000Z</time>
      </trkpt>
      <trkpt lat="44.8665" lon="1.3564">
        <ele>92</ele>
        <time>2019-02-02T01:42:28.000Z</time>
      </trkpt>
      <trkpt lat="44.86665" lon="1.3566">
        <ele>88</ele>
        <time>2019-02-02T01:43:28.000Z</time>
      </trkpt>
      <trkpt lat="44.86665" lon="1.35674">
        <ele>86</ele>
        <time>2019-02-02T01:44:28.000Z</time>
      </trkpt>
      <trkpt lat="44.86671" lon="1.35685">
        <ele>86</ele>
        <time>2019-02-02T01:45:28.000Z</time>
      </trkpt>
      <trkpt lat="44.86679" lon="1.35691">
        <ele>86</ele>
        <time>2019-02-02T01:46:28.000Z</time>
      </trkpt>
      <trkpt lat="44.86685" lon="1.35709">
        <ele>87</ele>
        <time>2019-02-02T01:47:28.000Z</time>
      </trkpt>
      <trkpt lat="44.86692" lon="1.35724">
        <ele>87</ele>
        <time>2019-02-02T01:48:28.000Z</time>
      </trkpt>
      <trkpt lat="44.86666" lon="1.35731">
        <ele>84</ele>
        <time>2019-02-02T01:49:28.000Z</time>
      </trkpt>
      <trkpt lat="44.86686" lon="1.35731">
        <ele>86</ele>
        <time>2019-02-02T01:50:28.000Z</time>
      </trkpt>
      <trkpt lat="44.86696" lon="1.35731">
        <ele>87</ele>
        <time>2019-02-02T01:51:28.000Z</time>
      </trkpt>
      <trkpt lat="44.86723" lon="1.35784">
        <ele>92</ele>
        <time>2019-02-02T01:52:28.000Z</time>
      </trkpt>
      <trkpt lat="44.86759" lon="1.35861">
        <ele>98</ele>
        <time>2019-02-02T01:53:28.000Z</time>
      </trkpt>
      <trkpt lat="44.86791" lon="1.35948">
        <ele>103</ele>
        <time>2019-02-02T01:54:28.000Z</time>
      </trkpt>
      <trkpt lat="44.86819" lon="1.36031">
        <ele>98</ele>
        <time>2019-02-02T01:55:28.000Z</time>
      </trkpt>
      <trkpt lat="44.86867" lon="1.36126">
        <ele>94</ele>
        <time>2019-02-02T01:56:28.000Z</time>
      </trkpt>
      <trkpt lat="44.86913" lon="1.36208">
        <ele>92</ele>
        <time>2019-02-02T01:57:28.000Z</time>
      </trkpt>
      <trkpt lat="44.86969" lon="1.36272">
        <ele>89</ele>
        <time>2019-02-02T01:58:28.000Z</time>
      </trkpt>
      <trkpt lat="44.87018" lon="1.36363">
        <ele>89</ele>
        <time>2019-02-02T01:59:28.000Z</time>
      </trkpt>
      <trkpt lat="44.87083" lon="1.36429">
        <ele>87</ele>
        <time>2019-02-02T02:00:28.000Z</time>
      </trkpt>
      <trkpt lat="44.87123" lon="1.36505">
        <ele>87</ele>
        <time>2019-02-02T02:01:28.000Z</time>
      </trkpt>
      <trkpt lat="44.87187" lon="1.3659">
        <ele>86</ele>
        <time>2019-02-02T02:02:28.000Z</time>
      </trkpt>
      <trkpt lat="44.87245" lon="1.36701">
        <ele>85</ele>
        <time>2019-02-02T02:03:28.000Z</time>
      </trkpt>
      <trkpt lat="44.87311" lon="1.36774">
        <ele>85</ele>
        <time>2019-02-02T02:04:28.000Z</time>
      </trkpt>
      <trkpt lat="44.87371" lon="1.36865">
        <ele>85</ele>
        <time>2019-02-02T02:05:28.000Z</time>
      </trkpt>
      <trkpt lat="44.87447" lon="1.36956">
        <ele>86</ele>
        <time>2019-02-02T02:06:28.000Z</time>
      </trkpt>
      <trkpt lat="44.87502" lon="1.37023">
        <ele>85</ele>
        <time>2019-02-02T02:07:28.000Z</time>
      </trkpt>
      <trkpt lat="44.87557" lon="1.3711">
        <ele>84</ele>
        <time>2019-02-02T02:08:28.000Z</time>
      </trkpt>
      <trkpt lat="44.87615" lon="1.37187">
        <ele>83</ele>
        <time>2019-02-02T02:09:28.000Z</time>
      </trkpt>
      <trkpt lat="44.87662" lon="1.37262">
        <ele>83</ele>
        <time>2019-02-02T02:10:28.000Z</time>
      </trkpt>
      <trkpt lat="44.87716" lon="1.37331">
        <ele>82</ele>
        <time>2019-02-02T02:11:28.000Z</time>
      </trkpt>
      <trkpt lat="44.8778" lon="1.37436">
        <ele>83</ele>
        <time>2019-02-02T02:12:28.000Z</time>
      </trkpt>
      <trkpt lat="44.87852" lon="1.3753">
        <ele>84</ele>
        <time>2019-02-02T02:13:28.000Z</time>
      </trkpt>
      <trkpt lat="44.87896" lon="1.37583">
        <ele>86</ele>
        <time>2019-02-02T02:14:28.000Z</time>
      </trkpt>
      <trkpt lat="44.8795" lon="1.37666">
        <ele>90</ele>
        <time>2019-02-02T02:15:28.000Z</time>
      </trkpt>
      <trkpt lat="44.88002" lon="1.37738">
        <ele>95</ele>
        <time>2019-02-02T02:16:28.000Z</time>
      </trkpt>
      <trkpt lat="44.88051" lon="1.37828">
        <ele>94</ele>
        <time>2019-02-02T02:17:28.000Z</time>
      </trkpt>
      <trkpt lat="44.88124" lon="1.37893">
        <ele>94</ele>
        <time>2019-02-02T02:18:28.000Z</time>
      </trkpt>
      <trkpt lat="44.88186" lon="1.37971">
        <ele>87</ele>
        <time>2019-02-02T02:19:28.000Z</time>
      </trkpt>
      <trkpt lat="44.88249" lon="1.38021">
        <ele>85</ele>
        <time>2019-02-02T02:20:28.000Z</time>
      </trkpt>
      <trkpt lat="44.88298" lon="1.38072">
        <ele>86</ele>
        <time>2019-02-02T02:21:28.000Z</time>
      </trkpt>
      <trkpt lat="44.88365" lon="1.38125">
        <ele>87</ele>
        <time>2019-02-02T02:22:28.000Z</time>
      </trkpt>
      <trkpt lat="44.88443" lon="1.38193">
        <ele>84</ele>
        <time>2019-02-02T02:23:28.000Z</time>
      </trkpt>
      <trkpt lat="44.88501" lon="1.38246">
        <ele>83</ele>
        <time>2019-02-02T02:24:28.000Z</time>
      </trkpt>
      <trkpt lat="44.88563" lon="1.38288">
        <ele>85</ele>
        <time>2019-02-02T02:25:28.000Z</time>
      </trkpt>
      <trkpt lat="44.88627" lon="1.38362">
        <ele>86</ele>
        <time>2019-02-02T02:26:28.000Z</time>
      </trkpt>
      <trkpt lat="44.88683" lon="1.38424">
        <ele>88</ele>
        <time>2019-02-02T02:27:28.000Z</time>
      </trkpt>
      <trkpt lat="44.88714" lon="1.38505">
        <ele>89</ele>
        <time>2019-02-02T02:28:28.000Z</time>
      </trkpt>
      <trkpt lat="44.88744" lon="1.38588">
        <ele>89</ele>
        <time>2019-02-02T02:29:28.000Z</time>
      </trkpt>
      <trkpt lat="44.88762" lon="1.38671">
        <ele>92</ele>
        <time>2019-02-02T02:30:28.000Z</time>
      </trkpt>
      <trkpt lat="44.88774" lon="1.38771">
        <ele>91</ele>
        <time>2019-02-02T02:31:28.000Z</time>
      </trkpt>
      <trkpt lat="44.8878" lon="1.38885">
        <ele>91</ele>
        <time>2019-02-02T02:32:28.000Z</time>
      </trkpt>
      <trkpt lat="44.88789" lon="1.38985">
        <ele>90</ele>
        <time>2019-02-02T02:33:28.000Z</time>
      </trkpt>
      <trkpt lat="44.88803" lon="1.39112">
        <ele>90</ele>
        <time>2019-02-02T02:34:28.000Z</time>
      </trkpt>
      <trkpt lat="44.88809" lon="1.39231">
        <ele>87</ele>
        <time>2019-02-02T02:35:28.000Z</time>
      </trkpt>
      <trkpt lat="44.8882" lon="1.39308">
        <ele>87</ele>
        <time>2019-02-02T02:36:28.000Z</time>
      </trkpt>
      <trkpt lat="44.88833" lon="1.39438">
        <ele>86</ele>
        <time>2019-02-02T02:37:28.000Z</time>
      </trkpt>
      <trkpt lat="44.88832" lon="1.39548">
        <ele>86</ele>
        <time>2019-02-02T02:38:28.000Z</time>
      </trkpt>
      <trkpt lat="44.88843" lon="1.39661">
        <ele>85</ele>
        <time>2019-02-02T02:39:28.000Z</time>
      </trkpt>
      <trkpt lat="44.88839" lon="1.39794">
        <ele>86</ele>
        <time>2019-02-02T02:40:28.000Z</time>
      </trkpt>
      <trkpt lat="44.88846" lon="1.39896">
        <ele>85</ele>
        <time>2019-02-02T02:41:28.000Z</time>
      </trkpt>
      <trkpt lat="44.88862" lon="1.40027">
        <ele>86</ele>
        <time>2019-02-02T02:42:28.000Z</time>
      </trkpt>
      <trkpt lat="44.88873" lon="1.40141">
        <ele>90</ele>
        <time>2019-02-02T02:43:28.000Z</time>
      </trkpt>
      <trkpt lat="44.88865" lon="1.40252">
        <ele>96</ele>
        <time>2019-02-02T02:44:28.000Z</time>
      </trkpt>
      <trkpt lat="44.88846" lon="1.40345">
        <ele>92</ele>
        <time>2019-02-02T02:45:28.000Z</time>
      </trkpt>
      <trkpt lat="44.88805" lon="1.40441">
        <ele>90</ele>
        <time>2019-02-02T02:46:28.000Z</time>
      </trkpt>
      <trkpt lat="44.88745" lon="1.40525">
        <ele>87</ele>
        <time>2019-02-02T02:47:28.000Z</time>
      </trkpt>
      <trkpt lat="44.88678" lon="1.40609">
        <ele>85</ele>
        <time>2019-02-02T02:48:28.000Z</time>
      </trkpt>
      <trkpt lat="44.88629" lon="1.40689">
        <ele>86</ele>
        <time>2019-02-02T02:49:28.000Z</time>
      </trkpt>
      <trkpt lat="44.88601" lon="1.40741">
        <ele>88</ele>
        <time>2019-02-02T02:50:28.000Z</time>
      </trkpt>
      <trkpt lat="44.88597" lon="1.40729">
        <ele>87</ele>
        <time>2019-02-02T02:51:28.000Z</time>
      </trkpt>
      <trkpt lat="44.8859" lon="1.4074">
        <ele>88</ele>
        <time>2019-02-02T02:52:28.000Z</time>
      </trkpt>
      <trkpt lat="44.88587" lon="1.40796">
        <ele>88</ele>
        <time>2019-02-02T02:53:28.000Z</time>
      </trkpt>
      <trkpt lat="44.88537" lon="1.40855">
        <ele>86</ele>
        <time>2019-02-02T02:54:28.000Z</time>
      </trkpt>
      <trkpt lat="44.8851" lon="1.40881">
        <ele>85</ele>
        <time>2019-02-02T02:55:28.000Z</time>
      </trkpt>
      <trkpt lat="44.88517" lon="1.40873">
        <ele>85</ele>
        <time>2019-02-02T02:56:28.000Z</time>
      </trkpt>
      <trkpt lat="44.88532" lon="1.40865">
        <ele>86</ele>
        <time>2019-02-02T02:57:28.000Z</time>
      </trkpt>
      <trkpt lat="44.88547" lon="1.40877">
        <ele>87</ele>
        <time>2019-02-02T02:58:28.000Z</time>
      </trkpt>
      <trkpt lat="44.88556" lon="1.40887">
        <ele>87</ele>
        <time>2019-02-02T02:59:28.000Z</time>
      </trkpt>
      <trkpt lat="44.88582" lon="1.40897">
        <ele>88</ele>
        <time>2019-02-02T03:00:28.000Z</time>
      </trkpt>
      <trkpt lat="44.88584" lon="1.40929">
        <ele>88</ele>
        <time>2019-02-02T03:01:28.000Z</time>
      </trkpt>
      <trkpt lat="44.88579" lon="1.40968">
        <ele>89</ele>
        <time>2019-02-02T03:02:28.000Z</time>
      </trkpt>
      <trkpt lat="44.88576" lon="1.41001">
        <ele>90</ele>
        <time>2019-02-02T03:03:28.000Z</time>
      </trkpt>
      <trkpt lat="44.8857" lon="1.41036">
        <ele>91</ele>
        <time>2019-02-02T03:04:28.000Z</time>
      </trkpt>
      <trkpt lat="44.88567" lon="1.41072">
        <ele>92</ele>
        <time>2019-02-02T03:05:28.000Z</time>
      </trkpt>
      <trkpt lat="44.88563" lon="1.41096">
        <ele>95</ele>
        <time>2019-02-02T03:06:28.000Z</time>
      </trkpt>
      <trkpt lat="44.88555" lon="1.41128">
        <ele>99</ele>
        <time>2019-02-02T03:07:28.000Z</time>
      </trkpt>
      <trkpt lat="44.88547" lon="1.41154">
        <ele>100</ele>
        <time>2019-02-02T03:08:28.000Z</time>
      </trkpt>
      <trkpt lat="44.88539" lon="1.41175">
        <ele>101</ele>
        <time>2019-02-02T03:09:28.000Z</time>
      </trkpt>
      <trkpt lat="44.88522" lon="1.41223">
        <ele>103</ele>
        <time>2019-02-02T03:10:28.000Z</time>
      </trkpt>
      <trkpt lat="44.88511" lon="1.41248">
        <ele>102</ele>
        <time>2019-02-02T03:11:28.000Z</time>
      </trkpt>
      <trkpt lat="44.88491" lon="1.41301">
        <ele>104</ele>
        <time>2019-02-02T03:12:28.000Z</time>
      </trkpt>
      <trkpt lat="44.88469" lon="1.41353">
        <ele>107</ele>
        <time>2019-02-02T03:13:28.000Z</time>
      </trkpt>
      <trkpt lat="44.88457" lon="1.4138">
        <ele>106</ele>
        <time>2019-02-02T03:14:28.000Z</time>
      </trkpt>
      <trkpt lat="44.88448" lon="1.41409">
        <ele>106</ele>
        <time>2019-02-02T03:15:28.000Z</time>
      </trkpt>
      <trkpt lat="44.88428" lon="1.41463">
        <ele>106</ele>
        <time>2019-02-02T03:16:28.000Z</time>
      </trkpt>
      <trkpt lat="44.88416" lon="1.41492">
        <ele>105</ele>
        <time>2019-02-02T03:17:28.000Z</time>
      </trkpt>
      <trkpt lat="44.88404" lon="1.41515">
        <ele>107</ele>
        <time>2019-02-02T03:18:28.000Z</time>
      </trkpt>
      <trkpt lat="44.88391" lon="1.41537">
        <ele>107</ele>
        <time>2019-02-02T03:19:28.000Z</time>
      </trkpt>
      <trkpt lat="44.88377" lon="1.41566">
        <ele>108</ele>
        <time>2019-02-02T03:20:28.000Z</time>
      </trkpt>
      <trkpt lat="44.88363" lon="1.41595">
        <ele>107</ele>
        <time>2019-02-02T03:21:28.000Z</time>
      </trkpt>
      <trkpt lat="44.8835" lon="1.41624">
        <ele>106</ele>
        <time>2019-02-02T03:22:28.000Z</time>
      </trkpt>
      <trkpt lat="44.88339" lon="1.41653">
        <ele>105</ele>
        <time>2019-02-02T03:23:28.000Z</time>
      </trkpt>
      <trkpt lat="44.88324" lon="1.41684">
        <ele>105</ele>
        <time>2019-02-02T03:24:28.000Z</time>
      </trkpt>
      <trkpt lat="44.88299" lon="1.41737">
        <ele>105</ele>
        <time>2019-02-02T03:25:28.000Z</time>
      </trkpt>
      <trkpt lat="44.88301" lon="1.41766">
        <ele>107</ele>
        <time>2019-02-02T03:26:28.000Z</time>
      </trkpt>
      <trkpt lat="44.88308" lon="1.41799">
        <ele>108</ele>
        <time>2019-02-02T03:27:28.000Z</time>
      </trkpt>
      <trkpt lat="44.88313" lon="1.41834">
        <ele>109</ele>
        <time>2019-02-02T03:28:28.000Z</time>
      </trkpt>
      <trkpt lat="44.8831" lon="1.41864">
        <ele>110</ele>
        <time>2019-02-02T03:29:28.000Z</time>
      </trkpt>
      <trkpt lat="44.88302" lon="1.41887">
        <ele>111</ele>
        <time>2019-02-02T03:30:28.000Z</time>
      </trkpt>
      <trkpt lat="44.88287" lon="1.41907">
        <ele>111</ele>
        <time>2019-02-02T03:31:28.000Z</time>
      </trkpt>
      <trkpt lat="44.88272" lon="1.41922">
        <ele>111</ele>
        <time>2019-02-02T03:32:28.000Z</time>
      </trkpt>
      <trkpt lat="44.88263" lon="1.41929">
        <ele>111</ele>
        <time>2019-02-02T03:33:28.000Z</time>
      </trkpt>
      <trkpt lat="44.88249" lon="1.41939">
        <ele>111</ele>
        <time>2019-02-02T03:34:28.000Z</time>
      </trkpt>
      <trkpt lat="44.88237" lon="1.41942">
        <ele>111</ele>
        <time>2019-02-02T03:35:28.000Z</time>
      </trkpt>
      <trkpt lat="44.8823" lon="1.41966">
        <ele>112</ele>
        <time>2019-02-02T03:36:28.000Z</time>
      </trkpt>
      <trkpt lat="44.88223" lon="1.41992">
        <ele>112</ele>
        <time>2019-02-02T03:37:28.000Z</time>
      </trkpt>
      <trkpt lat="44.88216" lon="1.42027">
        <ele>112</ele>
        <time>2019-02-02T03:38:28.000Z</time>
      </trkpt>
      <trkpt lat="44.8821" lon="1.42054">
        <ele>112</ele>
        <time>2019-02-02T03:39:28.000Z</time>
      </trkpt>
      <trkpt lat="44.88205" lon="1.42091">
        <ele>111</ele>
        <time>2019-02-02T03:40:28.000Z</time>
      </trkpt>
      <trkpt lat="44.88205" lon="1.4213">
        <ele>111</ele>
        <time>2019-02-02T03:41:28.000Z</time>
      </trkpt>
      <trkpt lat="44.88207" lon="1.42166">
        <ele>111</ele>
        <time>2019-02-02T03:42:28.000Z</time>
      </trkpt>
      <trkpt lat="44.88208" lon="1.42209">
        <ele>111</ele>
        <time>2019-02-02T03:43:28.000Z</time>
      </trkpt>
      <trkpt lat="44.88209" lon="1.42248">
        <ele>111</ele>
        <time>2019-02-02T03:44:28.000Z</time>
      </trkpt>
      <trkpt lat="44.88211" lon="1.42295">
        <ele>111</ele>
        <time>2019-02-02T03:45:28.000Z</time>
      </trkpt>
      <trkpt lat="44.88211" lon="1.42332">
        <ele>111</ele>
        <time>2019-02-02T03:46:28.000Z</time>
      </trkpt>
      <trkpt lat="44.88215" lon="1.42421">
        <ele>112</ele>
        <time>2019-02-02T03:47:28.000Z</time>
      </trkpt>
      <trkpt lat="44.88219" lon="1.42467">
        <ele>112</ele>
        <time>2019-02-02T03:48:28.000Z</time>
      </trkpt>
      <trkpt lat="44.88216" lon="1.42504">
        <ele>112</ele>
        <time>2019-02-02T03:49:28.000Z</time>
      </trkpt>
      <trkpt lat="44.88218" lon="1.4255">
        <ele>113</ele>
        <time>2019-02-02T03:50:28.000Z</time>
      </trkpt>
      <trkpt lat="44.88218" lon="1.42631">
        <ele>114</ele>
        <time>2019-02-02T03:51:28.000Z</time>
      </trkpt>
      <trkpt lat="44.88221" lon="1.42667">
        <ele>115</ele>
        <time>2019-02-02T03:52:28.000Z</time>
      </trkpt>
      <trkpt lat="44.88224" lon="1.42714">
        <ele>114</ele>
        <time>2019-02-02T03:53:28.000Z</time>
      </trkpt>
      <trkpt lat="44.88223" lon="1.42747">
        <ele>114</ele>
        <time>2019-02-02T03:54:28.000Z</time>
      </trkpt>
      <trkpt lat="44.88224" lon="1.42792">
        <ele>114</ele>
        <time>2019-02-02T03:55:28.000Z</time>
      </trkpt>
      <trkpt lat="44.88231" lon="1.42926">
        <ele>114</ele>
        <time>2019-02-02T03:56:28.000Z</time>
      </trkpt>
      <trkpt lat="44.88232" lon="1.42968">
        <ele>114</ele>
        <time>2019-02-02T03:57:28.000Z</time>
      </trkpt>
      <trkpt lat="44.88234" lon="1.43017">
        <ele>113</ele>
        <time>2019-02-02T03:58:28.000Z</time>
      </trkpt>
      <trkpt lat="44.88237" lon="1.43067">
        <ele>113</ele>
        <time>2019-02-02T03:59:28.000Z</time>
      </trkpt>
      <trkpt lat="44.88237" lon="1.43115">
        <ele>113</ele>
        <time>2019-02-02T04:00:28.000Z</time>
      </trkpt>
      <trkpt lat="44.88236" lon="1.43208">
        <ele>115</ele>
        <time>2019-02-02T04:01:28.000Z</time>
      </trkpt>
      <trkpt lat="44.8824" lon="1.43252">
        <ele>116</ele>
        <time>2019-02-02T04:02:28.000Z</time>
      </trkpt>
      <trkpt lat="44.8824" lon="1.43289">
        <ele>117</ele>
        <time>2019-02-02T04:03:28.000Z</time>
      </trkpt>
      <trkpt lat="44.88241" lon="1.43328">
        <ele>117</ele>
        <time>2019-02-02T04:04:28.000Z</time>
      </trkpt>
      <trkpt lat="44.88242" lon="1.43363">
        <ele>118</ele>
        <time>2019-02-02T04:05:28.000Z</time>
      </trkpt>
      <trkpt lat="44.88245" lon="1.434">
        <ele>118</ele>
        <time>2019-02-02T04:06:28.000Z</time>
      </trkpt>
      <trkpt lat="44.88246" lon="1.43447">
        <ele>117</ele>
        <time>2019-02-02T04:07:28.000Z</time>
      </trkpt>
      <trkpt lat="44.8825" lon="1.43496">
        <ele>116</ele>
        <time>2019-02-02T04:08:28.000Z</time>
      </trkpt>
      <trkpt lat="44.88254" lon="1.43536">
        <ele>115</ele>
        <time>2019-02-02T04:09:28.000Z</time>
      </trkpt>
      <trkpt lat="44.8826" lon="1.43579">
        <ele>115</ele>
        <time>2019-02-02T04:10:28.000Z</time>
      </trkpt>
      <trkpt lat="44.88271" lon="1.43627">
        <ele>115</ele>
        <time>2019-02-02T04:11:28.000Z</time>
      </trkpt>
      <trkpt lat="44.88286" lon="1.43672">
        <ele>116</ele>
        <time>2019-02-02T04:12:28.000Z</time>
      </trkpt>
      <trkpt lat="44.88299" lon="1.43711">
        <ele>115</ele>
        <time>2019-02-02T04:13:28.000Z</time>
      </trkpt>
      <trkpt lat="44.88316" lon="1.4376">
        <ele>114</ele>
        <time>2019-02-02T04:14:28.000Z</time>
      </trkpt>
      <trkpt lat="44.88333" lon="1.43796">
        <ele>114</ele>
        <time>2019-02-02T04:15:28.000Z</time>
      </trkpt>
      <trkpt lat="44.88379" lon="1.43874">
        <ele>111</ele>
        <time>2019-02-02T04:16:28.000Z</time>
      </trkpt>
      <trkpt lat="44.88404" lon="1.43915">
        <ele>109</ele>
        <time>2019-02-02T04:17:28.000Z</time>
      </trkpt>
      <trkpt lat="44.88428" lon="1.43949">
        <ele>106</ele>
        <time>2019-02-02T04:18:28.000Z</time>
      </trkpt>
      <trkpt lat="44.88456" lon="1.43974">
        <ele>104</ele>
        <time>2019-02-02T04:19:28.000Z</time>
      </trkpt>
      <trkpt lat="44.88487" lon="1.43988">
        <ele>104</ele>
        <time>2019-02-02T04:20:28.000Z</time>
      </trkpt>
      <trkpt lat="44.88528" lon="1.43986">
        <ele>105</ele>
        <time>2019-02-02T04:21:28.000Z</time>
      </trkpt>
      <trkpt lat="44.8856" lon="1.43969">
        <ele>108</ele>
        <time>2019-02-02T04:22:28.000Z</time>
      </trkpt>
      <trkpt lat="44.88595" lon="1.43946">
        <ele>112</ele>
        <time>2019-02-02T04:23:28.000Z</time>
      </trkpt>
      <trkpt lat="44.88639" lon="1.43922">
        <ele>113</ele>
        <time>2019-02-02T04:24:28.000Z</time>
      </trkpt>
      <trkpt lat="44.88684" lon="1.43902">
        <ele>115</ele>
        <time>2019-02-02T04:25:28.000Z</time>
      </trkpt>
      <trkpt lat="44.8872" lon="1.43886">
        <ele>120</ele>
        <time>2019-02-02T04:26:28.000Z</time>
      </trkpt>
      <trkpt lat="44.88771" lon="1.43878">
        <ele>123</ele>
        <time>2019-02-02T04:27:28.000Z</time>
      </trkpt>
      <trkpt lat="44.88824" lon="1.43883">
        <ele>121</ele>
        <time>2019-02-02T04:28:28.000Z</time>
      </trkpt>
      <trkpt lat="44.88875" lon="1.43892">
        <ele>117</ele>
        <time>2019-02-02T04:29:28.000Z</time>
      </trkpt>
      <trkpt lat="44.88919" lon="1.43894">
        <ele>118</ele>
        <time>2019-02-02T04:30:28.000Z</time>
      </trkpt>
      <trkpt lat="44.88971" lon="1.43897">
        <ele>119</ele>
        <time>2019-02-02T04:31:28.000Z</time>
      </trkpt>
      <trkpt lat="44.89023" lon="1.43915">
        <ele>112</ele>
        <time>2019-02-02T04:32:28.000Z</time>
      </trkpt>
      <trkpt lat="44.89068" lon="1.43933">
        <ele>111</ele>
        <time>2019-02-02T04:33:28.000Z</time>
      </trkpt>
      <trkpt lat="44.89112" lon="1.43957">
        <ele>107</ele>
        <time>2019-02-02T04:34:28.000Z</time>
      </trkpt>
      <trkpt lat="44.89151" lon="1.44017">
        <ele>94</ele>
        <time>2019-02-02T04:35:28.000Z</time>
      </trkpt>
      <trkpt lat="44.89171" lon="1.44074">
        <ele>91</ele>
        <time>2019-02-02T04:36:28.000Z</time>
      </trkpt>
      <trkpt lat="44.89195" lon="1.44138">
        <ele>89</ele>
        <time>2019-02-02T04:37:28.000Z</time>
      </trkpt>
      <trkpt lat="44.89214" lon="1.44188">
        <ele>88</ele>
        <time>2019-02-02T04:38:28.000Z</time>
      </trkpt>
      <trkpt lat="44.89231" lon="1.44235">
        <ele>88</ele>
        <time>2019-02-02T04:39:28.000Z</time>
      </trkpt>
      <trkpt lat="44.89249" lon="1.44283">
        <ele>89</ele>
        <time>2019-02-02T04:40:28.000Z</time>
      </trkpt>
      <trkpt lat="44.8927" lon="1.44342">
        <ele>89</ele>
        <time>2019-02-02T04:41:28.000Z</time>
      </trkpt>
      <trkpt lat="44.89293" lon="1.444">
        <ele>89</ele>
        <time>2019-02-02T04:42:28.000Z</time>
      </trkpt>
      <trkpt lat="44.8931" lon="1.44448">
        <ele>88</ele>
        <time>2019-02-02T04:43:28.000Z</time>
      </trkpt>
      <trkpt lat="44.8933" lon="1.44506">
        <ele>87</ele>
        <time>2019-02-02T04:44:28.000Z</time>
      </trkpt>
      <trkpt lat="44.89347" lon="1.44555">
        <ele>88</ele>
        <time>2019-02-02T04:45:28.000Z</time>
      </trkpt>
      <trkpt lat="44.89364" lon="1.44609">
        <ele>88</ele>
        <time>2019-02-02T04:46:28.000Z</time>
      </trkpt>
      <trkpt lat="44.89383" lon="1.44649">
        <ele>88</ele>
        <time>2019-02-02T04:47:28.000Z</time>
      </trkpt>
      <trkpt lat="44.89403" lon="1.44697">
        <ele>90</ele>
        <time>2019-02-02T04:48:28.000Z</time>
      </trkpt>
      <trkpt lat="44.89419" lon="1.44741">
        <ele>91</ele>
        <time>2019-02-02T04:49:28.000Z</time>
      </trkpt>
      <trkpt lat="44.89435" lon="1.44785">
        <ele>90</ele>
        <time>2019-02-02T04:50:28.000Z</time>
      </trkpt>
      <trkpt lat="44.89455" lon="1.44836">
        <ele>89</ele>
        <time>2019-02-02T04:51:28.000Z</time>
      </trkpt>
      <trkpt lat="44.89475" lon="1.44885">
        <ele>89</ele>
        <time>2019-02-02T04:52:28.000Z</time>
      </trkpt>
      <trkpt lat="44.89494" lon="1.44934">
        <ele>89</ele>
        <time>2019-02-02T04:53:28.000Z</time>
      </trkpt>
      <trkpt lat="44.89511" lon="1.4498">
        <ele>90</ele>
        <time>2019-02-02T04:54:28.000Z</time>
      </trkpt>
      <trkpt lat="44.89532" lon="1.45032">
        <ele>91</ele>
        <time>2019-02-02T04:55:28.000Z</time>
      </trkpt>
      <trkpt lat="44.89547" lon="1.45075">
        <ele>90</ele>
        <time>2019-02-02T04:56:28.000Z</time>
      </trkpt>
      <trkpt lat="44.89565" lon="1.45125">
        <ele>91</ele>
        <time>2019-02-02T04:57:28.000Z</time>
      </trkpt>
      <trkpt lat="44.89578" lon="1.45184">
        <ele>92</ele>
        <time>2019-02-02T04:58:28.000Z</time>
      </trkpt>
      <trkpt lat="44.89594" lon="1.45235">
        <ele>91</ele>
        <time>2019-02-02T04:59:28.000Z</time>
      </trkpt>
      <trkpt lat="44.89604" lon="1.45279">
        <ele>91</ele>
        <time>2019-02-02T05:00:28.000Z</time>
      </trkpt>
      <trkpt lat="44.89619" lon="1.45325">
        <ele>90</ele>
        <time>2019-02-02T05:01:28.000Z</time>
      </trkpt>
      <trkpt lat="44.89633" lon="1.4538">
        <ele>91</ele>
        <time>2019-02-02T05:02:28.000Z</time>
      </trkpt>
      <trkpt lat="44.89661" lon="1.45476">
        <ele>93</ele>
        <time>2019-02-02T05:03:28.000Z</time>
      </trkpt>
      <trkpt lat="44.89672" lon="1.4552">
        <ele>93</ele>
        <time>2019-02-02T05:04:28.000Z</time>
      </trkpt>
      <trkpt lat="44.89689" lon="1.45573">
        <ele>92</ele>
        <time>2019-02-02T05:05:28.000Z</time>
      </trkpt>
      <trkpt lat="44.89703" lon="1.45626">
        <ele>92</ele>
        <time>2019-02-02T05:06:28.000Z</time>
      </trkpt>
      <trkpt lat="44.89717" lon="1.45678">
        <ele>92</ele>
        <time>2019-02-02T05:07:28.000Z</time>
      </trkpt>
      <trkpt lat="44.89731" lon="1.45731">
        <ele>91</ele>
        <time>2019-02-02T05:08:28.000Z</time>
      </trkpt>
      <trkpt lat="44.89744" lon="1.45782">
        <ele>91</ele>
        <time>2019-02-02T05:09:28.000Z</time>
      </trkpt>
      <trkpt lat="44.8976" lon="1.45832">
        <ele>90</ele>
        <time>2019-02-02T05:10:28.000Z</time>
      </trkpt>
      <trkpt lat="44.8977" lon="1.45864">
        <ele>90</ele>
        <time>2019-02-02T05:11:28.000Z</time>
      </trkpt>
      <trkpt lat="44.89777" lon="1.45887">
        <ele>91</ele>
        <time>2019-02-02T05:12:28.000Z</time>
      </trkpt>
      <trkpt lat="44.89781" lon="1.45908">
        <ele>91</ele>
        <time>2019-02-02T05:13:28.000Z</time>
      </trkpt>
      <trkpt lat="44.89787" lon="1.45896">
        <ele>91</ele>
        <time>2019-02-02T05:14:28.000Z</time>
      </trkpt>
      <trkpt lat="44.89768" lon="1.45829">
        <ele>90</ele>
        <time>2019-02-02T05:15:28.000Z</time>
      </trkpt>
      <trkpt lat="44.89758" lon="1.45799">
        <ele>90</ele>
        <time>2019-02-02T05:16:28.000Z</time>
      </trkpt>
      <trkpt lat="44.89747" lon="1.45766">
        <ele>91</ele>
        <time>2019-02-02T05:17:28.000Z</time>
      </trkpt>
      <trkpt lat="44.89732" lon="1.45771">
        <ele>91</ele>
        <time>2019-02-02T05:18:28.000Z</time>
      </trkpt>
      <trkpt lat="44.89705" lon="1.45778">
        <ele>90</ele>
        <time>2019-02-02T05:19:28.000Z</time>
      </trkpt>
      <trkpt lat="44.89677" lon="1.45792">
        <ele>90</ele>
        <time>2019-02-02T05:20:28.000Z</time>
      </trkpt>
      <trkpt lat="44.89659" lon="1.458">
        <ele>90</ele>
        <time>2019-02-02T05:21:28.000Z</time>
      </trkpt>
      <trkpt lat="44.89638" lon="1.45812">
        <ele>90</ele>
        <time>2019-02-02T05:22:28.000Z</time>
      </trkpt>
      <trkpt lat="44.89609" lon="1.45825">
        <ele>89</ele>
        <time>2019-02-02T05:23:28.000Z</time>
      </trkpt>
      <trkpt lat="44.89587" lon="1.45835">
        <ele>89</ele>
        <time>2019-02-02T05:24:28.000Z</time>
      </trkpt>
      <trkpt lat="44.89566" lon="1.45844">
        <ele>88</ele>
        <time>2019-02-02T05:25:28.000Z</time>
      </trkpt>
      <trkpt lat="44.89547" lon="1.45855">
        <ele>88</ele>
        <time>2019-02-02T05:26:28.000Z</time>
      </trkpt>
      <trkpt lat="44.89526" lon="1.45867">
        <ele>87</ele>
        <time>2019-02-02T05:27:28.000Z</time>
      </trkpt>
      <trkpt lat="44.89513" lon="1.45897">
        <ele>87</ele>
        <time>2019-02-02T05:28:28.000Z</time>
      </trkpt>
      <trkpt lat="44.89512" lon="1.4597">
        <ele>88</ele>
        <time>2019-02-02T05:29:28.000Z</time>
      </trkpt>
      <trkpt lat="44.89509" lon="1.46014">
        <ele>88</ele>
        <time>2019-02-02T05:30:28.000Z</time>
      </trkpt>
      <trkpt lat="44.89501" lon="1.46052">
        <ele>89</ele>
        <time>2019-02-02T05:31:28.000Z</time>
      </trkpt>
      <trkpt lat="44.89497" lon="1.4609">
        <ele>89</ele>
        <time>2019-02-02T05:32:28.000Z</time>
      </trkpt>
      <trkpt lat="44.89486" lon="1.46134">
        <ele>90</ele>
        <time>2019-02-02T05:33:28.000Z</time>
      </trkpt>
      <trkpt lat="44.89476" lon="1.46178">
        <ele>91</ele>
        <time>2019-02-02T05:34:28.000Z</time>
      </trkpt>
      <trkpt lat="44.89464" lon="1.46213">
        <ele>91</ele>
        <time>2019-02-02T05:35:28.000Z</time>
      </trkpt>
      <trkpt lat="44.89451" lon="1.46243">
        <ele>91</ele>
        <time>2019-02-02T05:36:28.000Z</time>
      </trkpt>
      <trkpt lat="44.89437" lon="1.4627">
        <ele>91</ele>
        <time>2019-02-02T05:37:28.000Z</time>
      </trkpt>
      <trkpt lat="44.89409" lon="1.46301">
        <ele>90</ele>
        <time>2019-02-02T05:38:28.000Z</time>
      </trkpt>
      <trkpt lat="44.8939" lon="1.46325">
        <ele>89</ele>
        <time>2019-02-02T05:39:28.000Z</time>
      </trkpt>
      <trkpt lat="44.89363" lon="1.46356">
        <ele>89</ele>
        <time>2019-02-02T05:40:28.000Z</time>
      </trkpt>
      <trkpt lat="44.89343" lon="1.46375">
        <ele>89</ele>
        <time>2019-02-02T05:41:28.000Z</time>
      </trkpt>
      <trkpt lat="44.89329" lon="1.46402">
        <ele>89</ele>
        <time>2019-02-02T05:42:28.000Z</time>
      </trkpt>
      <trkpt lat="44.89306" lon="1.46434">
        <ele>89</ele>
        <time>2019-02-02T05:43:28.000Z</time>
      </trkpt>
      <trkpt lat="44.89289" lon="1.46461">
        <ele>88</ele>
        <time>2019-02-02T05:44:28.000Z</time>
      </trkpt>
      <trkpt lat="44.8927" lon="1.46499">
        <ele>88</ele>
        <time>2019-02-02T05:45:28.000Z</time>
      </trkpt>
      <trkpt lat="44.8926" lon="1.46542">
        <ele>89</ele>
        <time>2019-02-02T05:46:28.000Z</time>
      </trkpt>
      <trkpt lat="44.89244" lon="1.46626">
        <ele>90</ele>
        <time>2019-02-02T05:47:28.000Z</time>
      </trkpt>
      <trkpt lat="44.89225" lon="1.46695">
        <ele>91</ele>
        <time>2019-02-02T05:48:28.000Z</time>
      </trkpt>
      <trkpt lat="44.89206" lon="1.46729">
        <ele>90</ele>
        <time>2019-02-02T05:49:28.000Z</time>
      </trkpt>
      <trkpt lat="44.8918" lon="1.46749">
        <ele>90</ele>
        <time>2019-02-02T05:50:28.000Z</time>
      </trkpt>
      <trkpt lat="44.89152" lon="1.46766">
        <ele>89</ele>
        <time>2019-02-02T05:51:28.000Z</time>
      </trkpt>
      <trkpt lat="44.8912" lon="1.46791">
        <ele>88</ele>
        <time>2019-02-02T05:52:28.000Z</time>
      </trkpt>
      <trkpt lat="44.89103" lon="1.46818">
        <ele>88</ele>
        <time>2019-02-02T05:53:28.000Z</time>
      </trkpt>
      <trkpt lat="44.89094" lon="1.46833">
        <ele>87</ele>
        <time>2019-02-02T05:54:28.000Z</time>
      </trkpt>
      <trkpt lat="44.8909" lon="1.46856">
        <ele>87</ele>
        <time>2019-02-02T05:55:28.000Z</time>
      </trkpt>
      <trkpt lat="44.89087" lon="1.46896">
        <ele>87</ele>
        <time>2019-02-02T05:56:28.000Z</time>
      </trkpt>
      <trkpt lat="44.89088" lon="1.4693">
        <ele>87</ele>
        <time>2019-02-02T05:57:28.000Z</time>
      </trkpt>
      <trkpt lat="44.89086" lon="1.46969">
        <ele>88</ele>
        <time>2019-02-02T05:58:28.000Z</time>
      </trkpt>
      <trkpt lat="44.89089" lon="1.47006">
        <ele>89</ele>
        <time>2019-02-02T05:59:28.000Z</time>
      </trkpt>
      <trkpt lat="44.89089" lon="1.47048">
        <ele>88</ele>
        <time>2019-02-02T06:00:28.000Z</time>
      </trkpt>
      <trkpt lat="44.89089" lon="1.47081">
        <ele>88</ele>
        <time>2019-02-02T06:01:28.000Z</time>
      </trkpt>
      <trkpt lat="44.89091" lon="1.47122">
        <ele>88</ele>
        <time>2019-02-02T06:02:28.000Z</time>
      </trkpt>
      <trkpt lat="44.89092" lon="1.47152">
        <ele>88</ele>
        <time>2019-02-02T06:03:28.000Z</time>
      </trkpt>
      <trkpt lat="44.89093" lon="1.47191">
        <ele>89</ele>
        <time>2019-02-02T06:04:28.000Z</time>
      </trkpt>
      <trkpt lat="44.89105" lon="1.47222">
        <ele>90</ele>
        <time>2019-02-02T06:05:28.000Z</time>
      </trkpt>
      <trkpt lat="44.89119" lon="1.4725">
        <ele>90</ele>
        <time>2019-02-02T06:06:28.000Z</time>
      </trkpt>
      <trkpt lat="44.89142" lon="1.47313">
        <ele>91</ele>
        <time>2019-02-02T06:07:28.000Z</time>
      </trkpt>
      <trkpt lat="44.89154" lon="1.4734">
        <ele>91</ele>
        <time>2019-02-02T06:08:28.000Z</time>
      </trkpt>
      <trkpt lat="44.89159" lon="1.47368">
        <ele>91</ele>
        <time>2019-02-02T06:09:28.000Z</time>
      </trkpt>
      <trkpt lat="44.89167" lon="1.47407">
        <ele>92</ele>
        <time>2019-02-02T06:10:28.000Z</time>
      </trkpt>
      <trkpt lat="44.89175" lon="1.47441">
        <ele>92</ele>
        <time>2019-02-02T06:11:28.000Z</time>
      </trkpt>
      <trkpt lat="44.89182" lon="1.47478">
        <ele>91</ele>
        <time>2019-02-02T06:12:28.000Z</time>
      </trkpt>
      <trkpt lat="44.89188" lon="1.47507">
        <ele>91</ele>
        <time>2019-02-02T06:13:28.000Z</time>
      </trkpt>
      <trkpt lat="44.89196" lon="1.47547">
        <ele>90</ele>
        <time>2019-02-02T06:14:28.000Z</time>
      </trkpt>
      <trkpt lat="44.8921" lon="1.47579">
        <ele>90</ele>
        <time>2019-02-02T06:15:28.000Z</time>
      </trkpt>
      <trkpt lat="44.89224" lon="1.47595">
        <ele>91</ele>
        <time>2019-02-02T06:16:28.000Z</time>
      </trkpt>
      <trkpt lat="44.89241" lon="1.47606">
        <ele>92</ele>
        <time>2019-02-02T06:17:28.000Z</time>
      </trkpt>
      <trkpt lat="44.89248" lon="1.47613">
        <ele>92</ele>
        <time>2019-02-02T06:18:28.000Z</time>
      </trkpt>
      <trkpt lat="44.89246" lon="1.47636">
        <ele>93</ele>
        <time>2019-02-02T06:19:28.000Z</time>
      </trkpt>
      <trkpt lat="44.8925" lon="1.47663">
        <ele>93</ele>
        <time>2019-02-02T06:20:28.000Z</time>
      </trkpt>
      <trkpt lat="44.89262" lon="1.47692">
        <ele>94</ele>
        <time>2019-02-02T06:21:28.000Z</time>
      </trkpt>
      <trkpt lat="44.89275" lon="1.47715">
        <ele>94</ele>
        <time>2019-02-02T06:22:28.000Z</time>
      </trkpt>
      <trkpt lat="44.89269" lon="1.47725">
        <ele>94</ele>
        <time>2019-02-02T06:23:28.000Z</time>
      </trkpt>
      <trkpt lat="44.89259" lon="1.47733">
        <ele>93</ele>
        <time>2019-02-02T06:24:28.000Z</time>
      </trkpt>
      <trkpt lat="44.89241" lon="1.47751">
        <ele>93</ele>
        <time>2019-02-02T06:25:28.000Z</time>
      </trkpt>
      <trkpt lat="44.89228" lon="1.47768">
        <ele>93</ele>
        <time>2019-02-02T06:26:28.000Z</time>
      </trkpt>
      <trkpt lat="44.89218" lon="1.47781">
        <ele>93</ele>
        <time>2019-02-02T06:27:28.000Z</time>
      </trkpt>
      <trkpt lat="44.89206" lon="1.47791">
        <ele>93</ele>
        <time>2019-02-02T06:28:28.000Z</time>
      </trkpt>
      <trkpt lat="44.89186" lon="1.47809">
        <ele>93</ele>
        <time>2019-02-02T06:29:28.000Z</time>
      </trkpt>
      <trkpt lat="44.89166" lon="1.47825">
        <ele>94</ele>
        <time>2019-02-02T06:30:28.000Z</time>
      </trkpt>
      <trkpt lat="44.89141" lon="1.4784">
        <ele>93</ele>
        <time>2019-02-02T06:31:28.000Z</time>
      </trkpt>
      <trkpt lat="44.89116" lon="1.47854">
        <ele>93</ele>
        <time>2019-02-02T06:32:28.000Z</time>
      </trkpt>
      <trkpt lat="44.89095" lon="1.47864">
        <ele>93</ele>
        <time>2019-02-02T06:33:28.000Z</time>
      </trkpt>
      <trkpt lat="44.89071" lon="1.47884">
        <ele>92</ele>
        <time>2019-02-02T06:34:28.000Z</time>
      </trkpt>
      <trkpt lat="44.89047" lon="1.47903">
        <ele>92</ele>
        <time>2019-02-02T06:35:28.000Z</time>
      </trkpt>
      <trkpt lat="44.89027" lon="1.47916">
        <ele>91</ele>
        <time>2019-02-02T06:36:28.000Z</time>
      </trkpt>
      <trkpt lat="44.89007" lon="1.4793">
        <ele>90</ele>
        <time>2019-02-02T06:37:28.000Z</time>
      </trkpt>
      <trkpt lat="44.88984" lon="1.47948">
        <ele>90</ele>
        <time>2019-02-02T06:38:28.000Z</time>
      </trkpt>
      <trkpt lat="44.88962" lon="1.47968">
        <ele>91</ele>
        <time>2019-02-02T06:39:28.000Z</time>
      </trkpt>
      <trkpt lat="44.8894" lon="1.47987">
        <ele>91</ele>
        <time>2019-02-02T06:40:28.000Z</time>
      </trkpt>
      <trkpt lat="44.8892" lon="1.48004">
        <ele>92</ele>
        <time>2019-02-02T06:41:28.000Z</time>
      </trkpt>
      <trkpt lat="44.889" lon="1.48024">
        <ele>93</ele>
        <time>2019-02-02T06:42:28.000Z</time>
      </trkpt>
      <trkpt lat="44.88878" lon="1.4805">
        <ele>93</ele>
        <time>2019-02-02T06:43:28.000Z</time>
      </trkpt>
      <trkpt lat="44.88857" lon="1.48071">
        <ele>93</ele>
        <time>2019-02-02T06:44:28.000Z</time>
      </trkpt>
      <trkpt lat="44.88837" lon="1.4809">
        <ele>93</ele>
        <time>2019-02-02T06:45:28.000Z</time>
      </trkpt>
      <trkpt lat="44.8879" lon="1.48138">
        <ele>92</ele>
        <time>2019-02-02T06:46:28.000Z</time>
      </trkpt>
      <trkpt lat="44.88761" lon="1.48133">
        <ele>92</ele>
        <time>2019-02-02T06:47:28.000Z</time>
      </trkpt>
      <trkpt lat="44.88737" lon="1.48107">
        <ele>90</ele>
        <time>2019-02-02T06:48:28.000Z</time>
      </trkpt>
      <trkpt lat="44.8872" lon="1.48108">
        <ele>90</ele>
        <time>2019-02-02T06:49:28.000Z</time>
      </trkpt>
      <trkpt lat="44.88707" lon="1.48135">
        <ele>91</ele>
        <time>2019-02-02T06:50:28.000Z</time>
      </trkpt>
      <trkpt lat="44.88694" lon="1.48158">
        <ele>91</ele>
        <time>2019-02-02T06:51:28.000Z</time>
      </trkpt>
      <trkpt lat="44.88683" lon="1.48179">
        <ele>91</ele>
        <time>2019-02-02T06:52:28.000Z</time>
      </trkpt>
      <trkpt lat="44.88666" lon="1.4821">
        <ele>91</ele>
        <time>2019-02-02T06:53:28.000Z</time>
      </trkpt>
      <trkpt lat="44.88653" lon="1.48235">
        <ele>92</ele>
        <time>2019-02-02T06:54:28.000Z</time>
      </trkpt>
      <trkpt lat="44.88636" lon="1.48268">
        <ele>92</ele>
        <time>2019-02-02T06:55:28.000Z</time>
      </trkpt>
      <trkpt lat="44.88621" lon="1.48291">
        <ele>92</ele>
        <time>2019-02-02T06:56:28.000Z</time>
      </trkpt>
      <trkpt lat="44.88607" lon="1.48314">
        <ele>92</ele>
        <time>2019-02-02T06:57:28.000Z</time>
      </trkpt>
      <trkpt lat="44.8859" lon="1.4835">
        <ele>92</ele>
        <time>2019-02-02T06:58:28.000Z</time>
      </trkpt>
      <trkpt lat="44.88571" lon="1.48377">
        <ele>92</ele>
        <time>2019-02-02T06:59:28.000Z</time>
      </trkpt>
      <trkpt lat="44.88553" lon="1.48407">
        <ele>92</ele>
        <time>2019-02-02T07:00:28.000Z</time>
      </trkpt>
      <trkpt lat="44.88531" lon="1.48431">
        <ele>93</ele>
        <time>2019-02-02T07:01:28.000Z</time>
      </trkpt>
      <trkpt lat="44.88505" lon="1.48456">
        <ele>92</ele>
        <time>2019-02-02T07:02:28.000Z</time>
      </trkpt>
      <trkpt lat="44.8849" lon="1.48477">
        <ele>93</ele>
        <time>2019-02-02T07:03:28.000Z</time>
      </trkpt>
      <trkpt lat="44.88486" lon="1.48501">
        <ele>93</ele>
        <time>2019-02-02T07:04:28.000Z</time>
      </trkpt>
      <trkpt lat="44.88493" lon="1.48523">
        <ele>95</ele>
        <time>2019-02-02T07:05:28.000Z</time>
      </trkpt>
      <trkpt lat="44.88493" lon="1.48538">
        <ele>97</ele>
        <time>2019-02-02T07:06:28.000Z</time>
      </trkpt>
      <trkpt lat="44.8849" lon="1.48551">
        <ele>98</ele>
        <time>2019-02-02T07:07:28.000Z</time>
      </trkpt>
      <trkpt lat="44.88481" lon="1.48561">
        <ele>98</ele>
        <time>2019-02-02T07:08:28.000Z</time>
      </trkpt>
      <trkpt lat="44.8847" lon="1.48573">
        <ele>99</ele>
        <time>2019-02-02T07:09:28.000Z</time>
      </trkpt>
      <trkpt lat="44.88459" lon="1.48584">
        <ele>99</ele>
        <time>2019-02-02T07:10:28.000Z</time>
      </trkpt>
      <trkpt lat="44.88445" lon="1.48597">
        <ele>100</ele>
        <time>2019-02-02T07:11:28.000Z</time>
      </trkpt>
      <trkpt lat="44.88425" lon="1.48613">
        <ele>101</ele>
        <time>2019-02-02T07:12:28.000Z</time>
      </trkpt>
      <trkpt lat="44.88405" lon="1.48629">
        <ele>102</ele>
        <time>2019-02-02T07:13:28.000Z</time>
      </trkpt>
      <trkpt lat="44.88383" lon="1.48647">
        <ele>103</ele>
        <time>2019-02-02T07:14:28.000Z</time>
      </trkpt>
      <trkpt lat="44.88362" lon="1.4865">
        <ele>103</ele>
        <time>2019-02-02T07:15:28.000Z</time>
      </trkpt>
      <trkpt lat="44.88345" lon="1.48664">
        <ele>104</ele>
        <time>2019-02-02T07:16:28.000Z</time>
      </trkpt>
      <trkpt lat="44.88323" lon="1.4868">
        <ele>106</ele>
        <time>2019-02-02T07:17:28.000Z</time>
      </trkpt>
      <trkpt lat="44.88303" lon="1.48691">
        <ele>106</ele>
        <time>2019-02-02T07:18:28.000Z</time>
      </trkpt>
      <trkpt lat="44.88273" lon="1.4871">
        <ele>106</ele>
        <time>2019-02-02T07:19:28.000Z</time>
      </trkpt>
      <trkpt lat="44.8825" lon="1.48732">
        <ele>107</ele>
        <time>2019-02-02T07:20:28.000Z</time>
      </trkpt>
      <trkpt lat="44.88233" lon="1.48754">
        <ele>107</ele>
        <time>2019-02-02T07:21:28.000Z</time>
      </trkpt>
      <trkpt lat="44.88212" lon="1.48774">
        <ele>107</ele>
        <time>2019-02-02T07:22:28.000Z</time>
      </trkpt>
      <trkpt lat="44.88188" lon="1.48799">
        <ele>108</ele>
        <time>2019-02-02T07:23:28.000Z</time>
      </trkpt>
      <trkpt lat="44.88165" lon="1.4883">
        <ele>111</ele>
        <time>2019-02-02T07:24:28.000Z</time>
      </trkpt>
      <trkpt lat="44.88141" lon="1.48857">
        <ele>115</ele>
        <time>2019-02-02T07:25:28.000Z</time>
      </trkpt>
      <trkpt lat="44.88113" lon="1.48888">
        <ele>117</ele>
        <time>2019-02-02T07:26:28.000Z</time>
      </trkpt>
      <trkpt lat="44.88091" lon="1.48913">
        <ele>117</ele>
        <time>2019-02-02T07:27:28.000Z</time>
      </trkpt>
      <trkpt lat="44.88068" lon="1.48935">
        <ele>117</ele>
        <time>2019-02-02T07:28:28.000Z</time>
      </trkpt>
      <trkpt lat="44.88041" lon="1.48957">
        <ele>115</ele>
        <time>2019-02-02T07:29:28.000Z</time>
      </trkpt>
      <trkpt lat="44.88014" lon="1.48984">
        <ele>112</ele>
        <time>2019-02-02T07:30:28.000Z</time>
      </trkpt>
      <trkpt lat="44.88" lon="1.49019">
        <ele>115</ele>
        <time>2019-02-02T07:31:28.000Z</time>
      </trkpt>
      <trkpt lat="44.87978" lon="1.49059">
        <ele>119</ele>
        <time>2019-02-02T07:32:28.000Z</time>
      </trkpt>
      <trkpt lat="44.8796" lon="1.49091">
        <ele>118</ele>
        <time>2019-02-02T07:33:28.000Z</time>
      </trkpt>
      <trkpt lat="44.87936" lon="1.49118">
        <ele>111</ele>
        <time>2019-02-02T07:34:28.000Z</time>
      </trkpt>
      <trkpt lat="44.87904" lon="1.49141">
        <ele>104</ele>
        <time>2019-02-02T07:35:28.000Z</time>
      </trkpt>
      <trkpt lat="44.87871" lon="1.49159">
        <ele>104</ele>
        <time>2019-02-02T07:36:28.000Z</time>
      </trkpt>
      <trkpt lat="44.87842" lon="1.49183">
        <ele>108</ele>
        <time>2019-02-02T07:37:28.000Z</time>
      </trkpt>
      <trkpt lat="44.8781" lon="1.49204">
        <ele>111</ele>
        <time>2019-02-02T07:38:28.000Z</time>
      </trkpt>
      <trkpt lat="44.87781" lon="1.49232">
        <ele>112</ele>
        <time>2019-02-02T07:39:28.000Z</time>
      </trkpt>
      <trkpt lat="44.87754" lon="1.49261">
        <ele>114</ele>
        <time>2019-02-02T07:40:28.000Z</time>
      </trkpt>
      <trkpt lat="44.87723" lon="1.49285">
        <ele>115</ele>
        <time>2019-02-02T07:41:28.000Z</time>
      </trkpt>
      <trkpt lat="44.87692" lon="1.49301">
        <ele>110</ele>
        <time>2019-02-02T07:42:28.000Z</time>
      </trkpt>
      <trkpt lat="44.87666" lon="1.49338">
        <ele>108</ele>
        <time>2019-02-02T07:43:28.000Z</time>
      </trkpt>
      <trkpt lat="44.87649" lon="1.49383">
        <ele>118</ele>
        <time>2019-02-02T07:44:28.000Z</time>
      </trkpt>
      <trkpt lat="44.87625" lon="1.49417">
        <ele>116</ele>
        <time>2019-02-02T07:45:28.000Z</time>
      </trkpt>
      <trkpt lat="44.876" lon="1.49454">
        <ele>114</ele>
        <time>2019-02-02T07:46:28.000Z</time>
      </trkpt>
      <trkpt lat="44.87579" lon="1.495">
        <ele>116</ele>
        <time>2019-02-02T07:47:28.000Z</time>
      </trkpt>
      <trkpt lat="44.87562" lon="1.49551">
        <ele>125</ele>
        <time>2019-02-02T07:48:28.000Z</time>
      </trkpt>
      <trkpt lat="44.87537" lon="1.49587">
        <ele>121</ele>
        <time>2019-02-02T07:49:28.000Z</time>
      </trkpt>
      <trkpt lat="44.87511" lon="1.49614">
        <ele>118</ele>
        <time>2019-02-02T07:50:28.000Z</time>
      </trkpt>
      <trkpt lat="44.8745" lon="1.49664">
        <ele>117</ele>
        <time>2019-02-02T07:51:28.000Z</time>
      </trkpt>
      <trkpt lat="44.87423" lon="1.49684">
        <ele>118</ele>
        <time>2019-02-02T07:52:28.000Z</time>
      </trkpt>
      <trkpt lat="44.87387" lon="1.49696">
        <ele>117</ele>
        <time>2019-02-02T07:53:28.000Z</time>
      </trkpt>
      <trkpt lat="44.87325" lon="1.49714">
        <ele>111</ele>
        <time>2019-02-02T07:54:28.000Z</time>
      </trkpt>
      <trkpt lat="44.87297" lon="1.4973">
        <ele>111</ele>
        <time>2019-02-02T07:55:28.000Z</time>
      </trkpt>
      <trkpt lat="44.87269" lon="1.49746">
        <ele>109</ele>
        <time>2019-02-02T07:56:28.000Z</time>
      </trkpt>
      <trkpt lat="44.87234" lon="1.49765">
        <ele>112</ele>
        <time>2019-02-02T07:57:28.000Z</time>
      </trkpt>
      <trkpt lat="44.87204" lon="1.49768">
        <ele>113</ele>
        <time>2019-02-02T07:58:28.000Z</time>
      </trkpt>
      <trkpt lat="44.87165" lon="1.49769">
        <ele>113</ele>
        <time>2019-02-02T07:59:28.000Z</time>
      </trkpt>
      <trkpt lat="44.87121" lon="1.49763">
        <ele>109</ele>
        <time>2019-02-02T08:00:28.000Z</time>
      </trkpt>
      <trkpt lat="44.87086" lon="1.49766">
        <ele>108</ele>
        <time>2019-02-02T08:01:28.000Z</time>
      </trkpt>
      <trkpt lat="44.87046" lon="1.49782">
        <ele>110</ele>
        <time>2019-02-02T08:02:28.000Z</time>
      </trkpt>
      <trkpt lat="44.87007" lon="1.49805">
        <ele>110</ele>
        <time>2019-02-02T08:03:28.000Z</time>
      </trkpt>
      <trkpt lat="44.86974" lon="1.49829">
        <ele>108</ele>
        <time>2019-02-02T08:04:28.000Z</time>
      </trkpt>
      <trkpt lat="44.86862" lon="1.49871">
        <ele>111</ele>
        <time>2019-02-02T08:05:28.000Z</time>
      </trkpt>
      <trkpt lat="44.86823" lon="1.49876">
        <ele>112</ele>
        <time>2019-02-02T08:06:28.000Z</time>
      </trkpt>
      <trkpt lat="44.86743" lon="1.49856">
        <ele>106</ele>
        <time>2019-02-02T08:07:28.000Z</time>
      </trkpt>
      <trkpt lat="44.8671" lon="1.49854">
        <ele>106</ele>
        <time>2019-02-02T08:08:28.000Z</time>
      </trkpt>
      <trkpt lat="44.86674" lon="1.49853">
        <ele>106</ele>
        <time>2019-02-02T08:09:28.000Z</time>
      </trkpt>
      <trkpt lat="44.86634" lon="1.49853">
        <ele>103</ele>
        <time>2019-02-02T08:10:28.000Z</time>
      </trkpt>
      <trkpt lat="44.86602" lon="1.49856">
        <ele>100</ele>
        <time>2019-02-02T08:11:28.000Z</time>
      </trkpt>
      <trkpt lat="44.86569" lon="1.49865">
        <ele>99</ele>
        <time>2019-02-02T08:12:28.000Z</time>
      </trkpt>
      <trkpt lat="44.86531" lon="1.49873">
        <ele>102</ele>
        <time>2019-02-02T08:13:28.000Z</time>
      </trkpt>
      <trkpt lat="44.86494" lon="1.49873">
        <ele>103</ele>
        <time>2019-02-02T08:14:28.000Z</time>
      </trkpt>
      <trkpt lat="44.86458" lon="1.49867">
        <ele>104</ele>
        <time>2019-02-02T08:15:28.000Z</time>
      </trkpt>
      <trkpt lat="44.86428" lon="1.49867">
        <ele>106</ele>
        <time>2019-02-02T08:16:28.000Z</time>
      </trkpt>
      <trkpt lat="44.86396" lon="1.49867">
        <ele>105</ele>
        <time>2019-02-02T08:17:28.000Z</time>
      </trkpt>
      <trkpt lat="44.86371" lon="1.49874">
        <ele>105</ele>
        <time>2019-02-02T08:18:28.000Z</time>
      </trkpt>
      <trkpt lat="44.86349" lon="1.49894">
        <ele>106</ele>
        <time>2019-02-02T08:19:28.000Z</time>
      </trkpt>
      <trkpt lat="44.86329" lon="1.49915">
        <ele>107</ele>
        <time>2019-02-02T08:20:28.000Z</time>
      </trkpt>
      <trkpt lat="44.86311" lon="1.49936">
        <ele>108</ele>
        <time>2019-02-02T08:21:28.000Z</time>
      </trkpt>
      <trkpt lat="44.86293" lon="1.49949">
        <ele>108</ele>
        <time>2019-02-02T08:22:28.000Z</time>
      </trkpt>
      <trkpt lat="44.86274" lon="1.49956">
        <ele>108</ele>
        <time>2019-02-02T08:23:28.000Z</time>
      </trkpt>
      <trkpt lat="44.86254" lon="1.49957">
        <ele>108</ele>
        <time>2019-02-02T08:24:28.000Z</time>
      </trkpt>
      <trkpt lat="44.86231" lon="1.4996">
        <ele>108</ele>
        <time>2019-02-02T08:25:28.000Z</time>
      </trkpt>
      <trkpt lat="44.86208" lon="1.49963">
        <ele>109</ele>
        <time>2019-02-02T08:26:28.000Z</time>
      </trkpt>
      <trkpt lat="44.86183" lon="1.49966">
        <ele>110</ele>
        <time>2019-02-02T08:27:28.000Z</time>
      </trkpt>
      <trkpt lat="44.8612" lon="1.49976">
        <ele>112</ele>
        <time>2019-02-02T08:28:28.000Z</time>
      </trkpt>
      <trkpt lat="44.86096" lon="1.4998">
        <ele>113</ele>
        <time>2019-02-02T08:29:28.000Z</time>
      </trkpt>
      <trkpt lat="44.86072" lon="1.49987">
        <ele>114</ele>
        <time>2019-02-02T08:30:28.000Z</time>
      </trkpt>
      <trkpt lat="44.8605" lon="1.50001">
        <ele>114</ele>
        <time>2019-02-02T08:31:28.000Z</time>
      </trkpt>
      <trkpt lat="44.86033" lon="1.50018">
        <ele>114</ele>
        <time>2019-02-02T08:32:28.000Z</time>
      </trkpt>
      <trkpt lat="44.86001" lon="1.50061">
        <ele>114</ele>
        <time>2019-02-02T08:33:28.000Z</time>
      </trkpt>
      <trkpt lat="44.85984" lon="1.50085">
        <ele>113</ele>
        <time>2019-02-02T08:34:28.000Z</time>
      </trkpt>
      <trkpt lat="44.85969" lon="1.50107">
        <ele>112</ele>
        <time>2019-02-02T08:35:28.000Z</time>
      </trkpt>
      <trkpt lat="44.85954" lon="1.50132">
        <ele>112</ele>
        <time>2019-02-02T08:36:28.000Z</time>
      </trkpt>
      <trkpt lat="44.85936" lon="1.50159">
        <ele>112</ele>
        <time>2019-02-02T08:37:28.000Z</time>
      </trkpt>
      <trkpt lat="44.85901" lon="1.50209">
        <ele>114</ele>
        <time>2019-02-02T08:38:28.000Z</time>
      </trkpt>
      <trkpt lat="44.85889" lon="1.50237">
        <ele>115</ele>
        <time>2019-02-02T08:39:28.000Z</time>
      </trkpt>
      <trkpt lat="44.85871" lon="1.50269">
        <ele>116</ele>
        <time>2019-02-02T08:40:28.000Z</time>
      </trkpt>
      <trkpt lat="44.85835" lon="1.50339">
        <ele>117</ele>
        <time>2019-02-02T08:41:28.000Z</time>
      </trkpt>
      <trkpt lat="44.85807" lon="1.50415">
        <ele>118</ele>
        <time>2019-02-02T08:42:28.000Z</time>
      </trkpt>
      <trkpt lat="44.85794" lon="1.50454">
        <ele>118</ele>
        <time>2019-02-02T08:43:28.000Z</time>
      </trkpt>
      <trkpt lat="44.85774" lon="1.50523">
        <ele>117</ele>
        <time>2019-02-02T08:44:28.000Z</time>
      </trkpt>
      <trkpt lat="44.85759" lon="1.50564">
        <ele>117</ele>
        <time>2019-02-02T08:45:28.000Z</time>
      </trkpt>
      <trkpt lat="44.85744" lon="1.50603">
        <ele>118</ele>
        <time>2019-02-02T08:46:28.000Z</time>
      </trkpt>
      <trkpt lat="44.85732" lon="1.50633">
        <ele>118</ele>
        <time>2019-02-02T08:47:28.000Z</time>
      </trkpt>
      <trkpt lat="44.85719" lon="1.50665">
        <ele>119</ele>
        <time>2019-02-02T08:48:28.000Z</time>
      </trkpt>
      <trkpt lat="44.85704" lon="1.50702">
        <ele>121</ele>
        <time>2019-02-02T08:49:28.000Z</time>
      </trkpt>
      <trkpt lat="44.85693" lon="1.50733">
        <ele>122</ele>
        <time>2019-02-02T08:50:28.000Z</time>
      </trkpt>
      <trkpt lat="44.85683" lon="1.5077">
        <ele>124</ele>
        <time>2019-02-02T08:51:28.000Z</time>
      </trkpt>
      <trkpt lat="44.85673" lon="1.50805">
        <ele>124</ele>
        <time>2019-02-02T08:52:28.000Z</time>
      </trkpt>
      <trkpt lat="44.85666" lon="1.50838">
        <ele>125</ele>
        <time>2019-02-02T08:53:28.000Z</time>
      </trkpt>
      <trkpt lat="44.85658" lon="1.50879">
        <ele>125</ele>
        <time>2019-02-02T08:54:28.000Z</time>
      </trkpt>
      <trkpt lat="44.85647" lon="1.50911">
        <ele>125</ele>
        <time>2019-02-02T08:55:28.000Z</time>
      </trkpt>
      <trkpt lat="44.85639" lon="1.50952">
        <ele>125</ele>
        <time>2019-02-02T08:56:28.000Z</time>
      </trkpt>
      <trkpt lat="44.85626" lon="1.50997">
        <ele>124</ele>
        <time>2019-02-02T08:57:28.000Z</time>
      </trkpt>
      <trkpt lat="44.85612" lon="1.51039">
        <ele>124</ele>
        <time>2019-02-02T08:58:28.000Z</time>
      </trkpt>
      <trkpt lat="44.85595" lon="1.51076">
        <ele>124</ele>
        <time>2019-02-02T08:59:28.000Z</time>
      </trkpt>
      <trkpt lat="44.8558" lon="1.51106">
        <ele>125</ele>
        <time>2019-02-02T09:00:28.000Z</time>
      </trkpt>
      <trkpt lat="44.85552" lon="1.51187">
        <ele>128</ele>
        <time>2019-02-02T09:01:28.000Z</time>
      </trkpt>
      <trkpt lat="44.85539" lon="1.51223">
        <ele>129</ele>
        <time>2019-02-02T09:02:28.000Z</time>
      </trkpt>
      <trkpt lat="44.85523" lon="1.51257">
        <ele>129</ele>
        <time>2019-02-02T09:03:28.000Z</time>
      </trkpt>
      <trkpt lat="44.85507" lon="1.51295">
        <ele>130</ele>
        <time>2019-02-02T09:04:28.000Z</time>
      </trkpt>
      <trkpt lat="44.8549" lon="1.51325">
        <ele>130</ele>
        <time>2019-02-02T09:05:28.000Z</time>
      </trkpt>
      <trkpt lat="44.85481" lon="1.51359">
        <ele>130</ele>
        <time>2019-02-02T09:06:28.000Z</time>
      </trkpt>
      <trkpt lat="44.85465" lon="1.51395">
        <ele>130</ele>
        <time>2019-02-02T09:07:28.000Z</time>
      </trkpt>
      <trkpt lat="44.8545" lon="1.51436">
        <ele>129</ele>
        <time>2019-02-02T09:08:28.000Z</time>
      </trkpt>
      <trkpt lat="44.8543" lon="1.51476">
        <ele>128</ele>
        <time>2019-02-02T09:09:28.000Z</time>
      </trkpt>
      <trkpt lat="44.85394" lon="1.5157">
        <ele>124</ele>
        <time>2019-02-02T09:10:28.000Z</time>
      </trkpt>
      <trkpt lat="44.85377" lon="1.5162">
        <ele>123</ele>
        <time>2019-02-02T09:11:28.000Z</time>
      </trkpt>
      <trkpt lat="44.85359" lon="1.51673">
        <ele>122</ele>
        <time>2019-02-02T09:12:28.000Z</time>
      </trkpt>
      <trkpt lat="44.85339" lon="1.51739">
        <ele>122</ele>
        <time>2019-02-02T09:13:28.000Z</time>
      </trkpt>
      <trkpt lat="44.85323" lon="1.51792">
        <ele>121</ele>
        <time>2019-02-02T09:14:28.000Z</time>
      </trkpt>
      <trkpt lat="44.85306" lon="1.51858">
        <ele>119</ele>
        <time>2019-02-02T09:15:28.000Z</time>
      </trkpt>
      <trkpt lat="44.85296" lon="1.51933">
        <ele>116</ele>
        <time>2019-02-02T09:16:28.000Z</time>
      </trkpt>
      <trkpt lat="44.85293" lon="1.52007">
        <ele>112</ele>
        <time>2019-02-02T09:17:28.000Z</time>
      </trkpt>
      <trkpt lat="44.85314" lon="1.52087">
        <ele>109</ele>
        <time>2019-02-02T09:18:28.000Z</time>
      </trkpt>
      <trkpt lat="44.85362" lon="1.52129">
        <ele>107</ele>
        <time>2019-02-02T09:19:28.000Z</time>
      </trkpt>
      <trkpt lat="44.85377" lon="1.52199">
        <ele>101</ele>
        <time>2019-02-02T09:20:28.000Z</time>
      </trkpt>
      <trkpt lat="44.85357" lon="1.52262">
        <ele>100</ele>
        <time>2019-02-02T09:21:28.000Z</time>
      </trkpt>
      <trkpt lat="44.8533" lon="1.52323">
        <ele>101</ele>
        <time>2019-02-02T09:22:28.000Z</time>
      </trkpt>
      <trkpt lat="44.85307" lon="1.52365">
        <ele>100</ele>
        <time>2019-02-02T09:23:28.000Z</time>
      </trkpt>
      <trkpt lat="44.85285" lon="1.52406">
        <ele>100</ele>
        <time>2019-02-02T09:24:28.000Z</time>
      </trkpt>
      <trkpt lat="44.85263" lon="1.52455">
        <ele>98</ele>
        <time>2019-02-02T09:25:28.000Z</time>
      </trkpt>
      <trkpt lat="44.85242" lon="1.52492">
        <ele>96</ele>
        <time>2019-02-02T09:26:28.000Z</time>
      </trkpt>
      <trkpt lat="44.85224" lon="1.52526">
        <ele>96</ele>
        <time>2019-02-02T09:27:28.000Z</time>
      </trkpt>
      <trkpt lat="44.85211" lon="1.52557">
        <ele>96</ele>
        <time>2019-02-02T09:28:28.000Z</time>
      </trkpt>
      <trkpt lat="44.85198" lon="1.52582">
        <ele>96</ele>
        <time>2019-02-02T09:29:28.000Z</time>
      </trkpt>
      <trkpt lat="44.85186" lon="1.52605">
        <ele>97</ele>
        <time>2019-02-02T09:30:28.000Z</time>
      </trkpt>
      <trkpt lat="44.85176" lon="1.52626">
        <ele>99</ele>
        <time>2019-02-02T09:31:28.000Z</time>
      </trkpt>
      <trkpt lat="44.85159" lon="1.52667">
        <ele>102</ele>
        <time>2019-02-02T09:32:28.000Z</time>
      </trkpt>
      <trkpt lat="44.8514" lon="1.52697">
        <ele>107</ele>
        <time>2019-02-02T09:33:28.000Z</time>
      </trkpt>
      <trkpt lat="44.85116" lon="1.52747">
        <ele>111</ele>
        <time>2019-02-02T09:34:28.000Z</time>
      </trkpt>
      <trkpt lat="44.85101" lon="1.52768">
        <ele>111</ele>
        <time>2019-02-02T09:35:28.000Z</time>
      </trkpt>
      <trkpt lat="44.8509" lon="1.52785">
        <ele>112</ele>
        <time>2019-02-02T09:36:28.000Z</time>
      </trkpt>
      <trkpt lat="44.85077" lon="1.52805">
        <ele>112</ele>
        <time>2019-02-02T09:37:28.000Z</time>
      </trkpt>
      <trkpt lat="44.85054" lon="1.52848">
        <ele>113</ele>
        <time>2019-02-02T09:38:28.000Z</time>
      </trkpt>
      <trkpt lat="44.85023" lon="1.52898">
        <ele>115</ele>
        <time>2019-02-02T09:39:28.000Z</time>
      </trkpt>
      <trkpt lat="44.85011" lon="1.52919">
        <ele>116</ele>
        <time>2019-02-02T09:40:28.000Z</time>
      </trkpt>
      <trkpt lat="44.85" lon="1.52936">
        <ele>117</ele>
        <time>2019-02-02T09:41:28.000Z</time>
      </trkpt>
      <trkpt lat="44.84991" lon="1.5295">
        <ele>117</ele>
        <time>2019-02-02T09:42:28.000Z</time>
      </trkpt>
      <trkpt lat="44.84978" lon="1.52968">
        <ele>118</ele>
        <time>2019-02-02T09:43:28.000Z</time>
      </trkpt>
      <trkpt lat="44.84963" lon="1.52984">
        <ele>118</ele>
        <time>2019-02-02T09:44:28.000Z</time>
      </trkpt>
      <trkpt lat="44.84938" lon="1.53015">
        <ele>119</ele>
        <time>2019-02-02T09:45:28.000Z</time>
      </trkpt>
      <trkpt lat="44.84925" lon="1.53034">
        <ele>119</ele>
        <time>2019-02-02T09:46:28.000Z</time>
      </trkpt>
      <trkpt lat="44.84912" lon="1.53049">
        <ele>119</ele>
        <time>2019-02-02T09:47:28.000Z</time>
      </trkpt>
      <trkpt lat="44.84899" lon="1.53065">
        <ele>120</ele>
        <time>2019-02-02T09:48:28.000Z</time>
      </trkpt>
      <trkpt lat="44.84882" lon="1.53087">
        <ele>121</ele>
        <time>2019-02-02T09:49:28.000Z</time>
      </trkpt>
      <trkpt lat="44.84866" lon="1.53107">
        <ele>123</ele>
        <time>2019-02-02T09:50:28.000Z</time>
      </trkpt>
      <trkpt lat="44.84854" lon="1.53128">
        <ele>124</ele>
        <time>2019-02-02T09:51:28.000Z</time>
      </trkpt>
      <trkpt lat="44.84847" lon="1.5315">
        <ele>125</ele>
        <time>2019-02-02T09:52:28.000Z</time>
      </trkpt>
      <trkpt lat="44.84843" lon="1.53177">
        <ele>127</ele>
        <time>2019-02-02T09:53:28.000Z</time>
      </trkpt>
      <trkpt lat="44.8484" lon="1.53204">
        <ele>128</ele>
        <time>2019-02-02T09:54:28.000Z</time>
      </trkpt>
      <trkpt lat="44.84836" lon="1.5325">
        <ele>131</ele>
        <time>2019-02-02T09:55:28.000Z</time>
      </trkpt>
      <trkpt lat="44.84836" lon="1.53276">
        <ele>131</ele>
        <time>2019-02-02T09:56:28.000Z</time>
      </trkpt>
      <trkpt lat="44.8484" lon="1.53299">
        <ele>132</ele>
        <time>2019-02-02T09:57:28.000Z</time>
      </trkpt>
      <trkpt lat="44.84846" lon="1.53321">
        <ele>132</ele>
        <time>2019-02-02T09:58:28.000Z</time>
      </trkpt>
      <trkpt lat="44.84858" lon="1.53345">
        <ele>131</ele>
        <time>2019-02-02T09:59:28.000Z</time>
      </trkpt>
      <trkpt lat="44.84869" lon="1.53362">
        <ele>130</ele>
        <time>2019-02-02T10:00:28.000Z</time>
      </trkpt>
      <trkpt lat="44.84886" lon="1.53387">
        <ele>129</ele>
        <time>2019-02-02T10:01:28.000Z</time>
      </trkpt>
      <trkpt lat="44.84908" lon="1.53415">
        <ele>127</ele>
        <time>2019-02-02T10:02:28.000Z</time>
      </trkpt>
      <trkpt lat="44.84938" lon="1.53459">
        <ele>123</ele>
        <time>2019-02-02T10:03:28.000Z</time>
      </trkpt>
      <trkpt lat="44.84975" lon="1.53513">
        <ele>119</ele>
        <time>2019-02-02T10:04:28.000Z</time>
      </trkpt>
      <trkpt lat="44.85002" lon="1.53571">
        <ele>118</ele>
        <time>2019-02-02T10:05:28.000Z</time>
      </trkpt>
      <trkpt lat="44.85011" lon="1.5364">
        <ele>119</ele>
        <time>2019-02-02T10:06:28.000Z</time>
      </trkpt>
      <trkpt lat="44.85002" lon="1.53689">
        <ele>121</ele>
        <time>2019-02-02T10:07:28.000Z</time>
      </trkpt>
      <trkpt lat="44.84992" lon="1.53725">
        <ele>123</ele>
        <time>2019-02-02T10:08:28.000Z</time>
      </trkpt>
      <trkpt lat="44.84982" lon="1.53801">
        <ele>127</ele>
        <time>2019-02-02T10:09:28.000Z</time>
      </trkpt>
      <trkpt lat="44.84977" lon="1.53847">
        <ele>130</ele>
        <time>2019-02-02T10:10:28.000Z</time>
      </trkpt>
      <trkpt lat="44.84973" lon="1.5387">
        <ele>131</ele>
        <time>2019-02-02T10:11:28.000Z</time>
      </trkpt>
      <trkpt lat="44.8497" lon="1.53892">
        <ele>132</ele>
        <time>2019-02-02T10:12:28.000Z</time>
      </trkpt>
      <trkpt lat="44.84968" lon="1.53913">
        <ele>133</ele>
        <time>2019-02-02T10:13:28.000Z</time>
      </trkpt>
      <trkpt lat="44.84963" lon="1.53937">
        <ele>135</ele>
        <time>2019-02-02T10:14:28.000Z</time>
      </trkpt>
      <trkpt lat="44.84954" lon="1.53959">
        <ele>135</ele>
        <time>2019-02-02T10:15:28.000Z</time>
      </trkpt>
      <trkpt lat="44.84948" lon="1.53973">
        <ele>136</ele>
        <time>2019-02-02T10:16:28.000Z</time>
      </trkpt>
      <trkpt lat="44.84941" lon="1.53989">
        <ele>136</ele>
        <time>2019-02-02T10:17:28.000Z</time>
      </trkpt>
      <trkpt lat="44.84932" lon="1.54007">
        <ele>136</ele>
        <time>2019-02-02T10:18:28.000Z</time>
      </trkpt>
      <trkpt lat="44.84917" lon="1.54043">
        <ele>138</ele>
        <time>2019-02-02T10:19:28.000Z</time>
      </trkpt>
      <trkpt lat="44.84909" lon="1.54059">
        <ele>139</ele>
        <time>2019-02-02T10:20:28.000Z</time>
      </trkpt>
      <trkpt lat="44.84898" lon="1.54076">
        <ele>140</ele>
        <time>2019-02-02T10:21:28.000Z</time>
      </trkpt>
      <trkpt lat="44.84889" lon="1.5409">
        <ele>140</ele>
        <time>2019-02-02T10:22:28.000Z</time>
      </trkpt>
      <trkpt lat="44.84876" lon="1.54102">
        <ele>141</ele>
        <time>2019-02-02T10:23:28.000Z</time>
      </trkpt>
      <trkpt lat="44.84866" lon="1.5411">
        <ele>142</ele>
        <time>2019-02-02T10:24:28.000Z</time>
      </trkpt>
      <trkpt lat="44.84853" lon="1.54121">
        <ele>142</ele>
        <time>2019-02-02T10:25:28.000Z</time>
      </trkpt>
      <trkpt lat="44.84843" lon="1.5413">
        <ele>143</ele>
        <time>2019-02-02T10:26:28.000Z</time>
      </trkpt>
      <trkpt lat="44.84829" lon="1.54142">
        <ele>145</ele>
        <time>2019-02-02T10:27:28.000Z</time>
      </trkpt>
      <trkpt lat="44.84815" lon="1.54153">
        <ele>146</ele>
        <time>2019-02-02T10:28:28.000Z</time>
      </trkpt>
      <trkpt lat="44.84799" lon="1.54166">
        <ele>147</ele>
        <time>2019-02-02T10:29:28.000Z</time>
      </trkpt>
      <trkpt lat="44.84787" lon="1.54174">
        <ele>147</ele>
        <time>2019-02-02T10:30:28.000Z</time>
      </trkpt>
      <trkpt lat="44.84776" lon="1.54184">
        <ele>148</ele>
        <time>2019-02-02T10:31:28.000Z</time>
      </trkpt>
      <trkpt lat="44.84747" lon="1.54206">
        <ele>148</ele>
        <time>2019-02-02T10:32:28.000Z</time>
      </trkpt>
      <trkpt lat="44.84735" lon="1.54213">
        <ele>149</ele>
        <time>2019-02-02T10:33:28.000Z</time>
      </trkpt>
      <trkpt lat="44.8472" lon="1.54222">
        <ele>150</ele>
        <time>2019-02-02T10:34:28.000Z</time>
      </trkpt>
      <trkpt lat="44.84709" lon="1.54229">
        <ele>151</ele>
        <time>2019-02-02T10:35:28.000Z</time>
      </trkpt>
      <trkpt lat="44.84699" lon="1.5424">
        <ele>152</ele>
        <time>2019-02-02T10:36:28.000Z</time>
      </trkpt>
      <trkpt lat="44.84689" lon="1.54247">
        <ele>152</ele>
        <time>2019-02-02T10:37:28.000Z</time>
      </trkpt>
      <trkpt lat="44.84676" lon="1.54258">
        <ele>153</ele>
        <time>2019-02-02T10:38:28.000Z</time>
      </trkpt>
      <trkpt lat="44.84667" lon="1.5427">
        <ele>154</ele>
        <time>2019-02-02T10:39:28.000Z</time>
      </trkpt>
      <trkpt lat="44.84657" lon="1.54283">
        <ele>156</ele>
        <time>2019-02-02T10:40:28.000Z</time>
      </trkpt>
      <trkpt lat="44.84647" lon="1.54298">
        <ele>157</ele>
        <time>2019-02-02T10:41:28.000Z</time>
      </trkpt>
      <trkpt lat="44.84638" lon="1.54314">
        <ele>159</ele>
        <time>2019-02-02T10:42:28.000Z</time>
      </trkpt>
      <trkpt lat="44.8463" lon="1.5433">
        <ele>160</ele>
        <time>2019-02-02T10:43:28.000Z</time>
      </trkpt>
      <trkpt lat="44.84624" lon="1.54345">
        <ele>161</ele>
        <time>2019-02-02T10:44:28.000Z</time>
      </trkpt>
      <trkpt lat="44.84618" lon="1.54358">
        <ele>162</ele>
        <time>2019-02-02T10:45:28.000Z</time>
      </trkpt>
      <trkpt lat="44.84601" lon="1.54388">
        <ele>164</ele>
        <time>2019-02-02T10:46:28.000Z</time>
      </trkpt>
      <trkpt lat="44.84593" lon="1.54406">
        <ele>164</ele>
        <time>2019-02-02T10:47:28.000Z</time>
      </trkpt>
      <trkpt lat="44.84585" lon="1.54423">
        <ele>165</ele>
        <time>2019-02-02T10:48:28.000Z</time>
      </trkpt>
      <trkpt lat="44.84577" lon="1.54439">
        <ele>164</ele>
        <time>2019-02-02T10:49:28.000Z</time>
      </trkpt>
      <trkpt lat="44.84567" lon="1.54458">
        <ele>164</ele>
        <time>2019-02-02T10:50:28.000Z</time>
      </trkpt>
      <trkpt lat="44.84557" lon="1.54483">
        <ele>163</ele>
        <time>2019-02-02T10:51:28.000Z</time>
      </trkpt>
      <trkpt lat="44.84542" lon="1.54515">
        <ele>162</ele>
        <time>2019-02-02T10:52:28.000Z</time>
      </trkpt>
      <trkpt lat="44.84522" lon="1.54554">
        <ele>160</ele>
        <time>2019-02-02T10:53:28.000Z</time>
      </trkpt>
      <trkpt lat="44.84502" lon="1.54591">
        <ele>158</ele>
        <time>2019-02-02T10:54:28.000Z</time>
      </trkpt>
      <trkpt lat="44.84479" lon="1.54641">
        <ele>158</ele>
        <time>2019-02-02T10:55:28.000Z</time>
      </trkpt>
      <trkpt lat="44.84462" lon="1.54696">
        <ele>160</ele>
        <time>2019-02-02T10:56:28.000Z</time>
      </trkpt>
      <trkpt lat="44.84447" lon="1.54741">
        <ele>161</ele>
        <time>2019-02-02T10:57:28.000Z</time>
      </trkpt>
      <trkpt lat="44.84419" lon="1.54785">
        <ele>157</ele>
        <time>2019-02-02T10:58:28.000Z</time>
      </trkpt>
      <trkpt lat="44.84383" lon="1.54817">
        <ele>155</ele>
        <time>2019-02-02T10:59:28.000Z</time>
      </trkpt>
      <trkpt lat="44.84326" lon="1.54863">
        <ele>153</ele>
        <time>2019-02-02T11:00:28.000Z</time>
      </trkpt>
      <trkpt lat="44.84287" lon="1.54894">
        <ele>151</ele>
        <time>2019-02-02T11:01:28.000Z</time>
      </trkpt>
      <trkpt lat="44.84244" lon="1.54948">
        <ele>147</ele>
        <time>2019-02-02T11:02:28.000Z</time>
      </trkpt>
      <trkpt lat="44.84216" lon="1.55028">
        <ele>139</ele>
        <time>2019-02-02T11:03:28.000Z</time>
      </trkpt>
      <trkpt lat="44.84168" lon="1.5507">
        <ele>137</ele>
        <time>2019-02-02T11:04:28.000Z</time>
      </trkpt>
      <trkpt lat="44.84123" lon="1.55092">
        <ele>134</ele>
        <time>2019-02-02T11:05:28.000Z</time>
      </trkpt>
      <trkpt lat="44.84077" lon="1.55086">
        <ele>139</ele>
        <time>2019-02-02T11:06:28.000Z</time>
      </trkpt>
      <trkpt lat="44.84017" lon="1.55108">
        <ele>138</ele>
        <time>2019-02-02T11:07:28.000Z</time>
      </trkpt>
      <trkpt lat="44.83955" lon="1.55148">
        <ele>124</ele>
        <time>2019-02-02T11:08:28.000Z</time>
      </trkpt>
      <trkpt lat="44.83901" lon="1.55148">
        <ele>120</ele>
        <time>2019-02-02T11:09:28.000Z</time>
      </trkpt>
      <trkpt lat="44.83895" lon="1.5508">
        <ele>129</ele>
        <time>2019-02-02T11:10:28.000Z</time>
      </trkpt>
      <trkpt lat="44.83873" lon="1.55017">
        <ele>127</ele>
        <time>2019-02-02T11:11:28.000Z</time>
      </trkpt>
      <trkpt lat="44.83835" lon="1.54945">
        <ele>121</ele>
        <time>2019-02-02T11:12:28.000Z</time>
      </trkpt>
      <trkpt lat="44.83782" lon="1.54886">
        <ele>118</ele>
        <time>2019-02-02T11:13:28.000Z</time>
      </trkpt>
      <trkpt lat="44.83757" lon="1.54828">
        <ele>120</ele>
        <time>2019-02-02T11:14:28.000Z</time>
      </trkpt>
      <trkpt lat="44.83726" lon="1.54828">
        <ele>115</ele>
        <time>2019-02-02T11:15:28.000Z</time>
      </trkpt>
      <trkpt lat="44.83742" lon="1.54875">
        <ele>110</ele>
        <time>2019-02-02T11:16:28.000Z</time>
      </trkpt>
      <trkpt lat="44.83767" lon="1.54903">
        <ele>111</ele>
        <time>2019-02-02T11:17:28.000Z</time>
      </trkpt>
      <trkpt lat="44.83793" lon="1.54935">
        <ele>113</ele>
        <time>2019-02-02T11:18:28.000Z</time>
      </trkpt>
      <trkpt lat="44.8382" lon="1.54971">
        <ele>114</ele>
        <time>2019-02-02T11:19:28.000Z</time>
      </trkpt>
      <trkpt lat="44.8384" lon="1.55009">
        <ele>115</ele>
        <time>2019-02-02T11:20:28.000Z</time>
      </trkpt>
      <trkpt lat="44.83856" lon="1.55049">
        <ele>117</ele>
        <time>2019-02-02T11:21:28.000Z</time>
      </trkpt>
      <trkpt lat="44.83866" lon="1.55103">
        <ele>116</ele>
        <time>2019-02-02T11:22:28.000Z</time>
      </trkpt>
      <trkpt lat="44.83867" lon="1.55154">
        <ele>111</ele>
        <time>2019-02-02T11:23:28.000Z</time>
      </trkpt>
      <trkpt lat="44.83867" lon="1.55209">
        <ele>105</ele>
        <time>2019-02-02T11:24:28.000Z</time>
      </trkpt>
      <trkpt lat="44.83883" lon="1.55241">
        <ele>102</ele>
        <time>2019-02-02T11:25:28.000Z</time>
      </trkpt>
      <trkpt lat="44.83917" lon="1.55236">
        <ele>105</ele>
        <time>2019-02-02T11:26:28.000Z</time>
      </trkpt>
      <trkpt lat="44.83948" lon="1.55223">
        <ele>107</ele>
        <time>2019-02-02T11:27:28.000Z</time>
      </trkpt>
      <trkpt lat="44.83973" lon="1.55201">
        <ele>111</ele>
        <time>2019-02-02T11:28:28.000Z</time>
      </trkpt>
      <trkpt lat="44.84003" lon="1.55178">
        <ele>114</ele>
        <time>2019-02-02T11:29:28.000Z</time>
      </trkpt>
      <trkpt lat="44.84024" lon="1.55163">
        <ele>116</ele>
        <time>2019-02-02T11:30:28.000Z</time>
      </trkpt>
      <trkpt lat="44.8405" lon="1.55147">
        <ele>120</ele>
        <time>2019-02-02T11:31:28.000Z</time>
      </trkpt>
      <trkpt lat="44.84074" lon="1.55141">
        <ele>120</ele>
        <time>2019-02-02T11:32:28.000Z</time>
      </trkpt>
      <trkpt lat="44.84137" lon="1.55139">
        <ele>116</ele>
        <time>2019-02-02T11:33:28.000Z</time>
      </trkpt>
      <trkpt lat="44.84173" lon="1.55133">
        <ele>116</ele>
        <time>2019-02-02T11:34:28.000Z</time>
      </trkpt>
      <trkpt lat="44.84208" lon="1.55138">
        <ele>111</ele>
        <time>2019-02-02T11:35:28.000Z</time>
      </trkpt>
      <trkpt lat="44.84231" lon="1.5515">
        <ele>106</ele>
        <time>2019-02-02T11:36:28.000Z</time>
      </trkpt>
      <trkpt lat="44.84253" lon="1.55161">
        <ele>103</ele>
        <time>2019-02-02T11:37:28.000Z</time>
      </trkpt>
      <trkpt lat="44.84281" lon="1.55178">
        <ele>102</ele>
        <time>2019-02-02T11:38:28.000Z</time>
      </trkpt>
      <trkpt lat="44.84304" lon="1.55193">
        <ele>104</ele>
        <time>2019-02-02T11:39:28.000Z</time>
      </trkpt>
      <trkpt lat="44.84299" lon="1.55231">
        <ele>108</ele>
        <time>2019-02-02T11:40:28.000Z</time>
      </trkpt>
      <trkpt lat="44.84275" lon="1.5525">
        <ele>108</ele>
        <time>2019-02-02T11:41:28.000Z</time>
      </trkpt>
      <trkpt lat="44.84252" lon="1.55265">
        <ele>109</ele>
        <time>2019-02-02T11:42:28.000Z</time>
      </trkpt>
      <trkpt lat="44.84233" lon="1.55276">
        <ele>109</ele>
        <time>2019-02-02T11:43:28.000Z</time>
      </trkpt>
      <trkpt lat="44.84212" lon="1.55292">
        <ele>109</ele>
        <time>2019-02-02T11:44:28.000Z</time>
      </trkpt>
      <trkpt lat="44.84202" lon="1.55308">
        <ele>110</ele>
        <time>2019-02-02T11:45:28.000Z</time>
      </trkpt>
      <trkpt lat="44.84194" lon="1.55351">
        <ele>114</ele>
        <time>2019-02-02T11:46:28.000Z</time>
      </trkpt>
      <trkpt lat="44.84191" lon="1.55365">
        <ele>115</ele>
        <time>2019-02-02T11:47:28.000Z</time>
      </trkpt>
      <trkpt lat="44.84185" lon="1.55375">
        <ele>115</ele>
        <time>2019-02-02T11:48:28.000Z</time>
      </trkpt>
      <trkpt lat="44.84177" lon="1.55385">
        <ele>115</ele>
        <time>2019-02-02T11:49:28.000Z</time>
      </trkpt>
      <trkpt lat="44.84173" lon="1.55399">
        <ele>116</ele>
        <time>2019-02-02T11:50:28.000Z</time>
      </trkpt>
      <trkpt lat="44.84173" lon="1.55412">
        <ele>117</ele>
        <time>2019-02-02T11:51:28.000Z</time>
      </trkpt>
      <trkpt lat="44.8418" lon="1.55422">
        <ele>120</ele>
        <time>2019-02-02T11:52:28.000Z</time>
      </trkpt>
      <trkpt lat="44.84189" lon="1.55426">
        <ele>121</ele>
        <time>2019-02-02T11:53:28.000Z</time>
      </trkpt>
      <trkpt lat="44.84198" lon="1.55419">
        <ele>122</ele>
        <time>2019-02-02T11:54:28.000Z</time>
      </trkpt>
      <trkpt lat="44.84206" lon="1.55412">
        <ele>122</ele>
        <time>2019-02-02T11:55:28.000Z</time>
      </trkpt>
      <trkpt lat="44.8422" lon="1.55391">
        <ele>122</ele>
        <time>2019-02-02T11:56:28.000Z</time>
      </trkpt>
      <trkpt lat="44.84227" lon="1.55382">
        <ele>122</ele>
        <time>2019-02-02T11:57:28.000Z</time>
      </trkpt>
      <trkpt lat="44.84236" lon="1.55375">
        <ele>122</ele>
        <time>2019-02-02T11:58:28.000Z</time>
      </trkpt>
      <trkpt lat="44.84239" lon="1.55361">
        <ele>121</ele>
        <time>2019-02-02T11:59:28.000Z</time>
      </trkpt>
      <trkpt lat="44.84251" lon="1.5532">
        <ele>118</ele>
        <time>2019-02-02T12:00:28.000Z</time>
      </trkpt>
      <trkpt lat="44.84269" lon="1.55285">
        <ele>113</ele>
        <time>2019-02-02T12:01:28.000Z</time>
      </trkpt>
      <trkpt lat="44.84278" lon="1.55276">
        <ele>112</ele>
        <time>2019-02-02T12:02:28.000Z</time>
      </trkpt>
      <trkpt lat="44.84291" lon="1.5527">
        <ele>112</ele>
        <time>2019-02-02T12:03:28.000Z</time>
      </trkpt>
      <trkpt lat="44.84315" lon="1.55265">
        <ele>113</ele>
        <time>2019-02-02T12:04:28.000Z</time>
      </trkpt>
      <trkpt lat="44.84328" lon="1.55264">
        <ele>114</ele>
        <time>2019-02-02T12:05:28.000Z</time>
      </trkpt>
      <trkpt lat="44.84324" lon="1.55276">
        <ele>116</ele>
        <time>2019-02-02T12:06:28.000Z</time>
      </trkpt>
      <trkpt lat="44.84312" lon="1.55279">
        <ele>115</ele>
        <time>2019-02-02T12:07:28.000Z</time>
      </trkpt>
      <trkpt lat="44.84303" lon="1.55287">
        <ele>116</ele>
        <time>2019-02-02T12:08:28.000Z</time>
      </trkpt>
      <trkpt lat="44.84292" lon="1.55301">
        <ele>118</ele>
        <time>2019-02-02T12:09:28.000Z</time>
      </trkpt>
      <trkpt lat="44.84283" lon="1.55318">
        <ele>120</ele>
        <time>2019-02-02T12:10:28.000Z</time>
      </trkpt>
      <trkpt lat="44.84278" lon="1.55334">
        <ele>122</ele>
        <time>2019-02-02T12:11:28.000Z</time>
      </trkpt>
      <trkpt lat="44.84273" lon="1.55353">
        <ele>123</ele>
        <time>2019-02-02T12:12:28.000Z</time>
      </trkpt>
      <trkpt lat="44.84265" lon="1.554">
        <ele>127</ele>
        <time>2019-02-02T12:13:28.000Z</time>
      </trkpt>
      <trkpt lat="44.84259" lon="1.5543">
        <ele>130</ele>
        <time>2019-02-02T12:14:28.000Z</time>
      </trkpt>
      <trkpt lat="44.84256" lon="1.55442">
        <ele>131</ele>
        <time>2019-02-02T12:15:28.000Z</time>
      </trkpt>
      <trkpt lat="44.84254" lon="1.55455">
        <ele>133</ele>
        <time>2019-02-02T12:16:28.000Z</time>
      </trkpt>
      <trkpt lat="44.84251" lon="1.5547">
        <ele>135</ele>
        <time>2019-02-02T12:17:28.000Z</time>
      </trkpt>
      <trkpt lat="44.84248" lon="1.55485">
        <ele>136</ele>
        <time>2019-02-02T12:18:28.000Z</time>
      </trkpt>
      <trkpt lat="44.84245" lon="1.55499">
        <ele>137</ele>
        <time>2019-02-02T12:19:28.000Z</time>
      </trkpt>
      <trkpt lat="44.84244" lon="1.55514">
        <ele>139</ele>
        <time>2019-02-02T12:20:28.000Z</time>
      </trkpt>
      <trkpt lat="44.84245" lon="1.55528">
        <ele>141</ele>
        <time>2019-02-02T12:21:28.000Z</time>
      </trkpt>
      <trkpt lat="44.84246" lon="1.55542">
        <ele>143</ele>
        <time>2019-02-02T12:22:28.000Z</time>
      </trkpt>
      <trkpt lat="44.84247" lon="1.55556">
        <ele>145</ele>
        <time>2019-02-02T12:23:28.000Z</time>
      </trkpt>
      <trkpt lat="44.8425" lon="1.55569">
        <ele>146</ele>
        <time>2019-02-02T12:24:28.000Z</time>
      </trkpt>
      <trkpt lat="44.84254" lon="1.55583">
        <ele>147</ele>
        <time>2019-02-02T12:25:28.000Z</time>
      </trkpt>
      <trkpt lat="44.84256" lon="1.55597">
        <ele>148</ele>
        <time>2019-02-02T12:26:28.000Z</time>
      </trkpt>
      <trkpt lat="44.8426" lon="1.5561">
        <ele>148</ele>
        <time>2019-02-02T12:27:28.000Z</time>
      </trkpt>
      <trkpt lat="44.84266" lon="1.55623">
        <ele>148</ele>
        <time>2019-02-02T12:28:28.000Z</time>
      </trkpt>
      <trkpt lat="44.8427" lon="1.55634">
        <ele>148</ele>
        <time>2019-02-02T12:29:28.000Z</time>
      </trkpt>
      <trkpt lat="44.84274" lon="1.55647">
        <ele>148</ele>
        <time>2019-02-02T12:30:28.000Z</time>
      </trkpt>
      <trkpt lat="44.84276" lon="1.5566">
        <ele>149</ele>
        <time>2019-02-02T12:31:28.000Z</time>
      </trkpt>
      <trkpt lat="44.84275" lon="1.55674">
        <ele>150</ele>
        <time>2019-02-02T12:32:28.000Z</time>
      </trkpt>
      <trkpt lat="44.84272" lon="1.55687">
        <ele>150</ele>
        <time>2019-02-02T12:33:28.000Z</time>
      </trkpt>
      <trkpt lat="44.84267" lon="1.55699">
        <ele>152</ele>
        <time>2019-02-02T12:34:28.000Z</time>
      </trkpt>
      <trkpt lat="44.84254" lon="1.55722">
        <ele>156</ele>
        <time>2019-02-02T12:35:28.000Z</time>
      </trkpt>
      <trkpt lat="44.84249" lon="1.55733">
        <ele>158</ele>
        <time>2019-02-02T12:36:28.000Z</time>
      </trkpt>
      <trkpt lat="44.84244" lon="1.55745">
        <ele>159</ele>
        <time>2019-02-02T12:37:28.000Z</time>
      </trkpt>
      <trkpt lat="44.84238" lon="1.55758">
        <ele>158</ele>
        <time>2019-02-02T12:38:28.000Z</time>
      </trkpt>
      <trkpt lat="44.84232" lon="1.55766">
        <ele>157</ele>
        <time>2019-02-02T12:39:28.000Z</time>
      </trkpt>
      <trkpt lat="44.84222" lon="1.5577">
        <ele>158</ele>
        <time>2019-02-02T12:40:28.000Z</time>
      </trkpt>
      <trkpt lat="44.84212" lon="1.55773">
        <ele>160</ele>
        <time>2019-02-02T12:41:28.000Z</time>
      </trkpt>
      <trkpt lat="44.84202" lon="1.55771">
        <ele>162</ele>
        <time>2019-02-02T12:42:28.000Z</time>
      </trkpt>
      <trkpt lat="44.8418" lon="1.55766">
        <ele>166</ele>
        <time>2019-02-02T12:43:28.000Z</time>
      </trkpt>
      <trkpt lat="44.84149" lon="1.55763">
        <ele>171</ele>
        <time>2019-02-02T12:44:28.000Z</time>
      </trkpt>
      <trkpt lat="44.84139" lon="1.55766">
        <ele>172</ele>
        <time>2019-02-02T12:45:28.000Z</time>
      </trkpt>
      <trkpt lat="44.8413" lon="1.5577">
        <ele>173</ele>
        <time>2019-02-02T12:46:28.000Z</time>
      </trkpt>
      <trkpt lat="44.8412" lon="1.55772">
        <ele>174</ele>
        <time>2019-02-02T12:47:28.000Z</time>
      </trkpt>
      <trkpt lat="44.84111" lon="1.55776">
        <ele>175</ele>
        <time>2019-02-02T12:48:28.000Z</time>
      </trkpt>
      <trkpt lat="44.84102" lon="1.55782">
        <ele>176</ele>
        <time>2019-02-02T12:49:28.000Z</time>
      </trkpt>
      <trkpt lat="44.84093" lon="1.55788">
        <ele>177</ele>
        <time>2019-02-02T12:50:28.000Z</time>
      </trkpt>
      <trkpt lat="44.84085" lon="1.55796">
        <ele>179</ele>
        <time>2019-02-02T12:51:28.000Z</time>
      </trkpt>
      <trkpt lat="44.84077" lon="1.55802">
        <ele>180</ele>
        <time>2019-02-02T12:52:28.000Z</time>
      </trkpt>
      <trkpt lat="44.84069" lon="1.55809">
        <ele>181</ele>
        <time>2019-02-02T12:53:28.000Z</time>
      </trkpt>
      <trkpt lat="44.84061" lon="1.55817">
        <ele>181</ele>
        <time>2019-02-02T12:54:28.000Z</time>
      </trkpt>
      <trkpt lat="44.84055" lon="1.55826">
        <ele>182</ele>
        <time>2019-02-02T12:55:28.000Z</time>
      </trkpt>
      <trkpt lat="44.84048" lon="1.55834">
        <ele>183</ele>
        <time>2019-02-02T12:56:28.000Z</time>
      </trkpt>
      <trkpt lat="44.8404" lon="1.55842">
        <ele>184</ele>
        <time>2019-02-02T12:57:28.000Z</time>
      </trkpt>
      <trkpt lat="44.84033" lon="1.5585">
        <ele>184</ele>
        <time>2019-02-02T12:58:28.000Z</time>
      </trkpt>
      <trkpt lat="44.84026" lon="1.55858">
        <ele>185</ele>
        <time>2019-02-02T12:59:28.000Z</time>
      </trkpt>
      <trkpt lat="44.84018" lon="1.55867">
        <ele>186</ele>
        <time>2019-02-02T13:00:28.000Z</time>
      </trkpt>
      <trkpt lat="44.8401" lon="1.55874">
        <ele>187</ele>
        <time>2019-02-02T13:01:28.000Z</time>
      </trkpt>
      <trkpt lat="44.84001" lon="1.55881">
        <ele>188</ele>
        <time>2019-02-02T13:02:28.000Z</time>
      </trkpt>
      <trkpt lat="44.83993" lon="1.55889">
        <ele>190</ele>
        <time>2019-02-02T13:03:28.000Z</time>
      </trkpt>
      <trkpt lat="44.83985" lon="1.55897">
        <ele>191</ele>
        <time>2019-02-02T13:04:28.000Z</time>
      </trkpt>
      <trkpt lat="44.83977" lon="1.55904">
        <ele>191</ele>
        <time>2019-02-02T13:05:28.000Z</time>
      </trkpt>
      <trkpt lat="44.83968" lon="1.5591">
        <ele>192</ele>
        <time>2019-02-02T13:06:28.000Z</time>
      </trkpt>
      <trkpt lat="44.83958" lon="1.55915">
        <ele>194</ele>
        <time>2019-02-02T13:07:28.000Z</time>
      </trkpt>
      <trkpt lat="44.83938" lon="1.55922">
        <ele>195</ele>
        <time>2019-02-02T13:08:28.000Z</time>
      </trkpt>
      <trkpt lat="44.83928" lon="1.55924">
        <ele>196</ele>
        <time>2019-02-02T13:09:28.000Z</time>
      </trkpt>
      <trkpt lat="44.83918" lon="1.55926">
        <ele>196</ele>
        <time>2019-02-02T13:10:28.000Z</time>
      </trkpt>
      <trkpt lat="44.83908" lon="1.55926">
        <ele>197</ele>
        <time>2019-02-02T13:11:28.000Z</time>
      </trkpt>
      <trkpt lat="44.83899" lon="1.55924">
        <ele>197</ele>
        <time>2019-02-02T13:12:28.000Z</time>
      </trkpt>
      <trkpt lat="44.83889" lon="1.55923">
        <ele>198</ele>
        <time>2019-02-02T13:13:28.000Z</time>
      </trkpt>
      <trkpt lat="44.83879" lon="1.55919">
        <ele>199</ele>
        <time>2019-02-02T13:14:28.000Z</time>
      </trkpt>
      <trkpt lat="44.8387" lon="1.55918">
        <ele>199</ele>
        <time>2019-02-02T13:15:28.000Z</time>
      </trkpt>
      <trkpt lat="44.8385" lon="1.5591">
        <ele>201</ele>
        <time>2019-02-02T13:16:28.000Z</time>
      </trkpt>
      <trkpt lat="44.83841" lon="1.55905">
        <ele>202</ele>
        <time>2019-02-02T13:17:28.000Z</time>
      </trkpt>
      <trkpt lat="44.83832" lon="1.55902">
        <ele>203</ele>
        <time>2019-02-02T13:18:28.000Z</time>
      </trkpt>
      <trkpt lat="44.83821" lon="1.55902">
        <ele>203</ele>
        <time>2019-02-02T13:19:28.000Z</time>
      </trkpt>
      <trkpt lat="44.83811" lon="1.55901">
        <ele>203</ele>
        <time>2019-02-02T13:20:28.000Z</time>
      </trkpt>
      <trkpt lat="44.83803" lon="1.55897">
        <ele>204</ele>
        <time>2019-02-02T13:21:28.000Z</time>
      </trkpt>
      <trkpt lat="44.83783" lon="1.55894">
        <ele>205</ele>
        <time>2019-02-02T13:22:28.000Z</time>
      </trkpt>
      <trkpt lat="44.83759" lon="1.55887">
        <ele>206</ele>
        <time>2019-02-02T13:23:28.000Z</time>
      </trkpt>
      <trkpt lat="44.83736" lon="1.55885">
        <ele>207</ele>
        <time>2019-02-02T13:24:28.000Z</time>
      </trkpt>
      <trkpt lat="44.83719" lon="1.55887">
        <ele>207</ele>
        <time>2019-02-02T13:25:28.000Z</time>
      </trkpt>
      <trkpt lat="44.83705" lon="1.55891">
        <ele>207</ele>
        <time>2019-02-02T13:26:28.000Z</time>
      </trkpt>
      <trkpt lat="44.8369" lon="1.55895">
        <ele>207</ele>
        <time>2019-02-02T13:27:28.000Z</time>
      </trkpt>
      <trkpt lat="44.83676" lon="1.55901">
        <ele>208</ele>
        <time>2019-02-02T13:28:28.000Z</time>
      </trkpt>
      <trkpt lat="44.83657" lon="1.55911">
        <ele>207</ele>
        <time>2019-02-02T13:29:28.000Z</time>
      </trkpt>
      <trkpt lat="44.83603" lon="1.55943">
        <ele>207</ele>
        <time>2019-02-02T13:30:28.000Z</time>
      </trkpt>
      <trkpt lat="44.83583" lon="1.55953">
        <ele>208</ele>
        <time>2019-02-02T13:31:28.000Z</time>
      </trkpt>
      <trkpt lat="44.83557" lon="1.55968">
        <ele>208</ele>
        <time>2019-02-02T13:32:28.000Z</time>
      </trkpt>
      <trkpt lat="44.83535" lon="1.55981">
        <ele>209</ele>
        <time>2019-02-02T13:33:28.000Z</time>
      </trkpt>
      <trkpt lat="44.8352" lon="1.55996">
        <ele>210</ele>
        <time>2019-02-02T13:34:28.000Z</time>
      </trkpt>
      <trkpt lat="44.83506" lon="1.56014">
        <ele>211</ele>
        <time>2019-02-02T13:35:28.000Z</time>
      </trkpt>
      <trkpt lat="44.83495" lon="1.56032">
        <ele>212</ele>
        <time>2019-02-02T13:36:28.000Z</time>
      </trkpt>
      <trkpt lat="44.83488" lon="1.56046">
        <ele>213</ele>
        <time>2019-02-02T13:37:28.000Z</time>
      </trkpt>
      <trkpt lat="44.8347" lon="1.56073">
        <ele>215</ele>
        <time>2019-02-02T13:38:28.000Z</time>
      </trkpt>
      <trkpt lat="44.83461" lon="1.56087">
        <ele>217</ele>
        <time>2019-02-02T13:39:28.000Z</time>
      </trkpt>
      <trkpt lat="44.83455" lon="1.56098">
        <ele>217</ele>
        <time>2019-02-02T13:40:28.000Z</time>
      </trkpt>
      <trkpt lat="44.83447" lon="1.56111">
        <ele>218</ele>
        <time>2019-02-02T13:41:28.000Z</time>
      </trkpt>
      <trkpt lat="44.83431" lon="1.5614">
        <ele>221</ele>
        <time>2019-02-02T13:42:28.000Z</time>
      </trkpt>
      <trkpt lat="44.83416" lon="1.56163">
        <ele>224</ele>
        <time>2019-02-02T13:43:28.000Z</time>
      </trkpt>
      <trkpt lat="44.83408" lon="1.56175">
        <ele>225</ele>
        <time>2019-02-02T13:44:28.000Z</time>
      </trkpt>
      <trkpt lat="44.8339" lon="1.56206">
        <ele>226</ele>
        <time>2019-02-02T13:45:28.000Z</time>
      </trkpt>
      <trkpt lat="44.83383" lon="1.56216">
        <ele>227</ele>
        <time>2019-02-02T13:46:28.000Z</time>
      </trkpt>
      <trkpt lat="44.83377" lon="1.56231">
        <ele>227</ele>
        <time>2019-02-02T13:47:28.000Z</time>
      </trkpt>
      <trkpt lat="44.8337" lon="1.56244">
        <ele>228</ele>
        <time>2019-02-02T13:48:28.000Z</time>
      </trkpt>
      <trkpt lat="44.83363" lon="1.56255">
        <ele>229</ele>
        <time>2019-02-02T13:49:28.000Z</time>
      </trkpt>
      <trkpt lat="44.83357" lon="1.56266">
        <ele>229</ele>
        <time>2019-02-02T13:50:28.000Z</time>
      </trkpt>
      <trkpt lat="44.8335" lon="1.5628">
        <ele>230</ele>
        <time>2019-02-02T13:51:28.000Z</time>
      </trkpt>
      <trkpt lat="44.83344" lon="1.56293">
        <ele>231</ele>
        <time>2019-02-02T13:52:28.000Z</time>
      </trkpt>
      <trkpt lat="44.83335" lon="1.56308">
        <ele>233</ele>
        <time>2019-02-02T13:53:28.000Z</time>
      </trkpt>
      <trkpt lat="44.83328" lon="1.56321">
        <ele>234</ele>
        <time>2019-02-02T13:54:28.000Z</time>
      </trkpt>
      <trkpt lat="44.83313" lon="1.56345">
        <ele>235</ele>
        <time>2019-02-02T13:55:28.000Z</time>
      </trkpt>
      <trkpt lat="44.83297" lon="1.56367">
        <ele>236</ele>
        <time>2019-02-02T13:56:28.000Z</time>
      </trkpt>
      <trkpt lat="44.83289" lon="1.56377">
        <ele>236</ele>
        <time>2019-02-02T13:57:28.000Z</time>
      </trkpt>
      <trkpt lat="44.83282" lon="1.56389">
        <ele>237</ele>
        <time>2019-02-02T13:58:28.000Z</time>
      </trkpt>
      <trkpt lat="44.83272" lon="1.56403">
        <ele>238</ele>
        <time>2019-02-02T13:59:28.000Z</time>
      </trkpt>
      <trkpt lat="44.83262" lon="1.56415">
        <ele>239</ele>
        <time>2019-02-02T14:00:28.000Z</time>
      </trkpt>
      <trkpt lat="44.83242" lon="1.56447">
        <ele>239</ele>
        <time>2019-02-02T14:01:28.000Z</time>
      </trkpt>
      <trkpt lat="44.8323" lon="1.56463">
        <ele>238</ele>
        <time>2019-02-02T14:02:28.000Z</time>
      </trkpt>
      <trkpt lat="44.83218" lon="1.56474">
        <ele>239</ele>
        <time>2019-02-02T14:03:28.000Z</time>
      </trkpt>
      <trkpt lat="44.83192" lon="1.56509">
        <ele>239</ele>
        <time>2019-02-02T14:04:28.000Z</time>
      </trkpt>
      <trkpt lat="44.83178" lon="1.56526">
        <ele>240</ele>
        <time>2019-02-02T14:05:28.000Z</time>
      </trkpt>
      <trkpt lat="44.83163" lon="1.56541">
        <ele>241</ele>
        <time>2019-02-02T14:06:28.000Z</time>
      </trkpt>
      <trkpt lat="44.83125" lon="1.56577">
        <ele>240</ele>
        <time>2019-02-02T14:07:28.000Z</time>
      </trkpt>
      <trkpt lat="44.831" lon="1.56597">
        <ele>241</ele>
        <time>2019-02-02T14:08:28.000Z</time>
      </trkpt>
      <trkpt lat="44.83081" lon="1.56611">
        <ele>242</ele>
        <time>2019-02-02T14:09:28.000Z</time>
      </trkpt>
      <trkpt lat="44.83043" lon="1.56641">
        <ele>241</ele>
        <time>2019-02-02T14:10:28.000Z</time>
      </trkpt>
      <trkpt lat="44.83032" lon="1.56658">
        <ele>241</ele>
        <time>2019-02-02T14:11:28.000Z</time>
      </trkpt>
      <trkpt lat="44.82972" lon="1.56687">
        <ele>242</ele>
        <time>2019-02-02T14:12:28.000Z</time>
      </trkpt>
      <trkpt lat="44.82914" lon="1.5673">
        <ele>243</ele>
        <time>2019-02-02T14:13:28.000Z</time>
      </trkpt>
      <trkpt lat="44.82862" lon="1.56778">
        <ele>245</ele>
        <time>2019-02-02T14:14:28.000Z</time>
      </trkpt>
      <trkpt lat="44.8281" lon="1.5682">
        <ele>248</ele>
        <time>2019-02-02T14:15:28.000Z</time>
      </trkpt>
      <trkpt lat="44.82776" lon="1.5685">
        <ele>249</ele>
        <time>2019-02-02T14:16:28.000Z</time>
      </trkpt>
      <trkpt lat="44.82733" lon="1.56872">
        <ele>252</ele>
        <time>2019-02-02T14:17:28.000Z</time>
      </trkpt>
      <trkpt lat="44.82679" lon="1.56922">
        <ele>255</ele>
        <time>2019-02-02T14:18:28.000Z</time>
      </trkpt>
      <trkpt lat="44.82641" lon="1.5695">
        <ele>257</ele>
        <time>2019-02-02T14:19:28.000Z</time>
      </trkpt>
      <trkpt lat="44.82598" lon="1.56987">
        <ele>260</ele>
        <time>2019-02-02T14:20:28.000Z</time>
      </trkpt>
      <trkpt lat="44.8256" lon="1.57053">
        <ele>260</ele>
        <time>2019-02-02T14:21:28.000Z</time>
      </trkpt>
      <trkpt lat="44.82521" lon="1.57097">
        <ele>261</ele>
        <time>2019-02-02T14:22:28.000Z</time>
      </trkpt>
      <trkpt lat="44.8247" lon="1.57165">
        <ele>259</ele>
        <time>2019-02-02T14:23:28.000Z</time>
      </trkpt>
      <trkpt lat="44.82431" lon="1.5722">
        <ele>261</ele>
        <time>2019-02-02T14:24:28.000Z</time>
      </trkpt>
      <trkpt lat="44.82389" lon="1.57281">
        <ele>264</ele>
        <time>2019-02-02T14:25:28.000Z</time>
      </trkpt>
      <trkpt lat="44.82366" lon="1.57334">
        <ele>266</ele>
        <time>2019-02-02T14:26:28.000Z</time>
      </trkpt>
      <trkpt lat="44.8235" lon="1.57388">
        <ele>267</ele>
        <time>2019-02-02T14:27:28.000Z</time>
      </trkpt>
      <trkpt lat="44.8234" lon="1.57452">
        <ele>270</ele>
        <time>2019-02-02T14:28:28.000Z</time>
      </trkpt>
      <trkpt lat="44.82326" lon="1.57516">
        <ele>274</ele>
        <time>2019-02-02T14:29:28.000Z</time>
      </trkpt>
      <trkpt lat="44.82303" lon="1.57568">
        <ele>273</ele>
        <time>2019-02-02T14:30:28.000Z</time>
      </trkpt>
      <trkpt lat="44.82281" lon="1.57623">
        <ele>274</ele>
        <time>2019-02-02T14:31:28.000Z</time>
      </trkpt>
      <trkpt lat="44.82255" lon="1.57689">
        <ele>275</ele>
        <time>2019-02-02T14:32:28.000Z</time>
      </trkpt>
      <trkpt lat="44.82225" lon="1.57761">
        <ele>275</ele>
        <time>2019-02-02T14:33:28.000Z</time>
      </trkpt>
      <trkpt lat="44.82195" lon="1.57836">
        <ele>276</ele>
        <time>2019-02-02T14:34:28.000Z</time>
      </trkpt>
      <trkpt lat="44.82171" lon="1.57942">
        <ele>277</ele>
        <time>2019-02-02T14:35:28.000Z</time>
      </trkpt>
      <trkpt lat="44.82161" lon="1.58056">
        <ele>278</ele>
        <time>2019-02-02T14:36:28.000Z</time>
      </trkpt>
      <trkpt lat="44.82162" lon="1.58149">
        <ele>282</ele>
        <time>2019-02-02T14:37:28.000Z</time>
      </trkpt>
      <trkpt lat="44.8215" lon="1.58213">
        <ele>285</ele>
        <time>2019-02-02T14:38:28.000Z</time>
      </trkpt>
      <trkpt lat="44.82147" lon="1.5828">
        <ele>287</ele>
        <time>2019-02-02T14:39:28.000Z</time>
      </trkpt>
      <trkpt lat="44.82161" lon="1.58339">
        <ele>289</ele>
        <time>2019-02-02T14:40:28.000Z</time>
      </trkpt>
      <trkpt lat="44.82178" lon="1.58381">
        <ele>290</ele>
        <time>2019-02-02T14:41:28.000Z</time>
      </trkpt>
      <trkpt lat="44.82203" lon="1.58414">
        <ele>292</ele>
        <time>2019-02-02T14:42:28.000Z</time>
      </trkpt>
      <trkpt lat="44.82227" lon="1.58441">
        <ele>293</ele>
        <time>2019-02-02T14:43:28.000Z</time>
      </trkpt>
      <trkpt lat="44.82246" lon="1.58474">
        <ele>295</ele>
        <time>2019-02-02T14:44:28.000Z</time>
      </trkpt>
      <trkpt lat="44.8227" lon="1.58498">
        <ele>297</ele>
        <time>2019-02-02T14:45:28.000Z</time>
      </trkpt>
      <trkpt lat="44.823" lon="1.58535">
        <ele>300</ele>
        <time>2019-02-02T14:46:28.000Z</time>
      </trkpt>
      <trkpt lat="44.82325" lon="1.58564">
        <ele>302</ele>
        <time>2019-02-02T14:47:28.000Z</time>
      </trkpt>
      <trkpt lat="44.82348" lon="1.58586">
        <ele>304</ele>
        <time>2019-02-02T14:48:28.000Z</time>
      </trkpt>
      <trkpt lat="44.82365" lon="1.58621">
        <ele>306</ele>
        <time>2019-02-02T14:49:28.000Z</time>
      </trkpt>
      <trkpt lat="44.82379" lon="1.58658">
        <ele>308</ele>
        <time>2019-02-02T14:50:28.000Z</time>
      </trkpt>
      <trkpt lat="44.82405" lon="1.58704">
        <ele>311</ele>
        <time>2019-02-02T14:51:28.000Z</time>
      </trkpt>
      <trkpt lat="44.82429" lon="1.58762">
        <ele>311</ele>
        <time>2019-02-02T14:52:28.000Z</time>
      </trkpt>
      <trkpt lat="44.82442" lon="1.5886">
        <ele>312</ele>
        <time>2019-02-02T14:53:28.000Z</time>
      </trkpt>
      <trkpt lat="44.8247" lon="1.59011">
        <ele>308</ele>
        <time>2019-02-02T14:54:28.000Z</time>
      </trkpt>
      <trkpt lat="44.82516" lon="1.59102">
        <ele>306</ele>
        <time>2019-02-02T14:55:28.000Z</time>
      </trkpt>
      <trkpt lat="44.82548" lon="1.59182">
        <ele>307</ele>
        <time>2019-02-02T14:56:28.000Z</time>
      </trkpt>
      <trkpt lat="44.82576" lon="1.5925">
        <ele>311</ele>
        <time>2019-02-02T14:57:28.000Z</time>
      </trkpt>
      <trkpt lat="44.82595" lon="1.59298">
        <ele>312</ele>
        <time>2019-02-02T14:58:28.000Z</time>
      </trkpt>
      <trkpt lat="44.82627" lon="1.59338">
        <ele>314</ele>
        <time>2019-02-02T14:59:28.000Z</time>
      </trkpt>
      <trkpt lat="44.82653" lon="1.59376">
        <ele>316</ele>
        <time>2019-02-02T15:00:28.000Z</time>
      </trkpt>
      <trkpt lat="44.82665" lon="1.59463">
        <ele>317</ele>
        <time>2019-02-02T15:01:28.000Z</time>
      </trkpt>
      <trkpt lat="44.82654" lon="1.59548">
        <ele>317</ele>
        <time>2019-02-02T15:02:28.000Z</time>
      </trkpt>
      <trkpt lat="44.82625" lon="1.59607">
        <ele>317</ele>
        <time>2019-02-02T15:03:28.000Z</time>
      </trkpt>
      <trkpt lat="44.82574" lon="1.59712">
        <ele>316</ele>
        <time>2019-02-02T15:04:28.000Z</time>
      </trkpt>
      <trkpt lat="44.82528" lon="1.59829">
        <ele>313</ele>
        <time>2019-02-02T15:05:28.000Z</time>
      </trkpt>
      <trkpt lat="44.82487" lon="1.59976">
        <ele>313</ele>
        <time>2019-02-02T15:06:28.000Z</time>
      </trkpt>
      <trkpt lat="44.8239" lon="1.60016">
        <ele>309</ele>
        <time>2019-02-02T15:07:28.000Z</time>
      </trkpt>
      <trkpt lat="44.82259" lon="1.60078">
        <ele>304</ele>
        <time>2019-02-02T15:08:28.000Z</time>
      </trkpt>
      <trkpt lat="44.82148" lon="1.60288">
        <ele>296</ele>
        <time>2019-02-02T15:09:28.000Z</time>
      </trkpt>
      <trkpt lat="44.82053" lon="1.60412">
        <ele>292</ele>
        <time>2019-02-02T15:10:28.000Z</time>
      </trkpt>
      <trkpt lat="44.81976" lon="1.60369">
        <ele>294</ele>
        <time>2019-02-02T15:11:28.000Z</time>
      </trkpt>
      <trkpt lat="44.81915" lon="1.60326">
        <ele>295</ele>
        <time>2019-02-02T15:12:28.000Z</time>
      </trkpt>
      <trkpt lat="44.81844" lon="1.60275">
        <ele>295</ele>
        <time>2019-02-02T15:13:28.000Z</time>
      </trkpt>
      <trkpt lat="44.81816" lon="1.60256">
        <ele>296</ele>
        <time>2019-02-02T15:14:28.000Z</time>
      </trkpt>
      <trkpt lat="44.81797" lon="1.60265">
        <ele>296</ele>
        <time>2019-02-02T15:15:28.000Z</time>
      </trkpt>
      <trkpt lat="44.81798" lon="1.6028">
        <ele>296</ele>
        <time>2019-02-02T15:16:28.000Z</time>
      </trkpt>
      <trkpt lat="44.81779" lon="1.60294">
        <ele>295</ele>
        <time>2019-02-02T15:17:28.000Z</time>
      </trkpt>
      <trkpt lat="44.81773" lon="1.60305">
        <ele>295</ele>
        <time>2019-02-02T15:18:28.000Z</time>
      </trkpt>
      <trkpt lat="44.81776" lon="1.60281">
        <ele>296</ele>
        <time>2019-02-02T15:19:28.000Z</time>
      </trkpt>
      <trkpt lat="44.81769" lon="1.60271">
        <ele>297</ele>
        <time>2019-02-02T15:20:28.000Z</time>
      </trkpt>
      <trkpt lat="44.81774" lon="1.60283">
        <ele>296</ele>
        <time>2019-02-02T15:21:28.000Z</time>
      </trkpt>
      <trkpt lat="44.81763" lon="1.60284">
        <ele>296</ele>
        <time>2019-02-02T15:22:28.000Z</time>
      </trkpt>
      <trkpt lat="44.81775" lon="1.60301">
        <ele>295</ele>
        <time>2019-02-02T15:23:28.000Z</time>
      </trkpt>
      <trkpt lat="44.81784" lon="1.6029">
        <ele>295</ele>
        <time>2019-02-02T15:24:28.000Z</time>
      </trkpt>
      <trkpt lat="44.81776" lon="1.60249">
        <ele>297</ele>
        <time>2019-02-02T15:25:28.000Z</time>
      </trkpt>
      <trkpt lat="44.8172" lon="1.60246">
        <ele>297</ele>
        <time>2019-02-02T15:26:28.000Z</time>
      </trkpt>
      <trkpt lat="44.81631" lon="1.60229">
        <ele>293</ele>
        <time>2019-02-02T15:27:28.000Z</time>
      </trkpt>
      <trkpt lat="44.81557" lon="1.60235">
        <ele>290</ele>
        <time>2019-02-02T15:28:28.000Z</time>
      </trkpt>
      <trkpt lat="44.81427" lon="1.60272">
        <ele>282</ele>
        <time>2019-02-02T15:29:28.000Z</time>
      </trkpt>
      <trkpt lat="44.81305" lon="1.60373">
        <ele>277</ele>
        <time>2019-02-02T15:30:28.000Z</time>
      </trkpt>
      <trkpt lat="44.81197" lon="1.60502">
        <ele>269</ele>
        <time>2019-02-02T15:31:28.000Z</time>
      </trkpt>
      <trkpt lat="44.81154" lon="1.60706">
        <ele>263</ele>
        <time>2019-02-02T15:32:28.000Z</time>
      </trkpt>
      <trkpt lat="44.81099" lon="1.60849">
        <ele>259</ele>
        <time>2019-02-02T15:33:28.000Z</time>
      </trkpt>
      <trkpt lat="44.81081" lon="1.60994">
        <ele>261</ele>
        <time>2019-02-02T15:34:28.000Z</time>
      </trkpt>
      <trkpt lat="44.8104" lon="1.6111">
        <ele>257</ele>
        <time>2019-02-02T15:35:28.000Z</time>
      </trkpt>
      <trkpt lat="44.81003" lon="1.61257">
        <ele>253</ele>
        <time>2019-02-02T15:36:28.000Z</time>
      </trkpt>
      <trkpt lat="44.80972" lon="1.61396">
        <ele>256</ele>
        <time>2019-02-02T15:37:28.000Z</time>
      </trkpt>
      <trkpt lat="44.8095" lon="1.61507">
        <ele>257</ele>
        <time>2019-02-02T15:38:28.000Z</time>
      </trkpt>
      <trkpt lat="44.80929" lon="1.6163">
        <ele>258</ele>
        <time>2019-02-02T15:39:28.000Z</time>
      </trkpt>
      <trkpt lat="44.80925" lon="1.6174">
        <ele>257</ele>
        <time>2019-02-02T15:40:28.000Z</time>
      </trkpt>
      <trkpt lat="44.80888" lon="1.61853">
        <ele>255</ele>
        <time>2019-02-02T15:41:28.000Z</time>
      </trkpt>
      <trkpt lat="44.8088" lon="1.61873">
        <ele>255</ele>
        <time>2019-02-02T15:42:28.000Z</time>
      </trkpt>
      <trkpt lat="44.8091" lon="1.61808">
        <ele>257</ele>
        <time>2019-02-02T15:43:28.000Z</time>
      </trkpt>
      <trkpt lat="44.80925" lon="1.61863">
        <ele>256</ele>
        <time>2019-02-02T15:44:28.000Z</time>
      </trkpt>
      <trkpt lat="44.80935" lon="1.61865">
        <ele>256</ele>
        <time>2019-02-02T15:45:28.000Z</time>
      </trkpt>
      <trkpt lat="44.80938" lon="1.61879">
        <ele>256</ele>
        <time>2019-02-02T15:46:28.000Z</time>
      </trkpt>
      <trkpt lat="44.80944" lon="1.61905">
        <ele>255</ele>
        <time>2019-02-02T15:47:28.000Z</time>
      </trkpt>
      <trkpt lat="44.8095" lon="1.61931">
        <ele>255</ele>
        <time>2019-02-02T15:48:28.000Z</time>
      </trkpt>
      <trkpt lat="44.80955" lon="1.61962">
        <ele>254</ele>
        <time>2019-02-02T15:49:28.000Z</time>
      </trkpt>
      <trkpt lat="44.8096" lon="1.61999">
        <ele>254</ele>
        <time>2019-02-02T15:50:28.000Z</time>
      </trkpt>
      <trkpt lat="44.80968" lon="1.62035">
        <ele>254</ele>
        <time>2019-02-02T15:51:28.000Z</time>
      </trkpt>
      <trkpt lat="44.80975" lon="1.62064">
        <ele>254</ele>
        <time>2019-02-02T15:52:28.000Z</time>
      </trkpt>
      <trkpt lat="44.80983" lon="1.62095">
        <ele>254</ele>
        <time>2019-02-02T15:53:28.000Z</time>
      </trkpt>
      <trkpt lat="44.80991" lon="1.62125">
        <ele>255</ele>
        <time>2019-02-02T15:54:28.000Z</time>
      </trkpt>
      <trkpt lat="44.81" lon="1.6216">
        <ele>256</ele>
        <time>2019-02-02T15:55:28.000Z</time>
      </trkpt>
      <trkpt lat="44.81005" lon="1.62186">
        <ele>256</ele>
        <time>2019-02-02T15:56:28.000Z</time>
      </trkpt>
      <trkpt lat="44.81007" lon="1.62222">
        <ele>255</ele>
        <time>2019-02-02T15:57:28.000Z</time>
      </trkpt>
      <trkpt lat="44.81007" lon="1.62283">
        <ele>252</ele>
        <time>2019-02-02T15:58:28.000Z</time>
      </trkpt>
      <trkpt lat="44.81008" lon="1.62309">
        <ele>251</ele>
        <time>2019-02-02T15:59:28.000Z</time>
      </trkpt>
      <trkpt lat="44.81012" lon="1.62348">
        <ele>250</ele>
        <time>2019-02-02T16:00:28.000Z</time>
      </trkpt>
      <trkpt lat="44.81017" lon="1.62388">
        <ele>249</ele>
        <time>2019-02-02T16:01:28.000Z</time>
      </trkpt>
      <trkpt lat="44.81018" lon="1.62419">
        <ele>249</ele>
        <time>2019-02-02T16:02:28.000Z</time>
      </trkpt>
      <trkpt lat="44.81008" lon="1.62439">
        <ele>249</ele>
        <time>2019-02-02T16:03:28.000Z</time>
      </trkpt>
      <trkpt lat="44.80984" lon="1.62441">
        <ele>249</ele>
        <time>2019-02-02T16:04:28.000Z</time>
      </trkpt>
      <trkpt lat="44.80961" lon="1.62445">
        <ele>249</ele>
        <time>2019-02-02T16:05:28.000Z</time>
      </trkpt>
      <trkpt lat="44.80939" lon="1.62447">
        <ele>249</ele>
        <time>2019-02-02T16:06:28.000Z</time>
      </trkpt>
      <trkpt lat="44.80913" lon="1.62453">
        <ele>250</ele>
        <time>2019-02-02T16:07:28.000Z</time>
      </trkpt>
      <trkpt lat="44.80888" lon="1.62466">
        <ele>252</ele>
        <time>2019-02-02T16:08:28.000Z</time>
      </trkpt>
      <trkpt lat="44.80863" lon="1.62479">
        <ele>253</ele>
        <time>2019-02-02T16:09:28.000Z</time>
      </trkpt>
      <trkpt lat="44.80828" lon="1.625">
        <ele>256</ele>
        <time>2019-02-02T16:10:28.000Z</time>
      </trkpt>
      <trkpt lat="44.80812" lon="1.62511">
        <ele>257</ele>
        <time>2019-02-02T16:11:28.000Z</time>
      </trkpt>
      <trkpt lat="44.80799" lon="1.62518">
        <ele>258</ele>
        <time>2019-02-02T16:12:28.000Z</time>
      </trkpt>
      <trkpt lat="44.80786" lon="1.62527">
        <ele>258</ele>
        <time>2019-02-02T16:13:28.000Z</time>
      </trkpt>
      <trkpt lat="44.80773" lon="1.62534">
        <ele>259</ele>
        <time>2019-02-02T16:14:28.000Z</time>
      </trkpt>
      <trkpt lat="44.80759" lon="1.62543">
        <ele>260</ele>
        <time>2019-02-02T16:15:28.000Z</time>
      </trkpt>
      <trkpt lat="44.80745" lon="1.62553">
        <ele>260</ele>
        <time>2019-02-02T16:16:28.000Z</time>
      </trkpt>
      <trkpt lat="44.8073" lon="1.6256">
        <ele>260</ele>
        <time>2019-02-02T16:17:28.000Z</time>
      </trkpt>
      <trkpt lat="44.80716" lon="1.62564">
        <ele>261</ele>
        <time>2019-02-02T16:18:28.000Z</time>
      </trkpt>
      <trkpt lat="44.807" lon="1.62567">
        <ele>262</ele>
        <time>2019-02-02T16:19:28.000Z</time>
      </trkpt>
      <trkpt lat="44.8068" lon="1.62573">
        <ele>263</ele>
        <time>2019-02-02T16:20:28.000Z</time>
      </trkpt>
      <trkpt lat="44.8066" lon="1.6258">
        <ele>263</ele>
        <time>2019-02-02T16:21:28.000Z</time>
      </trkpt>
      <trkpt lat="44.80641" lon="1.62591">
        <ele>262</ele>
        <time>2019-02-02T16:22:28.000Z</time>
      </trkpt>
      <trkpt lat="44.80618" lon="1.62608">
        <ele>261</ele>
        <time>2019-02-02T16:23:28.000Z</time>
      </trkpt>
      <trkpt lat="44.80588" lon="1.62625">
        <ele>260</ele>
        <time>2019-02-02T16:24:28.000Z</time>
      </trkpt>
      <trkpt lat="44.80562" lon="1.6264">
        <ele>259</ele>
        <time>2019-02-02T16:25:28.000Z</time>
      </trkpt>
      <trkpt lat="44.80536" lon="1.62651">
        <ele>258</ele>
        <time>2019-02-02T16:26:28.000Z</time>
      </trkpt>
      <trkpt lat="44.80512" lon="1.62662">
        <ele>259</ele>
        <time>2019-02-02T16:27:28.000Z</time>
      </trkpt>
      <trkpt lat="44.80472" lon="1.62686">
        <ele>258</ele>
        <time>2019-02-02T16:28:28.000Z</time>
      </trkpt>
      <trkpt lat="44.80445" lon="1.62701">
        <ele>257</ele>
        <time>2019-02-02T16:29:28.000Z</time>
      </trkpt>
      <trkpt lat="44.80412" lon="1.62703">
        <ele>256</ele>
        <time>2019-02-02T16:30:28.000Z</time>
      </trkpt>
      <trkpt lat="44.80392" lon="1.62707">
        <ele>255</ele>
        <time>2019-02-02T16:31:28.000Z</time>
      </trkpt>
      <trkpt lat="44.80381" lon="1.62703">
        <ele>253</ele>
        <time>2019-02-02T16:32:28.000Z</time>
      </trkpt>
      <trkpt lat="44.80373" lon="1.62699">
        <ele>252</ele>
        <time>2019-02-02T16:33:28.000Z</time>
      </trkpt>
      <trkpt lat="44.80364" lon="1.62698">
        <ele>251</ele>
        <time>2019-02-02T16:34:28.000Z</time>
      </trkpt>
      <trkpt lat="44.80354" lon="1.62697">
        <ele>249</ele>
        <time>2019-02-02T16:35:28.000Z</time>
      </trkpt>
      <trkpt lat="44.80401" lon="1.62705">
        <ele>255</ele>
        <time>2019-02-02T16:36:28.000Z</time>
      </trkpt>
      <trkpt lat="44.80398" lon="1.62692">
        <ele>254</ele>
        <time>2019-02-02T16:37:28.000Z</time>
      </trkpt>
      <trkpt lat="44.80399" lon="1.6264">
        <ele>250</ele>
        <time>2019-02-02T16:38:28.000Z</time>
      </trkpt>
      <trkpt lat="44.80406" lon="1.62629">
        <ele>250</ele>
        <time>2019-02-02T16:39:28.000Z</time>
      </trkpt>
      <trkpt lat="44.80422" lon="1.62592">
        <ele>250</ele>
        <time>2019-02-02T16:40:28.000Z</time>
      </trkpt>
      <trkpt lat="44.80411" lon="1.6256">
        <ele>244</ele>
        <time>2019-02-02T16:41:28.000Z</time>
      </trkpt>
      <trkpt lat="44.80414" lon="1.62529">
        <ele>241</ele>
        <time>2019-02-02T16:42:28.000Z</time>
      </trkpt>
      <trkpt lat="44.80409" lon="1.6249">
        <ele>234</ele>
        <time>2019-02-02T16:43:28.000Z</time>
      </trkpt>
      <trkpt lat="44.80411" lon="1.62474">
        <ele>234</ele>
        <time>2019-02-02T16:44:28.000Z</time>
      </trkpt>
      <trkpt lat="44.8041" lon="1.62456">
        <ele>232</ele>
        <time>2019-02-02T16:45:28.000Z</time>
      </trkpt>
      <trkpt lat="44.80403" lon="1.62428">
        <ele>227</ele>
        <time>2019-02-02T16:46:28.000Z</time>
      </trkpt>
      <trkpt lat="44.80403" lon="1.62412">
        <ele>226</ele>
        <time>2019-02-02T16:47:28.000Z</time>
      </trkpt>
      <trkpt lat="44.80392" lon="1.6237">
        <ele>220</ele>
        <time>2019-02-02T16:48:28.000Z</time>
      </trkpt>
      <trkpt lat="44.80396" lon="1.62346">
        <ele>222</ele>
        <time>2019-02-02T16:49:28.000Z</time>
      </trkpt>
      <trkpt lat="44.80401" lon="1.62317">
        <ele>227</ele>
        <time>2019-02-02T16:50:28.000Z</time>
      </trkpt>
      <trkpt lat="44.80378" lon="1.62306">
        <ele>217</ele>
        <time>2019-02-02T16:51:28.000Z</time>
      </trkpt>
      <trkpt lat="44.80366" lon="1.62278">
        <ele>215</ele>
        <time>2019-02-02T16:52:28.000Z</time>
      </trkpt>
      <trkpt lat="44.80364" lon="1.62257">
        <ele>217</ele>
        <time>2019-02-02T16:53:28.000Z</time>
      </trkpt>
      <trkpt lat="44.80354" lon="1.62241">
        <ele>215</ele>
        <time>2019-02-02T16:54:28.000Z</time>
      </trkpt>
      <trkpt lat="44.80313" lon="1.62237">
        <ele>194</ele>
        <time>2019-02-02T16:55:28.000Z</time>
      </trkpt>
      <trkpt lat="44.80309" lon="1.62211">
        <ele>198</ele>
        <time>2019-02-02T16:56:28.000Z</time>
      </trkpt>
      <trkpt lat="44.80302" lon="1.62185">
        <ele>200</ele>
        <time>2019-02-02T16:57:28.000Z</time>
      </trkpt>
      <trkpt lat="44.8029" lon="1.62175">
        <ele>196</ele>
        <time>2019-02-02T16:58:28.000Z</time>
      </trkpt>
      <trkpt lat="44.80282" lon="1.62149">
        <ele>198</ele>
        <time>2019-02-02T16:59:28.000Z</time>
      </trkpt>
      <trkpt lat="44.80265" lon="1.62092">
        <ele>205</ele>
        <time>2019-02-02T17:00:28.000Z</time>
      </trkpt>
      <trkpt lat="44.8018" lon="1.62009">
        <ele>187</ele>
        <time>2019-02-02T17:01:28.000Z</time>
      </trkpt>
      <trkpt lat="44.80146" lon="1.6195">
        <ele>188</ele>
        <time>2019-02-02T17:02:28.000Z</time>
      </trkpt>
      <trkpt lat="44.80134" lon="1.61975">
        <ele>177</ele>
        <time>2019-02-02T17:03:28.000Z</time>
      </trkpt>
      <trkpt lat="44.80157" lon="1.61959">
        <ele>190</ele>
        <time>2019-02-02T17:04:28.000Z</time>
      </trkpt>
      <trkpt lat="44.80134" lon="1.6195">
        <ele>184</ele>
        <time>2019-02-02T17:05:28.000Z</time>
      </trkpt>
      <trkpt lat="44.80105" lon="1.6191">
        <ele>184</ele>
        <time>2019-02-02T17:06:28.000Z</time>
      </trkpt>
      <trkpt lat="44.80076" lon="1.61878">
        <ele>183</ele>
        <time>2019-02-02T17:07:28.000Z</time>
      </trkpt>
      <trkpt lat="44.80027" lon="1.61835">
        <ele>183</ele>
        <time>2019-02-02T17:08:28.000Z</time>
      </trkpt>
      <trkpt lat="44.79986" lon="1.61818">
        <ele>184</ele>
        <time>2019-02-02T17:09:28.000Z</time>
      </trkpt>
      <trkpt lat="44.79971" lon="1.61817">
        <ele>182</ele>
        <time>2019-02-02T17:10:28.000Z</time>
      </trkpt>
      <trkpt lat="44.79941" lon="1.61832">
        <ele>168</ele>
        <time>2019-02-02T17:11:28.000Z</time>
      </trkpt>
      <trkpt lat="44.7993" lon="1.61821">
        <ele>173</ele>
        <time>2019-02-02T17:12:28.000Z</time>
      </trkpt>
      <trkpt lat="44.79917" lon="1.61795">
        <ele>188</ele>
        <time>2019-02-02T17:13:28.000Z</time>
      </trkpt>
      <trkpt lat="44.79898" lon="1.61793">
        <ele>182</ele>
        <time>2019-02-02T17:14:28.000Z</time>
      </trkpt>
      <trkpt lat="44.79894" lon="1.61775">
        <ele>190</ele>
        <time>2019-02-02T17:15:28.000Z</time>
      </trkpt>
      <trkpt lat="44.79884" lon="1.61763">
        <ele>191</ele>
        <time>2019-02-02T17:16:28.000Z</time>
      </trkpt>
      <trkpt lat="44.79889" lon="1.61744">
        <ele>203</ele>
        <time>2019-02-02T17:17:28.000Z</time>
      </trkpt>
      <trkpt lat="44.79894" lon="1.61777">
        <ele>189</ele>
        <time>2019-02-02T17:18:28.000Z</time>
      </trkpt>
      <trkpt lat="44.79921" lon="1.61754">
        <ele>216</ele>
        <time>2019-02-02T17:19:28.000Z</time>
      </trkpt>
      <trkpt lat="44.79916" lon="1.61794">
        <ele>189</ele>
        <time>2019-02-02T17:20:28.000Z</time>
      </trkpt>
      <trkpt lat="44.7991" lon="1.61807">
        <ele>178</ele>
        <time>2019-02-02T17:21:28.000Z</time>
      </trkpt>
      <trkpt lat="44.79917" lon="1.61788">
        <ele>193</ele>
        <time>2019-02-02T17:22:28.000Z</time>
      </trkpt>
      <trkpt lat="44.79921" lon="1.61775">
        <ele>202</ele>
        <time>2019-02-02T17:23:28.000Z</time>
      </trkpt>
      <trkpt lat="44.79942" lon="1.61724">
        <ele>233</ele>
        <time>2019-02-02T17:24:28.000Z</time>
      </trkpt>
      <trkpt lat="44.79944" lon="1.61744">
        <ele>224</ele>
        <time>2019-02-02T17:25:28.000Z</time>
      </trkpt>
      <trkpt lat="44.79925" lon="1.61739">
        <ele>224</ele>
        <time>2019-02-02T17:26:28.000Z</time>
      </trkpt>
      <trkpt lat="44.79897" lon="1.61746">
        <ele>207</ele>
        <time>2019-02-02T17:27:28.000Z</time>
      </trkpt>
      <trkpt lat="44.79905" lon="1.61738">
        <ele>217</ele>
        <time>2019-02-02T17:28:28.000Z</time>
      </trkpt>
      <trkpt lat="44.79972" lon="1.61707">
        <ele>243</ele>
        <time>2019-02-02T17:29:28.000Z</time>
      </trkpt>
      <trkpt lat="44.79945" lon="1.61737">
        <ele>227</ele>
        <time>2019-02-02T17:30:28.000Z</time>
      </trkpt>
      <trkpt lat="44.7994" lon="1.61748">
        <ele>221</ele>
        <time>2019-02-02T17:31:28.000Z</time>
      </trkpt>
      <trkpt lat="44.8002" lon="1.61826">
        <ele>186</ele>
        <time>2019-02-02T17:32:28.000Z</time>
      </trkpt>
      <trkpt lat="44.80004" lon="1.61797">
        <ele>200</ele>
        <time>2019-02-02T17:33:28.000Z</time>
      </trkpt>
      <trkpt lat="44.79999" lon="1.61777">
        <ele>211</ele>
        <time>2019-02-02T17:34:28.000Z</time>
      </trkpt>
      <trkpt lat="44.80004" lon="1.6176">
        <ele>222</ele>
        <time>2019-02-02T17:35:28.000Z</time>
      </trkpt>
      <trkpt lat="44.80004" lon="1.61741">
        <ele>231</ele>
        <time>2019-02-02T17:36:28.000Z</time>
      </trkpt>
      <trkpt lat="44.80004" lon="1.61722">
        <ele>239</ele>
        <time>2019-02-02T17:37:28.000Z</time>
      </trkpt>
      <trkpt lat="44.80021" lon="1.61717">
        <ele>243</ele>
        <time>2019-02-02T17:38:28.000Z</time>
      </trkpt>
      <trkpt lat="44.80023" lon="1.61703">
        <ele>248</ele>
        <time>2019-02-02T17:39:28.000Z</time>
      </trkpt>
      <trkpt lat="44.80031" lon="1.6169">
        <ele>254</ele>
        <time>2019-02-02T17:40:28.000Z</time>
      </trkpt>
      <trkpt lat="44.80044" lon="1.61686">
        <ele>256</ele>
        <time>2019-02-02T17:41:28.000Z</time>
      </trkpt>
      <trkpt lat="44.80032" lon="1.6168">
        <ele>257</ele>
        <time>2019-02-02T17:42:28.000Z</time>
      </trkpt>
      <trkpt lat="44.80043" lon="1.61667">
        <ele>261</ele>
        <time>2019-02-02T17:43:28.000Z</time>
      </trkpt>
      <trkpt lat="44.80024" lon="1.61659">
        <ele>261</ele>
        <time>2019-02-02T17:44:28.000Z</time>
      </trkpt>
      <trkpt lat="44.80014" lon="1.61661">
        <ele>261</ele>
        <time>2019-02-02T17:45:28.000Z</time>
      </trkpt>
      <trkpt lat="44.80004" lon="1.61664">
        <ele>260</ele>
        <time>2019-02-02T17:46:28.000Z</time>
      </trkpt>
      <trkpt lat="44.79996" lon="1.61673">
        <ele>257</ele>
        <time>2019-02-02T17:47:28.000Z</time>
      </trkpt>
      <trkpt lat="44.79983" lon="1.61691">
        <ele>250</ele>
        <time>2019-02-02T17:48:28.000Z</time>
      </trkpt>
      <trkpt lat="44.79975" lon="1.61699">
        <ele>246</ele>
        <time>2019-02-02T17:49:28.000Z</time>
      </trkpt>
      <trkpt lat="44.79993" lon="1.61684">
        <ele>253</ele>
        <time>2019-02-02T17:50:28.000Z</time>
      </trkpt>
      <trkpt lat="44.80033" lon="1.61661">
        <ele>261</ele>
        <time>2019-02-02T17:51:28.000Z</time>
      </trkpt>
      <trkpt lat="44.80049" lon="1.61693">
        <ele>254</ele>
        <time>2019-02-02T17:52:28.000Z</time>
      </trkpt>
      <trkpt lat="44.80036" lon="1.61685">
        <ele>256</ele>
        <time>2019-02-02T17:53:28.000Z</time>
      </trkpt>
      <trkpt lat="44.80022" lon="1.61679">
        <ele>257</ele>
        <time>2019-02-02T17:54:28.000Z</time>
      </trkpt>
      <trkpt lat="44.80029" lon="1.61697">
        <ele>251</ele>
        <time>2019-02-02T17:55:28.000Z</time>
      </trkpt>
      <trkpt lat="44.80045" lon="1.6172">
        <ele>246</ele>
        <time>2019-02-02T17:56:28.000Z</time>
      </trkpt>
      <trkpt lat="44.80024" lon="1.61699">
        <ele>250</ele>
        <time>2019-02-02T17:57:28.000Z</time>
      </trkpt>
      <trkpt lat="44.80013" lon="1.61699">
        <ele>249</ele>
        <time>2019-02-02T17:58:28.000Z</time>
      </trkpt>
      <trkpt lat="44.79997" lon="1.61729">
        <ele>235</ele>
        <time>2019-02-02T17:59:28.000Z</time>
      </trkpt>
      <trkpt lat="44.80003" lon="1.6174">
        <ele>232</ele>
        <time>2019-02-02T18:00:28.000Z</time>
      </trkpt>
      <trkpt lat="44.79977" lon="1.61771">
        <ele>212</ele>
        <time>2019-02-02T18:01:28.000Z</time>
      </trkpt>
      <trkpt lat="44.79941" lon="1.6177">
        <ele>208</ele>
        <time>2019-02-02T18:02:28.000Z</time>
      </trkpt>
      <trkpt lat="44.79914" lon="1.6177">
        <ele>203</ele>
        <time>2019-02-02T18:03:28.000Z</time>
      </trkpt>
      <trkpt lat="44.79902" lon="1.61759">
        <ele>203</ele>
        <time>2019-02-02T18:04:28.000Z</time>
      </trkpt>
      <trkpt lat="44.79901" lon="1.61773">
        <ele>195</ele>
        <time>2019-02-02T18:05:28.000Z</time>
      </trkpt>
      <trkpt lat="44.79893" lon="1.61765">
        <ele>195</ele>
        <time>2019-02-02T18:06:28.000Z</time>
      </trkpt>
      <trkpt lat="44.79881" lon="1.61763">
        <ele>189</ele>
        <time>2019-02-02T18:07:28.000Z</time>
      </trkpt>
      <trkpt lat="44.79841" lon="1.61773">
        <ele>163</ele>
        <time>2019-02-02T18:08:28.000Z</time>
      </trkpt>
      <trkpt lat="44.79835" lon="1.61744">
        <ele>169</ele>
        <time>2019-02-02T18:09:28.000Z</time>
      </trkpt>
      <trkpt lat="44.79826" lon="1.61725">
        <ele>176</ele>
        <time>2019-02-02T18:10:28.000Z</time>
      </trkpt>
      <trkpt lat="44.79818" lon="1.6171">
        <ele>180</ele>
        <time>2019-02-02T18:11:28.000Z</time>
      </trkpt>
      <trkpt lat="44.7978" lon="1.61677">
        <ele>174</ele>
        <time>2019-02-02T18:12:28.000Z</time>
      </trkpt>
      <trkpt lat="44.79765" lon="1.61654">
        <ele>171</ele>
        <time>2019-02-02T18:13:28.000Z</time>
      </trkpt>
      <trkpt lat="44.79749" lon="1.61663">
        <ele>158</ele>
        <time>2019-02-02T18:14:28.000Z</time>
      </trkpt>
      <trkpt lat="44.79747" lon="1.61699">
        <ele>151</ele>
        <time>2019-02-02T18:15:28.000Z</time>
      </trkpt>
      <trkpt lat="44.79749" lon="1.61714">
        <ele>148</ele>
        <time>2019-02-02T18:16:28.000Z</time>
      </trkpt>
      <trkpt lat="44.79769" lon="1.61739">
        <ele>150</ele>
        <time>2019-02-02T18:17:28.000Z</time>
      </trkpt>
      <trkpt lat="44.79785" lon="1.61771">
        <ele>150</ele>
        <time>2019-02-02T18:18:28.000Z</time>
      </trkpt>
      <trkpt lat="44.79826" lon="1.6183">
        <ele>147</ele>
        <time>2019-02-02T18:19:28.000Z</time>
      </trkpt>
      <trkpt lat="44.79876" lon="1.61866">
        <ele>153</ele>
        <time>2019-02-02T18:20:28.000Z</time>
      </trkpt>
      <trkpt lat="44.79932" lon="1.61888">
        <ele>154</ele>
        <time>2019-02-02T18:21:28.000Z</time>
      </trkpt>
      <trkpt lat="44.79975" lon="1.61914">
        <ele>152</ele>
        <time>2019-02-02T18:22:28.000Z</time>
      </trkpt>
      <trkpt lat="44.80032" lon="1.61936">
        <ele>158</ele>
        <time>2019-02-02T18:23:28.000Z</time>
      </trkpt>
      <trkpt lat="44.80077" lon="1.61996">
        <ele>152</ele>
        <time>2019-02-02T18:24:28.000Z</time>
      </trkpt>
      <trkpt lat="44.8013" lon="1.62074">
        <ele>156</ele>
        <time>2019-02-02T18:25:28.000Z</time>
      </trkpt>
      <trkpt lat="44.80176" lon="1.62133">
        <ele>157</ele>
        <time>2019-02-02T18:26:28.000Z</time>
      </trkpt>
      <trkpt lat="44.80204" lon="1.62225">
        <ele>152</ele>
        <time>2019-02-02T18:27:28.000Z</time>
      </trkpt>
      <trkpt lat="44.80189" lon="1.62261">
        <ele>146</ele>
        <time>2019-02-02T18:28:28.000Z</time>
      </trkpt>
      <trkpt lat="44.80112" lon="1.62236">
        <ele>153</ele>
        <time>2019-02-02T18:29:28.000Z</time>
      </trkpt>
      <trkpt lat="44.80137" lon="1.62213">
        <ele>148</ele>
        <time>2019-02-02T18:30:28.000Z</time>
      </trkpt>
      <trkpt lat="44.80129" lon="1.6222">
        <ele>149</ele>
        <time>2019-02-02T18:31:28.000Z</time>
      </trkpt>
      <trkpt lat="44.80142" lon="1.62221">
        <ele>148</ele>
        <time>2019-02-02T18:32:28.000Z</time>
      </trkpt>
      <trkpt lat="44.80119" lon="1.62216">
        <ele>150</ele>
        <time>2019-02-02T18:33:28.000Z</time>
      </trkpt>
      <trkpt lat="44.80078" lon="1.6217">
        <ele>148</ele>
        <time>2019-02-02T18:34:28.000Z</time>
      </trkpt>
      <trkpt lat="44.80029" lon="1.62137">
        <ele>156</ele>
        <time>2019-02-02T18:35:28.000Z</time>
      </trkpt>
      <trkpt lat="44.79979" lon="1.62112">
        <ele>169</ele>
        <time>2019-02-02T18:36:28.000Z</time>
      </trkpt>
      <trkpt lat="44.79945" lon="1.62014">
        <ele>158</ele>
        <time>2019-02-02T18:37:28.000Z</time>
      </trkpt>
      <trkpt lat="44.79916" lon="1.61993">
        <ele>159</ele>
        <time>2019-02-02T18:38:28.000Z</time>
      </trkpt>
      <trkpt lat="44.79873" lon="1.61955">
        <ele>162</ele>
        <time>2019-02-02T18:39:28.000Z</time>
      </trkpt>
      <trkpt lat="44.79843" lon="1.61936">
        <ele>161</ele>
        <time>2019-02-02T18:40:28.000Z</time>
      </trkpt>
      <trkpt lat="44.79811" lon="1.61917">
        <ele>162</ele>
        <time>2019-02-02T18:41:28.000Z</time>
      </trkpt>
      <trkpt lat="44.79775" lon="1.61905">
        <ele>172</ele>
        <time>2019-02-02T18:42:28.000Z</time>
      </trkpt>
      <trkpt lat="44.79745" lon="1.61877">
        <ele>168</ele>
        <time>2019-02-02T18:43:28.000Z</time>
      </trkpt>
      <trkpt lat="44.797" lon="1.61864">
        <ele>176</ele>
        <time>2019-02-02T18:44:28.000Z</time>
      </trkpt>
      <trkpt lat="44.79674" lon="1.61876">
        <ele>190</ele>
        <time>2019-02-02T18:45:28.000Z</time>
      </trkpt>
      <trkpt lat="44.79652" lon="1.61806">
        <ele>177</ele>
        <time>2019-02-02T18:46:28.000Z</time>
      </trkpt>
      <trkpt lat="44.79654" lon="1.61783">
        <ele>170</ele>
        <time>2019-02-02T18:47:28.000Z</time>
      </trkpt>
      <trkpt lat="44.79641" lon="1.61734">
        <ele>166</ele>
        <time>2019-02-02T18:48:28.000Z</time>
      </trkpt>
      <trkpt lat="44.79596" lon="1.61714">
        <ele>187</ele>
        <time>2019-02-02T18:49:28.000Z</time>
      </trkpt>
      <trkpt lat="44.79576" lon="1.61677">
        <ele>184</ele>
        <time>2019-02-02T18:50:28.000Z</time>
      </trkpt>
      <trkpt lat="44.79535" lon="1.61697">
        <ele>211</ele>
        <time>2019-02-02T18:51:28.000Z</time>
      </trkpt>
      <trkpt lat="44.79531" lon="1.61659">
        <ele>203</ele>
        <time>2019-02-02T18:52:28.000Z</time>
      </trkpt>
      <trkpt lat="44.79517" lon="1.61622">
        <ele>200</ele>
        <time>2019-02-02T18:53:28.000Z</time>
      </trkpt>
      <trkpt lat="44.7952" lon="1.6159">
        <ele>188</ele>
        <time>2019-02-02T18:54:28.000Z</time>
      </trkpt>
      <trkpt lat="44.79498" lon="1.61567">
        <ele>195</ele>
        <time>2019-02-02T18:55:28.000Z</time>
      </trkpt>
      <trkpt lat="44.79488" lon="1.61542">
        <ele>197</ele>
        <time>2019-02-02T18:56:28.000Z</time>
      </trkpt>
      <trkpt lat="44.79485" lon="1.61499">
        <ele>191</ele>
        <time>2019-02-02T18:57:28.000Z</time>
      </trkpt>
      <trkpt lat="44.79471" lon="1.61477">
        <ele>198</ele>
        <time>2019-02-02T18:58:28.000Z</time>
      </trkpt>
      <trkpt lat="44.79461" lon="1.61439">
        <ele>200</ele>
        <time>2019-02-02T18:59:28.000Z</time>
      </trkpt>
      <trkpt lat="44.79457" lon="1.61397">
        <ele>201</ele>
        <time>2019-02-02T19:00:28.000Z</time>
      </trkpt>
      <trkpt lat="44.7947" lon="1.61358">
        <ele>195</ele>
        <time>2019-02-02T19:01:28.000Z</time>
      </trkpt>
      <trkpt lat="44.79465" lon="1.61328">
        <ele>201</ele>
        <time>2019-02-02T19:02:28.000Z</time>
      </trkpt>
      <trkpt lat="44.79464" lon="1.613">
        <ele>207</ele>
        <time>2019-02-02T19:03:28.000Z</time>
      </trkpt>
      <trkpt lat="44.79474" lon="1.61268">
        <ele>209</ele>
        <time>2019-02-02T19:04:28.000Z</time>
      </trkpt>
      <trkpt lat="44.79487" lon="1.61229">
        <ele>211</ele>
        <time>2019-02-02T19:05:28.000Z</time>
      </trkpt>
      <trkpt lat="44.79517" lon="1.61185">
        <ele>205</ele>
        <time>2019-02-02T19:06:28.000Z</time>
      </trkpt>
      <trkpt lat="44.7953" lon="1.61144">
        <ele>203</ele>
        <time>2019-02-02T19:07:28.000Z</time>
      </trkpt>
      <trkpt lat="44.79514" lon="1.6109">
        <ele>215</ele>
        <time>2019-02-02T19:08:28.000Z</time>
      </trkpt>
      <trkpt lat="44.79486" lon="1.61057">
        <ele>220</ele>
        <time>2019-02-02T19:09:28.000Z</time>
      </trkpt>
      <trkpt lat="44.79459" lon="1.61031">
        <ele>223</ele>
        <time>2019-02-02T19:10:28.000Z</time>
      </trkpt>
      <trkpt lat="44.79438" lon="1.60999">
        <ele>225</ele>
        <time>2019-02-02T19:11:28.000Z</time>
      </trkpt>
      <trkpt lat="44.79405" lon="1.60984">
        <ele>230</ele>
        <time>2019-02-02T19:12:28.000Z</time>
      </trkpt>
      <trkpt lat="44.79377" lon="1.60955">
        <ele>231</ele>
        <time>2019-02-02T19:13:28.000Z</time>
      </trkpt>
      <trkpt lat="44.79365" lon="1.60927">
        <ele>229</ele>
        <time>2019-02-02T19:14:28.000Z</time>
      </trkpt>
      <trkpt lat="44.79347" lon="1.60898">
        <ele>230</ele>
        <time>2019-02-02T19:15:28.000Z</time>
      </trkpt>
      <trkpt lat="44.79337" lon="1.60864">
        <ele>230</ele>
        <time>2019-02-02T19:16:28.000Z</time>
      </trkpt>
      <trkpt lat="44.79311" lon="1.60828">
        <ele>232</ele>
        <time>2019-02-02T19:17:28.000Z</time>
      </trkpt>
      <trkpt lat="44.7928" lon="1.60823">
        <ele>236</ele>
        <time>2019-02-02T19:18:28.000Z</time>
      </trkpt>
      <trkpt lat="44.79249" lon="1.60837">
        <ele>243</ele>
        <time>2019-02-02T19:19:28.000Z</time>
      </trkpt>
      <trkpt lat="44.79227" lon="1.60853">
        <ele>246</ele>
        <time>2019-02-02T19:20:28.000Z</time>
      </trkpt>
      <trkpt lat="44.7918" lon="1.60857">
        <ele>249</ele>
        <time>2019-02-02T19:21:28.000Z</time>
      </trkpt>
      <trkpt lat="44.79156" lon="1.60857">
        <ele>251</ele>
        <time>2019-02-02T19:22:28.000Z</time>
      </trkpt>
      <trkpt lat="44.79125" lon="1.60869">
        <ele>254</ele>
        <time>2019-02-02T19:23:28.000Z</time>
      </trkpt>
      <trkpt lat="44.791" lon="1.60848">
        <ele>254</ele>
        <time>2019-02-02T19:24:28.000Z</time>
      </trkpt>
      <trkpt lat="44.79072" lon="1.60854">
        <ele>255</ele>
        <time>2019-02-02T19:25:28.000Z</time>
      </trkpt>
      <trkpt lat="44.79047" lon="1.60851">
        <ele>256</ele>
        <time>2019-02-02T19:26:28.000Z</time>
      </trkpt>
      <trkpt lat="44.79031" lon="1.60855">
        <ele>257</ele>
        <time>2019-02-02T19:27:28.000Z</time>
      </trkpt>
      <trkpt lat="44.79001" lon="1.60843">
        <ele>258</ele>
        <time>2019-02-02T19:28:28.000Z</time>
      </trkpt>
      <trkpt lat="44.78968" lon="1.60842">
        <ele>259</ele>
        <time>2019-02-02T19:29:28.000Z</time>
      </trkpt>
      <trkpt lat="44.7893" lon="1.60843">
        <ele>259</ele>
        <time>2019-02-02T19:30:28.000Z</time>
      </trkpt>
      <trkpt lat="44.7886" lon="1.60835">
        <ele>258</ele>
        <time>2019-02-02T19:31:28.000Z</time>
      </trkpt>
      <trkpt lat="44.78785" lon="1.60825">
        <ele>256</ele>
        <time>2019-02-02T19:32:28.000Z</time>
      </trkpt>
      <trkpt lat="44.787" lon="1.6082">
        <ele>252</ele>
        <time>2019-02-02T19:33:28.000Z</time>
      </trkpt>
      <trkpt lat="44.78598" lon="1.60822">
        <ele>251</ele>
        <time>2019-02-02T19:34:28.000Z</time>
      </trkpt>
      <trkpt lat="44.78551" lon="1.60904">
        <ele>244</ele>
        <time>2019-02-02T19:35:28.000Z</time>
      </trkpt>
      <trkpt lat="44.7849" lon="1.61033">
        <ele>238</ele>
        <time>2019-02-02T19:36:28.000Z</time>
      </trkpt>
      <trkpt lat="44.78417" lon="1.61158">
        <ele>236</ele>
        <time>2019-02-02T19:37:28.000Z</time>
      </trkpt>
      <trkpt lat="44.78517" lon="1.61367">
        <ele>236</ele>
        <time>2019-02-02T19:38:28.000Z</time>
      </trkpt>
      <trkpt lat="44.78382" lon="1.6138">
        <ele>217</ele>
        <time>2019-02-02T19:39:28.000Z</time>
      </trkpt>
      <trkpt lat="44.78279" lon="1.61556">
        <ele>207</ele>
        <time>2019-02-02T19:40:28.000Z</time>
      </trkpt>
      <trkpt lat="44.78143" lon="1.61758">
        <ele>197</ele>
        <time>2019-02-02T19:41:28.000Z</time>
      </trkpt>
      <trkpt lat="44.77973" lon="1.61763">
        <ele>204</ele>
        <time>2019-02-02T19:42:28.000Z</time>
      </trkpt>
      <trkpt lat="44.77931" lon="1.61709">
        <ele>210</ele>
        <time>2019-02-02T19:43:28.000Z</time>
      </trkpt>
      <trkpt lat="44.77888" lon="1.61704">
        <ele>213</ele>
        <time>2019-02-02T19:44:28.000Z</time>
      </trkpt>
      <trkpt lat="44.77861" lon="1.61706">
        <ele>213</ele>
        <time>2019-02-02T19:45:28.000Z</time>
      </trkpt>
      <trkpt lat="44.77841" lon="1.61696">
        <ele>216</ele>
        <time>2019-02-02T19:46:28.000Z</time>
      </trkpt>
      <trkpt lat="44.77808" lon="1.61703">
        <ele>217</ele>
        <time>2019-02-02T19:47:28.000Z</time>
      </trkpt>
      <trkpt lat="44.77784" lon="1.61709">
        <ele>218</ele>
        <time>2019-02-02T19:48:28.000Z</time>
      </trkpt>
      <trkpt lat="44.77761" lon="1.61717">
        <ele>217</ele>
        <time>2019-02-02T19:49:28.000Z</time>
      </trkpt>
      <trkpt lat="44.7774" lon="1.61724">
        <ele>218</ele>
        <time>2019-02-02T19:50:28.000Z</time>
      </trkpt>
      <trkpt lat="44.7772" lon="1.61732">
        <ele>219</ele>
        <time>2019-02-02T19:51:28.000Z</time>
      </trkpt>
      <trkpt lat="44.77697" lon="1.61744">
        <ele>220</ele>
        <time>2019-02-02T19:52:28.000Z</time>
      </trkpt>
      <trkpt lat="44.77657" lon="1.61765">
        <ele>224</ele>
        <time>2019-02-02T19:53:28.000Z</time>
      </trkpt>
      <trkpt lat="44.77637" lon="1.61776">
        <ele>226</ele>
        <time>2019-02-02T19:54:28.000Z</time>
      </trkpt>
      <trkpt lat="44.77615" lon="1.61793">
        <ele>227</ele>
        <time>2019-02-02T19:55:28.000Z</time>
      </trkpt>
      <trkpt lat="44.77594" lon="1.61811">
        <ele>228</ele>
        <time>2019-02-02T19:56:28.000Z</time>
      </trkpt>
      <trkpt lat="44.77573" lon="1.6183">
        <ele>227</ele>
        <time>2019-02-02T19:57:28.000Z</time>
      </trkpt>
      <trkpt lat="44.77555" lon="1.61849">
        <ele>229</ele>
        <time>2019-02-02T19:58:28.000Z</time>
      </trkpt>
      <trkpt lat="44.77539" lon="1.61871">
        <ele>229</ele>
        <time>2019-02-02T19:59:28.000Z</time>
      </trkpt>
      <trkpt lat="44.77524" lon="1.6189">
        <ele>228</ele>
        <time>2019-02-02T20:00:28.000Z</time>
      </trkpt>
      <trkpt lat="44.77501" lon="1.61908">
        <ele>229</ele>
        <time>2019-02-02T20:01:28.000Z</time>
      </trkpt>
      <trkpt lat="44.77481" lon="1.61912">
        <ele>231</ele>
        <time>2019-02-02T20:02:28.000Z</time>
      </trkpt>
      <trkpt lat="44.77458" lon="1.61912">
        <ele>234</ele>
        <time>2019-02-02T20:03:28.000Z</time>
      </trkpt>
      <trkpt lat="44.77436" lon="1.61918">
        <ele>235</ele>
        <time>2019-02-02T20:04:28.000Z</time>
      </trkpt>
      <trkpt lat="44.77415" lon="1.61922">
        <ele>237</ele>
        <time>2019-02-02T20:05:28.000Z</time>
      </trkpt>
      <trkpt lat="44.77394" lon="1.61927">
        <ele>237</ele>
        <time>2019-02-02T20:06:28.000Z</time>
      </trkpt>
      <trkpt lat="44.77372" lon="1.61928">
        <ele>239</ele>
        <time>2019-02-02T20:07:28.000Z</time>
      </trkpt>
      <trkpt lat="44.7735" lon="1.61922">
        <ele>243</ele>
        <time>2019-02-02T20:08:28.000Z</time>
      </trkpt>
      <trkpt lat="44.77329" lon="1.61917">
        <ele>246</ele>
        <time>2019-02-02T20:09:28.000Z</time>
      </trkpt>
      <trkpt lat="44.7731" lon="1.61913">
        <ele>246</ele>
        <time>2019-02-02T20:10:28.000Z</time>
      </trkpt>
      <trkpt lat="44.7729" lon="1.61907">
        <ele>246</ele>
        <time>2019-02-02T20:11:28.000Z</time>
      </trkpt>
      <trkpt lat="44.77268" lon="1.61898">
        <ele>248</ele>
        <time>2019-02-02T20:12:28.000Z</time>
      </trkpt>
      <trkpt lat="44.77247" lon="1.61888">
        <ele>250</ele>
        <time>2019-02-02T20:13:28.000Z</time>
      </trkpt>
      <trkpt lat="44.77229" lon="1.61876">
        <ele>250</ele>
        <time>2019-02-02T20:14:28.000Z</time>
      </trkpt>
      <trkpt lat="44.77211" lon="1.61862">
        <ele>251</ele>
        <time>2019-02-02T20:15:28.000Z</time>
      </trkpt>
      <trkpt lat="44.77197" lon="1.6184">
        <ele>255</ele>
        <time>2019-02-02T20:16:28.000Z</time>
      </trkpt>
      <trkpt lat="44.77171" lon="1.61809">
        <ele>257</ele>
        <time>2019-02-02T20:17:28.000Z</time>
      </trkpt>
      <trkpt lat="44.77154" lon="1.61799">
        <ele>256</ele>
        <time>2019-02-02T20:18:28.000Z</time>
      </trkpt>
      <trkpt lat="44.77135" lon="1.61774">
        <ele>258</ele>
        <time>2019-02-02T20:19:28.000Z</time>
      </trkpt>
      <trkpt lat="44.7712" lon="1.61759">
        <ele>259</ele>
        <time>2019-02-02T20:20:28.000Z</time>
      </trkpt>
      <trkpt lat="44.77102" lon="1.61732">
        <ele>261</ele>
        <time>2019-02-02T20:21:28.000Z</time>
      </trkpt>
      <trkpt lat="44.77081" lon="1.61716">
        <ele>261</ele>
        <time>2019-02-02T20:22:28.000Z</time>
      </trkpt>
      <trkpt lat="44.77076" lon="1.61685">
        <ele>267</ele>
        <time>2019-02-02T20:23:28.000Z</time>
      </trkpt>
      <trkpt lat="44.77065" lon="1.61654">
        <ele>272</ele>
        <time>2019-02-02T20:24:28.000Z</time>
      </trkpt>
      <trkpt lat="44.77036" lon="1.61649">
        <ele>272</ele>
        <time>2019-02-02T20:25:28.000Z</time>
      </trkpt>
      <trkpt lat="44.77016" lon="1.61679">
        <ele>268</ele>
        <time>2019-02-02T20:26:28.000Z</time>
      </trkpt>
      <trkpt lat="44.76986" lon="1.61673">
        <ele>271</ele>
        <time>2019-02-02T20:27:28.000Z</time>
      </trkpt>
      <trkpt lat="44.76952" lon="1.61667">
        <ele>276</ele>
        <time>2019-02-02T20:28:28.000Z</time>
      </trkpt>
      <trkpt lat="44.76926" lon="1.61644">
        <ele>280</ele>
        <time>2019-02-02T20:29:28.000Z</time>
      </trkpt>
      <trkpt lat="44.76903" lon="1.61629">
        <ele>282</ele>
        <time>2019-02-02T20:30:28.000Z</time>
      </trkpt>
      <trkpt lat="44.76883" lon="1.61601">
        <ele>284</ele>
        <time>2019-02-02T20:31:28.000Z</time>
      </trkpt>
      <trkpt lat="44.76865" lon="1.61567">
        <ele>287</ele>
        <time>2019-02-02T20:32:28.000Z</time>
      </trkpt>
      <trkpt lat="44.76857" lon="1.6154">
        <ele>288</ele>
        <time>2019-02-02T20:33:28.000Z</time>
      </trkpt>
      <trkpt lat="44.76842" lon="1.61519">
        <ele>290</ele>
        <time>2019-02-02T20:34:28.000Z</time>
      </trkpt>
      <trkpt lat="44.76808" lon="1.615">
        <ele>292</ele>
        <time>2019-02-02T20:35:28.000Z</time>
      </trkpt>
      <trkpt lat="44.76772" lon="1.61493">
        <ele>293</ele>
        <time>2019-02-02T20:36:28.000Z</time>
      </trkpt>
      <trkpt lat="44.76741" lon="1.61491">
        <ele>294</ele>
        <time>2019-02-02T20:37:28.000Z</time>
      </trkpt>
      <trkpt lat="44.76699" lon="1.61481">
        <ele>295</ele>
        <time>2019-02-02T20:38:28.000Z</time>
      </trkpt>
      <trkpt lat="44.76662" lon="1.61515">
        <ele>294</ele>
        <time>2019-02-02T20:39:28.000Z</time>
      </trkpt>
      <trkpt lat="44.76638" lon="1.61521">
        <ele>294</ele>
        <time>2019-02-02T20:40:28.000Z</time>
      </trkpt>
      <trkpt lat="44.76645" lon="1.61512">
        <ele>295</ele>
        <time>2019-02-02T20:41:28.000Z</time>
      </trkpt>
      <trkpt lat="44.76638" lon="1.61526">
        <ele>294</ele>
        <time>2019-02-02T20:42:28.000Z</time>
      </trkpt>
      <trkpt lat="44.76612" lon="1.61568">
        <ele>295</ele>
        <time>2019-02-02T20:43:28.000Z</time>
      </trkpt>
      <trkpt lat="44.76599" lon="1.61568">
        <ele>296</ele>
        <time>2019-02-02T20:44:28.000Z</time>
      </trkpt>
      <trkpt lat="44.76594" lon="1.61545">
        <ele>295</ele>
        <time>2019-02-02T20:45:28.000Z</time>
      </trkpt>
      <trkpt lat="44.76586" lon="1.61513">
        <ele>294</ele>
        <time>2019-02-02T20:46:28.000Z</time>
      </trkpt>
      <trkpt lat="44.76576" lon="1.61474">
        <ele>293</ele>
        <time>2019-02-02T20:47:28.000Z</time>
      </trkpt>
      <trkpt lat="44.76565" lon="1.61432">
        <ele>292</ele>
        <time>2019-02-02T20:48:28.000Z</time>
      </trkpt>
      <trkpt lat="44.76551" lon="1.61383">
        <ele>291</ele>
        <time>2019-02-02T20:49:28.000Z</time>
      </trkpt>
      <trkpt lat="44.76537" lon="1.61332">
        <ele>290</ele>
        <time>2019-02-02T20:50:28.000Z</time>
      </trkpt>
      <trkpt lat="44.76528" lon="1.61286">
        <ele>290</ele>
        <time>2019-02-02T20:51:28.000Z</time>
      </trkpt>
      <trkpt lat="44.76517" lon="1.61243">
        <ele>290</ele>
        <time>2019-02-02T20:52:28.000Z</time>
      </trkpt>
      <trkpt lat="44.76507" lon="1.61197">
        <ele>289</ele>
        <time>2019-02-02T20:53:28.000Z</time>
      </trkpt>
      <trkpt lat="44.76497" lon="1.61161">
        <ele>289</ele>
        <time>2019-02-02T20:54:28.000Z</time>
      </trkpt>
      <trkpt lat="44.76488" lon="1.61111">
        <ele>289</ele>
        <time>2019-02-02T20:55:28.000Z</time>
      </trkpt>
      <trkpt lat="44.76483" lon="1.61055">
        <ele>288</ele>
        <time>2019-02-02T20:56:28.000Z</time>
      </trkpt>
      <trkpt lat="44.76479" lon="1.60998">
        <ele>286</ele>
        <time>2019-02-02T20:57:28.000Z</time>
      </trkpt>
      <trkpt lat="44.76477" lon="1.60943">
        <ele>282</ele>
        <time>2019-02-02T20:58:28.000Z</time>
      </trkpt>
      <trkpt lat="44.76472" lon="1.60878">
        <ele>279</ele>
        <time>2019-02-02T20:59:28.000Z</time>
      </trkpt>
      <trkpt lat="44.76466" lon="1.60809">
        <ele>279</ele>
        <time>2019-02-02T21:00:28.000Z</time>
      </trkpt>
      <trkpt lat="44.76462" lon="1.60739">
        <ele>278</ele>
        <time>2019-02-02T21:01:28.000Z</time>
      </trkpt>
      <trkpt lat="44.76457" lon="1.60633">
        <ele>277</ele>
        <time>2019-02-02T21:02:28.000Z</time>
      </trkpt>
      <trkpt lat="44.76457" lon="1.60593">
        <ele>278</ele>
        <time>2019-02-02T21:03:28.000Z</time>
      </trkpt>
      <trkpt lat="44.76455" lon="1.60554">
        <ele>278</ele>
        <time>2019-02-02T21:04:28.000Z</time>
      </trkpt>
      <trkpt lat="44.76452" lon="1.60503">
        <ele>279</ele>
        <time>2019-02-02T21:05:28.000Z</time>
      </trkpt>
      <trkpt lat="44.76452" lon="1.60463">
        <ele>279</ele>
        <time>2019-02-02T21:06:28.000Z</time>
      </trkpt>
      <trkpt lat="44.76447" lon="1.60427">
        <ele>278</ele>
        <time>2019-02-02T21:07:28.000Z</time>
      </trkpt>
      <trkpt lat="44.76445" lon="1.60381">
        <ele>277</ele>
        <time>2019-02-02T21:08:28.000Z</time>
      </trkpt>
      <trkpt lat="44.76441" lon="1.60324">
        <ele>274</ele>
        <time>2019-02-02T21:09:28.000Z</time>
      </trkpt>
      <trkpt lat="44.76438" lon="1.60261">
        <ele>270</ele>
        <time>2019-02-02T21:10:28.000Z</time>
      </trkpt>
      <trkpt lat="44.76427" lon="1.60177">
        <ele>266</ele>
        <time>2019-02-02T21:11:28.000Z</time>
      </trkpt>
      <trkpt lat="44.76396" lon="1.60119">
        <ele>265</ele>
        <time>2019-02-02T21:12:28.000Z</time>
      </trkpt>
      <trkpt lat="44.76349" lon="1.6009">
        <ele>261</ele>
        <time>2019-02-02T21:13:28.000Z</time>
      </trkpt>
      <trkpt lat="44.7629" lon="1.60082">
        <ele>254</ele>
        <time>2019-02-02T21:14:28.000Z</time>
      </trkpt>
      <trkpt lat="44.76243" lon="1.60041">
        <ele>249</ele>
        <time>2019-02-02T21:15:28.000Z</time>
      </trkpt>
      <trkpt lat="44.76236" lon="1.5997">
        <ele>249</ele>
        <time>2019-02-02T21:16:28.000Z</time>
      </trkpt>
      <trkpt lat="44.7623" lon="1.59893">
        <ele>246</ele>
        <time>2019-02-02T21:17:28.000Z</time>
      </trkpt>
      <trkpt lat="44.76228" lon="1.59815">
        <ele>243</ele>
        <time>2019-02-02T21:18:28.000Z</time>
      </trkpt>
      <trkpt lat="44.76226" lon="1.59734">
        <ele>238</ele>
        <time>2019-02-02T21:19:28.000Z</time>
      </trkpt>
      <trkpt lat="44.76229" lon="1.59635">
        <ele>234</ele>
        <time>2019-02-02T21:20:28.000Z</time>
      </trkpt>
      <trkpt lat="44.76236" lon="1.59556">
        <ele>231</ele>
        <time>2019-02-02T21:21:28.000Z</time>
      </trkpt>
      <trkpt lat="44.76247" lon="1.59461">
        <ele>230</ele>
        <time>2019-02-02T21:22:28.000Z</time>
      </trkpt>
      <trkpt lat="44.76247" lon="1.59362">
        <ele>225</ele>
        <time>2019-02-02T21:23:28.000Z</time>
      </trkpt>
      <trkpt lat="44.76244" lon="1.59263">
        <ele>219</ele>
        <time>2019-02-02T21:24:28.000Z</time>
      </trkpt>
      <trkpt lat="44.76246" lon="1.59159">
        <ele>215</ele>
        <time>2019-02-02T21:25:28.000Z</time>
      </trkpt>
      <trkpt lat="44.76253" lon="1.59072">
        <ele>209</ele>
        <time>2019-02-02T21:26:28.000Z</time>
      </trkpt>
      <trkpt lat="44.76267" lon="1.58989">
        <ele>207</ele>
        <time>2019-02-02T21:27:28.000Z</time>
      </trkpt>
      <trkpt lat="44.76283" lon="1.58906">
        <ele>205</ele>
        <time>2019-02-02T21:28:28.000Z</time>
      </trkpt>
      <trkpt lat="44.76295" lon="1.58805">
        <ele>203</ele>
        <time>2019-02-02T21:29:28.000Z</time>
      </trkpt>
      <trkpt lat="44.76294" lon="1.58722">
        <ele>197</ele>
        <time>2019-02-02T21:30:28.000Z</time>
      </trkpt>
      <trkpt lat="44.76303" lon="1.58628">
        <ele>190</ele>
        <time>2019-02-02T21:31:28.000Z</time>
      </trkpt>
      <trkpt lat="44.76339" lon="1.58551">
        <ele>185</ele>
        <time>2019-02-02T21:32:28.000Z</time>
      </trkpt>
      <trkpt lat="44.764" lon="1.58508">
        <ele>180</ele>
        <time>2019-02-02T21:33:28.000Z</time>
      </trkpt>
      <trkpt lat="44.76453" lon="1.5847">
        <ele>177</ele>
        <time>2019-02-02T21:34:28.000Z</time>
      </trkpt>
      <trkpt lat="44.76512" lon="1.5843">
        <ele>173</ele>
        <time>2019-02-02T21:35:28.000Z</time>
      </trkpt>
      <trkpt lat="44.76551" lon="1.58399">
        <ele>174</ele>
        <time>2019-02-02T21:36:28.000Z</time>
      </trkpt>
      <trkpt lat="44.76586" lon="1.58361">
        <ele>175</ele>
        <time>2019-02-02T21:37:28.000Z</time>
      </trkpt>
      <trkpt lat="44.76594" lon="1.58325">
        <ele>177</ele>
        <time>2019-02-02T21:38:28.000Z</time>
      </trkpt>
      <trkpt lat="44.76589" lon="1.58289">
        <ele>180</ele>
        <time>2019-02-02T21:39:28.000Z</time>
      </trkpt>
      <trkpt lat="44.7658" lon="1.58263">
        <ele>181</ele>
        <time>2019-02-02T21:40:28.000Z</time>
      </trkpt>
      <trkpt lat="44.76565" lon="1.58238">
        <ele>185</ele>
        <time>2019-02-02T21:41:28.000Z</time>
      </trkpt>
      <trkpt lat="44.76552" lon="1.58219">
        <ele>187</ele>
        <time>2019-02-02T21:42:28.000Z</time>
      </trkpt>
      <trkpt lat="44.76541" lon="1.58199">
        <ele>189</ele>
        <time>2019-02-02T21:43:28.000Z</time>
      </trkpt>
      <trkpt lat="44.76525" lon="1.58181">
        <ele>190</ele>
        <time>2019-02-02T21:44:28.000Z</time>
      </trkpt>
      <trkpt lat="44.76512" lon="1.58164">
        <ele>190</ele>
        <time>2019-02-02T21:45:28.000Z</time>
      </trkpt>
      <trkpt lat="44.76498" lon="1.58154">
        <ele>192</ele>
        <time>2019-02-02T21:46:28.000Z</time>
      </trkpt>
      <trkpt lat="44.76488" lon="1.5814">
        <ele>195</ele>
        <time>2019-02-02T21:47:28.000Z</time>
      </trkpt>
      <trkpt lat="44.76481" lon="1.58123">
        <ele>197</ele>
        <time>2019-02-02T21:48:28.000Z</time>
      </trkpt>
      <trkpt lat="44.7647" lon="1.58107">
        <ele>198</ele>
        <time>2019-02-02T21:49:28.000Z</time>
      </trkpt>
      <trkpt lat="44.76458" lon="1.58091">
        <ele>198</ele>
        <time>2019-02-02T21:50:28.000Z</time>
      </trkpt>
      <trkpt lat="44.76432" lon="1.58056">
        <ele>201</ele>
        <time>2019-02-02T21:51:28.000Z</time>
      </trkpt>
      <trkpt lat="44.76416" lon="1.58041">
        <ele>202</ele>
        <time>2019-02-02T21:52:28.000Z</time>
      </trkpt>
      <trkpt lat="44.76402" lon="1.5803">
        <ele>203</ele>
        <time>2019-02-02T21:53:28.000Z</time>
      </trkpt>
      <trkpt lat="44.76393" lon="1.58018">
        <ele>204</ele>
        <time>2019-02-02T21:54:28.000Z</time>
      </trkpt>
      <trkpt lat="44.76385" lon="1.58008">
        <ele>204</ele>
        <time>2019-02-02T21:55:28.000Z</time>
      </trkpt>
      <trkpt lat="44.76375" lon="1.57994">
        <ele>204</ele>
        <time>2019-02-02T21:56:28.000Z</time>
      </trkpt>
      <trkpt lat="44.76363" lon="1.57983">
        <ele>205</ele>
        <time>2019-02-02T21:57:28.000Z</time>
      </trkpt>
      <trkpt lat="44.76353" lon="1.57973">
        <ele>205</ele>
        <time>2019-02-02T21:58:28.000Z</time>
      </trkpt>
      <trkpt lat="44.7634" lon="1.57961">
        <ele>205</ele>
        <time>2019-02-02T21:59:28.000Z</time>
      </trkpt>
      <trkpt lat="44.76327" lon="1.57947">
        <ele>205</ele>
        <time>2019-02-02T22:00:28.000Z</time>
      </trkpt>
      <trkpt lat="44.76314" lon="1.57935">
        <ele>206</ele>
        <time>2019-02-02T22:01:28.000Z</time>
      </trkpt>
      <trkpt lat="44.763" lon="1.57926">
        <ele>206</ele>
        <time>2019-02-02T22:02:28.000Z</time>
      </trkpt>
      <trkpt lat="44.76288" lon="1.57915">
        <ele>205</ele>
        <time>2019-02-02T22:03:28.000Z</time>
      </trkpt>
      <trkpt lat="44.76279" lon="1.57904">
        <ele>207</ele>
        <time>2019-02-02T22:04:28.000Z</time>
      </trkpt>
      <trkpt lat="44.76263" lon="1.57889">
        <ele>208</ele>
        <time>2019-02-02T22:05:28.000Z</time>
      </trkpt>
      <trkpt lat="44.76252" lon="1.57879">
        <ele>209</ele>
        <time>2019-02-02T22:06:28.000Z</time>
      </trkpt>
      <trkpt lat="44.76243" lon="1.57872">
        <ele>209</ele>
        <time>2019-02-02T22:07:28.000Z</time>
      </trkpt>
      <trkpt lat="44.76224" lon="1.5786">
        <ele>210</ele>
        <time>2019-02-02T22:08:28.000Z</time>
      </trkpt>
      <trkpt lat="44.76214" lon="1.57851">
        <ele>210</ele>
        <time>2019-02-02T22:09:28.000Z</time>
      </trkpt>
      <trkpt lat="44.76202" lon="1.57838">
        <ele>209</ele>
        <time>2019-02-02T22:10:28.000Z</time>
      </trkpt>
      <trkpt lat="44.76171" lon="1.57809">
        <ele>208</ele>
        <time>2019-02-02T22:11:28.000Z</time>
      </trkpt>
      <trkpt lat="44.76146" lon="1.57786">
        <ele>209</ele>
        <time>2019-02-02T22:12:28.000Z</time>
      </trkpt>
      <trkpt lat="44.76137" lon="1.57774">
        <ele>210</ele>
        <time>2019-02-02T22:13:28.000Z</time>
      </trkpt>
      <trkpt lat="44.76135" lon="1.57757">
        <ele>210</ele>
        <time>2019-02-02T22:14:28.000Z</time>
      </trkpt>
      <trkpt lat="44.76138" lon="1.57737">
        <ele>212</ele>
        <time>2019-02-02T22:15:28.000Z</time>
      </trkpt>
      <trkpt lat="44.7614" lon="1.57722">
        <ele>213</ele>
        <time>2019-02-02T22:16:28.000Z</time>
      </trkpt>
      <trkpt lat="44.76142" lon="1.57705">
        <ele>215</ele>
        <time>2019-02-02T22:17:28.000Z</time>
      </trkpt>
      <trkpt lat="44.76142" lon="1.57692">
        <ele>215</ele>
        <time>2019-02-02T22:18:28.000Z</time>
      </trkpt>
      <trkpt lat="44.7614" lon="1.57658">
        <ele>217</ele>
        <time>2019-02-02T22:19:28.000Z</time>
      </trkpt>
      <trkpt lat="44.76138" lon="1.57642">
        <ele>218</ele>
        <time>2019-02-02T22:20:28.000Z</time>
      </trkpt>
      <trkpt lat="44.76137" lon="1.57628">
        <ele>219</ele>
        <time>2019-02-02T22:21:28.000Z</time>
      </trkpt>
      <trkpt lat="44.76134" lon="1.57612">
        <ele>220</ele>
        <time>2019-02-02T22:22:28.000Z</time>
      </trkpt>
      <trkpt lat="44.76131" lon="1.57596">
        <ele>220</ele>
        <time>2019-02-02T22:23:28.000Z</time>
      </trkpt>
      <trkpt lat="44.76129" lon="1.5758">
        <ele>221</ele>
        <time>2019-02-02T22:24:28.000Z</time>
      </trkpt>
      <trkpt lat="44.76123" lon="1.57548">
        <ele>223</ele>
        <time>2019-02-02T22:25:28.000Z</time>
      </trkpt>
      <trkpt lat="44.76119" lon="1.57532">
        <ele>224</ele>
        <time>2019-02-02T22:26:28.000Z</time>
      </trkpt>
      <trkpt lat="44.76107" lon="1.57501">
        <ele>224</ele>
        <time>2019-02-02T22:27:28.000Z</time>
      </trkpt>
      <trkpt lat="44.76099" lon="1.57489">
        <ele>223</ele>
        <time>2019-02-02T22:28:28.000Z</time>
      </trkpt>
      <trkpt lat="44.7609" lon="1.57482">
        <ele>222</ele>
        <time>2019-02-02T22:29:28.000Z</time>
      </trkpt>
      <trkpt lat="44.76082" lon="1.57475">
        <ele>221</ele>
        <time>2019-02-02T22:30:28.000Z</time>
      </trkpt>
      <trkpt lat="44.76073" lon="1.57464">
        <ele>223</ele>
        <time>2019-02-02T22:31:28.000Z</time>
      </trkpt>
      <trkpt lat="44.76062" lon="1.57453">
        <ele>223</ele>
        <time>2019-02-02T22:32:28.000Z</time>
      </trkpt>
      <trkpt lat="44.76052" lon="1.5744">
        <ele>224</ele>
        <time>2019-02-02T22:33:28.000Z</time>
      </trkpt>
      <trkpt lat="44.76047" lon="1.57427">
        <ele>224</ele>
        <time>2019-02-02T22:34:28.000Z</time>
      </trkpt>
      <trkpt lat="44.76038" lon="1.57403">
        <ele>225</ele>
        <time>2019-02-02T22:35:28.000Z</time>
      </trkpt>
      <trkpt lat="44.76034" lon="1.57388">
        <ele>225</ele>
        <time>2019-02-02T22:36:28.000Z</time>
      </trkpt>
      <trkpt lat="44.7603" lon="1.57376">
        <ele>225</ele>
        <time>2019-02-02T22:37:28.000Z</time>
      </trkpt>
      <trkpt lat="44.76023" lon="1.57346">
        <ele>226</ele>
        <time>2019-02-02T22:38:28.000Z</time>
      </trkpt>
      <trkpt lat="44.7602" lon="1.57334">
        <ele>226</ele>
        <time>2019-02-02T22:39:28.000Z</time>
      </trkpt>
      <trkpt lat="44.76016" lon="1.57318">
        <ele>227</ele>
        <time>2019-02-02T22:40:28.000Z</time>
      </trkpt>
      <trkpt lat="44.76015" lon="1.57305">
        <ele>228</ele>
        <time>2019-02-02T22:41:28.000Z</time>
      </trkpt>
      <trkpt lat="44.76015" lon="1.57291">
        <ele>230</ele>
        <time>2019-02-02T22:42:28.000Z</time>
      </trkpt>
      <trkpt lat="44.76013" lon="1.57277">
        <ele>231</ele>
        <time>2019-02-02T22:43:28.000Z</time>
      </trkpt>
      <trkpt lat="44.76006" lon="1.57267">
        <ele>230</ele>
        <time>2019-02-02T22:44:28.000Z</time>
      </trkpt>
      <trkpt lat="44.75997" lon="1.57262">
        <ele>229</ele>
        <time>2019-02-02T22:45:28.000Z</time>
      </trkpt>
      <trkpt lat="44.75984" lon="1.57262">
        <ele>228</ele>
        <time>2019-02-02T22:46:28.000Z</time>
      </trkpt>
      <trkpt lat="44.75971" lon="1.57257">
        <ele>228</ele>
        <time>2019-02-02T22:47:28.000Z</time>
      </trkpt>
      <trkpt lat="44.75966" lon="1.57243">
        <ele>230</ele>
        <time>2019-02-02T22:48:28.000Z</time>
      </trkpt>
      <trkpt lat="44.75965" lon="1.572">
        <ele>239</ele>
        <time>2019-02-02T22:49:28.000Z</time>
      </trkpt>
      <trkpt lat="44.75965" lon="1.57187">
        <ele>242</ele>
        <time>2019-02-02T22:50:28.000Z</time>
      </trkpt>
      <trkpt lat="44.75962" lon="1.57174">
        <ele>244</ele>
        <time>2019-02-02T22:51:28.000Z</time>
      </trkpt>
      <trkpt lat="44.75956" lon="1.57164">
        <ele>246</ele>
        <time>2019-02-02T22:52:28.000Z</time>
      </trkpt>
      <trkpt lat="44.75946" lon="1.57162">
        <ele>245</ele>
        <time>2019-02-02T22:53:28.000Z</time>
      </trkpt>
      <trkpt lat="44.75937" lon="1.57168">
        <ele>244</ele>
        <time>2019-02-02T22:54:28.000Z</time>
      </trkpt>
      <trkpt lat="44.7593" lon="1.57177">
        <ele>241</ele>
        <time>2019-02-02T22:55:28.000Z</time>
      </trkpt>
      <trkpt lat="44.75924" lon="1.57189">
        <ele>238</ele>
        <time>2019-02-02T22:56:28.000Z</time>
      </trkpt>
      <trkpt lat="44.75916" lon="1.57196">
        <ele>236</ele>
        <time>2019-02-02T22:57:28.000Z</time>
      </trkpt>
      <trkpt lat="44.75906" lon="1.57203">
        <ele>234</ele>
        <time>2019-02-02T22:58:28.000Z</time>
      </trkpt>
      <trkpt lat="44.75892" lon="1.57204">
        <ele>233</ele>
        <time>2019-02-02T22:59:28.000Z</time>
      </trkpt>
      <trkpt lat="44.75879" lon="1.57202">
        <ele>233</ele>
        <time>2019-02-02T23:00:28.000Z</time>
      </trkpt>
      <trkpt lat="44.7587" lon="1.57198">
        <ele>233</ele>
        <time>2019-02-02T23:01:28.000Z</time>
      </trkpt>
      <trkpt lat="44.75859" lon="1.57192">
        <ele>233</ele>
        <time>2019-02-02T23:02:28.000Z</time>
      </trkpt>
      <trkpt lat="44.75851" lon="1.57185">
        <ele>234</ele>
        <time>2019-02-02T23:03:28.000Z</time>
      </trkpt>
      <trkpt lat="44.75841" lon="1.57178">
        <ele>235</ele>
        <time>2019-02-02T23:04:28.000Z</time>
      </trkpt>
      <trkpt lat="44.75833" lon="1.57169">
        <ele>236</ele>
        <time>2019-02-02T23:05:28.000Z</time>
      </trkpt>
      <trkpt lat="44.75827" lon="1.57159">
        <ele>236</ele>
        <time>2019-02-02T23:06:28.000Z</time>
      </trkpt>
      <trkpt lat="44.75823" lon="1.57147">
        <ele>236</ele>
        <time>2019-02-02T23:07:28.000Z</time>
      </trkpt>
      <trkpt lat="44.7582" lon="1.57132">
        <ele>237</ele>
        <time>2019-02-02T23:08:28.000Z</time>
      </trkpt>
      <trkpt lat="44.75819" lon="1.57118">
        <ele>238</ele>
        <time>2019-02-02T23:09:28.000Z</time>
      </trkpt>
      <trkpt lat="44.7582" lon="1.57106">
        <ele>239</ele>
        <time>2019-02-02T23:10:28.000Z</time>
      </trkpt>
      <trkpt lat="44.75821" lon="1.57091">
        <ele>240</ele>
        <time>2019-02-02T23:11:28.000Z</time>
      </trkpt>
      <trkpt lat="44.75823" lon="1.57077">
        <ele>241</ele>
        <time>2019-02-02T23:12:28.000Z</time>
      </trkpt>
      <trkpt lat="44.75826" lon="1.57049">
        <ele>240</ele>
        <time>2019-02-02T23:13:28.000Z</time>
      </trkpt>
      <trkpt lat="44.75826" lon="1.57034">
        <ele>240</ele>
        <time>2019-02-02T23:14:28.000Z</time>
      </trkpt>
      <trkpt lat="44.7583" lon="1.57021">
        <ele>240</ele>
        <time>2019-02-02T23:15:28.000Z</time>
      </trkpt>
      <trkpt lat="44.75837" lon="1.57009">
        <ele>241</ele>
        <time>2019-02-02T23:16:28.000Z</time>
      </trkpt>
      <trkpt lat="44.75846" lon="1.56997">
        <ele>243</ele>
        <time>2019-02-02T23:17:28.000Z</time>
      </trkpt>
      <trkpt lat="44.75852" lon="1.56987">
        <ele>243</ele>
        <time>2019-02-02T23:18:28.000Z</time>
      </trkpt>
      <trkpt lat="44.75859" lon="1.56976">
        <ele>244</ele>
        <time>2019-02-02T23:19:28.000Z</time>
      </trkpt>
      <trkpt lat="44.7587" lon="1.56961">
        <ele>246</ele>
        <time>2019-02-02T23:20:28.000Z</time>
      </trkpt>
      <trkpt lat="44.75889" lon="1.56937">
        <ele>249</ele>
        <time>2019-02-02T23:21:28.000Z</time>
      </trkpt>
      <trkpt lat="44.75899" lon="1.56928">
        <ele>251</ele>
        <time>2019-02-02T23:22:28.000Z</time>
      </trkpt>
      <trkpt lat="44.75906" lon="1.56916">
        <ele>252</ele>
        <time>2019-02-02T23:23:28.000Z</time>
      </trkpt>
      <trkpt lat="44.75919" lon="1.56888">
        <ele>254</ele>
        <time>2019-02-02T23:24:28.000Z</time>
      </trkpt>
      <trkpt lat="44.75924" lon="1.56878">
        <ele>254</ele>
        <time>2019-02-02T23:25:28.000Z</time>
      </trkpt>
      <trkpt lat="44.75938" lon="1.56858">
        <ele>256</ele>
        <time>2019-02-02T23:26:28.000Z</time>
      </trkpt>
      <trkpt lat="44.75953" lon="1.56839">
        <ele>258</ele>
        <time>2019-02-02T23:27:28.000Z</time>
      </trkpt>
      <trkpt lat="44.7596" lon="1.5683">
        <ele>259</ele>
        <time>2019-02-02T23:28:28.000Z</time>
      </trkpt>
      <trkpt lat="44.75966" lon="1.56819">
        <ele>260</ele>
        <time>2019-02-02T23:29:28.000Z</time>
      </trkpt>
      <trkpt lat="44.75967" lon="1.56802">
        <ele>260</ele>
        <time>2019-02-02T23:30:28.000Z</time>
      </trkpt>
      <trkpt lat="44.7596" lon="1.5677">
        <ele>259</ele>
        <time>2019-02-02T23:31:28.000Z</time>
      </trkpt>
      <trkpt lat="44.7596" lon="1.56754">
        <ele>259</ele>
        <time>2019-02-02T23:32:28.000Z</time>
      </trkpt>
      <trkpt lat="44.75964" lon="1.56735">
        <ele>259</ele>
        <time>2019-02-02T23:33:28.000Z</time>
      </trkpt>
      <trkpt lat="44.75972" lon="1.56717">
        <ele>259</ele>
        <time>2019-02-02T23:34:28.000Z</time>
      </trkpt>
      <trkpt lat="44.75979" lon="1.56698">
        <ele>260</ele>
        <time>2019-02-02T23:35:28.000Z</time>
      </trkpt>
      <trkpt lat="44.75986" lon="1.56682">
        <ele>260</ele>
        <time>2019-02-02T23:36:28.000Z</time>
      </trkpt>
      <trkpt lat="44.75992" lon="1.56663">
        <ele>260</ele>
        <time>2019-02-02T23:37:28.000Z</time>
      </trkpt>
      <trkpt lat="44.75998" lon="1.56644">
        <ele>260</ele>
        <time>2019-02-02T23:38:28.000Z</time>
      </trkpt>
      <trkpt lat="44.76004" lon="1.56621">
        <ele>260</ele>
        <time>2019-02-02T23:39:28.000Z</time>
      </trkpt>
      <trkpt lat="44.76009" lon="1.56601">
        <ele>259</ele>
        <time>2019-02-02T23:40:28.000Z</time>
      </trkpt>
      <trkpt lat="44.76019" lon="1.5658">
        <ele>260</ele>
        <time>2019-02-02T23:41:28.000Z</time>
      </trkpt>
      <trkpt lat="44.76034" lon="1.5656">
        <ele>262</ele>
        <time>2019-02-02T23:42:28.000Z</time>
      </trkpt>
      <trkpt lat="44.76048" lon="1.5654">
        <ele>264</ele>
        <time>2019-02-02T23:43:28.000Z</time>
      </trkpt>
      <trkpt lat="44.76062" lon="1.56523">
        <ele>265</ele>
        <time>2019-02-02T23:44:28.000Z</time>
      </trkpt>
      <trkpt lat="44.76077" lon="1.565">
        <ele>265</ele>
        <time>2019-02-02T23:45:28.000Z</time>
      </trkpt>
      <trkpt lat="44.76088" lon="1.56483">
        <ele>267</ele>
        <time>2019-02-02T23:46:28.000Z</time>
      </trkpt>
      <trkpt lat="44.76094" lon="1.56471">
        <ele>267</ele>
        <time>2019-02-02T23:47:28.000Z</time>
      </trkpt>
      <trkpt lat="44.76092" lon="1.56454">
        <ele>268</ele>
        <time>2019-02-02T23:48:28.000Z</time>
      </trkpt>
      <trkpt lat="44.76079" lon="1.56441">
        <ele>267</ele>
        <time>2019-02-02T23:49:28.000Z</time>
      </trkpt>
      <trkpt lat="44.76062" lon="1.56428">
        <ele>267</ele>
        <time>2019-02-02T23:50:28.000Z</time>
      </trkpt>
      <trkpt lat="44.76045" lon="1.56413">
        <ele>266</ele>
        <time>2019-02-02T23:51:28.000Z</time>
      </trkpt>
      <trkpt lat="44.76026" lon="1.56393">
        <ele>266</ele>
        <time>2019-02-02T23:52:28.000Z</time>
      </trkpt>
      <trkpt lat="44.76015" lon="1.56365">
        <ele>267</ele>
        <time>2019-02-02T23:53:28.000Z</time>
      </trkpt>
      <trkpt lat="44.76008" lon="1.56334">
        <ele>268</ele>
        <time>2019-02-02T23:54:28.000Z</time>
      </trkpt>
      <trkpt lat="44.75993" lon="1.56312">
        <ele>268</ele>
        <time>2019-02-02T23:55:28.000Z</time>
      </trkpt>
      <trkpt lat="44.75975" lon="1.56299">
        <ele>268</ele>
        <time>2019-02-02T23:56:28.000Z</time>
      </trkpt>
      <trkpt lat="44.75952" lon="1.56288">
        <ele>268</ele>
        <time>2019-02-02T23:57:28.000Z</time>
      </trkpt>
      <trkpt lat="44.7593" lon="1.56278">
        <ele>268</ele>
        <time>2019-02-02T23:58:28.000Z</time>
      </trkpt>
      <trkpt lat="44.75909" lon="1.56267">
        <ele>269</ele>
        <time>2019-02-02T23:59:28.000Z</time>
      </trkpt>
      <trkpt lat="44.75871" lon="1.56251">
        <ele>270</ele>
        <time>2019-02-03T00:00:28.000Z</time>
      </trkpt>
      <trkpt lat="44.75852" lon="1.56241">
        <ele>271</ele>
        <time>2019-02-03T00:01:28.000Z</time>
      </trkpt>
      <trkpt lat="44.75835" lon="1.56233">
        <ele>271</ele>
        <time>2019-02-03T00:02:28.000Z</time>
      </trkpt>
      <trkpt lat="44.7582" lon="1.56224">
        <ele>271</ele>
        <time>2019-02-03T00:03:28.000Z</time>
      </trkpt>
      <trkpt lat="44.75801" lon="1.5621">
        <ele>271</ele>
        <time>2019-02-03T00:04:28.000Z</time>
      </trkpt>
      <trkpt lat="44.75785" lon="1.56191">
        <ele>271</ele>
        <time>2019-02-03T00:05:28.000Z</time>
      </trkpt>
      <trkpt lat="44.75773" lon="1.56171">
        <ele>271</ele>
        <time>2019-02-03T00:06:28.000Z</time>
      </trkpt>
      <trkpt lat="44.75765" lon="1.56148">
        <ele>271</ele>
        <time>2019-02-03T00:07:28.000Z</time>
      </trkpt>
      <trkpt lat="44.75762" lon="1.56126">
        <ele>271</ele>
        <time>2019-02-03T00:08:28.000Z</time>
      </trkpt>
      <trkpt lat="44.75763" lon="1.56103">
        <ele>271</ele>
        <time>2019-02-03T00:09:28.000Z</time>
      </trkpt>
      <trkpt lat="44.75766" lon="1.56073">
        <ele>271</ele>
        <time>2019-02-03T00:10:28.000Z</time>
      </trkpt>
      <trkpt lat="44.75769" lon="1.5603">
        <ele>269</ele>
        <time>2019-02-03T00:11:28.000Z</time>
      </trkpt>
      <trkpt lat="44.75775" lon="1.55976">
        <ele>268</ele>
        <time>2019-02-03T00:12:28.000Z</time>
      </trkpt>
      <trkpt lat="44.75782" lon="1.55918">
        <ele>267</ele>
        <time>2019-02-03T00:13:28.000Z</time>
      </trkpt>
      <trkpt lat="44.75792" lon="1.55864">
        <ele>264</ele>
        <time>2019-02-03T00:14:28.000Z</time>
      </trkpt>
      <trkpt lat="44.75805" lon="1.55797">
        <ele>262</ele>
        <time>2019-02-03T00:15:28.000Z</time>
      </trkpt>
      <trkpt lat="44.75825" lon="1.5575">
        <ele>263</ele>
        <time>2019-02-03T00:16:28.000Z</time>
      </trkpt>
      <trkpt lat="44.75851" lon="1.55684">
        <ele>265</ele>
        <time>2019-02-03T00:17:28.000Z</time>
      </trkpt>
      <trkpt lat="44.75818" lon="1.55631">
        <ele>255</ele>
        <time>2019-02-03T00:18:28.000Z</time>
      </trkpt>
      <trkpt lat="44.75811" lon="1.5555">
        <ele>252</ele>
        <time>2019-02-03T00:19:28.000Z</time>
      </trkpt>
      <trkpt lat="44.75818" lon="1.55466">
        <ele>249</ele>
        <time>2019-02-03T00:20:28.000Z</time>
      </trkpt>
      <trkpt lat="44.75832" lon="1.55397">
        <ele>247</ele>
        <time>2019-02-03T00:21:28.000Z</time>
      </trkpt>
      <trkpt lat="44.75864" lon="1.55327">
        <ele>245</ele>
        <time>2019-02-03T00:22:28.000Z</time>
      </trkpt>
      <trkpt lat="44.75894" lon="1.55254">
        <ele>240</ele>
        <time>2019-02-03T00:23:28.000Z</time>
      </trkpt>
      <trkpt lat="44.75924" lon="1.55181">
        <ele>237</ele>
        <time>2019-02-03T00:24:28.000Z</time>
      </trkpt>
      <trkpt lat="44.75965" lon="1.55118">
        <ele>232</ele>
        <time>2019-02-03T00:25:28.000Z</time>
      </trkpt>
      <trkpt lat="44.76021" lon="1.55099">
        <ele>231</ele>
        <time>2019-02-03T00:26:28.000Z</time>
      </trkpt>
      <trkpt lat="44.76067" lon="1.55134">
        <ele>233</ele>
        <time>2019-02-03T00:27:28.000Z</time>
      </trkpt>
      <trkpt lat="44.76122" lon="1.55169">
        <ele>238</ele>
        <time>2019-02-03T00:28:28.000Z</time>
      </trkpt>
      <trkpt lat="44.76143" lon="1.55136">
        <ele>238</ele>
        <time>2019-02-03T00:29:28.000Z</time>
      </trkpt>
      <trkpt lat="44.76114" lon="1.55082">
        <ele>231</ele>
        <time>2019-02-03T00:30:28.000Z</time>
      </trkpt>
      <trkpt lat="44.76089" lon="1.55032">
        <ele>225</ele>
        <time>2019-02-03T00:31:28.000Z</time>
      </trkpt>
      <trkpt lat="44.76065" lon="1.54967">
        <ele>221</ele>
        <time>2019-02-03T00:32:28.000Z</time>
      </trkpt>
      <trkpt lat="44.76051" lon="1.54908">
        <ele>216</ele>
        <time>2019-02-03T00:33:28.000Z</time>
      </trkpt>
      <trkpt lat="44.76059" lon="1.54835">
        <ele>211</ele>
        <time>2019-02-03T00:34:28.000Z</time>
      </trkpt>
      <trkpt lat="44.76095" lon="1.54799">
        <ele>212</ele>
        <time>2019-02-03T00:35:28.000Z</time>
      </trkpt>
      <trkpt lat="44.76141" lon="1.54762">
        <ele>214</ele>
        <time>2019-02-03T00:36:28.000Z</time>
      </trkpt>
      <trkpt lat="44.76178" lon="1.54705">
        <ele>213</ele>
        <time>2019-02-03T00:37:28.000Z</time>
      </trkpt>
      <trkpt lat="44.76212" lon="1.54663">
        <ele>213</ele>
        <time>2019-02-03T00:38:28.000Z</time>
      </trkpt>
      <trkpt lat="44.76257" lon="1.54615">
        <ele>211</ele>
        <time>2019-02-03T00:39:28.000Z</time>
      </trkpt>
      <trkpt lat="44.76291" lon="1.54565">
        <ele>210</ele>
        <time>2019-02-03T00:40:28.000Z</time>
      </trkpt>
      <trkpt lat="44.76322" lon="1.54498">
        <ele>204</ele>
        <time>2019-02-03T00:41:28.000Z</time>
      </trkpt>
      <trkpt lat="44.76369" lon="1.54459">
        <ele>204</ele>
        <time>2019-02-03T00:42:28.000Z</time>
      </trkpt>
      <trkpt lat="44.7641" lon="1.54433">
        <ele>202</ele>
        <time>2019-02-03T00:43:28.000Z</time>
      </trkpt>
      <trkpt lat="44.7645" lon="1.54399">
        <ele>202</ele>
        <time>2019-02-03T00:44:28.000Z</time>
      </trkpt>
      <trkpt lat="44.76478" lon="1.54352">
        <ele>201</ele>
        <time>2019-02-03T00:45:28.000Z</time>
      </trkpt>
      <trkpt lat="44.76485" lon="1.54288">
        <ele>195</ele>
        <time>2019-02-03T00:46:28.000Z</time>
      </trkpt>
      <trkpt lat="44.76473" lon="1.54251">
        <ele>192</ele>
        <time>2019-02-03T00:47:28.000Z</time>
      </trkpt>
      <trkpt lat="44.76478" lon="1.54264">
        <ele>193</ele>
        <time>2019-02-03T00:48:28.000Z</time>
      </trkpt>
      <trkpt lat="44.76485" lon="1.54289">
        <ele>195</ele>
        <time>2019-02-03T00:49:28.000Z</time>
      </trkpt>
      <trkpt lat="44.76494" lon="1.54296">
        <ele>196</ele>
        <time>2019-02-03T00:50:28.000Z</time>
      </trkpt>
      <trkpt lat="44.76502" lon="1.54287">
        <ele>196</ele>
        <time>2019-02-03T00:51:28.000Z</time>
      </trkpt>
      <trkpt lat="44.76522" lon="1.54269">
        <ele>196</ele>
        <time>2019-02-03T00:52:28.000Z</time>
      </trkpt>
      <trkpt lat="44.76571" lon="1.54223">
        <ele>195</ele>
        <time>2019-02-03T00:53:28.000Z</time>
      </trkpt>
      <trkpt lat="44.76596" lon="1.54203">
        <ele>194</ele>
        <time>2019-02-03T00:54:28.000Z</time>
      </trkpt>
      <trkpt lat="44.76621" lon="1.54194">
        <ele>193</ele>
        <time>2019-02-03T00:55:28.000Z</time>
      </trkpt>
      <trkpt lat="44.76645" lon="1.54191">
        <ele>194</ele>
        <time>2019-02-03T00:56:28.000Z</time>
      </trkpt>
      <trkpt lat="44.76673" lon="1.54195">
        <ele>195</ele>
        <time>2019-02-03T00:57:28.000Z</time>
      </trkpt>
      <trkpt lat="44.76702" lon="1.54191">
        <ele>194</ele>
        <time>2019-02-03T00:58:28.000Z</time>
      </trkpt>
      <trkpt lat="44.76739" lon="1.54183">
        <ele>192</ele>
        <time>2019-02-03T00:59:28.000Z</time>
      </trkpt>
      <trkpt lat="44.7677" lon="1.54172">
        <ele>191</ele>
        <time>2019-02-03T01:00:28.000Z</time>
      </trkpt>
      <trkpt lat="44.76801" lon="1.54137">
        <ele>188</ele>
        <time>2019-02-03T01:01:28.000Z</time>
      </trkpt>
      <trkpt lat="44.76826" lon="1.54103">
        <ele>185</ele>
        <time>2019-02-03T01:02:28.000Z</time>
      </trkpt>
      <trkpt lat="44.76857" lon="1.54086">
        <ele>183</ele>
        <time>2019-02-03T01:03:28.000Z</time>
      </trkpt>
      <trkpt lat="44.76885" lon="1.54072">
        <ele>183</ele>
        <time>2019-02-03T01:04:28.000Z</time>
      </trkpt>
      <trkpt lat="44.76904" lon="1.54058">
        <ele>183</ele>
        <time>2019-02-03T01:05:28.000Z</time>
      </trkpt>
      <trkpt lat="44.76921" lon="1.54026">
        <ele>183</ele>
        <time>2019-02-03T01:06:28.000Z</time>
      </trkpt>
      <trkpt lat="44.76932" lon="1.53994">
        <ele>184</ele>
        <time>2019-02-03T01:07:28.000Z</time>
      </trkpt>
      <trkpt lat="44.76942" lon="1.53964">
        <ele>187</ele>
        <time>2019-02-03T01:08:28.000Z</time>
      </trkpt>
      <trkpt lat="44.76922" lon="1.5388">
        <ele>190</ele>
        <time>2019-02-03T01:09:28.000Z</time>
      </trkpt>
      <trkpt lat="44.76911" lon="1.5385">
        <ele>190</ele>
        <time>2019-02-03T01:10:28.000Z</time>
      </trkpt>
      <trkpt lat="44.76894" lon="1.53827">
        <ele>193</ele>
        <time>2019-02-03T01:11:28.000Z</time>
      </trkpt>
      <trkpt lat="44.76881" lon="1.53805">
        <ele>194</ele>
        <time>2019-02-03T01:12:28.000Z</time>
      </trkpt>
      <trkpt lat="44.76833" lon="1.53729">
        <ele>195</ele>
        <time>2019-02-03T01:13:28.000Z</time>
      </trkpt>
      <trkpt lat="44.76822" lon="1.53708">
        <ele>195</ele>
        <time>2019-02-03T01:14:28.000Z</time>
      </trkpt>
      <trkpt lat="44.76809" lon="1.53683">
        <ele>194</ele>
        <time>2019-02-03T01:15:28.000Z</time>
      </trkpt>
      <trkpt lat="44.76793" lon="1.53663">
        <ele>193</ele>
        <time>2019-02-03T01:16:28.000Z</time>
      </trkpt>
      <trkpt lat="44.76775" lon="1.53645">
        <ele>193</ele>
        <time>2019-02-03T01:17:28.000Z</time>
      </trkpt>
      <trkpt lat="44.76758" lon="1.53626">
        <ele>193</ele>
        <time>2019-02-03T01:18:28.000Z</time>
      </trkpt>
      <trkpt lat="44.76742" lon="1.53607">
        <ele>193</ele>
        <time>2019-02-03T01:19:28.000Z</time>
      </trkpt>
      <trkpt lat="44.76729" lon="1.53592">
        <ele>193</ele>
        <time>2019-02-03T01:20:28.000Z</time>
      </trkpt>
      <trkpt lat="44.76714" lon="1.53573">
        <ele>193</ele>
        <time>2019-02-03T01:21:28.000Z</time>
      </trkpt>
      <trkpt lat="44.76697" lon="1.53555">
        <ele>194</ele>
        <time>2019-02-03T01:22:28.000Z</time>
      </trkpt>
      <trkpt lat="44.76664" lon="1.5352">
        <ele>194</ele>
        <time>2019-02-03T01:23:28.000Z</time>
      </trkpt>
      <trkpt lat="44.76649" lon="1.53505">
        <ele>195</ele>
        <time>2019-02-03T01:24:28.000Z</time>
      </trkpt>
      <trkpt lat="44.76635" lon="1.53488">
        <ele>196</ele>
        <time>2019-02-03T01:25:28.000Z</time>
      </trkpt>
      <trkpt lat="44.76619" lon="1.53468">
        <ele>198</ele>
        <time>2019-02-03T01:26:28.000Z</time>
      </trkpt>
      <trkpt lat="44.76603" lon="1.53447">
        <ele>198</ele>
        <time>2019-02-03T01:27:28.000Z</time>
      </trkpt>
      <trkpt lat="44.76589" lon="1.53425">
        <ele>198</ele>
        <time>2019-02-03T01:28:28.000Z</time>
      </trkpt>
      <trkpt lat="44.76578" lon="1.53402">
        <ele>199</ele>
        <time>2019-02-03T01:29:28.000Z</time>
      </trkpt>
      <trkpt lat="44.76569" lon="1.53374">
        <ele>201</ele>
        <time>2019-02-03T01:30:28.000Z</time>
      </trkpt>
      <trkpt lat="44.76563" lon="1.53351">
        <ele>202</ele>
        <time>2019-02-03T01:31:28.000Z</time>
      </trkpt>
      <trkpt lat="44.76557" lon="1.53322">
        <ele>204</ele>
        <time>2019-02-03T01:32:28.000Z</time>
      </trkpt>
      <trkpt lat="44.76552" lon="1.53297">
        <ele>205</ele>
        <time>2019-02-03T01:33:28.000Z</time>
      </trkpt>
      <trkpt lat="44.76549" lon="1.53267">
        <ele>205</ele>
        <time>2019-02-03T01:34:28.000Z</time>
      </trkpt>
      <trkpt lat="44.76546" lon="1.53247">
        <ele>206</ele>
        <time>2019-02-03T01:35:28.000Z</time>
      </trkpt>
      <trkpt lat="44.7654" lon="1.53201">
        <ele>207</ele>
        <time>2019-02-03T01:36:28.000Z</time>
      </trkpt>
      <trkpt lat="44.76535" lon="1.53176">
        <ele>207</ele>
        <time>2019-02-03T01:37:28.000Z</time>
      </trkpt>
      <trkpt lat="44.76533" lon="1.5315">
        <ele>209</ele>
        <time>2019-02-03T01:38:28.000Z</time>
      </trkpt>
      <trkpt lat="44.76531" lon="1.53131">
        <ele>210</ele>
        <time>2019-02-03T01:39:28.000Z</time>
      </trkpt>
      <trkpt lat="44.76531" lon="1.53114">
        <ele>211</ele>
        <time>2019-02-03T01:40:28.000Z</time>
      </trkpt>
      <trkpt lat="44.76532" lon="1.53094">
        <ele>212</ele>
        <time>2019-02-03T01:41:28.000Z</time>
      </trkpt>
      <trkpt lat="44.76532" lon="1.53053">
        <ele>214</ele>
        <time>2019-02-03T01:42:28.000Z</time>
      </trkpt>
      <trkpt lat="44.7653" lon="1.53026">
        <ele>214</ele>
        <time>2019-02-03T01:43:28.000Z</time>
      </trkpt>
      <trkpt lat="44.76526" lon="1.52997">
        <ele>214</ele>
        <time>2019-02-03T01:44:28.000Z</time>
      </trkpt>
      <trkpt lat="44.76525" lon="1.5297">
        <ele>214</ele>
        <time>2019-02-03T01:45:28.000Z</time>
      </trkpt>
      <trkpt lat="44.76527" lon="1.5294">
        <ele>215</ele>
        <time>2019-02-03T01:46:28.000Z</time>
      </trkpt>
      <trkpt lat="44.76531" lon="1.52909">
        <ele>217</ele>
        <time>2019-02-03T01:47:28.000Z</time>
      </trkpt>
      <trkpt lat="44.76536" lon="1.52881">
        <ele>217</ele>
        <time>2019-02-03T01:48:28.000Z</time>
      </trkpt>
      <trkpt lat="44.76542" lon="1.5286">
        <ele>217</ele>
        <time>2019-02-03T01:49:28.000Z</time>
      </trkpt>
      <trkpt lat="44.76552" lon="1.52837">
        <ele>218</ele>
        <time>2019-02-03T01:50:28.000Z</time>
      </trkpt>
      <trkpt lat="44.76562" lon="1.52814">
        <ele>218</ele>
        <time>2019-02-03T01:51:28.000Z</time>
      </trkpt>
      <trkpt lat="44.76569" lon="1.52792">
        <ele>218</ele>
        <time>2019-02-03T01:52:28.000Z</time>
      </trkpt>
      <trkpt lat="44.76576" lon="1.5277">
        <ele>217</ele>
        <time>2019-02-03T01:53:28.000Z</time>
      </trkpt>
      <trkpt lat="44.76584" lon="1.52743">
        <ele>216</ele>
        <time>2019-02-03T01:54:28.000Z</time>
      </trkpt>
      <trkpt lat="44.76588" lon="1.5272">
        <ele>217</ele>
        <time>2019-02-03T01:55:28.000Z</time>
      </trkpt>
      <trkpt lat="44.76589" lon="1.52693">
        <ele>217</ele>
        <time>2019-02-03T01:56:28.000Z</time>
      </trkpt>
      <trkpt lat="44.76588" lon="1.52671">
        <ele>216</ele>
        <time>2019-02-03T01:57:28.000Z</time>
      </trkpt>
      <trkpt lat="44.76583" lon="1.52645">
        <ele>216</ele>
        <time>2019-02-03T01:58:28.000Z</time>
      </trkpt>
      <trkpt lat="44.76578" lon="1.52617">
        <ele>218</ele>
        <time>2019-02-03T01:59:28.000Z</time>
      </trkpt>
      <trkpt lat="44.7657" lon="1.52591">
        <ele>220</ele>
        <time>2019-02-03T02:00:28.000Z</time>
      </trkpt>
      <trkpt lat="44.76567" lon="1.52577">
        <ele>221</ele>
        <time>2019-02-03T02:01:28.000Z</time>
      </trkpt>
      <trkpt lat="44.76567" lon="1.52545">
        <ele>222</ele>
        <time>2019-02-03T02:02:28.000Z</time>
      </trkpt>
      <trkpt lat="44.76568" lon="1.52528">
        <ele>222</ele>
        <time>2019-02-03T02:03:28.000Z</time>
      </trkpt>
      <trkpt lat="44.7657" lon="1.52515">
        <ele>223</ele>
        <time>2019-02-03T02:04:28.000Z</time>
      </trkpt>
      <trkpt lat="44.76571" lon="1.52499">
        <ele>223</ele>
        <time>2019-02-03T02:05:28.000Z</time>
      </trkpt>
      <trkpt lat="44.76572" lon="1.52486">
        <ele>224</ele>
        <time>2019-02-03T02:06:28.000Z</time>
      </trkpt>
      <trkpt lat="44.76573" lon="1.5247">
        <ele>224</ele>
        <time>2019-02-03T02:07:28.000Z</time>
      </trkpt>
      <trkpt lat="44.76576" lon="1.52455">
        <ele>225</ele>
        <time>2019-02-03T02:08:28.000Z</time>
      </trkpt>
      <trkpt lat="44.76576" lon="1.52441">
        <ele>226</ele>
        <time>2019-02-03T02:09:28.000Z</time>
      </trkpt>
      <trkpt lat="44.76581" lon="1.52413">
        <ele>227</ele>
        <time>2019-02-03T02:10:28.000Z</time>
      </trkpt>
      <trkpt lat="44.76579" lon="1.52399">
        <ele>228</ele>
        <time>2019-02-03T02:11:28.000Z</time>
      </trkpt>
      <trkpt lat="44.76576" lon="1.52386">
        <ele>228</ele>
        <time>2019-02-03T02:12:28.000Z</time>
      </trkpt>
      <trkpt lat="44.76575" lon="1.52373">
        <ele>229</ele>
        <time>2019-02-03T02:13:28.000Z</time>
      </trkpt>
      <trkpt lat="44.76573" lon="1.52357">
        <ele>230</ele>
        <time>2019-02-03T02:14:28.000Z</time>
      </trkpt>
      <trkpt lat="44.76564" lon="1.52329">
        <ele>230</ele>
        <time>2019-02-03T02:15:28.000Z</time>
      </trkpt>
      <trkpt lat="44.7656" lon="1.52316">
        <ele>231</ele>
        <time>2019-02-03T02:16:28.000Z</time>
      </trkpt>
      <trkpt lat="44.76555" lon="1.52304">
        <ele>231</ele>
        <time>2019-02-03T02:17:28.000Z</time>
      </trkpt>
      <trkpt lat="44.7655" lon="1.52292">
        <ele>231</ele>
        <time>2019-02-03T02:18:28.000Z</time>
      </trkpt>
      <trkpt lat="44.76546" lon="1.52279">
        <ele>232</ele>
        <time>2019-02-03T02:19:28.000Z</time>
      </trkpt>
      <trkpt lat="44.7654" lon="1.52266">
        <ele>231</ele>
        <time>2019-02-03T02:20:28.000Z</time>
      </trkpt>
      <trkpt lat="44.76535" lon="1.52254">
        <ele>231</ele>
        <time>2019-02-03T02:21:28.000Z</time>
      </trkpt>
      <trkpt lat="44.7653" lon="1.52241">
        <ele>231</ele>
        <time>2019-02-03T02:22:28.000Z</time>
      </trkpt>
      <trkpt lat="44.76525" lon="1.52228">
        <ele>231</ele>
        <time>2019-02-03T02:23:28.000Z</time>
      </trkpt>
      <trkpt lat="44.76521" lon="1.52215">
        <ele>230</ele>
        <time>2019-02-03T02:24:28.000Z</time>
      </trkpt>
      <trkpt lat="44.76519" lon="1.52202">
        <ele>231</ele>
        <time>2019-02-03T02:25:28.000Z</time>
      </trkpt>
      <trkpt lat="44.76518" lon="1.52188">
        <ele>232</ele>
        <time>2019-02-03T02:26:28.000Z</time>
      </trkpt>
      <trkpt lat="44.76518" lon="1.52174">
        <ele>232</ele>
        <time>2019-02-03T02:27:28.000Z</time>
      </trkpt>
      <trkpt lat="44.76516" lon="1.52146">
        <ele>232</ele>
        <time>2019-02-03T02:28:28.000Z</time>
      </trkpt>
      <trkpt lat="44.76519" lon="1.5213">
        <ele>233</ele>
        <time>2019-02-03T02:29:28.000Z</time>
      </trkpt>
      <trkpt lat="44.76521" lon="1.52118">
        <ele>234</ele>
        <time>2019-02-03T02:30:28.000Z</time>
      </trkpt>
      <trkpt lat="44.76529" lon="1.52092">
        <ele>236</ele>
        <time>2019-02-03T02:31:28.000Z</time>
      </trkpt>
      <trkpt lat="44.76539" lon="1.52068">
        <ele>239</ele>
        <time>2019-02-03T02:32:28.000Z</time>
      </trkpt>
      <trkpt lat="44.76544" lon="1.52058">
        <ele>240</ele>
        <time>2019-02-03T02:33:28.000Z</time>
      </trkpt>
      <trkpt lat="44.76549" lon="1.52047">
        <ele>241</ele>
        <time>2019-02-03T02:34:28.000Z</time>
      </trkpt>
      <trkpt lat="44.76555" lon="1.52036">
        <ele>242</ele>
        <time>2019-02-03T02:35:28.000Z</time>
      </trkpt>
      <trkpt lat="44.76559" lon="1.52024">
        <ele>242</ele>
        <time>2019-02-03T02:36:28.000Z</time>
      </trkpt>
      <trkpt lat="44.76565" lon="1.52014">
        <ele>243</ele>
        <time>2019-02-03T02:37:28.000Z</time>
      </trkpt>
      <trkpt lat="44.76572" lon="1.52004">
        <ele>244</ele>
        <time>2019-02-03T02:38:28.000Z</time>
      </trkpt>
      <trkpt lat="44.76578" lon="1.51993">
        <ele>244</ele>
        <time>2019-02-03T02:39:28.000Z</time>
      </trkpt>
      <trkpt lat="44.76591" lon="1.51972">
        <ele>244</ele>
        <time>2019-02-03T02:40:28.000Z</time>
      </trkpt>
      <trkpt lat="44.76606" lon="1.5195">
        <ele>245</ele>
        <time>2019-02-03T02:41:28.000Z</time>
      </trkpt>
      <trkpt lat="44.7663" lon="1.51916">
        <ele>247</ele>
        <time>2019-02-03T02:42:28.000Z</time>
      </trkpt>
      <trkpt lat="44.76643" lon="1.51894">
        <ele>249</ele>
        <time>2019-02-03T02:43:28.000Z</time>
      </trkpt>
      <trkpt lat="44.76649" lon="1.51882">
        <ele>250</ele>
        <time>2019-02-03T02:44:28.000Z</time>
      </trkpt>
      <trkpt lat="44.76655" lon="1.51871">
        <ele>250</ele>
        <time>2019-02-03T02:45:28.000Z</time>
      </trkpt>
      <trkpt lat="44.76659" lon="1.51858">
        <ele>251</ele>
        <time>2019-02-03T02:46:28.000Z</time>
      </trkpt>
      <trkpt lat="44.76663" lon="1.51846">
        <ele>251</ele>
        <time>2019-02-03T02:47:28.000Z</time>
      </trkpt>
      <trkpt lat="44.7667" lon="1.51821">
        <ele>251</ele>
        <time>2019-02-03T02:48:28.000Z</time>
      </trkpt>
      <trkpt lat="44.76674" lon="1.51808">
        <ele>251</ele>
        <time>2019-02-03T02:49:28.000Z</time>
      </trkpt>
      <trkpt lat="44.76678" lon="1.51796">
        <ele>251</ele>
        <time>2019-02-03T02:50:28.000Z</time>
      </trkpt>
      <trkpt lat="44.76683" lon="1.51784">
        <ele>252</ele>
        <time>2019-02-03T02:51:28.000Z</time>
      </trkpt>
      <trkpt lat="44.7669" lon="1.51773">
        <ele>252</ele>
        <time>2019-02-03T02:52:28.000Z</time>
      </trkpt>
      <trkpt lat="44.76704" lon="1.5175">
        <ele>253</ele>
        <time>2019-02-03T02:53:28.000Z</time>
      </trkpt>
      <trkpt lat="44.76724" lon="1.5172">
        <ele>255</ele>
        <time>2019-02-03T02:54:28.000Z</time>
      </trkpt>
      <trkpt lat="44.76732" lon="1.51707">
        <ele>256</ele>
        <time>2019-02-03T02:55:28.000Z</time>
      </trkpt>
      <trkpt lat="44.7675" lon="1.51679">
        <ele>259</ele>
        <time>2019-02-03T02:56:28.000Z</time>
      </trkpt>
      <trkpt lat="44.76765" lon="1.51652">
        <ele>260</ele>
        <time>2019-02-03T02:57:28.000Z</time>
      </trkpt>
      <trkpt lat="44.76771" lon="1.5164">
        <ele>260</ele>
        <time>2019-02-03T02:58:28.000Z</time>
      </trkpt>
      <trkpt lat="44.76777" lon="1.51628">
        <ele>261</ele>
        <time>2019-02-03T02:59:28.000Z</time>
      </trkpt>
      <trkpt lat="44.76782" lon="1.51615">
        <ele>262</ele>
        <time>2019-02-03T03:00:28.000Z</time>
      </trkpt>
      <trkpt lat="44.76786" lon="1.51603">
        <ele>262</ele>
        <time>2019-02-03T03:01:28.000Z</time>
      </trkpt>
      <trkpt lat="44.76789" lon="1.51591">
        <ele>263</ele>
        <time>2019-02-03T03:02:28.000Z</time>
      </trkpt>
      <trkpt lat="44.76795" lon="1.51579">
        <ele>264</ele>
        <time>2019-02-03T03:03:28.000Z</time>
      </trkpt>
      <trkpt lat="44.768" lon="1.51564">
        <ele>265</ele>
        <time>2019-02-03T03:04:28.000Z</time>
      </trkpt>
      <trkpt lat="44.76806" lon="1.5155">
        <ele>265</ele>
        <time>2019-02-03T03:05:28.000Z</time>
      </trkpt>
      <trkpt lat="44.7681" lon="1.51539">
        <ele>266</ele>
        <time>2019-02-03T03:06:28.000Z</time>
      </trkpt>
      <trkpt lat="44.76815" lon="1.51524">
        <ele>268</ele>
        <time>2019-02-03T03:07:28.000Z</time>
      </trkpt>
      <trkpt lat="44.7682" lon="1.51513">
        <ele>269</ele>
        <time>2019-02-03T03:08:28.000Z</time>
      </trkpt>
      <trkpt lat="44.76825" lon="1.51501">
        <ele>270</ele>
        <time>2019-02-03T03:09:28.000Z</time>
      </trkpt>
      <trkpt lat="44.76837" lon="1.51476">
        <ele>273</ele>
        <time>2019-02-03T03:10:28.000Z</time>
      </trkpt>
      <trkpt lat="44.76844" lon="1.51467">
        <ele>274</ele>
        <time>2019-02-03T03:11:28.000Z</time>
      </trkpt>
      <trkpt lat="44.76854" lon="1.51443">
        <ele>276</ele>
        <time>2019-02-03T03:12:28.000Z</time>
      </trkpt>
      <trkpt lat="44.76859" lon="1.5143">
        <ele>277</ele>
        <time>2019-02-03T03:13:28.000Z</time>
      </trkpt>
      <trkpt lat="44.76867" lon="1.51414">
        <ele>278</ele>
        <time>2019-02-03T03:14:28.000Z</time>
      </trkpt>
      <trkpt lat="44.76873" lon="1.51399">
        <ele>279</ele>
        <time>2019-02-03T03:15:28.000Z</time>
      </trkpt>
      <trkpt lat="44.76876" lon="1.51387">
        <ele>281</ele>
        <time>2019-02-03T03:16:28.000Z</time>
      </trkpt>
      <trkpt lat="44.76886" lon="1.51363">
        <ele>284</ele>
        <time>2019-02-03T03:17:28.000Z</time>
      </trkpt>
      <trkpt lat="44.7689" lon="1.5135">
        <ele>285</ele>
        <time>2019-02-03T03:18:28.000Z</time>
      </trkpt>
      <trkpt lat="44.76895" lon="1.51337">
        <ele>287</ele>
        <time>2019-02-03T03:19:28.000Z</time>
      </trkpt>
      <trkpt lat="44.76899" lon="1.51323">
        <ele>288</ele>
        <time>2019-02-03T03:20:28.000Z</time>
      </trkpt>
      <trkpt lat="44.76904" lon="1.51309">
        <ele>290</ele>
        <time>2019-02-03T03:21:28.000Z</time>
      </trkpt>
      <trkpt lat="44.76907" lon="1.51297">
        <ele>292</ele>
        <time>2019-02-03T03:22:28.000Z</time>
      </trkpt>
      <trkpt lat="44.76917" lon="1.51271">
        <ele>295</ele>
        <time>2019-02-03T03:23:28.000Z</time>
      </trkpt>
      <trkpt lat="44.76922" lon="1.51259">
        <ele>297</ele>
        <time>2019-02-03T03:24:28.000Z</time>
      </trkpt>
      <trkpt lat="44.76934" lon="1.51237">
        <ele>299</ele>
        <time>2019-02-03T03:25:28.000Z</time>
      </trkpt>
      <trkpt lat="44.76943" lon="1.51227">
        <ele>300</ele>
        <time>2019-02-03T03:26:28.000Z</time>
      </trkpt>
      <trkpt lat="44.76952" lon="1.51216">
        <ele>301</ele>
        <time>2019-02-03T03:27:28.000Z</time>
      </trkpt>
      <trkpt lat="44.7697" lon="1.51192">
        <ele>302</ele>
        <time>2019-02-03T03:28:28.000Z</time>
      </trkpt>
      <trkpt lat="44.76979" lon="1.51181">
        <ele>303</ele>
        <time>2019-02-03T03:29:28.000Z</time>
      </trkpt>
      <trkpt lat="44.76987" lon="1.51173">
        <ele>303</ele>
        <time>2019-02-03T03:30:28.000Z</time>
      </trkpt>
      <trkpt lat="44.76996" lon="1.51162">
        <ele>303</ele>
        <time>2019-02-03T03:31:28.000Z</time>
      </trkpt>
      <trkpt lat="44.77004" lon="1.51156">
        <ele>304</ele>
        <time>2019-02-03T03:32:28.000Z</time>
      </trkpt>
      <trkpt lat="44.77013" lon="1.51151">
        <ele>306</ele>
        <time>2019-02-03T03:33:28.000Z</time>
      </trkpt>
      <trkpt lat="44.77023" lon="1.51148">
        <ele>307</ele>
        <time>2019-02-03T03:34:28.000Z</time>
      </trkpt>
      <trkpt lat="44.77033" lon="1.51153">
        <ele>307</ele>
        <time>2019-02-03T03:35:28.000Z</time>
      </trkpt>
      <trkpt lat="44.77041" lon="1.51162">
        <ele>307</ele>
        <time>2019-02-03T03:36:28.000Z</time>
      </trkpt>
      <trkpt lat="44.77045" lon="1.51175">
        <ele>305</ele>
        <time>2019-02-03T03:37:28.000Z</time>
      </trkpt>
      <trkpt lat="44.77047" lon="1.51187">
        <ele>304</ele>
        <time>2019-02-03T03:38:28.000Z</time>
      </trkpt>
      <trkpt lat="44.77048" lon="1.512">
        <ele>303</ele>
        <time>2019-02-03T03:39:28.000Z</time>
      </trkpt>
      <trkpt lat="44.77049" lon="1.51213">
        <ele>302</ele>
        <time>2019-02-03T03:40:28.000Z</time>
      </trkpt>
      <trkpt lat="44.77054" lon="1.51225">
        <ele>302</ele>
        <time>2019-02-03T03:41:28.000Z</time>
      </trkpt>
      <trkpt lat="44.77063" lon="1.51235">
        <ele>302</ele>
        <time>2019-02-03T03:42:28.000Z</time>
      </trkpt>
      <trkpt lat="44.77073" lon="1.51239">
        <ele>303</ele>
        <time>2019-02-03T03:43:28.000Z</time>
      </trkpt>
      <trkpt lat="44.77082" lon="1.51239">
        <ele>305</ele>
        <time>2019-02-03T03:44:28.000Z</time>
      </trkpt>
      <trkpt lat="44.77092" lon="1.51236">
        <ele>307</ele>
        <time>2019-02-03T03:45:28.000Z</time>
      </trkpt>
      <trkpt lat="44.77101" lon="1.51234">
        <ele>309</ele>
        <time>2019-02-03T03:46:28.000Z</time>
      </trkpt>
      <trkpt lat="44.7711" lon="1.51237">
        <ele>310</ele>
        <time>2019-02-03T03:47:28.000Z</time>
      </trkpt>
      <trkpt lat="44.77118" lon="1.51244">
        <ele>311</ele>
        <time>2019-02-03T03:48:28.000Z</time>
      </trkpt>
      <trkpt lat="44.77124" lon="1.51255">
        <ele>312</ele>
        <time>2019-02-03T03:49:28.000Z</time>
      </trkpt>
      <trkpt lat="44.77128" lon="1.51268">
        <ele>312</ele>
        <time>2019-02-03T03:50:28.000Z</time>
      </trkpt>
      <trkpt lat="44.77131" lon="1.51281">
        <ele>312</ele>
        <time>2019-02-03T03:51:28.000Z</time>
      </trkpt>
      <trkpt lat="44.77135" lon="1.51294">
        <ele>312</ele>
        <time>2019-02-03T03:52:28.000Z</time>
      </trkpt>
      <trkpt lat="44.7714" lon="1.51307">
        <ele>312</ele>
        <time>2019-02-03T03:53:28.000Z</time>
      </trkpt>
      <trkpt lat="44.77146" lon="1.51318">
        <ele>313</ele>
        <time>2019-02-03T03:54:28.000Z</time>
      </trkpt>
      <trkpt lat="44.77154" lon="1.51329">
        <ele>314</ele>
        <time>2019-02-03T03:55:28.000Z</time>
      </trkpt>
      <trkpt lat="44.77162" lon="1.51338">
        <ele>315</ele>
        <time>2019-02-03T03:56:28.000Z</time>
      </trkpt>
      <trkpt lat="44.77181" lon="1.5135">
        <ele>316</ele>
        <time>2019-02-03T03:57:28.000Z</time>
      </trkpt>
      <trkpt lat="44.7719" lon="1.51354">
        <ele>316</ele>
        <time>2019-02-03T03:58:28.000Z</time>
      </trkpt>
      <trkpt lat="44.772" lon="1.51356">
        <ele>317</ele>
        <time>2019-02-03T03:59:28.000Z</time>
      </trkpt>
      <trkpt lat="44.7721" lon="1.51356">
        <ele>318</ele>
        <time>2019-02-03T04:00:28.000Z</time>
      </trkpt>
      <trkpt lat="44.77221" lon="1.51353">
        <ele>319</ele>
        <time>2019-02-03T04:01:28.000Z</time>
      </trkpt>
      <trkpt lat="44.77231" lon="1.51348">
        <ele>320</ele>
        <time>2019-02-03T04:02:28.000Z</time>
      </trkpt>
      <trkpt lat="44.77239" lon="1.51338">
        <ele>322</ele>
        <time>2019-02-03T04:03:28.000Z</time>
      </trkpt>
      <trkpt lat="44.77244" lon="1.51326">
        <ele>323</ele>
        <time>2019-02-03T04:04:28.000Z</time>
      </trkpt>
      <trkpt lat="44.77248" lon="1.51312">
        <ele>324</ele>
        <time>2019-02-03T04:05:28.000Z</time>
      </trkpt>
      <trkpt lat="44.77249" lon="1.51298">
        <ele>325</ele>
        <time>2019-02-03T04:06:28.000Z</time>
      </trkpt>
      <trkpt lat="44.7725" lon="1.51285">
        <ele>325</ele>
        <time>2019-02-03T04:07:28.000Z</time>
      </trkpt>
      <trkpt lat="44.7725" lon="1.51271">
        <ele>326</ele>
        <time>2019-02-03T04:08:28.000Z</time>
      </trkpt>
      <trkpt lat="44.77248" lon="1.51245">
        <ele>327</ele>
        <time>2019-02-03T04:09:28.000Z</time>
      </trkpt>
      <trkpt lat="44.77245" lon="1.51232">
        <ele>328</ele>
        <time>2019-02-03T04:10:28.000Z</time>
      </trkpt>
      <trkpt lat="44.77245" lon="1.51216">
        <ele>329</ele>
        <time>2019-02-03T04:11:28.000Z</time>
      </trkpt>
      <trkpt lat="44.77244" lon="1.51184">
        <ele>330</ele>
        <time>2019-02-03T04:12:28.000Z</time>
      </trkpt>
      <trkpt lat="44.77244" lon="1.51166">
        <ele>332</ele>
        <time>2019-02-03T04:13:28.000Z</time>
      </trkpt>
      <trkpt lat="44.77244" lon="1.51148">
        <ele>333</ele>
        <time>2019-02-03T04:14:28.000Z</time>
      </trkpt>
      <trkpt lat="44.77244" lon="1.51131">
        <ele>334</ele>
        <time>2019-02-03T04:15:28.000Z</time>
      </trkpt>
      <trkpt lat="44.77246" lon="1.51118">
        <ele>335</ele>
        <time>2019-02-03T04:16:28.000Z</time>
      </trkpt>
      <trkpt lat="44.77247" lon="1.51103">
        <ele>336</ele>
        <time>2019-02-03T04:17:28.000Z</time>
      </trkpt>
      <trkpt lat="44.77247" lon="1.51089">
        <ele>336</ele>
        <time>2019-02-03T04:18:28.000Z</time>
      </trkpt>
      <trkpt lat="44.77248" lon="1.51076">
        <ele>337</ele>
        <time>2019-02-03T04:19:28.000Z</time>
      </trkpt>
      <trkpt lat="44.77246" lon="1.51063">
        <ele>338</ele>
        <time>2019-02-03T04:20:28.000Z</time>
      </trkpt>
      <trkpt lat="44.77242" lon="1.5105">
        <ele>338</ele>
        <time>2019-02-03T04:21:28.000Z</time>
      </trkpt>
      <trkpt lat="44.77235" lon="1.51024">
        <ele>339</ele>
        <time>2019-02-03T04:22:28.000Z</time>
      </trkpt>
      <trkpt lat="44.7723" lon="1.51013">
        <ele>340</ele>
        <time>2019-02-03T04:23:28.000Z</time>
      </trkpt>
      <trkpt lat="44.77227" lon="1.51">
        <ele>341</ele>
        <time>2019-02-03T04:24:28.000Z</time>
      </trkpt>
      <trkpt lat="44.77224" lon="1.50987">
        <ele>341</ele>
        <time>2019-02-03T04:25:28.000Z</time>
      </trkpt>
      <trkpt lat="44.77219" lon="1.50974">
        <ele>342</ele>
        <time>2019-02-03T04:26:28.000Z</time>
      </trkpt>
      <trkpt lat="44.77214" lon="1.5096">
        <ele>343</ele>
        <time>2019-02-03T04:27:28.000Z</time>
      </trkpt>
      <trkpt lat="44.77207" lon="1.50948">
        <ele>343</ele>
        <time>2019-02-03T04:28:28.000Z</time>
      </trkpt>
      <trkpt lat="44.77203" lon="1.50936">
        <ele>344</ele>
        <time>2019-02-03T04:29:28.000Z</time>
      </trkpt>
      <trkpt lat="44.77197" lon="1.50925">
        <ele>345</ele>
        <time>2019-02-03T04:30:28.000Z</time>
      </trkpt>
      <trkpt lat="44.7719" lon="1.50914">
        <ele>346</ele>
        <time>2019-02-03T04:31:28.000Z</time>
      </trkpt>
      <trkpt lat="44.77184" lon="1.50902">
        <ele>347</ele>
        <time>2019-02-03T04:32:28.000Z</time>
      </trkpt>
      <trkpt lat="44.77176" lon="1.50889">
        <ele>347</ele>
        <time>2019-02-03T04:33:28.000Z</time>
      </trkpt>
      <trkpt lat="44.77169" lon="1.50876">
        <ele>348</ele>
        <time>2019-02-03T04:34:28.000Z</time>
      </trkpt>
      <trkpt lat="44.77163" lon="1.50861">
        <ele>349</ele>
        <time>2019-02-03T04:35:28.000Z</time>
      </trkpt>
      <trkpt lat="44.77159" lon="1.50848">
        <ele>350</ele>
        <time>2019-02-03T04:36:28.000Z</time>
      </trkpt>
      <trkpt lat="44.77152" lon="1.50834">
        <ele>350</ele>
        <time>2019-02-03T04:37:28.000Z</time>
      </trkpt>
      <trkpt lat="44.77145" lon="1.50819">
        <ele>351</ele>
        <time>2019-02-03T04:38:28.000Z</time>
      </trkpt>
      <trkpt lat="44.77141" lon="1.50806">
        <ele>351</ele>
        <time>2019-02-03T04:39:28.000Z</time>
      </trkpt>
      <trkpt lat="44.77134" lon="1.5079">
        <ele>351</ele>
        <time>2019-02-03T04:40:28.000Z</time>
      </trkpt>
      <trkpt lat="44.77128" lon="1.50776">
        <ele>352</ele>
        <time>2019-02-03T04:41:28.000Z</time>
      </trkpt>
      <trkpt lat="44.77121" lon="1.5076">
        <ele>352</ele>
        <time>2019-02-03T04:42:28.000Z</time>
      </trkpt>
      <trkpt lat="44.77113" lon="1.50745">
        <ele>353</ele>
        <time>2019-02-03T04:43:28.000Z</time>
      </trkpt>
      <trkpt lat="44.77107" lon="1.5073">
        <ele>354</ele>
        <time>2019-02-03T04:44:28.000Z</time>
      </trkpt>
      <trkpt lat="44.77091" lon="1.50695">
        <ele>356</ele>
        <time>2019-02-03T04:45:28.000Z</time>
      </trkpt>
      <trkpt lat="44.77074" lon="1.50663">
        <ele>358</ele>
        <time>2019-02-03T04:46:28.000Z</time>
      </trkpt>
      <trkpt lat="44.77069" lon="1.50649">
        <ele>358</ele>
        <time>2019-02-03T04:47:28.000Z</time>
      </trkpt>
      <trkpt lat="44.77066" lon="1.50634">
        <ele>358</ele>
        <time>2019-02-03T04:48:28.000Z</time>
      </trkpt>
      <trkpt lat="44.77061" lon="1.50618">
        <ele>358</ele>
        <time>2019-02-03T04:49:28.000Z</time>
      </trkpt>
      <trkpt lat="44.77056" lon="1.50598">
        <ele>359</ele>
        <time>2019-02-03T04:50:28.000Z</time>
      </trkpt>
      <trkpt lat="44.77046" lon="1.50581">
        <ele>360</ele>
        <time>2019-02-03T04:51:28.000Z</time>
      </trkpt>
      <trkpt lat="44.77039" lon="1.50569">
        <ele>360</ele>
        <time>2019-02-03T04:52:28.000Z</time>
      </trkpt>
      <trkpt lat="44.77032" lon="1.50553">
        <ele>361</ele>
        <time>2019-02-03T04:53:28.000Z</time>
      </trkpt>
      <trkpt lat="44.77025" lon="1.50536">
        <ele>362</ele>
        <time>2019-02-03T04:54:28.000Z</time>
      </trkpt>
      <trkpt lat="44.77019" lon="1.50523">
        <ele>363</ele>
        <time>2019-02-03T04:55:28.000Z</time>
      </trkpt>
      <trkpt lat="44.77009" lon="1.50506">
        <ele>363</ele>
        <time>2019-02-03T04:56:28.000Z</time>
      </trkpt>
      <trkpt lat="44.77002" lon="1.5049">
        <ele>364</ele>
        <time>2019-02-03T04:57:28.000Z</time>
      </trkpt>
      <trkpt lat="44.76998" lon="1.5047">
        <ele>363</ele>
        <time>2019-02-03T04:58:28.000Z</time>
      </trkpt>
      <trkpt lat="44.76993" lon="1.50453">
        <ele>363</ele>
        <time>2019-02-03T04:59:28.000Z</time>
      </trkpt>
      <trkpt lat="44.76992" lon="1.50437">
        <ele>362</ele>
        <time>2019-02-03T05:00:28.000Z</time>
      </trkpt>
      <trkpt lat="44.76992" lon="1.50423">
        <ele>362</ele>
        <time>2019-02-03T05:01:28.000Z</time>
      </trkpt>
      <trkpt lat="44.76996" lon="1.50411">
        <ele>363</ele>
        <time>2019-02-03T05:02:28.000Z</time>
      </trkpt>
      <trkpt lat="44.77002" lon="1.50422">
        <ele>363</ele>
        <time>2019-02-03T05:03:28.000Z</time>
      </trkpt>
      <trkpt lat="44.7701" lon="1.50432">
        <ele>363</ele>
        <time>2019-02-03T05:04:28.000Z</time>
      </trkpt>
      <trkpt lat="44.77021" lon="1.50433">
        <ele>362</ele>
        <time>2019-02-03T05:05:28.000Z</time>
      </trkpt>
      <trkpt lat="44.77026" lon="1.50445">
        <ele>362</ele>
        <time>2019-02-03T05:06:28.000Z</time>
      </trkpt>
      <trkpt lat="44.77035" lon="1.50457">
        <ele>362</ele>
        <time>2019-02-03T05:07:28.000Z</time>
      </trkpt>
      <trkpt lat="44.77041" lon="1.50468">
        <ele>362</ele>
        <time>2019-02-03T05:08:28.000Z</time>
      </trkpt>
      <trkpt lat="44.77041" lon="1.50481">
        <ele>362</ele>
        <time>2019-02-03T05:09:28.000Z</time>
      </trkpt>
      <trkpt lat="44.77033" lon="1.50488">
        <ele>363</ele>
        <time>2019-02-03T05:10:28.000Z</time>
      </trkpt>
      <trkpt lat="44.77028" lon="1.50501">
        <ele>363</ele>
        <time>2019-02-03T05:11:28.000Z</time>
      </trkpt>
      <trkpt lat="44.77018" lon="1.50512">
        <ele>363</ele>
        <time>2019-02-03T05:12:28.000Z</time>
      </trkpt>
      <trkpt lat="44.77009" lon="1.50496">
        <ele>364</ele>
        <time>2019-02-03T05:13:28.000Z</time>
      </trkpt>
      <trkpt lat="44.77004" lon="1.5048">
        <ele>364</ele>
        <time>2019-02-03T05:14:28.000Z</time>
      </trkpt>
      <trkpt lat="44.76999" lon="1.50463">
        <ele>363</ele>
        <time>2019-02-03T05:15:28.000Z</time>
      </trkpt>
      <trkpt lat="44.76991" lon="1.50448">
        <ele>362</ele>
        <time>2019-02-03T05:16:28.000Z</time>
      </trkpt>
      <trkpt lat="44.7699" lon="1.5043">
        <ele>362</ele>
        <time>2019-02-03T05:17:28.000Z</time>
      </trkpt>
      <trkpt lat="44.76996" lon="1.50416">
        <ele>363</ele>
        <time>2019-02-03T05:18:28.000Z</time>
      </trkpt>
      <trkpt lat="44.7701" lon="1.5043">
        <ele>363</ele>
        <time>2019-02-03T05:19:28.000Z</time>
      </trkpt>
      <trkpt lat="44.77028" lon="1.50433">
        <ele>362</ele>
        <time>2019-02-03T05:20:28.000Z</time>
      </trkpt>
      <trkpt lat="44.77044" lon="1.50425">
        <ele>361</ele>
        <time>2019-02-03T05:21:28.000Z</time>
      </trkpt>
      <trkpt lat="44.77054" lon="1.50419">
        <ele>360</ele>
        <time>2019-02-03T05:22:28.000Z</time>
      </trkpt>
      <trkpt lat="44.77045" lon="1.50424">
        <ele>361</ele>
        <time>2019-02-03T05:23:28.000Z</time>
      </trkpt>
      <trkpt lat="44.77032" lon="1.5043">
        <ele>362</ele>
        <time>2019-02-03T05:24:28.000Z</time>
      </trkpt>
      <trkpt lat="44.77017" lon="1.50432">
        <ele>362</ele>
        <time>2019-02-03T05:25:28.000Z</time>
      </trkpt>
      <trkpt lat="44.77006" lon="1.50425">
        <ele>363</ele>
        <time>2019-02-03T05:26:28.000Z</time>
      </trkpt>
      <trkpt lat="44.76997" lon="1.50404">
        <ele>362</ele>
        <time>2019-02-03T05:27:28.000Z</time>
      </trkpt>
      <trkpt lat="44.76979" lon="1.50389">
        <ele>361</ele>
        <time>2019-02-03T05:28:28.000Z</time>
      </trkpt>
      <trkpt lat="44.76946" lon="1.50352">
        <ele>357</ele>
        <time>2019-02-03T05:29:28.000Z</time>
      </trkpt>
      <trkpt lat="44.76925" lon="1.50307">
        <ele>354</ele>
        <time>2019-02-03T05:30:28.000Z</time>
      </trkpt>
      <trkpt lat="44.76903" lon="1.50253">
        <ele>349</ele>
        <time>2019-02-03T05:31:28.000Z</time>
      </trkpt>
      <trkpt lat="44.76866" lon="1.50214">
        <ele>346</ele>
        <time>2019-02-03T05:32:28.000Z</time>
      </trkpt>
      <trkpt lat="44.7681" lon="1.5018">
        <ele>345</ele>
        <time>2019-02-03T05:33:28.000Z</time>
      </trkpt>
      <trkpt lat="44.76771" lon="1.50158">
        <ele>348</ele>
        <time>2019-02-03T05:34:28.000Z</time>
      </trkpt>
      <trkpt lat="44.76733" lon="1.50157">
        <ele>348</ele>
        <time>2019-02-03T05:35:28.000Z</time>
      </trkpt>
      <trkpt lat="44.76708" lon="1.50156">
        <ele>348</ele>
        <time>2019-02-03T05:36:28.000Z</time>
      </trkpt>
      <trkpt lat="44.76691" lon="1.50143">
        <ele>348</ele>
        <time>2019-02-03T05:37:28.000Z</time>
      </trkpt>
      <trkpt lat="44.76679" lon="1.5013">
        <ele>349</ele>
        <time>2019-02-03T05:38:28.000Z</time>
      </trkpt>
      <trkpt lat="44.76662" lon="1.50114">
        <ele>350</ele>
        <time>2019-02-03T05:39:28.000Z</time>
      </trkpt>
      <trkpt lat="44.76647" lon="1.50102">
        <ele>350</ele>
        <time>2019-02-03T05:40:28.000Z</time>
      </trkpt>
      <trkpt lat="44.76627" lon="1.50092">
        <ele>350</ele>
        <time>2019-02-03T05:41:28.000Z</time>
      </trkpt>
      <trkpt lat="44.7661" lon="1.50082">
        <ele>350</ele>
        <time>2019-02-03T05:42:28.000Z</time>
      </trkpt>
      <trkpt lat="44.7659" lon="1.50073">
        <ele>351</ele>
        <time>2019-02-03T05:43:28.000Z</time>
      </trkpt>
      <trkpt lat="44.76574" lon="1.50065">
        <ele>352</ele>
        <time>2019-02-03T05:44:28.000Z</time>
      </trkpt>
      <trkpt lat="44.76556" lon="1.50057">
        <ele>353</ele>
        <time>2019-02-03T05:45:28.000Z</time>
      </trkpt>
      <trkpt lat="44.76538" lon="1.50051">
        <ele>355</ele>
        <time>2019-02-03T05:46:28.000Z</time>
      </trkpt>
      <trkpt lat="44.76525" lon="1.50048">
        <ele>356</ele>
        <time>2019-02-03T05:47:28.000Z</time>
      </trkpt>
      <trkpt lat="44.76509" lon="1.50047">
        <ele>358</ele>
        <time>2019-02-03T05:48:28.000Z</time>
      </trkpt>
      <trkpt lat="44.76495" lon="1.50051">
        <ele>359</ele>
        <time>2019-02-03T05:49:28.000Z</time>
      </trkpt>
      <trkpt lat="44.76478" lon="1.50056">
        <ele>360</ele>
        <time>2019-02-03T05:50:28.000Z</time>
      </trkpt>
      <trkpt lat="44.76461" lon="1.50061">
        <ele>362</ele>
        <time>2019-02-03T05:51:28.000Z</time>
      </trkpt>
      <trkpt lat="44.76443" lon="1.50069">
        <ele>363</ele>
        <time>2019-02-03T05:52:28.000Z</time>
      </trkpt>
      <trkpt lat="44.7643" lon="1.50079">
        <ele>364</ele>
        <time>2019-02-03T05:53:28.000Z</time>
      </trkpt>
      <trkpt lat="44.76418" lon="1.50092">
        <ele>364</ele>
        <time>2019-02-03T05:54:28.000Z</time>
      </trkpt>
      <trkpt lat="44.76405" lon="1.50109">
        <ele>365</ele>
        <time>2019-02-03T05:55:28.000Z</time>
      </trkpt>
      <trkpt lat="44.76394" lon="1.50128">
        <ele>366</ele>
        <time>2019-02-03T05:56:28.000Z</time>
      </trkpt>
      <trkpt lat="44.7637" lon="1.50158">
        <ele>368</ele>
        <time>2019-02-03T05:57:28.000Z</time>
      </trkpt>
      <trkpt lat="44.76346" lon="1.50193">
        <ele>369</ele>
        <time>2019-02-03T05:58:28.000Z</time>
      </trkpt>
      <trkpt lat="44.76334" lon="1.50206">
        <ele>369</ele>
        <time>2019-02-03T05:59:28.000Z</time>
      </trkpt>
      <trkpt lat="44.76309" lon="1.50229">
        <ele>369</ele>
        <time>2019-02-03T06:00:28.000Z</time>
      </trkpt>
      <trkpt lat="44.76293" lon="1.50243">
        <ele>370</ele>
        <time>2019-02-03T06:01:28.000Z</time>
      </trkpt>
      <trkpt lat="44.76278" lon="1.50254">
        <ele>370</ele>
        <time>2019-02-03T06:02:28.000Z</time>
      </trkpt>
      <trkpt lat="44.76259" lon="1.50265">
        <ele>371</ele>
        <time>2019-02-03T06:03:28.000Z</time>
      </trkpt>
      <trkpt lat="44.76242" lon="1.50267">
        <ele>371</ele>
        <time>2019-02-03T06:04:28.000Z</time>
      </trkpt>
      <trkpt lat="44.76222" lon="1.5026">
        <ele>370</ele>
        <time>2019-02-03T06:05:28.000Z</time>
      </trkpt>
      <trkpt lat="44.76206" lon="1.50243">
        <ele>370</ele>
        <time>2019-02-03T06:06:28.000Z</time>
      </trkpt>
      <trkpt lat="44.76194" lon="1.50226">
        <ele>370</ele>
        <time>2019-02-03T06:07:28.000Z</time>
      </trkpt>
      <trkpt lat="44.76181" lon="1.50207">
        <ele>371</ele>
        <time>2019-02-03T06:08:28.000Z</time>
      </trkpt>
      <trkpt lat="44.76165" lon="1.50183">
        <ele>373</ele>
        <time>2019-02-03T06:09:28.000Z</time>
      </trkpt>
      <trkpt lat="44.76151" lon="1.5016">
        <ele>373</ele>
        <time>2019-02-03T06:10:28.000Z</time>
      </trkpt>
      <trkpt lat="44.7613" lon="1.5013">
        <ele>372</ele>
        <time>2019-02-03T06:11:28.000Z</time>
      </trkpt>
      <trkpt lat="44.76113" lon="1.50102">
        <ele>373</ele>
        <time>2019-02-03T06:12:28.000Z</time>
      </trkpt>
      <trkpt lat="44.76098" lon="1.50065">
        <ele>375</ele>
        <time>2019-02-03T06:13:28.000Z</time>
      </trkpt>
      <trkpt lat="44.76084" lon="1.50025">
        <ele>374</ele>
        <time>2019-02-03T06:14:28.000Z</time>
      </trkpt>
      <trkpt lat="44.76065" lon="1.49996">
        <ele>374</ele>
        <time>2019-02-03T06:15:28.000Z</time>
      </trkpt>
      <trkpt lat="44.7604" lon="1.49979">
        <ele>374</ele>
        <time>2019-02-03T06:16:28.000Z</time>
      </trkpt>
      <trkpt lat="44.76014" lon="1.49959">
        <ele>375</ele>
        <time>2019-02-03T06:17:28.000Z</time>
      </trkpt>
      <trkpt lat="44.75993" lon="1.49945">
        <ele>378</ele>
        <time>2019-02-03T06:18:28.000Z</time>
      </trkpt>
      <trkpt lat="44.7597" lon="1.49927">
        <ele>381</ele>
        <time>2019-02-03T06:19:28.000Z</time>
      </trkpt>
      <trkpt lat="44.75954" lon="1.49913">
        <ele>383</ele>
        <time>2019-02-03T06:20:28.000Z</time>
      </trkpt>
      <trkpt lat="44.75939" lon="1.49892">
        <ele>382</ele>
        <time>2019-02-03T06:21:28.000Z</time>
      </trkpt>
      <trkpt lat="44.7592" lon="1.49872">
        <ele>381</ele>
        <time>2019-02-03T06:22:28.000Z</time>
      </trkpt>
      <trkpt lat="44.75894" lon="1.4985">
        <ele>380</ele>
        <time>2019-02-03T06:23:28.000Z</time>
      </trkpt>
      <trkpt lat="44.75854" lon="1.49818">
        <ele>377</ele>
        <time>2019-02-03T06:24:28.000Z</time>
      </trkpt>
      <trkpt lat="44.75828" lon="1.49752">
        <ele>374</ele>
        <time>2019-02-03T06:25:28.000Z</time>
      </trkpt>
      <trkpt lat="44.75829" lon="1.49679">
        <ele>371</ele>
        <time>2019-02-03T06:26:28.000Z</time>
      </trkpt>
      <trkpt lat="44.75833" lon="1.4962">
        <ele>370</ele>
        <time>2019-02-03T06:27:28.000Z</time>
      </trkpt>
      <trkpt lat="44.75831" lon="1.4956">
        <ele>368</ele>
        <time>2019-02-03T06:28:28.000Z</time>
      </trkpt>
      <trkpt lat="44.75825" lon="1.49438">
        <ele>368</ele>
        <time>2019-02-03T06:29:28.000Z</time>
      </trkpt>
      <trkpt lat="44.75837" lon="1.49382">
        <ele>368</ele>
        <time>2019-02-03T06:30:28.000Z</time>
      </trkpt>
      <trkpt lat="44.75845" lon="1.4934">
        <ele>368</ele>
        <time>2019-02-03T06:31:28.000Z</time>
      </trkpt>
      <trkpt lat="44.75857" lon="1.493">
        <ele>366</ele>
        <time>2019-02-03T06:32:28.000Z</time>
      </trkpt>
      <trkpt lat="44.75863" lon="1.49264">
        <ele>365</ele>
        <time>2019-02-03T06:33:28.000Z</time>
      </trkpt>
      <trkpt lat="44.75878" lon="1.49224">
        <ele>364</ele>
        <time>2019-02-03T06:34:28.000Z</time>
      </trkpt>
      <trkpt lat="44.75897" lon="1.492">
        <ele>364</ele>
        <time>2019-02-03T06:35:28.000Z</time>
      </trkpt>
      <trkpt lat="44.75921" lon="1.49174">
        <ele>364</ele>
        <time>2019-02-03T06:36:28.000Z</time>
      </trkpt>
      <trkpt lat="44.75923" lon="1.49148">
        <ele>364</ele>
        <time>2019-02-03T06:37:28.000Z</time>
      </trkpt>
      <trkpt lat="44.75915" lon="1.49128">
        <ele>363</ele>
        <time>2019-02-03T06:38:28.000Z</time>
      </trkpt>
      <trkpt lat="44.7589" lon="1.49121">
        <ele>362</ele>
        <time>2019-02-03T06:39:28.000Z</time>
      </trkpt>
      <trkpt lat="44.75877" lon="1.49149">
        <ele>363</ele>
        <time>2019-02-03T06:40:28.000Z</time>
      </trkpt>
      <trkpt lat="44.75855" lon="1.4917">
        <ele>363</ele>
        <time>2019-02-03T06:41:28.000Z</time>
      </trkpt>
      <trkpt lat="44.75829" lon="1.4919">
        <ele>363</ele>
        <time>2019-02-03T06:42:28.000Z</time>
      </trkpt>
      <trkpt lat="44.75794" lon="1.49201">
        <ele>362</ele>
        <time>2019-02-03T06:43:28.000Z</time>
      </trkpt>
      <trkpt lat="44.75753" lon="1.49213">
        <ele>361</ele>
        <time>2019-02-03T06:44:28.000Z</time>
      </trkpt>
      <trkpt lat="44.75722" lon="1.49225">
        <ele>360</ele>
        <time>2019-02-03T06:45:28.000Z</time>
      </trkpt>
      <trkpt lat="44.75719" lon="1.49213">
        <ele>359</ele>
        <time>2019-02-03T06:46:28.000Z</time>
      </trkpt>
      <trkpt lat="44.75738" lon="1.49187">
        <ele>357</ele>
        <time>2019-02-03T06:47:28.000Z</time>
      </trkpt>
      <trkpt lat="44.75765" lon="1.49134">
        <ele>355</ele>
        <time>2019-02-03T06:48:28.000Z</time>
      </trkpt>
      <trkpt lat="44.75771" lon="1.49081">
        <ele>351</ele>
        <time>2019-02-03T06:49:28.000Z</time>
      </trkpt>
      <trkpt lat="44.758" lon="1.49017">
        <ele>349</ele>
        <time>2019-02-03T06:50:28.000Z</time>
      </trkpt>
      <trkpt lat="44.75822" lon="1.48949">
        <ele>345</ele>
        <time>2019-02-03T06:51:28.000Z</time>
      </trkpt>
      <trkpt lat="44.75814" lon="1.48875">
        <ele>344</ele>
        <time>2019-02-03T06:52:28.000Z</time>
      </trkpt>
      <trkpt lat="44.75763" lon="1.4885">
        <ele>337</ele>
        <time>2019-02-03T06:53:28.000Z</time>
      </trkpt>
      <trkpt lat="44.75711" lon="1.488">
        <ele>332</ele>
        <time>2019-02-03T06:54:28.000Z</time>
      </trkpt>
      <trkpt lat="44.75677" lon="1.48723">
        <ele>329</ele>
        <time>2019-02-03T06:55:28.000Z</time>
      </trkpt>
      <trkpt lat="44.75641" lon="1.48666">
        <ele>328</ele>
        <time>2019-02-03T06:56:28.000Z</time>
      </trkpt>
      <trkpt lat="44.75609" lon="1.4861">
        <ele>326</ele>
        <time>2019-02-03T06:57:28.000Z</time>
      </trkpt>
      <trkpt lat="44.75601" lon="1.48559">
        <ele>328</ele>
        <time>2019-02-03T06:58:28.000Z</time>
      </trkpt>
      <trkpt lat="44.75596" lon="1.48536">
        <ele>330</ele>
        <time>2019-02-03T06:59:28.000Z</time>
      </trkpt>
      <trkpt lat="44.75592" lon="1.48512">
        <ele>331</ele>
        <time>2019-02-03T07:00:28.000Z</time>
      </trkpt>
      <trkpt lat="44.75577" lon="1.48498">
        <ele>332</ele>
        <time>2019-02-03T07:01:28.000Z</time>
      </trkpt>
      <trkpt lat="44.7556" lon="1.48494">
        <ele>332</ele>
        <time>2019-02-03T07:02:28.000Z</time>
      </trkpt>
      <trkpt lat="44.75538" lon="1.4849">
        <ele>331</ele>
        <time>2019-02-03T07:03:28.000Z</time>
      </trkpt>
      <trkpt lat="44.75521" lon="1.48476">
        <ele>332</ele>
        <time>2019-02-03T07:04:28.000Z</time>
      </trkpt>
      <trkpt lat="44.75511" lon="1.48465">
        <ele>332</ele>
        <time>2019-02-03T07:05:28.000Z</time>
      </trkpt>
      <trkpt lat="44.755" lon="1.48455">
        <ele>332</ele>
        <time>2019-02-03T07:06:28.000Z</time>
      </trkpt>
      <trkpt lat="44.75489" lon="1.48447">
        <ele>333</ele>
        <time>2019-02-03T07:07:28.000Z</time>
      </trkpt>
      <trkpt lat="44.75473" lon="1.4844">
        <ele>335</ele>
        <time>2019-02-03T07:08:28.000Z</time>
      </trkpt>
      <trkpt lat="44.75457" lon="1.48439">
        <ele>336</ele>
        <time>2019-02-03T07:09:28.000Z</time>
      </trkpt>
      <trkpt lat="44.75447" lon="1.48441">
        <ele>337</ele>
        <time>2019-02-03T07:10:28.000Z</time>
      </trkpt>
      <trkpt lat="44.75437" lon="1.48441">
        <ele>338</ele>
        <time>2019-02-03T07:11:28.000Z</time>
      </trkpt>
      <trkpt lat="44.75426" lon="1.48436">
        <ele>339</ele>
        <time>2019-02-03T07:12:28.000Z</time>
      </trkpt>
      <trkpt lat="44.75416" lon="1.48429">
        <ele>341</ele>
        <time>2019-02-03T07:13:28.000Z</time>
      </trkpt>
      <trkpt lat="44.75406" lon="1.48424">
        <ele>341</ele>
        <time>2019-02-03T07:14:28.000Z</time>
      </trkpt>
      <trkpt lat="44.75397" lon="1.4842">
        <ele>341</ele>
        <time>2019-02-03T07:15:28.000Z</time>
      </trkpt>
      <trkpt lat="44.75388" lon="1.48415">
        <ele>341</ele>
        <time>2019-02-03T07:16:28.000Z</time>
      </trkpt>
      <trkpt lat="44.75377" lon="1.48414">
        <ele>341</ele>
        <time>2019-02-03T07:17:28.000Z</time>
      </trkpt>
      <trkpt lat="44.75369" lon="1.48408">
        <ele>342</ele>
        <time>2019-02-03T07:18:28.000Z</time>
      </trkpt>
      <trkpt lat="44.75362" lon="1.48398">
        <ele>343</ele>
        <time>2019-02-03T07:19:28.000Z</time>
      </trkpt>
      <trkpt lat="44.75345" lon="1.48379">
        <ele>344</ele>
        <time>2019-02-03T07:20:28.000Z</time>
      </trkpt>
      <trkpt lat="44.75339" lon="1.48367">
        <ele>345</ele>
        <time>2019-02-03T07:21:28.000Z</time>
      </trkpt>
      <trkpt lat="44.75334" lon="1.48355">
        <ele>347</ele>
        <time>2019-02-03T07:22:28.000Z</time>
      </trkpt>
      <trkpt lat="44.75335" lon="1.48341">
        <ele>348</ele>
        <time>2019-02-03T07:23:28.000Z</time>
      </trkpt>
      <trkpt lat="44.75339" lon="1.48328">
        <ele>349</ele>
        <time>2019-02-03T07:24:28.000Z</time>
      </trkpt>
      <trkpt lat="44.75339" lon="1.48315">
        <ele>350</ele>
        <time>2019-02-03T07:25:28.000Z</time>
      </trkpt>
      <trkpt lat="44.75336" lon="1.48299">
        <ele>350</ele>
        <time>2019-02-03T07:26:28.000Z</time>
      </trkpt>
      <trkpt lat="44.7533" lon="1.48281">
        <ele>351</ele>
        <time>2019-02-03T07:27:28.000Z</time>
      </trkpt>
      <trkpt lat="44.75323" lon="1.48262">
        <ele>351</ele>
        <time>2019-02-03T07:28:28.000Z</time>
      </trkpt>
      <trkpt lat="44.75316" lon="1.48241">
        <ele>350</ele>
        <time>2019-02-03T07:29:28.000Z</time>
      </trkpt>
      <trkpt lat="44.75311" lon="1.48218">
        <ele>350</ele>
        <time>2019-02-03T07:30:28.000Z</time>
      </trkpt>
      <trkpt lat="44.75302" lon="1.48179">
        <ele>349</ele>
        <time>2019-02-03T07:31:28.000Z</time>
      </trkpt>
      <trkpt lat="44.75291" lon="1.48141">
        <ele>349</ele>
        <time>2019-02-03T07:32:28.000Z</time>
      </trkpt>
      <trkpt lat="44.75281" lon="1.481">
        <ele>348</ele>
        <time>2019-02-03T07:33:28.000Z</time>
      </trkpt>
      <trkpt lat="44.75272" lon="1.4805">
        <ele>346</ele>
        <time>2019-02-03T07:34:28.000Z</time>
      </trkpt>
      <trkpt lat="44.75265" lon="1.47998">
        <ele>342</ele>
        <time>2019-02-03T07:35:28.000Z</time>
      </trkpt>
      <trkpt lat="44.75254" lon="1.47923">
        <ele>336</ele>
        <time>2019-02-03T07:36:28.000Z</time>
      </trkpt>
      <trkpt lat="44.75244" lon="1.47858">
        <ele>331</ele>
        <time>2019-02-03T07:37:28.000Z</time>
      </trkpt>
      <trkpt lat="44.7522" lon="1.47782">
        <ele>326</ele>
        <time>2019-02-03T07:38:28.000Z</time>
      </trkpt>
      <trkpt lat="44.75195" lon="1.47698">
        <ele>326</ele>
        <time>2019-02-03T07:39:28.000Z</time>
      </trkpt>
      <trkpt lat="44.75178" lon="1.47632">
        <ele>329</ele>
        <time>2019-02-03T07:40:28.000Z</time>
      </trkpt>
      <trkpt lat="44.75159" lon="1.47601">
        <ele>329</ele>
        <time>2019-02-03T07:41:28.000Z</time>
      </trkpt>
      <trkpt lat="44.75137" lon="1.47575">
        <ele>326</ele>
        <time>2019-02-03T07:42:28.000Z</time>
      </trkpt>
      <trkpt lat="44.7513" lon="1.47532">
        <ele>322</ele>
        <time>2019-02-03T07:43:28.000Z</time>
      </trkpt>
      <trkpt lat="44.75141" lon="1.47484">
        <ele>320</ele>
        <time>2019-02-03T07:44:28.000Z</time>
      </trkpt>
      <trkpt lat="44.75143" lon="1.47425">
        <ele>318</ele>
        <time>2019-02-03T07:45:28.000Z</time>
      </trkpt>
      <trkpt lat="44.75138" lon="1.47377">
        <ele>317</ele>
        <time>2019-02-03T07:46:28.000Z</time>
      </trkpt>
      <trkpt lat="44.75142" lon="1.47326">
        <ele>317</ele>
        <time>2019-02-03T07:47:28.000Z</time>
      </trkpt>
      <trkpt lat="44.75146" lon="1.47285">
        <ele>317</ele>
        <time>2019-02-03T07:48:28.000Z</time>
      </trkpt>
      <trkpt lat="44.75137" lon="1.47243">
        <ele>318</ele>
        <time>2019-02-03T07:49:28.000Z</time>
      </trkpt>
      <trkpt lat="44.7512" lon="1.47205">
        <ele>318</ele>
        <time>2019-02-03T07:50:28.000Z</time>
      </trkpt>
      <trkpt lat="44.75107" lon="1.47179">
        <ele>318</ele>
        <time>2019-02-03T07:51:28.000Z</time>
      </trkpt>
      <trkpt lat="44.75093" lon="1.47151">
        <ele>319</ele>
        <time>2019-02-03T07:52:28.000Z</time>
      </trkpt>
      <trkpt lat="44.75044" lon="1.4713">
        <ele>316</ele>
        <time>2019-02-03T07:53:28.000Z</time>
      </trkpt>
      <trkpt lat="44.74991" lon="1.47101">
        <ele>310</ele>
        <time>2019-02-03T07:54:28.000Z</time>
      </trkpt>
      <trkpt lat="44.74933" lon="1.4706">
        <ele>306</ele>
        <time>2019-02-03T07:55:28.000Z</time>
      </trkpt>
      <trkpt lat="44.7489" lon="1.47017">
        <ele>305</ele>
        <time>2019-02-03T07:56:28.000Z</time>
      </trkpt>
      <trkpt lat="44.74868" lon="1.46983">
        <ele>304</ele>
        <time>2019-02-03T07:57:28.000Z</time>
      </trkpt>
      <trkpt lat="44.74851" lon="1.46949">
        <ele>304</ele>
        <time>2019-02-03T07:58:28.000Z</time>
      </trkpt>
      <trkpt lat="44.74836" lon="1.46915">
        <ele>305</ele>
        <time>2019-02-03T07:59:28.000Z</time>
      </trkpt>
      <trkpt lat="44.74827" lon="1.46892">
        <ele>304</ele>
        <time>2019-02-03T08:00:28.000Z</time>
      </trkpt>
      <trkpt lat="44.74822" lon="1.46869">
        <ele>303</ele>
        <time>2019-02-03T08:01:28.000Z</time>
      </trkpt>
      <trkpt lat="44.74805" lon="1.46836">
        <ele>302</ele>
        <time>2019-02-03T08:02:28.000Z</time>
      </trkpt>
      <trkpt lat="44.74772" lon="1.46794">
        <ele>298</ele>
        <time>2019-02-03T08:03:28.000Z</time>
      </trkpt>
      <trkpt lat="44.74744" lon="1.46745">
        <ele>295</ele>
        <time>2019-02-03T08:04:28.000Z</time>
      </trkpt>
      <trkpt lat="44.74724" lon="1.46713">
        <ele>291</ele>
        <time>2019-02-03T08:05:28.000Z</time>
      </trkpt>
      <trkpt lat="44.74702" lon="1.46685">
        <ele>288</ele>
        <time>2019-02-03T08:06:28.000Z</time>
      </trkpt>
      <trkpt lat="44.74622" lon="1.46615">
        <ele>279</ele>
        <time>2019-02-03T08:07:28.000Z</time>
      </trkpt>
      <trkpt lat="44.74592" lon="1.46596">
        <ele>276</ele>
        <time>2019-02-03T08:08:28.000Z</time>
      </trkpt>
      <trkpt lat="44.74568" lon="1.46586">
        <ele>274</ele>
        <time>2019-02-03T08:09:28.000Z</time>
      </trkpt>
      <trkpt lat="44.74534" lon="1.46573">
        <ele>269</ele>
        <time>2019-02-03T08:10:28.000Z</time>
      </trkpt>
      <trkpt lat="44.74501" lon="1.46562">
        <ele>265</ele>
        <time>2019-02-03T08:11:28.000Z</time>
      </trkpt>
      <trkpt lat="44.74462" lon="1.4654">
        <ele>261</ele>
        <time>2019-02-03T08:12:28.000Z</time>
      </trkpt>
      <trkpt lat="44.74429" lon="1.46502">
        <ele>258</ele>
        <time>2019-02-03T08:13:28.000Z</time>
      </trkpt>
      <trkpt lat="44.74383" lon="1.46497">
        <ele>254</ele>
        <time>2019-02-03T08:14:28.000Z</time>
      </trkpt>
      <trkpt lat="44.74353" lon="1.46514">
        <ele>254</ele>
        <time>2019-02-03T08:15:28.000Z</time>
      </trkpt>
      <trkpt lat="44.74342" lon="1.46498">
        <ele>253</ele>
        <time>2019-02-03T08:16:28.000Z</time>
      </trkpt>
      <trkpt lat="44.74334" lon="1.46467">
        <ele>252</ele>
        <time>2019-02-03T08:17:28.000Z</time>
      </trkpt>
      <trkpt lat="44.74327" lon="1.46432">
        <ele>251</ele>
        <time>2019-02-03T08:18:28.000Z</time>
      </trkpt>
      <trkpt lat="44.74316" lon="1.46383">
        <ele>251</ele>
        <time>2019-02-03T08:19:28.000Z</time>
      </trkpt>
      <trkpt lat="44.74311" lon="1.46338">
        <ele>251</ele>
        <time>2019-02-03T08:20:28.000Z</time>
      </trkpt>
      <trkpt lat="44.74313" lon="1.46282">
        <ele>251</ele>
        <time>2019-02-03T08:21:28.000Z</time>
      </trkpt>
      <trkpt lat="44.74317" lon="1.46235">
        <ele>250</ele>
        <time>2019-02-03T08:22:28.000Z</time>
      </trkpt>
      <trkpt lat="44.74322" lon="1.46188">
        <ele>249</ele>
        <time>2019-02-03T08:23:28.000Z</time>
      </trkpt>
      <trkpt lat="44.7433" lon="1.4613">
        <ele>247</ele>
        <time>2019-02-03T08:24:28.000Z</time>
      </trkpt>
      <trkpt lat="44.74334" lon="1.46084">
        <ele>245</ele>
        <time>2019-02-03T08:25:28.000Z</time>
      </trkpt>
      <trkpt lat="44.74342" lon="1.46034">
        <ele>244</ele>
        <time>2019-02-03T08:26:28.000Z</time>
      </trkpt>
      <trkpt lat="44.74345" lon="1.45972">
        <ele>243</ele>
        <time>2019-02-03T08:27:28.000Z</time>
      </trkpt>
      <trkpt lat="44.74348" lon="1.45851">
        <ele>244</ele>
        <time>2019-02-03T08:28:28.000Z</time>
      </trkpt>
      <trkpt lat="44.74344" lon="1.45784">
        <ele>243</ele>
        <time>2019-02-03T08:29:28.000Z</time>
      </trkpt>
      <trkpt lat="44.74343" lon="1.45725">
        <ele>243</ele>
        <time>2019-02-03T08:30:28.000Z</time>
      </trkpt>
      <trkpt lat="44.74339" lon="1.45655">
        <ele>243</ele>
        <time>2019-02-03T08:31:28.000Z</time>
      </trkpt>
      <trkpt lat="44.74335" lon="1.45606">
        <ele>242</ele>
        <time>2019-02-03T08:32:28.000Z</time>
      </trkpt>
      <trkpt lat="44.74325" lon="1.45547">
        <ele>241</ele>
        <time>2019-02-03T08:33:28.000Z</time>
      </trkpt>
      <trkpt lat="44.74318" lon="1.45494">
        <ele>241</ele>
        <time>2019-02-03T08:34:28.000Z</time>
      </trkpt>
      <trkpt lat="44.74315" lon="1.45435">
        <ele>240</ele>
        <time>2019-02-03T08:35:28.000Z</time>
      </trkpt>
      <trkpt lat="44.74313" lon="1.4538">
        <ele>240</ele>
        <time>2019-02-03T08:36:28.000Z</time>
      </trkpt>
      <trkpt lat="44.74304" lon="1.45324">
        <ele>242</ele>
        <time>2019-02-03T08:37:28.000Z</time>
      </trkpt>
      <trkpt lat="44.7429" lon="1.45269">
        <ele>245</ele>
        <time>2019-02-03T08:38:28.000Z</time>
      </trkpt>
      <trkpt lat="44.74272" lon="1.45213">
        <ele>246</ele>
        <time>2019-02-03T08:39:28.000Z</time>
      </trkpt>
      <trkpt lat="44.7426" lon="1.45165">
        <ele>244</ele>
        <time>2019-02-03T08:40:28.000Z</time>
      </trkpt>
      <trkpt lat="44.74248" lon="1.45114">
        <ele>240</ele>
        <time>2019-02-03T08:41:28.000Z</time>
      </trkpt>
      <trkpt lat="44.74232" lon="1.45052">
        <ele>238</ele>
        <time>2019-02-03T08:42:28.000Z</time>
      </trkpt>
      <trkpt lat="44.74217" lon="1.44991">
        <ele>237</ele>
        <time>2019-02-03T08:43:28.000Z</time>
      </trkpt>
      <trkpt lat="44.742" lon="1.44928">
        <ele>236</ele>
        <time>2019-02-03T08:44:28.000Z</time>
      </trkpt>
      <trkpt lat="44.74191" lon="1.44879">
        <ele>235</ele>
        <time>2019-02-03T08:45:28.000Z</time>
      </trkpt>
      <trkpt lat="44.74175" lon="1.44829">
        <ele>236</ele>
        <time>2019-02-03T08:46:28.000Z</time>
      </trkpt>
      <trkpt lat="44.74154" lon="1.44771">
        <ele>235</ele>
        <time>2019-02-03T08:47:28.000Z</time>
      </trkpt>
      <trkpt lat="44.74137" lon="1.44711">
        <ele>234</ele>
        <time>2019-02-03T08:48:28.000Z</time>
      </trkpt>
      <trkpt lat="44.74126" lon="1.44652">
        <ele>234</ele>
        <time>2019-02-03T08:49:28.000Z</time>
      </trkpt>
      <trkpt lat="44.74116" lon="1.44592">
        <ele>235</ele>
        <time>2019-02-03T08:50:28.000Z</time>
      </trkpt>
      <trkpt lat="44.7411" lon="1.44531">
        <ele>236</ele>
        <time>2019-02-03T08:51:28.000Z</time>
      </trkpt>
      <trkpt lat="44.74109" lon="1.44468">
        <ele>238</ele>
        <time>2019-02-03T08:52:28.000Z</time>
      </trkpt>
      <trkpt lat="44.74119" lon="1.4435">
        <ele>241</ele>
        <time>2019-02-03T08:53:28.000Z</time>
      </trkpt>
      <trkpt lat="44.74129" lon="1.44303">
        <ele>240</ele>
        <time>2019-02-03T08:54:28.000Z</time>
      </trkpt>
      <trkpt lat="44.74138" lon="1.44253">
        <ele>240</ele>
        <time>2019-02-03T08:55:28.000Z</time>
      </trkpt>
      <trkpt lat="44.74147" lon="1.4421">
        <ele>238</ele>
        <time>2019-02-03T08:56:28.000Z</time>
      </trkpt>
      <trkpt lat="44.74143" lon="1.4416">
        <ele>239</ele>
        <time>2019-02-03T08:57:28.000Z</time>
      </trkpt>
      <trkpt lat="44.74148" lon="1.44108">
        <ele>236</ele>
        <time>2019-02-03T08:58:28.000Z</time>
      </trkpt>
      <trkpt lat="44.74148" lon="1.44067">
        <ele>234</ele>
        <time>2019-02-03T08:59:28.000Z</time>
      </trkpt>
      <trkpt lat="44.74146" lon="1.44027">
        <ele>233</ele>
        <time>2019-02-03T09:00:28.000Z</time>
      </trkpt>
      <trkpt lat="44.74133" lon="1.43981">
        <ele>232</ele>
        <time>2019-02-03T09:01:28.000Z</time>
      </trkpt>
      <trkpt lat="44.74135" lon="1.43942">
        <ele>230</ele>
        <time>2019-02-03T09:02:28.000Z</time>
      </trkpt>
      <trkpt lat="44.74142" lon="1.43885">
        <ele>227</ele>
        <time>2019-02-03T09:03:28.000Z</time>
      </trkpt>
      <trkpt lat="44.74139" lon="1.4385">
        <ele>226</ele>
        <time>2019-02-03T09:04:28.000Z</time>
      </trkpt>
      <trkpt lat="44.74119" lon="1.43848">
        <ele>227</ele>
        <time>2019-02-03T09:05:28.000Z</time>
      </trkpt>
      <trkpt lat="44.74102" lon="1.43851">
        <ele>228</ele>
        <time>2019-02-03T09:06:28.000Z</time>
      </trkpt>
      <trkpt lat="44.74088" lon="1.43861">
        <ele>229</ele>
        <time>2019-02-03T09:07:28.000Z</time>
      </trkpt>
      <trkpt lat="44.74074" lon="1.43869">
        <ele>230</ele>
        <time>2019-02-03T09:08:28.000Z</time>
      </trkpt>
      <trkpt lat="44.74064" lon="1.43876">
        <ele>230</ele>
        <time>2019-02-03T09:09:28.000Z</time>
      </trkpt>
      <trkpt lat="44.74052" lon="1.43886">
        <ele>231</ele>
        <time>2019-02-03T09:10:28.000Z</time>
      </trkpt>
      <trkpt lat="44.74034" lon="1.43896">
        <ele>232</ele>
        <time>2019-02-03T09:11:28.000Z</time>
      </trkpt>
      <trkpt lat="44.74006" lon="1.43907">
        <ele>233</ele>
        <time>2019-02-03T09:12:28.000Z</time>
      </trkpt>
      <trkpt lat="44.73979" lon="1.43898">
        <ele>233</ele>
        <time>2019-02-03T09:13:28.000Z</time>
      </trkpt>
      <trkpt lat="44.73955" lon="1.43887">
        <ele>233</ele>
        <time>2019-02-03T09:14:28.000Z</time>
      </trkpt>
      <trkpt lat="44.73915" lon="1.43865">
        <ele>232</ele>
        <time>2019-02-03T09:15:28.000Z</time>
      </trkpt>
      <trkpt lat="44.73892" lon="1.43852">
        <ele>233</ele>
        <time>2019-02-03T09:16:28.000Z</time>
      </trkpt>
      <trkpt lat="44.73868" lon="1.43838">
        <ele>233</ele>
        <time>2019-02-03T09:17:28.000Z</time>
      </trkpt>
      <trkpt lat="44.73849" lon="1.43829">
        <ele>233</ele>
        <time>2019-02-03T09:18:28.000Z</time>
      </trkpt>
      <trkpt lat="44.73829" lon="1.43818">
        <ele>234</ele>
        <time>2019-02-03T09:19:28.000Z</time>
      </trkpt>
      <trkpt lat="44.73793" lon="1.43798">
        <ele>237</ele>
        <time>2019-02-03T09:20:28.000Z</time>
      </trkpt>
      <trkpt lat="44.73777" lon="1.4379">
        <ele>238</ele>
        <time>2019-02-03T09:21:28.000Z</time>
      </trkpt>
      <trkpt lat="44.73766" lon="1.43783">
        <ele>239</ele>
        <time>2019-02-03T09:22:28.000Z</time>
      </trkpt>
      <trkpt lat="44.73752" lon="1.43777">
        <ele>240</ele>
        <time>2019-02-03T09:23:28.000Z</time>
      </trkpt>
      <trkpt lat="44.73738" lon="1.43774">
        <ele>241</ele>
        <time>2019-02-03T09:24:28.000Z</time>
      </trkpt>
      <trkpt lat="44.73728" lon="1.43772">
        <ele>241</ele>
        <time>2019-02-03T09:25:28.000Z</time>
      </trkpt>
      <trkpt lat="44.73715" lon="1.43775">
        <ele>241</ele>
        <time>2019-02-03T09:26:28.000Z</time>
      </trkpt>
      <trkpt lat="44.73702" lon="1.43778">
        <ele>241</ele>
        <time>2019-02-03T09:27:28.000Z</time>
      </trkpt>
      <trkpt lat="44.73687" lon="1.43778">
        <ele>241</ele>
        <time>2019-02-03T09:28:28.000Z</time>
      </trkpt>
      <trkpt lat="44.7366" lon="1.43777">
        <ele>242</ele>
        <time>2019-02-03T09:29:28.000Z</time>
      </trkpt>
      <trkpt lat="44.73645" lon="1.43775">
        <ele>242</ele>
        <time>2019-02-03T09:30:28.000Z</time>
      </trkpt>
      <trkpt lat="44.73641" lon="1.43761">
        <ele>243</ele>
        <time>2019-02-03T09:31:28.000Z</time>
      </trkpt>
      <trkpt lat="44.73639" lon="1.43749">
        <ele>244</ele>
        <time>2019-02-03T09:32:28.000Z</time>
      </trkpt>
      <trkpt lat="44.73638" lon="1.43721">
        <ele>248</ele>
        <time>2019-02-03T09:33:28.000Z</time>
      </trkpt>
      <trkpt lat="44.73639" lon="1.43707">
        <ele>249</ele>
        <time>2019-02-03T09:34:28.000Z</time>
      </trkpt>
      <trkpt lat="44.7364" lon="1.43694">
        <ele>251</ele>
        <time>2019-02-03T09:35:28.000Z</time>
      </trkpt>
      <trkpt lat="44.73649" lon="1.43687">
        <ele>251</ele>
        <time>2019-02-03T09:36:28.000Z</time>
      </trkpt>
      <trkpt lat="44.73658" lon="1.43685">
        <ele>252</ele>
        <time>2019-02-03T09:37:28.000Z</time>
      </trkpt>
      <trkpt lat="44.73667" lon="1.43681">
        <ele>252</ele>
        <time>2019-02-03T09:38:28.000Z</time>
      </trkpt>
      <trkpt lat="44.73676" lon="1.43676">
        <ele>253</ele>
        <time>2019-02-03T09:39:28.000Z</time>
      </trkpt>
      <trkpt lat="44.73679" lon="1.43663">
        <ele>254</ele>
        <time>2019-02-03T09:40:28.000Z</time>
      </trkpt>
      <trkpt lat="44.73673" lon="1.43651">
        <ele>255</ele>
        <time>2019-02-03T09:41:28.000Z</time>
      </trkpt>
      <trkpt lat="44.7367" lon="1.43638">
        <ele>257</ele>
        <time>2019-02-03T09:42:28.000Z</time>
      </trkpt>
      <trkpt lat="44.73661" lon="1.43614">
        <ele>259</ele>
        <time>2019-02-03T09:43:28.000Z</time>
      </trkpt>
      <trkpt lat="44.73655" lon="1.436">
        <ele>260</ele>
        <time>2019-02-03T09:44:28.000Z</time>
      </trkpt>
      <trkpt lat="44.73649" lon="1.4359">
        <ele>261</ele>
        <time>2019-02-03T09:45:28.000Z</time>
      </trkpt>
      <trkpt lat="44.7364" lon="1.43579">
        <ele>262</ele>
        <time>2019-02-03T09:46:28.000Z</time>
      </trkpt>
      <trkpt lat="44.73633" lon="1.4357">
        <ele>264</ele>
        <time>2019-02-03T09:47:28.000Z</time>
      </trkpt>
      <trkpt lat="44.73625" lon="1.43562">
        <ele>265</ele>
        <time>2019-02-03T09:48:28.000Z</time>
      </trkpt>
      <trkpt lat="44.73615" lon="1.43558">
        <ele>265</ele>
        <time>2019-02-03T09:49:28.000Z</time>
      </trkpt>
      <trkpt lat="44.73605" lon="1.43552">
        <ele>266</ele>
        <time>2019-02-03T09:50:28.000Z</time>
      </trkpt>
      <trkpt lat="44.73585" lon="1.43544">
        <ele>267</ele>
        <time>2019-02-03T09:51:28.000Z</time>
      </trkpt>
      <trkpt lat="44.73576" lon="1.43542">
        <ele>267</ele>
        <time>2019-02-03T09:52:28.000Z</time>
      </trkpt>
      <trkpt lat="44.73566" lon="1.4354">
        <ele>268</ele>
        <time>2019-02-03T09:53:28.000Z</time>
      </trkpt>
      <trkpt lat="44.73556" lon="1.43537">
        <ele>269</ele>
        <time>2019-02-03T09:54:28.000Z</time>
      </trkpt>
      <trkpt lat="44.73547" lon="1.43534">
        <ele>270</ele>
        <time>2019-02-03T09:55:28.000Z</time>
      </trkpt>
      <trkpt lat="44.73537" lon="1.43529">
        <ele>271</ele>
        <time>2019-02-03T09:56:28.000Z</time>
      </trkpt>
      <trkpt lat="44.73518" lon="1.43523">
        <ele>272</ele>
        <time>2019-02-03T09:57:28.000Z</time>
      </trkpt>
      <trkpt lat="44.7351" lon="1.43516">
        <ele>273</ele>
        <time>2019-02-03T09:58:28.000Z</time>
      </trkpt>
      <trkpt lat="44.73501" lon="1.43512">
        <ele>274</ele>
        <time>2019-02-03T09:59:28.000Z</time>
      </trkpt>
      <trkpt lat="44.73492" lon="1.43507">
        <ele>274</ele>
        <time>2019-02-03T10:00:28.000Z</time>
      </trkpt>
      <trkpt lat="44.73483" lon="1.43503">
        <ele>275</ele>
        <time>2019-02-03T10:01:28.000Z</time>
      </trkpt>
      <trkpt lat="44.73473" lon="1.43498">
        <ele>275</ele>
        <time>2019-02-03T10:02:28.000Z</time>
      </trkpt>
      <trkpt lat="44.73455" lon="1.43485">
        <ele>276</ele>
        <time>2019-02-03T10:03:28.000Z</time>
      </trkpt>
      <trkpt lat="44.73446" lon="1.43478">
        <ele>276</ele>
        <time>2019-02-03T10:04:28.000Z</time>
      </trkpt>
      <trkpt lat="44.73437" lon="1.43472">
        <ele>275</ele>
        <time>2019-02-03T10:05:28.000Z</time>
      </trkpt>
      <trkpt lat="44.73428" lon="1.43471">
        <ele>275</ele>
        <time>2019-02-03T10:06:28.000Z</time>
      </trkpt>
      <trkpt lat="44.73356" lon="1.4343">
        <ele>269</ele>
        <time>2019-02-03T10:07:28.000Z</time>
      </trkpt>
      <trkpt lat="44.73239" lon="1.4339">
        <ele>256</ele>
        <time>2019-02-03T10:08:28.000Z</time>
      </trkpt>
      <trkpt lat="44.73147" lon="1.43378">
        <ele>250</ele>
        <time>2019-02-03T10:09:28.000Z</time>
      </trkpt>
      <trkpt lat="44.73085" lon="1.43349">
        <ele>250</ele>
        <time>2019-02-03T10:10:28.000Z</time>
      </trkpt>
      <trkpt lat="44.73047" lon="1.43328">
        <ele>253</ele>
        <time>2019-02-03T10:11:28.000Z</time>
      </trkpt>
      <trkpt lat="44.73013" lon="1.43306">
        <ele>257</ele>
        <time>2019-02-03T10:12:28.000Z</time>
      </trkpt>
      <trkpt lat="44.73003" lon="1.43284">
        <ele>259</ele>
        <time>2019-02-03T10:13:28.000Z</time>
      </trkpt>
      <trkpt lat="44.72962" lon="1.4325">
        <ele>266</ele>
        <time>2019-02-03T10:14:28.000Z</time>
      </trkpt>
      <trkpt lat="44.72978" lon="1.43228">
        <ele>265</ele>
        <time>2019-02-03T10:15:28.000Z</time>
      </trkpt>
      <trkpt lat="44.72969" lon="1.43204">
        <ele>267</ele>
        <time>2019-02-03T10:16:28.000Z</time>
      </trkpt>
      <trkpt lat="44.72958" lon="1.43171">
        <ele>270</ele>
        <time>2019-02-03T10:17:28.000Z</time>
      </trkpt>
      <trkpt lat="44.72921" lon="1.43128">
        <ele>278</ele>
        <time>2019-02-03T10:18:28.000Z</time>
      </trkpt>
      <trkpt lat="44.72924" lon="1.43093">
        <ele>278</ele>
        <time>2019-02-03T10:19:28.000Z</time>
      </trkpt>
      <trkpt lat="44.72918" lon="1.43064">
        <ele>280</ele>
        <time>2019-02-03T10:20:28.000Z</time>
      </trkpt>
      <trkpt lat="44.72903" lon="1.43034">
        <ele>281</ele>
        <time>2019-02-03T10:21:28.000Z</time>
      </trkpt>
      <trkpt lat="44.72887" lon="1.42998">
        <ele>282</ele>
        <time>2019-02-03T10:22:28.000Z</time>
      </trkpt>
      <trkpt lat="44.72877" lon="1.42977">
        <ele>283</ele>
        <time>2019-02-03T10:23:28.000Z</time>
      </trkpt>
      <trkpt lat="44.72863" lon="1.42956">
        <ele>285</ele>
        <time>2019-02-03T10:24:28.000Z</time>
      </trkpt>
      <trkpt lat="44.72841" lon="1.42946">
        <ele>287</ele>
        <time>2019-02-03T10:25:28.000Z</time>
      </trkpt>
      <trkpt lat="44.72814" lon="1.42918">
        <ele>289</ele>
        <time>2019-02-03T10:26:28.000Z</time>
      </trkpt>
      <trkpt lat="44.72782" lon="1.42882">
        <ele>290</ele>
        <time>2019-02-03T10:27:28.000Z</time>
      </trkpt>
      <trkpt lat="44.72763" lon="1.42859">
        <ele>291</ele>
        <time>2019-02-03T10:28:28.000Z</time>
      </trkpt>
      <trkpt lat="44.72734" lon="1.4282">
        <ele>291</ele>
        <time>2019-02-03T10:29:28.000Z</time>
      </trkpt>
      <trkpt lat="44.72702" lon="1.42793">
        <ele>292</ele>
        <time>2019-02-03T10:30:28.000Z</time>
      </trkpt>
      <trkpt lat="44.72665" lon="1.42714">
        <ele>293</ele>
        <time>2019-02-03T10:31:28.000Z</time>
      </trkpt>
      <trkpt lat="44.72641" lon="1.42668">
        <ele>293</ele>
        <time>2019-02-03T10:32:28.000Z</time>
      </trkpt>
      <trkpt lat="44.72619" lon="1.42596">
        <ele>291</ele>
        <time>2019-02-03T10:33:28.000Z</time>
      </trkpt>
      <trkpt lat="44.72593" lon="1.42537">
        <ele>294</ele>
        <time>2019-02-03T10:34:28.000Z</time>
      </trkpt>
      <trkpt lat="44.72581" lon="1.42481">
        <ele>297</ele>
        <time>2019-02-03T10:35:28.000Z</time>
      </trkpt>
      <trkpt lat="44.72573" lon="1.42417">
        <ele>302</ele>
        <time>2019-02-03T10:36:28.000Z</time>
      </trkpt>
      <trkpt lat="44.72525" lon="1.42336">
        <ele>298</ele>
        <time>2019-02-03T10:37:28.000Z</time>
      </trkpt>
      <trkpt lat="44.72518" lon="1.42289">
        <ele>298</ele>
        <time>2019-02-03T10:38:28.000Z</time>
      </trkpt>
      <trkpt lat="44.72535" lon="1.42216">
        <ele>301</ele>
        <time>2019-02-03T10:39:28.000Z</time>
      </trkpt>
      <trkpt lat="44.72539" lon="1.42104">
        <ele>300</ele>
        <time>2019-02-03T10:40:28.000Z</time>
      </trkpt>
      <trkpt lat="44.72488" lon="1.41937">
        <ele>288</ele>
        <time>2019-02-03T10:41:28.000Z</time>
      </trkpt>
      <trkpt lat="44.72488" lon="1.41763">
        <ele>284</ele>
        <time>2019-02-03T10:42:28.000Z</time>
      </trkpt>
      <trkpt lat="44.72494" lon="1.41676">
        <ele>286</ele>
        <time>2019-02-03T10:43:28.000Z</time>
      </trkpt>
      <trkpt lat="44.7241" lon="1.41641">
        <ele>281</ele>
        <time>2019-02-03T10:44:28.000Z</time>
      </trkpt>
      <trkpt lat="44.72345" lon="1.41583">
        <ele>284</ele>
        <time>2019-02-03T10:45:28.000Z</time>
      </trkpt>
      <trkpt lat="44.72294" lon="1.4156">
        <ele>286</ele>
        <time>2019-02-03T10:46:28.000Z</time>
      </trkpt>
      <trkpt lat="44.72261" lon="1.4154">
        <ele>287</ele>
        <time>2019-02-03T10:47:28.000Z</time>
      </trkpt>
      <trkpt lat="44.72187" lon="1.41521">
        <ele>284</ele>
        <time>2019-02-03T10:48:28.000Z</time>
      </trkpt>
      <trkpt lat="44.72099" lon="1.41499">
        <ele>279</ele>
        <time>2019-02-03T10:49:28.000Z</time>
      </trkpt>
      <trkpt lat="44.72047" lon="1.41471">
        <ele>275</ele>
        <time>2019-02-03T10:50:28.000Z</time>
      </trkpt>
      <trkpt lat="44.71995" lon="1.41416">
        <ele>270</ele>
        <time>2019-02-03T10:51:28.000Z</time>
      </trkpt>
      <trkpt lat="44.71938" lon="1.41393">
        <ele>265</ele>
        <time>2019-02-03T10:52:28.000Z</time>
      </trkpt>
      <trkpt lat="44.71878" lon="1.41414">
        <ele>256</ele>
        <time>2019-02-03T10:53:28.000Z</time>
      </trkpt>
      <trkpt lat="44.71772" lon="1.41364">
        <ele>241</ele>
        <time>2019-02-03T10:54:28.000Z</time>
      </trkpt>
      <trkpt lat="44.71702" lon="1.41297">
        <ele>233</ele>
        <time>2019-02-03T10:55:28.000Z</time>
      </trkpt>
      <trkpt lat="44.71658" lon="1.41227">
        <ele>230</ele>
        <time>2019-02-03T10:56:28.000Z</time>
      </trkpt>
      <trkpt lat="44.71626" lon="1.41196">
        <ele>233</ele>
        <time>2019-02-03T10:57:28.000Z</time>
      </trkpt>
      <trkpt lat="44.71627" lon="1.41155">
        <ele>233</ele>
        <time>2019-02-03T10:58:28.000Z</time>
      </trkpt>
      <trkpt lat="44.71605" lon="1.41159">
        <ele>236</ele>
        <time>2019-02-03T10:59:28.000Z</time>
      </trkpt>
      <trkpt lat="44.71592" lon="1.41171">
        <ele>238</ele>
        <time>2019-02-03T11:00:28.000Z</time>
      </trkpt>
      <trkpt lat="44.716" lon="1.4116">
        <ele>237</ele>
        <time>2019-02-03T11:01:28.000Z</time>
      </trkpt>
      <trkpt lat="44.71609" lon="1.41155">
        <ele>236</ele>
        <time>2019-02-03T11:02:28.000Z</time>
      </trkpt>
      <trkpt lat="44.71617" lon="1.41167">
        <ele>234</ele>
        <time>2019-02-03T11:03:28.000Z</time>
      </trkpt>
      <trkpt lat="44.71624" lon="1.41182">
        <ele>233</ele>
        <time>2019-02-03T11:04:28.000Z</time>
      </trkpt>
      <trkpt lat="44.71632" lon="1.41175">
        <ele>232</ele>
        <time>2019-02-03T11:05:28.000Z</time>
      </trkpt>
      <trkpt lat="44.71636" lon="1.41143">
        <ele>231</ele>
        <time>2019-02-03T11:06:28.000Z</time>
      </trkpt>
      <trkpt lat="44.71632" lon="1.41082">
        <ele>231</ele>
        <time>2019-02-03T11:07:28.000Z</time>
      </trkpt>
      <trkpt lat="44.71631" lon="1.41029">
        <ele>232</ele>
        <time>2019-02-03T11:08:28.000Z</time>
      </trkpt>
      <trkpt lat="44.71632" lon="1.40993">
        <ele>231</ele>
        <time>2019-02-03T11:09:28.000Z</time>
      </trkpt>
      <trkpt lat="44.71633" lon="1.40955">
        <ele>231</ele>
        <time>2019-02-03T11:10:28.000Z</time>
      </trkpt>
      <trkpt lat="44.7163" lon="1.40939">
        <ele>231</ele>
        <time>2019-02-03T11:11:28.000Z</time>
      </trkpt>
      <trkpt lat="44.7163" lon="1.40924">
        <ele>231</ele>
        <time>2019-02-03T11:12:28.000Z</time>
      </trkpt>
      <trkpt lat="44.71631" lon="1.40906">
        <ele>230</ele>
        <time>2019-02-03T11:13:28.000Z</time>
      </trkpt>
      <trkpt lat="44.71627" lon="1.40878">
        <ele>228</ele>
        <time>2019-02-03T11:14:28.000Z</time>
      </trkpt>
      <trkpt lat="44.71608" lon="1.4085">
        <ele>229</ele>
        <time>2019-02-03T11:15:28.000Z</time>
      </trkpt>
      <trkpt lat="44.71591" lon="1.40811">
        <ele>231</ele>
        <time>2019-02-03T11:16:28.000Z</time>
      </trkpt>
      <trkpt lat="44.716" lon="1.40777">
        <ele>231</ele>
        <time>2019-02-03T11:17:28.000Z</time>
      </trkpt>
      <trkpt lat="44.71607" lon="1.40762">
        <ele>231</ele>
        <time>2019-02-03T11:18:28.000Z</time>
      </trkpt>
      <trkpt lat="44.71616" lon="1.40751">
        <ele>231</ele>
        <time>2019-02-03T11:19:28.000Z</time>
      </trkpt>
      <trkpt lat="44.71625" lon="1.40746">
        <ele>231</ele>
        <time>2019-02-03T11:20:28.000Z</time>
      </trkpt>
      <trkpt lat="44.71634" lon="1.40746">
        <ele>230</ele>
        <time>2019-02-03T11:21:28.000Z</time>
      </trkpt>
      <trkpt lat="44.71644" lon="1.40745">
        <ele>230</ele>
        <time>2019-02-03T11:22:28.000Z</time>
      </trkpt>
      <trkpt lat="44.71653" lon="1.40743">
        <ele>229</ele>
        <time>2019-02-03T11:23:28.000Z</time>
      </trkpt>
      <trkpt lat="44.71661" lon="1.40735">
        <ele>230</ele>
        <time>2019-02-03T11:24:28.000Z</time>
      </trkpt>
      <trkpt lat="44.71664" lon="1.40721">
        <ele>231</ele>
        <time>2019-02-03T11:25:28.000Z</time>
      </trkpt>
      <trkpt lat="44.71657" lon="1.4071">
        <ele>232</ele>
        <time>2019-02-03T11:26:28.000Z</time>
      </trkpt>
      <trkpt lat="44.71654" lon="1.40696">
        <ele>234</ele>
        <time>2019-02-03T11:27:28.000Z</time>
      </trkpt>
      <trkpt lat="44.71651" lon="1.40683">
        <ele>235</ele>
        <time>2019-02-03T11:28:28.000Z</time>
      </trkpt>
      <trkpt lat="44.7165" lon="1.40668">
        <ele>237</ele>
        <time>2019-02-03T11:29:28.000Z</time>
      </trkpt>
      <trkpt lat="44.7165" lon="1.40655">
        <ele>238</ele>
        <time>2019-02-03T11:30:28.000Z</time>
      </trkpt>
      <trkpt lat="44.71654" lon="1.40642">
        <ele>238</ele>
        <time>2019-02-03T11:31:28.000Z</time>
      </trkpt>
      <trkpt lat="44.71662" lon="1.40636">
        <ele>238</ele>
        <time>2019-02-03T11:32:28.000Z</time>
      </trkpt>
      <trkpt lat="44.71671" lon="1.40635">
        <ele>238</ele>
        <time>2019-02-03T11:33:28.000Z</time>
      </trkpt>
      <trkpt lat="44.71682" lon="1.40626">
        <ele>237</ele>
        <time>2019-02-03T11:34:28.000Z</time>
      </trkpt>
      <trkpt lat="44.71696" lon="1.40607">
        <ele>238</ele>
        <time>2019-02-03T11:35:28.000Z</time>
      </trkpt>
      <trkpt lat="44.71705" lon="1.40582">
        <ele>240</ele>
        <time>2019-02-03T11:36:28.000Z</time>
      </trkpt>
      <trkpt lat="44.71715" lon="1.40538">
        <ele>238</ele>
        <time>2019-02-03T11:37:28.000Z</time>
      </trkpt>
      <trkpt lat="44.71727" lon="1.40478">
        <ele>236</ele>
        <time>2019-02-03T11:38:28.000Z</time>
      </trkpt>
      <trkpt lat="44.71736" lon="1.4041">
        <ele>234</ele>
        <time>2019-02-03T11:39:28.000Z</time>
      </trkpt>
      <trkpt lat="44.71773" lon="1.40368">
        <ele>234</ele>
        <time>2019-02-03T11:40:28.000Z</time>
      </trkpt>
      <trkpt lat="44.71797" lon="1.40348">
        <ele>232</ele>
        <time>2019-02-03T11:41:28.000Z</time>
      </trkpt>
      <trkpt lat="44.71821" lon="1.40323">
        <ele>230</ele>
        <time>2019-02-03T11:42:28.000Z</time>
      </trkpt>
      <trkpt lat="44.71845" lon="1.40298">
        <ele>226</ele>
        <time>2019-02-03T11:43:28.000Z</time>
      </trkpt>
      <trkpt lat="44.71864" lon="1.40272">
        <ele>223</ele>
        <time>2019-02-03T11:44:28.000Z</time>
      </trkpt>
      <trkpt lat="44.7188" lon="1.40217">
        <ele>220</ele>
        <time>2019-02-03T11:45:28.000Z</time>
      </trkpt>
      <trkpt lat="44.7189" lon="1.40163">
        <ele>218</ele>
        <time>2019-02-03T11:46:28.000Z</time>
      </trkpt>
      <trkpt lat="44.71918" lon="1.40143">
        <ele>213</ele>
        <time>2019-02-03T11:47:28.000Z</time>
      </trkpt>
      <trkpt lat="44.71954" lon="1.40136">
        <ele>209</ele>
        <time>2019-02-03T11:48:28.000Z</time>
      </trkpt>
      <trkpt lat="44.7196" lon="1.40103">
        <ele>208</ele>
        <time>2019-02-03T11:49:28.000Z</time>
      </trkpt>
      <trkpt lat="44.71955" lon="1.40063">
        <ele>209</ele>
        <time>2019-02-03T11:50:28.000Z</time>
      </trkpt>
      <trkpt lat="44.71949" lon="1.40025">
        <ele>209</ele>
        <time>2019-02-03T11:51:28.000Z</time>
      </trkpt>
      <trkpt lat="44.71947" lon="1.39986">
        <ele>209</ele>
        <time>2019-02-03T11:52:28.000Z</time>
      </trkpt>
      <trkpt lat="44.71951" lon="1.39936">
        <ele>208</ele>
        <time>2019-02-03T11:53:28.000Z</time>
      </trkpt>
      <trkpt lat="44.7195" lon="1.39883">
        <ele>206</ele>
        <time>2019-02-03T11:54:28.000Z</time>
      </trkpt>
      <trkpt lat="44.71971" lon="1.39827">
        <ele>204</ele>
        <time>2019-02-03T11:55:28.000Z</time>
      </trkpt>
      <trkpt lat="44.72006" lon="1.39797">
        <ele>201</ele>
        <time>2019-02-03T11:56:28.000Z</time>
      </trkpt>
      <trkpt lat="44.72052" lon="1.39797">
        <ele>201</ele>
        <time>2019-02-03T11:57:28.000Z</time>
      </trkpt>
      <trkpt lat="44.72077" lon="1.39777">
        <ele>200</ele>
        <time>2019-02-03T11:58:28.000Z</time>
      </trkpt>
      <trkpt lat="44.72103" lon="1.39742">
        <ele>200</ele>
        <time>2019-02-03T11:59:28.000Z</time>
      </trkpt>
      <trkpt lat="44.72123" lon="1.39712">
        <ele>201</ele>
        <time>2019-02-03T12:00:28.000Z</time>
      </trkpt>
      <trkpt lat="44.72142" lon="1.39689">
        <ele>202</ele>
        <time>2019-02-03T12:01:28.000Z</time>
      </trkpt>
      <trkpt lat="44.72161" lon="1.39673">
        <ele>203</ele>
        <time>2019-02-03T12:02:28.000Z</time>
      </trkpt>
      <trkpt lat="44.72175" lon="1.39674">
        <ele>204</ele>
        <time>2019-02-03T12:03:28.000Z</time>
      </trkpt>
      <trkpt lat="44.72189" lon="1.39678">
        <ele>204</ele>
        <time>2019-02-03T12:04:28.000Z</time>
      </trkpt>
      <trkpt lat="44.7221" lon="1.39673">
        <ele>205</ele>
        <time>2019-02-03T12:05:28.000Z</time>
      </trkpt>
      <trkpt lat="44.72228" lon="1.39674">
        <ele>206</ele>
        <time>2019-02-03T12:06:28.000Z</time>
      </trkpt>
      <trkpt lat="44.7225" lon="1.39671">
        <ele>207</ele>
        <time>2019-02-03T12:07:28.000Z</time>
      </trkpt>
      <trkpt lat="44.72299" lon="1.3965">
        <ele>213</ele>
        <time>2019-02-03T12:08:28.000Z</time>
      </trkpt>
      <trkpt lat="44.72315" lon="1.39648">
        <ele>215</ele>
        <time>2019-02-03T12:09:28.000Z</time>
      </trkpt>
      <trkpt lat="44.72328" lon="1.3965">
        <ele>217</ele>
        <time>2019-02-03T12:10:28.000Z</time>
      </trkpt>
      <trkpt lat="44.72341" lon="1.39654">
        <ele>217</ele>
        <time>2019-02-03T12:11:28.000Z</time>
      </trkpt>
      <trkpt lat="44.72351" lon="1.39657">
        <ele>217</ele>
        <time>2019-02-03T12:12:28.000Z</time>
      </trkpt>
      <trkpt lat="44.72361" lon="1.39657">
        <ele>218</ele>
        <time>2019-02-03T12:13:28.000Z</time>
      </trkpt>
      <trkpt lat="44.72379" lon="1.39664">
        <ele>218</ele>
        <time>2019-02-03T12:14:28.000Z</time>
      </trkpt>
      <trkpt lat="44.72389" lon="1.39666">
        <ele>218</ele>
        <time>2019-02-03T12:15:28.000Z</time>
      </trkpt>
      <trkpt lat="44.72408" lon="1.39665">
        <ele>220</ele>
        <time>2019-02-03T12:16:28.000Z</time>
      </trkpt>
      <trkpt lat="44.72417" lon="1.39671">
        <ele>220</ele>
        <time>2019-02-03T12:17:28.000Z</time>
      </trkpt>
      <trkpt lat="44.72426" lon="1.39677">
        <ele>220</ele>
        <time>2019-02-03T12:18:28.000Z</time>
      </trkpt>
      <trkpt lat="44.72454" lon="1.39684">
        <ele>223</ele>
        <time>2019-02-03T12:19:28.000Z</time>
      </trkpt>
      <trkpt lat="44.72464" lon="1.39682">
        <ele>224</ele>
        <time>2019-02-03T12:20:28.000Z</time>
      </trkpt>
      <trkpt lat="44.72473" lon="1.39678">
        <ele>226</ele>
        <time>2019-02-03T12:21:28.000Z</time>
      </trkpt>
      <trkpt lat="44.72481" lon="1.3967">
        <ele>227</ele>
        <time>2019-02-03T12:22:28.000Z</time>
      </trkpt>
      <trkpt lat="44.72483" lon="1.39656">
        <ele>229</ele>
        <time>2019-02-03T12:23:28.000Z</time>
      </trkpt>
      <trkpt lat="44.72483" lon="1.3964">
        <ele>230</ele>
        <time>2019-02-03T12:24:28.000Z</time>
      </trkpt>
      <trkpt lat="44.7248" lon="1.39627">
        <ele>231</ele>
        <time>2019-02-03T12:25:28.000Z</time>
      </trkpt>
      <trkpt lat="44.72474" lon="1.39616">
        <ele>232</ele>
        <time>2019-02-03T12:26:28.000Z</time>
      </trkpt>
      <trkpt lat="44.7246" lon="1.39599">
        <ele>232</ele>
        <time>2019-02-03T12:27:28.000Z</time>
      </trkpt>
      <trkpt lat="44.72451" lon="1.39592">
        <ele>233</ele>
        <time>2019-02-03T12:28:28.000Z</time>
      </trkpt>
      <trkpt lat="44.72444" lon="1.39582">
        <ele>233</ele>
        <time>2019-02-03T12:29:28.000Z</time>
      </trkpt>
      <trkpt lat="44.72437" lon="1.39571">
        <ele>234</ele>
        <time>2019-02-03T12:30:28.000Z</time>
      </trkpt>
      <trkpt lat="44.72432" lon="1.3956">
        <ele>235</ele>
        <time>2019-02-03T12:31:28.000Z</time>
      </trkpt>
      <trkpt lat="44.72429" lon="1.39548">
        <ele>236</ele>
        <time>2019-02-03T12:32:28.000Z</time>
      </trkpt>
      <trkpt lat="44.72428" lon="1.39533">
        <ele>237</ele>
        <time>2019-02-03T12:33:28.000Z</time>
      </trkpt>
      <trkpt lat="44.72426" lon="1.39519">
        <ele>238</ele>
        <time>2019-02-03T12:34:28.000Z</time>
      </trkpt>
      <trkpt lat="44.72422" lon="1.3949">
        <ele>241</ele>
        <time>2019-02-03T12:35:28.000Z</time>
      </trkpt>
      <trkpt lat="44.72419" lon="1.39478">
        <ele>241</ele>
        <time>2019-02-03T12:36:28.000Z</time>
      </trkpt>
      <trkpt lat="44.72416" lon="1.39464">
        <ele>242</ele>
        <time>2019-02-03T12:37:28.000Z</time>
      </trkpt>
      <trkpt lat="44.72413" lon="1.39437">
        <ele>243</ele>
        <time>2019-02-03T12:38:28.000Z</time>
      </trkpt>
      <trkpt lat="44.72414" lon="1.39423">
        <ele>244</ele>
        <time>2019-02-03T12:39:28.000Z</time>
      </trkpt>
      <trkpt lat="44.72416" lon="1.3941">
        <ele>245</ele>
        <time>2019-02-03T12:40:28.000Z</time>
      </trkpt>
      <trkpt lat="44.72421" lon="1.39398">
        <ele>245</ele>
        <time>2019-02-03T12:41:28.000Z</time>
      </trkpt>
      <trkpt lat="44.72427" lon="1.39387">
        <ele>245</ele>
        <time>2019-02-03T12:42:28.000Z</time>
      </trkpt>
      <trkpt lat="44.72432" lon="1.39375">
        <ele>245</ele>
        <time>2019-02-03T12:43:28.000Z</time>
      </trkpt>
      <trkpt lat="44.72438" lon="1.3936">
        <ele>245</ele>
        <time>2019-02-03T12:44:28.000Z</time>
      </trkpt>
      <trkpt lat="44.72443" lon="1.39349">
        <ele>245</ele>
        <time>2019-02-03T12:45:28.000Z</time>
      </trkpt>
      <trkpt lat="44.72448" lon="1.39337">
        <ele>245</ele>
        <time>2019-02-03T12:46:28.000Z</time>
      </trkpt>
      <trkpt lat="44.72454" lon="1.39321">
        <ele>245</ele>
        <time>2019-02-03T12:47:28.000Z</time>
      </trkpt>
      <trkpt lat="44.72462" lon="1.39313">
        <ele>245</ele>
        <time>2019-02-03T12:48:28.000Z</time>
      </trkpt>
      <trkpt lat="44.72476" lon="1.39285">
        <ele>245</ele>
        <time>2019-02-03T12:49:28.000Z</time>
      </trkpt>
      <trkpt lat="44.72493" lon="1.3925">
        <ele>243</ele>
        <time>2019-02-03T12:50:28.000Z</time>
      </trkpt>
      <trkpt lat="44.72515" lon="1.39213">
        <ele>240</ele>
        <time>2019-02-03T12:51:28.000Z</time>
      </trkpt>
      <trkpt lat="44.72529" lon="1.39186">
        <ele>239</ele>
        <time>2019-02-03T12:52:28.000Z</time>
      </trkpt>
      <trkpt lat="44.72542" lon="1.39147">
        <ele>237</ele>
        <time>2019-02-03T12:53:28.000Z</time>
      </trkpt>
      <trkpt lat="44.72555" lon="1.39117">
        <ele>234</ele>
        <time>2019-02-03T12:54:28.000Z</time>
      </trkpt>
      <trkpt lat="44.72573" lon="1.39078">
        <ele>230</ele>
        <time>2019-02-03T12:55:28.000Z</time>
      </trkpt>
      <trkpt lat="44.72579" lon="1.39027">
        <ele>228</ele>
        <time>2019-02-03T12:56:28.000Z</time>
      </trkpt>
      <trkpt lat="44.72585" lon="1.38987">
        <ele>227</ele>
        <time>2019-02-03T12:57:28.000Z</time>
      </trkpt>
      <trkpt lat="44.72596" lon="1.38953">
        <ele>227</ele>
        <time>2019-02-03T12:58:28.000Z</time>
      </trkpt>
      <trkpt lat="44.72609" lon="1.38895">
        <ele>226</ele>
        <time>2019-02-03T12:59:28.000Z</time>
      </trkpt>
      <trkpt lat="44.72621" lon="1.3885">
        <ele>225</ele>
        <time>2019-02-03T13:00:28.000Z</time>
      </trkpt>
      <trkpt lat="44.72628" lon="1.38801">
        <ele>222</ele>
        <time>2019-02-03T13:01:28.000Z</time>
      </trkpt>
      <trkpt lat="44.7266" lon="1.38726">
        <ele>215</ele>
        <time>2019-02-03T13:02:28.000Z</time>
      </trkpt>
      <trkpt lat="44.72692" lon="1.38669">
        <ele>214</ele>
        <time>2019-02-03T13:03:28.000Z</time>
      </trkpt>
      <trkpt lat="44.72723" lon="1.3862">
        <ele>212</ele>
        <time>2019-02-03T13:04:28.000Z</time>
      </trkpt>
      <trkpt lat="44.72759" lon="1.38571">
        <ele>204</ele>
        <time>2019-02-03T13:05:28.000Z</time>
      </trkpt>
      <trkpt lat="44.72771" lon="1.38539">
        <ele>200</ele>
        <time>2019-02-03T13:06:28.000Z</time>
      </trkpt>
      <trkpt lat="44.72764" lon="1.38547">
        <ele>201</ele>
        <time>2019-02-03T13:07:28.000Z</time>
      </trkpt>
      <trkpt lat="44.72761" lon="1.38564">
        <ele>203</ele>
        <time>2019-02-03T13:08:28.000Z</time>
      </trkpt>
      <trkpt lat="44.72767" lon="1.38577">
        <ele>205</ele>
        <time>2019-02-03T13:09:28.000Z</time>
      </trkpt>
      <trkpt lat="44.72781" lon="1.38575">
        <ele>204</ele>
        <time>2019-02-03T13:10:28.000Z</time>
      </trkpt>
      <trkpt lat="44.72793" lon="1.38573">
        <ele>204</ele>
        <time>2019-02-03T13:11:28.000Z</time>
      </trkpt>
      <trkpt lat="44.72811" lon="1.38575">
        <ele>204</ele>
        <time>2019-02-03T13:12:28.000Z</time>
      </trkpt>
      <trkpt lat="44.72837" lon="1.38584">
        <ele>205</ele>
        <time>2019-02-03T13:13:28.000Z</time>
      </trkpt>
      <trkpt lat="44.72861" lon="1.38594">
        <ele>205</ele>
        <time>2019-02-03T13:14:28.000Z</time>
      </trkpt>
      <trkpt lat="44.72887" lon="1.38609">
        <ele>205</ele>
        <time>2019-02-03T13:15:28.000Z</time>
      </trkpt>
      <trkpt lat="44.72909" lon="1.38627">
        <ele>206</ele>
        <time>2019-02-03T13:16:28.000Z</time>
      </trkpt>
      <trkpt lat="44.7293" lon="1.38634">
        <ele>205</ele>
        <time>2019-02-03T13:17:28.000Z</time>
      </trkpt>
      <trkpt lat="44.72958" lon="1.38653">
        <ele>203</ele>
        <time>2019-02-03T13:18:28.000Z</time>
      </trkpt>
      <trkpt lat="44.72993" lon="1.38666">
        <ele>198</ele>
        <time>2019-02-03T13:19:28.000Z</time>
      </trkpt>
      <trkpt lat="44.73035" lon="1.38673">
        <ele>196</ele>
        <time>2019-02-03T13:20:28.000Z</time>
      </trkpt>
      <trkpt lat="44.73072" lon="1.38658">
        <ele>192</ele>
        <time>2019-02-03T13:21:28.000Z</time>
      </trkpt>
      <trkpt lat="44.73102" lon="1.38635">
        <ele>190</ele>
        <time>2019-02-03T13:22:28.000Z</time>
      </trkpt>
      <trkpt lat="44.73127" lon="1.38603">
        <ele>190</ele>
        <time>2019-02-03T13:23:28.000Z</time>
      </trkpt>
      <trkpt lat="44.73175" lon="1.3854">
        <ele>192</ele>
        <time>2019-02-03T13:24:28.000Z</time>
      </trkpt>
      <trkpt lat="44.73194" lon="1.3851">
        <ele>196</ele>
        <time>2019-02-03T13:25:28.000Z</time>
      </trkpt>
      <trkpt lat="44.73198" lon="1.38496">
        <ele>197</ele>
        <time>2019-02-03T13:26:28.000Z</time>
      </trkpt>
      <trkpt lat="44.73195" lon="1.3848">
        <ele>197</ele>
        <time>2019-02-03T13:27:28.000Z</time>
      </trkpt>
      <trkpt lat="44.73188" lon="1.38468">
        <ele>197</ele>
        <time>2019-02-03T13:28:28.000Z</time>
      </trkpt>
      <trkpt lat="44.73182" lon="1.38456">
        <ele>197</ele>
        <time>2019-02-03T13:29:28.000Z</time>
      </trkpt>
      <trkpt lat="44.73176" lon="1.38444">
        <ele>198</ele>
        <time>2019-02-03T13:30:28.000Z</time>
      </trkpt>
      <trkpt lat="44.73173" lon="1.38431">
        <ele>198</ele>
        <time>2019-02-03T13:31:28.000Z</time>
      </trkpt>
      <trkpt lat="44.73173" lon="1.38417">
        <ele>200</ele>
        <time>2019-02-03T13:32:28.000Z</time>
      </trkpt>
      <trkpt lat="44.7318" lon="1.38407">
        <ele>201</ele>
        <time>2019-02-03T13:33:28.000Z</time>
      </trkpt>
      <trkpt lat="44.73189" lon="1.38406">
        <ele>202</ele>
        <time>2019-02-03T13:34:28.000Z</time>
      </trkpt>
      <trkpt lat="44.73198" lon="1.38412">
        <ele>202</ele>
        <time>2019-02-03T13:35:28.000Z</time>
      </trkpt>
      <trkpt lat="44.73206" lon="1.3842">
        <ele>202</ele>
        <time>2019-02-03T13:36:28.000Z</time>
      </trkpt>
      <trkpt lat="44.73215" lon="1.38423">
        <ele>203</ele>
        <time>2019-02-03T13:37:28.000Z</time>
      </trkpt>
      <trkpt lat="44.73225" lon="1.38422">
        <ele>204</ele>
        <time>2019-02-03T13:38:28.000Z</time>
      </trkpt>
      <trkpt lat="44.73234" lon="1.38417">
        <ele>205</ele>
        <time>2019-02-03T13:39:28.000Z</time>
      </trkpt>
      <trkpt lat="44.73241" lon="1.38408">
        <ele>206</ele>
        <time>2019-02-03T13:40:28.000Z</time>
      </trkpt>
      <trkpt lat="44.73256" lon="1.38387">
        <ele>208</ele>
        <time>2019-02-03T13:41:28.000Z</time>
      </trkpt>
      <trkpt lat="44.73262" lon="1.38374">
        <ele>209</ele>
        <time>2019-02-03T13:42:28.000Z</time>
      </trkpt>
      <trkpt lat="44.73266" lon="1.38348">
        <ele>211</ele>
        <time>2019-02-03T13:43:28.000Z</time>
      </trkpt>
      <trkpt lat="44.73274" lon="1.3832">
        <ele>212</ele>
        <time>2019-02-03T13:44:28.000Z</time>
      </trkpt>
      <trkpt lat="44.73277" lon="1.38307">
        <ele>214</ele>
        <time>2019-02-03T13:45:28.000Z</time>
      </trkpt>
      <trkpt lat="44.73281" lon="1.38296">
        <ele>215</ele>
        <time>2019-02-03T13:46:28.000Z</time>
      </trkpt>
      <trkpt lat="44.73288" lon="1.38283">
        <ele>216</ele>
        <time>2019-02-03T13:47:28.000Z</time>
      </trkpt>
      <trkpt lat="44.73307" lon="1.38262">
        <ele>217</ele>
        <time>2019-02-03T13:48:28.000Z</time>
      </trkpt>
      <trkpt lat="44.7331" lon="1.38246">
        <ele>218</ele>
        <time>2019-02-03T13:49:28.000Z</time>
      </trkpt>
      <trkpt lat="44.7331" lon="1.38233">
        <ele>219</ele>
        <time>2019-02-03T13:50:28.000Z</time>
      </trkpt>
      <trkpt lat="44.73312" lon="1.38217">
        <ele>220</ele>
        <time>2019-02-03T13:51:28.000Z</time>
      </trkpt>
      <trkpt lat="44.73312" lon="1.38201">
        <ele>222</ele>
        <time>2019-02-03T13:52:28.000Z</time>
      </trkpt>
      <trkpt lat="44.73314" lon="1.38186">
        <ele>223</ele>
        <time>2019-02-03T13:53:28.000Z</time>
      </trkpt>
      <trkpt lat="44.73316" lon="1.38173">
        <ele>224</ele>
        <time>2019-02-03T13:54:28.000Z</time>
      </trkpt>
      <trkpt lat="44.7332" lon="1.38161">
        <ele>224</ele>
        <time>2019-02-03T13:55:28.000Z</time>
      </trkpt>
      <trkpt lat="44.73328" lon="1.38152">
        <ele>224</ele>
        <time>2019-02-03T13:56:28.000Z</time>
      </trkpt>
      <trkpt lat="44.73335" lon="1.38141">
        <ele>225</ele>
        <time>2019-02-03T13:57:28.000Z</time>
      </trkpt>
      <trkpt lat="44.73339" lon="1.3813">
        <ele>226</ele>
        <time>2019-02-03T13:58:28.000Z</time>
      </trkpt>
      <trkpt lat="44.73343" lon="1.38119">
        <ele>227</ele>
        <time>2019-02-03T13:59:28.000Z</time>
      </trkpt>
      <trkpt lat="44.73351" lon="1.38108">
        <ele>228</ele>
        <time>2019-02-03T14:00:28.000Z</time>
      </trkpt>
      <trkpt lat="44.73357" lon="1.38097">
        <ele>229</ele>
        <time>2019-02-03T14:01:28.000Z</time>
      </trkpt>
      <trkpt lat="44.73361" lon="1.38086">
        <ele>230</ele>
        <time>2019-02-03T14:02:28.000Z</time>
      </trkpt>
      <trkpt lat="44.73366" lon="1.38076">
        <ele>231</ele>
        <time>2019-02-03T14:03:28.000Z</time>
      </trkpt>
      <trkpt lat="44.73372" lon="1.38066">
        <ele>231</ele>
        <time>2019-02-03T14:04:28.000Z</time>
      </trkpt>
      <trkpt lat="44.7339" lon="1.38034">
        <ele>234</ele>
        <time>2019-02-03T14:05:28.000Z</time>
      </trkpt>
      <trkpt lat="44.73397" lon="1.38024">
        <ele>234</ele>
        <time>2019-02-03T14:06:28.000Z</time>
      </trkpt>
      <trkpt lat="44.73406" lon="1.38024">
        <ele>235</ele>
        <time>2019-02-03T14:07:28.000Z</time>
      </trkpt>
      <trkpt lat="44.73417" lon="1.3803">
        <ele>235</ele>
        <time>2019-02-03T14:08:28.000Z</time>
      </trkpt>
      <trkpt lat="44.73425" lon="1.3802">
        <ele>235</ele>
        <time>2019-02-03T14:09:28.000Z</time>
      </trkpt>
      <trkpt lat="44.73433" lon="1.38012">
        <ele>236</ele>
        <time>2019-02-03T14:10:28.000Z</time>
      </trkpt>
      <trkpt lat="44.73449" lon="1.37994">
        <ele>238</ele>
        <time>2019-02-03T14:11:28.000Z</time>
      </trkpt>
      <trkpt lat="44.73458" lon="1.37987">
        <ele>238</ele>
        <time>2019-02-03T14:12:28.000Z</time>
      </trkpt>
      <trkpt lat="44.73467" lon="1.37984">
        <ele>239</ele>
        <time>2019-02-03T14:13:28.000Z</time>
      </trkpt>
      <trkpt lat="44.73476" lon="1.37978">
        <ele>239</ele>
        <time>2019-02-03T14:14:28.000Z</time>
      </trkpt>
      <trkpt lat="44.73485" lon="1.37971">
        <ele>240</ele>
        <time>2019-02-03T14:15:28.000Z</time>
      </trkpt>
      <trkpt lat="44.73495" lon="1.3796">
        <ele>241</ele>
        <time>2019-02-03T14:16:28.000Z</time>
      </trkpt>
      <trkpt lat="44.73514" lon="1.37934">
        <ele>242</ele>
        <time>2019-02-03T14:17:28.000Z</time>
      </trkpt>
      <trkpt lat="44.73519" lon="1.37947">
        <ele>242</ele>
        <time>2019-02-03T14:18:28.000Z</time>
      </trkpt>
      <trkpt lat="44.73524" lon="1.37935">
        <ele>242</ele>
        <time>2019-02-03T14:19:28.000Z</time>
      </trkpt>
      <trkpt lat="44.73564" lon="1.37996">
        <ele>244</ele>
        <time>2019-02-03T14:20:28.000Z</time>
      </trkpt>
      <trkpt lat="44.73561" lon="1.38094">
        <ele>247</ele>
        <time>2019-02-03T14:21:28.000Z</time>
      </trkpt>
      <trkpt lat="44.7356" lon="1.38113">
        <ele>246</ele>
        <time>2019-02-03T14:22:28.000Z</time>
      </trkpt>
      <trkpt lat="44.73572" lon="1.38096">
        <ele>249</ele>
        <time>2019-02-03T14:23:28.000Z</time>
      </trkpt>
      <trkpt lat="44.73565" lon="1.38079">
        <ele>248</ele>
        <time>2019-02-03T14:24:28.000Z</time>
      </trkpt>
      <trkpt lat="44.73558" lon="1.38091">
        <ele>247</ele>
        <time>2019-02-03T14:25:28.000Z</time>
      </trkpt>
      <trkpt lat="44.73567" lon="1.38088">
        <ele>248</ele>
        <time>2019-02-03T14:26:28.000Z</time>
      </trkpt>
      <trkpt lat="44.7358" lon="1.38092">
        <ele>250</ele>
        <time>2019-02-03T14:27:28.000Z</time>
      </trkpt>
      <trkpt lat="44.7359" lon="1.3808">
        <ele>251</ele>
        <time>2019-02-03T14:28:28.000Z</time>
      </trkpt>
      <trkpt lat="44.73582" lon="1.38087">
        <ele>251</ele>
        <time>2019-02-03T14:29:28.000Z</time>
      </trkpt>
      <trkpt lat="44.73574" lon="1.38076">
        <ele>249</ele>
        <time>2019-02-03T14:30:28.000Z</time>
      </trkpt>
      <trkpt lat="44.73595" lon="1.38063">
        <ele>250</ele>
        <time>2019-02-03T14:31:28.000Z</time>
      </trkpt>
      <trkpt lat="44.73647" lon="1.38041">
        <ele>250</ele>
        <time>2019-02-03T14:32:28.000Z</time>
      </trkpt>
      <trkpt lat="44.73691" lon="1.38">
        <ele>245</ele>
        <time>2019-02-03T14:33:28.000Z</time>
      </trkpt>
      <trkpt lat="44.73782" lon="1.3796">
        <ele>237</ele>
        <time>2019-02-03T14:34:28.000Z</time>
      </trkpt>
      <trkpt lat="44.73904" lon="1.37933">
        <ele>228</ele>
        <time>2019-02-03T14:35:28.000Z</time>
      </trkpt>
      <trkpt lat="44.73974" lon="1.37971">
        <ele>223</ele>
        <time>2019-02-03T14:36:28.000Z</time>
      </trkpt>
      <trkpt lat="44.74062" lon="1.38">
        <ele>217</ele>
        <time>2019-02-03T14:37:28.000Z</time>
      </trkpt>
      <trkpt lat="44.74166" lon="1.3796">
        <ele>209</ele>
        <time>2019-02-03T14:38:28.000Z</time>
      </trkpt>
      <trkpt lat="44.74202" lon="1.37957">
        <ele>207</ele>
        <time>2019-02-03T14:39:28.000Z</time>
      </trkpt>
      <trkpt lat="44.74197" lon="1.37944">
        <ele>209</ele>
        <time>2019-02-03T14:40:28.000Z</time>
      </trkpt>
      <trkpt lat="44.74206" lon="1.37933">
        <ele>210</ele>
        <time>2019-02-03T14:41:28.000Z</time>
      </trkpt>
      <trkpt lat="44.74233" lon="1.3792">
        <ele>210</ele>
        <time>2019-02-03T14:42:28.000Z</time>
      </trkpt>
      <trkpt lat="44.74253" lon="1.37908">
        <ele>210</ele>
        <time>2019-02-03T14:43:28.000Z</time>
      </trkpt>
      <trkpt lat="44.74272" lon="1.37897">
        <ele>209</ele>
        <time>2019-02-03T14:44:28.000Z</time>
      </trkpt>
      <trkpt lat="44.74299" lon="1.37888">
        <ele>209</ele>
        <time>2019-02-03T14:45:28.000Z</time>
      </trkpt>
      <trkpt lat="44.74334" lon="1.37889">
        <ele>207</ele>
        <time>2019-02-03T14:46:28.000Z</time>
      </trkpt>
      <trkpt lat="44.74367" lon="1.37881">
        <ele>206</ele>
        <time>2019-02-03T14:47:28.000Z</time>
      </trkpt>
      <trkpt lat="44.74404" lon="1.37853">
        <ele>207</ele>
        <time>2019-02-03T14:48:28.000Z</time>
      </trkpt>
      <trkpt lat="44.74435" lon="1.37816">
        <ele>207</ele>
        <time>2019-02-03T14:49:28.000Z</time>
      </trkpt>
      <trkpt lat="44.74466" lon="1.37791">
        <ele>205</ele>
        <time>2019-02-03T14:50:28.000Z</time>
      </trkpt>
      <trkpt lat="44.74493" lon="1.37767">
        <ele>205</ele>
        <time>2019-02-03T14:51:28.000Z</time>
      </trkpt>
      <trkpt lat="44.74519" lon="1.37755">
        <ele>205</ele>
        <time>2019-02-03T14:52:28.000Z</time>
      </trkpt>
      <trkpt lat="44.74541" lon="1.37743">
        <ele>205</ele>
        <time>2019-02-03T14:53:28.000Z</time>
      </trkpt>
      <trkpt lat="44.74569" lon="1.37727">
        <ele>204</ele>
        <time>2019-02-03T14:54:28.000Z</time>
      </trkpt>
      <trkpt lat="44.74601" lon="1.37709">
        <ele>203</ele>
        <time>2019-02-03T14:55:28.000Z</time>
      </trkpt>
      <trkpt lat="44.74627" lon="1.37695">
        <ele>202</ele>
        <time>2019-02-03T14:56:28.000Z</time>
      </trkpt>
      <trkpt lat="44.74659" lon="1.3768">
        <ele>201</ele>
        <time>2019-02-03T14:57:28.000Z</time>
      </trkpt>
      <trkpt lat="44.74687" lon="1.37663">
        <ele>200</ele>
        <time>2019-02-03T14:58:28.000Z</time>
      </trkpt>
      <trkpt lat="44.74718" lon="1.37646">
        <ele>198</ele>
        <time>2019-02-03T14:59:28.000Z</time>
      </trkpt>
      <trkpt lat="44.74744" lon="1.37629">
        <ele>197</ele>
        <time>2019-02-03T15:00:28.000Z</time>
      </trkpt>
      <trkpt lat="44.74788" lon="1.37621">
        <ele>194</ele>
        <time>2019-02-03T15:01:28.000Z</time>
      </trkpt>
      <trkpt lat="44.74822" lon="1.37612">
        <ele>192</ele>
        <time>2019-02-03T15:02:28.000Z</time>
      </trkpt>
      <trkpt lat="44.74855" lon="1.37589">
        <ele>189</ele>
        <time>2019-02-03T15:03:28.000Z</time>
      </trkpt>
      <trkpt lat="44.74899" lon="1.37557">
        <ele>187</ele>
        <time>2019-02-03T15:04:28.000Z</time>
      </trkpt>
      <trkpt lat="44.74916" lon="1.3754">
        <ele>187</ele>
        <time>2019-02-03T15:05:28.000Z</time>
      </trkpt>
      <trkpt lat="44.74924" lon="1.37538">
        <ele>186</ele>
        <time>2019-02-03T15:06:28.000Z</time>
      </trkpt>
      <trkpt lat="44.74933" lon="1.3753">
        <ele>186</ele>
        <time>2019-02-03T15:07:28.000Z</time>
      </trkpt>
      <trkpt lat="44.74931" lon="1.37535">
        <ele>186</ele>
        <time>2019-02-03T15:08:28.000Z</time>
      </trkpt>
      <trkpt lat="44.74938" lon="1.37533">
        <ele>186</ele>
        <time>2019-02-01T20:33:00.000Z</time>
      </trkpt>
      <trkpt lat="44.74952" lon="1.37501">
        <ele>186</ele>
        <time>2019-02-01T20:34:00.000Z</time>
      </trkpt>
      <trkpt lat="44.74985" lon="1.37433">
        <ele>182</ele>
        <time>2019-02-01T20:35:00.000Z</time>
      </trkpt>
      <trkpt lat="44.75024" lon="1.37424">
        <ele>178</ele>
        <time>2019-02-01T20:36:00.000Z</time>
      </trkpt>
      <trkpt lat="44.75049" lon="1.37398">
        <ele>172</ele>
        <time>2019-02-01T20:37:00.000Z</time>
      </trkpt>
      <trkpt lat="44.75037" lon="1.37417">
        <ele>175</ele>
        <time>2019-02-01T20:38:00.000Z</time>
      </trkpt>
    </trkseg>
  </trk>
</gpx>